<?xml version='1.0' encoding='UTF-8'?><gpx version="1.1" creator="JPX - https://github.com/jenetics/jpx" xmlns="http://www.topografix.com/GPX/1/1"><trk><trkseg><trkpt lat="43.31651598793203" lon="5.658761160226242"><ele>736.0</ele><time>2026-04-25T13:50:41.999Z</time></trkpt><trkpt lat="43.31646546164934" lon="5.658824642788396"><ele>736.0</ele><time>2026-04-25T13:51:21.999Z</time></trkpt><trkpt lat="43.316655082807976" lon="5.658785097308304"><ele>736.0</ele><time>2026-04-25T14:07:25.994Z</time></trkpt><trkpt lat="43.31675286909946" lon="5.658730796823586"><ele>736.0</ele><time>2026-04-25T14:07:27.994Z</time></trkpt><trkpt lat="43.316880303709944" lon="5.658692125049187"><ele>736.0</ele><time>2026-04-25T14:07:29.994Z</time></trkpt><trkpt lat="43.316956015028794" lon="5.6586674702448105"><ele>736.0</ele><time>2026-04-25T14:07:30.994Z</time></trkpt><trkpt lat="43.31703626986967" lon="5.658646965797553"><ele>736.0</ele><time>2026-04-25T14:07:31.994Z</time></trkpt><trkpt lat="43.31713582913753" lon="5.658646995704684"><ele>736.0</ele><time>2026-04-25T14:07:32.994Z</time></trkpt><trkpt lat="43.31724128502985" lon="5.658634930015641"><ele>736.0</ele><time>2026-04-25T14:07:33.994Z</time></trkpt><trkpt lat="43.317357782284866" lon="5.658618751779418"><ele>737.5</ele><time>2026-04-25T14:07:34.994Z</time></trkpt><trkpt lat="43.31747880605388" lon="5.658617238461661"><ele>739.0</ele><time>2026-04-25T14:07:35.994Z</time></trkpt><trkpt lat="43.317618896047385" lon="5.658616518492607"><ele>740.5</ele><time>2026-04-25T14:07:36.994Z</time></trkpt><trkpt lat="43.31775554606033" lon="5.6586324083233315"><ele>742.0</ele><time>2026-04-25T14:07:37.994Z</time></trkpt><trkpt lat="43.317903631997105" lon="5.658659296436518"><ele>742.0</ele><time>2026-04-25T14:07:38.994Z</time></trkpt><trkpt lat="43.31806048496552" lon="5.658684184486251"><ele>742.0</ele><time>2026-04-25T14:07:39.994Z</time></trkpt><trkpt lat="43.31820299900268" lon="5.658706524823652"><ele>742.0</ele><time>2026-04-25T14:07:40.994Z</time></trkpt><trkpt lat="43.318339183878486" lon="5.658733292307643"><ele>742.0</ele><time>2026-04-25T14:07:41.994Z</time></trkpt><trkpt lat="43.318449934706486" lon="5.65875477177004"><ele>739.4000000000001</ele><time>2026-04-25T14:07:42.994Z</time></trkpt><trkpt lat="43.3185190280501" lon="5.658804612383854"><ele>736.8000000000001</ele><time>2026-04-25T14:07:43.994Z</time></trkpt><trkpt lat="43.318589633483484" lon="5.658922019206417"><ele>734.2</ele><time>2026-04-25T14:07:45.994Z</time></trkpt><trkpt lat="43.31856192379009" lon="5.659013068415546"><ele>731.6</ele><time>2026-04-25T14:07:46.994Z</time></trkpt><trkpt lat="43.3185240971852" lon="5.659142423994261"><ele>729.0</ele><time>2026-04-25T14:07:47.994Z</time></trkpt><trkpt lat="43.31840900930742" lon="5.659247545127154"><ele>729.0</ele><time>2026-04-25T14:07:48.994Z</time></trkpt><trkpt lat="43.31832601612622" lon="5.659406517919355"><ele>729.0</ele><time>2026-04-25T14:07:49.994Z</time></trkpt><trkpt lat="43.31823425387655" lon="5.65957133769764"><ele>729.0</ele><time>2026-04-25T14:07:50.994Z</time></trkpt><trkpt lat="43.318218635778386" lon="5.6597472856446736"><ele>729.0</ele><time>2026-04-25T14:07:51.994Z</time></trkpt><trkpt lat="43.31818032776886" lon="5.659897702206146"><ele>727.8000000000001</ele><time>2026-04-25T14:07:52.994Z</time></trkpt><trkpt lat="43.31814397434878" lon="5.6600173492657895"><ele>726.6</ele><time>2026-04-25T14:07:53.994Z</time></trkpt><trkpt lat="43.31812832755497" lon="5.660150788678818"><ele>725.4</ele><time>2026-04-25T14:07:54.994Z</time></trkpt><trkpt lat="43.31823500931577" lon="5.660240547106092"><ele>724.2</ele><time>2026-04-25T14:07:55.994Z</time></trkpt><trkpt lat="43.318251437804555" lon="5.660342922098671"><ele>723.0</ele><time>2026-04-25T14:07:56.994Z</time></trkpt><trkpt lat="43.31828185796479" lon="5.660453515102077"><ele>720.25</ele><time>2026-04-25T14:07:57.994Z</time></trkpt><trkpt lat="43.31830760809427" lon="5.6605471300754004"><ele>717.5</ele><time>2026-04-25T14:07:58.994Z</time></trkpt><trkpt lat="43.31822030860044" lon="5.660596231085438"><ele>714.75</ele><time>2026-04-25T14:07:59.994Z</time></trkpt><trkpt lat="43.318144933709014" lon="5.660862897620129"><ele>712.0</ele><time>2026-04-25T14:08:00.994Z</time></trkpt><trkpt lat="43.31809917112596" lon="5.661058462420033"><ele>721.5</ele><time>2026-04-25T14:08:01.994Z</time></trkpt><trkpt lat="43.31805352378074" lon="5.66125353475395"><ele>731.0</ele><time>2026-04-25T14:08:02.994Z</time></trkpt><trkpt lat="43.31800912714049" lon="5.6614143528862755"><ele>740.5</ele><time>2026-04-25T14:08:03.994Z</time></trkpt><trkpt lat="43.31796966282773" lon="5.661547684108056"><ele>750.0</ele><time>2026-04-25T14:08:04.994Z</time></trkpt><trkpt lat="43.3179646048882" lon="5.661675564963048"><ele>750.0</ele><time>2026-04-25T14:08:05.994Z</time></trkpt><trkpt lat="43.31797962032949" lon="5.661833010882559"><ele>750.0</ele><time>2026-04-25T14:08:06.994Z</time></trkpt><trkpt lat="43.317980233083915" lon="5.661978140873735"><ele>750.0</ele><time>2026-04-25T14:08:07.994Z</time></trkpt><trkpt lat="43.31800977779486" lon="5.662141121392124"><ele>750.0</ele><time>2026-04-25T14:08:08.994Z</time></trkpt><trkpt lat="43.31805476368329" lon="5.662279564209626"><ele>741.25</ele><time>2026-04-25T14:08:09.994Z</time></trkpt><trkpt lat="43.31810526542692" lon="5.662412970924088"><ele>732.5</ele><time>2026-04-25T14:08:10.994Z</time></trkpt><trkpt lat="43.31816350208596" lon="5.6625329035743315"><ele>723.75</ele><time>2026-04-25T14:08:11.994Z</time></trkpt><trkpt lat="43.31825634941194" lon="5.662625780234177"><ele>715.0</ele><time>2026-04-25T14:08:12.994Z</time></trkpt><trkpt lat="43.318429446952344" lon="5.662564626524408"><ele>715.0</ele><time>2026-04-25T14:08:13.994Z</time></trkpt><trkpt lat="43.31854602444975" lon="5.66253700911772"><ele>715.0</ele><time>2026-04-25T14:08:14.994Z</time></trkpt><trkpt lat="43.31863587973722" lon="5.662516805617814"><ele>715.0</ele><time>2026-04-25T14:08:15.994Z</time></trkpt><trkpt lat="43.3187549355092" lon="5.662596810978441"><ele>715.0</ele><time>2026-04-25T14:08:17.994Z</time></trkpt><trkpt lat="43.31883611688418" lon="5.662752372354534"><ele>711.25</ele><time>2026-04-25T14:08:18.994Z</time></trkpt><trkpt lat="43.318895684843795" lon="5.662925896845394"><ele>707.5</ele><time>2026-04-25T14:08:19.994Z</time></trkpt><trkpt lat="43.31893834806187" lon="5.663095163013909"><ele>703.75</ele><time>2026-04-25T14:08:20.994Z</time></trkpt><trkpt lat="43.31894619460004" lon="5.663275198709197"><ele>700.0</ele><time>2026-04-25T14:08:21.994Z</time></trkpt><trkpt lat="43.31895929387727" lon="5.663440030347806"><ele>700.0</ele><time>2026-04-25T14:08:22.994Z</time></trkpt><trkpt lat="43.31898484954875" lon="5.663586932854195"><ele>700.0</ele><time>2026-04-25T14:08:23.994Z</time></trkpt><trkpt lat="43.319017389835835" lon="5.663691482417936"><ele>700.0</ele><time>2026-04-25T14:08:24.994Z</time></trkpt><trkpt lat="43.31913040041365" lon="5.6637412940827305"><ele>700.0</ele><time>2026-04-25T14:08:25.994Z</time></trkpt><trkpt lat="43.319219922778714" lon="5.66373219345818"><ele>700.0</ele><time>2026-04-25T14:08:26.994Z</time></trkpt><trkpt lat="43.31931329539448" lon="5.6637996599338525"><ele>705.5</ele><time>2026-04-25T14:08:28.994Z</time></trkpt><trkpt lat="43.31933800785103" lon="5.663890905995633"><ele>711.0</ele><time>2026-04-25T14:08:29.994Z</time></trkpt><trkpt lat="43.31933387545864" lon="5.664036415616716"><ele>716.5</ele><time>2026-04-25T14:08:30.994Z</time></trkpt><trkpt lat="43.31939916014007" lon="5.6642059766706865"><ele>722.0</ele><time>2026-04-25T14:08:31.994Z</time></trkpt><trkpt lat="43.31952229460665" lon="5.664317778901769"><ele>722.0</ele><time>2026-04-25T14:08:32.994Z</time></trkpt><trkpt lat="43.319609282962" lon="5.664418240036343"><ele>722.0</ele><time>2026-04-25T14:08:33.994Z</time></trkpt><trkpt lat="43.31969849419729" lon="5.664534910636668"><ele>722.0</ele><time>2026-04-25T14:08:34.994Z</time></trkpt><trkpt lat="43.31978143785266" lon="5.664663972549677"><ele>722.0</ele><time>2026-04-25T14:08:35.994Z</time></trkpt><trkpt lat="43.31988636397485" lon="5.664793194301125"><ele>721.75</ele><time>2026-04-25T14:08:36.994Z</time></trkpt><trkpt lat="43.319964252704494" lon="5.664951750226446"><ele>721.5</ele><time>2026-04-25T14:08:37.994Z</time></trkpt><trkpt lat="43.32006415229827" lon="5.66510549313997"><ele>721.25</ele><time>2026-04-25T14:08:38.994Z</time></trkpt><trkpt lat="43.32016002978561" lon="5.665247601201751"><ele>721.0</ele><time>2026-04-25T14:08:39.994Z</time></trkpt><trkpt lat="43.32025268613923" lon="5.665379423878145"><ele>721.0</ele><time>2026-04-25T14:08:40.994Z</time></trkpt><trkpt lat="43.32033724768314" lon="5.665499790610335"><ele>721.0</ele><time>2026-04-25T14:08:41.994Z</time></trkpt><trkpt lat="43.32040086143701" lon="5.665616154478886"><ele>721.0</ele><time>2026-04-25T14:08:42.994Z</time></trkpt><trkpt lat="43.320433636214744" lon="5.665762239574587"><ele>721.0</ele><time>2026-04-25T14:08:43.994Z</time></trkpt><trkpt lat="43.32042169039288" lon="5.665922355509502"><ele>721.0</ele><time>2026-04-25T14:08:44.994Z</time></trkpt><trkpt lat="43.320460658797515" lon="5.666051420681321"><ele>721.0</ele><time>2026-04-25T14:08:45.994Z</time></trkpt><trkpt lat="43.32051300367439" lon="5.66614837402126"><ele>721.0</ele><time>2026-04-25T14:08:46.994Z</time></trkpt><trkpt lat="43.32059527192353" lon="5.666205092209025"><ele>721.0</ele><time>2026-04-25T14:08:47.994Z</time></trkpt><trkpt lat="43.320749469749515" lon="5.666159510508851"><ele>721.0</ele><time>2026-04-25T14:08:48.994Z</time></trkpt><trkpt lat="43.32088901757781" lon="5.666226046834902"><ele>719.5</ele><time>2026-04-25T14:08:49.994Z</time></trkpt><trkpt lat="43.32101513479152" lon="5.6662900630180895"><ele>718.0</ele><time>2026-04-25T14:08:50.994Z</time></trkpt><trkpt lat="43.321098409108174" lon="5.666417996836699"><ele>716.5</ele><time>2026-04-25T14:08:51.994Z</time></trkpt><trkpt lat="43.32119635901519" lon="5.66649455704205"><ele>715.0</ele><time>2026-04-25T14:08:52.994Z</time></trkpt><trkpt lat="43.3212927369217" lon="5.666532733981948"><ele>711.75</ele><time>2026-04-25T14:08:53.994Z</time></trkpt><trkpt lat="43.321419060625" lon="5.666491265446009"><ele>708.5</ele><time>2026-04-25T14:08:54.994Z</time></trkpt><trkpt lat="43.32155624022698" lon="5.666468200546411"><ele>705.25</ele><time>2026-04-25T14:08:55.994Z</time></trkpt><trkpt lat="43.32170231073952" lon="5.6664426657454205"><ele>702.0</ele><time>2026-04-25T14:08:56.994Z</time></trkpt><trkpt lat="43.321847348873476" lon="5.666384596913623"><ele>702.0</ele><time>2026-04-25T14:08:57.994Z</time></trkpt><trkpt lat="43.321983329904626" lon="5.666353525637575"><ele>702.0</ele><time>2026-04-25T14:08:58.994Z</time></trkpt><trkpt lat="43.322107567500304" lon="5.666348330196786"><ele>702.0</ele><time>2026-04-25T14:08:59.994Z</time></trkpt><trkpt lat="43.322220023544254" lon="5.666386843525812"><ele>702.0</ele><time>2026-04-25T14:09:00.994Z</time></trkpt><trkpt lat="43.32230347131023" lon="5.6665005095016046"><ele>698.75</ele><time>2026-04-25T14:09:01.994Z</time></trkpt><trkpt lat="43.322415008723745" lon="5.66662720885452"><ele>695.5</ele><time>2026-04-25T14:09:02.994Z</time></trkpt><trkpt lat="43.32253510902231" lon="5.666667847135401"><ele>692.25</ele><time>2026-04-25T14:09:03.994Z</time></trkpt><trkpt lat="43.322657509078454" lon="5.666681877867652"><ele>689.0</ele><time>2026-04-25T14:09:04.994Z</time></trkpt><trkpt lat="43.32280274571674" lon="5.666610731347715"><ele>689.0</ele><time>2026-04-25T14:09:05.994Z</time></trkpt><trkpt lat="43.322891825421856" lon="5.6664989116063795"><ele>689.0</ele><time>2026-04-25T14:09:06.994Z</time></trkpt><trkpt lat="43.32293682471525" lon="5.6663345195960435"><ele>689.0</ele><time>2026-04-25T14:09:07.994Z</time></trkpt><trkpt lat="43.323009908286735" lon="5.666243685763031"><ele>689.0</ele><time>2026-04-25T14:09:08.994Z</time></trkpt><trkpt lat="43.323067741974995" lon="5.6661811674431215"><ele>689.0</ele><time>2026-04-25T14:09:09.994Z</time></trkpt><trkpt lat="43.32320261933685" lon="5.666264547445356"><ele>689.75</ele><time>2026-04-25T14:09:11.994Z</time></trkpt><trkpt lat="43.32331375232168" lon="5.6663314181706355"><ele>690.5</ele><time>2026-04-25T14:09:12.994Z</time></trkpt><trkpt lat="43.323445811772366" lon="5.666390531108144"><ele>691.25</ele><time>2026-04-25T14:09:13.994Z</time></trkpt><trkpt lat="43.32363222559242" lon="5.666401573062485"><ele>692.0</ele><time>2026-04-25T14:09:14.994Z</time></trkpt><trkpt lat="43.32378933885803" lon="5.666379161669067"><ele>688.75</ele><time>2026-04-25T14:09:15.994Z</time></trkpt><trkpt lat="43.323915305151466" lon="5.666418478162039"><ele>685.5</ele><time>2026-04-25T14:09:16.994Z</time></trkpt><trkpt lat="43.32403308339328" lon="5.66646766901823"><ele>682.25</ele><time>2026-04-25T14:09:17.994Z</time></trkpt><trkpt lat="43.32417292888587" lon="5.666535369936823"><ele>679.0</ele><time>2026-04-25T14:09:18.994Z</time></trkpt><trkpt lat="43.32430207546972" lon="5.666604955298724"><ele>679.0</ele><time>2026-04-25T14:09:19.994Z</time></trkpt><trkpt lat="43.3244084583157" lon="5.666713922018327"><ele>679.0</ele><time>2026-04-25T14:09:20.994Z</time></trkpt><trkpt lat="43.324490240793054" lon="5.666854405486283"><ele>679.0</ele><time>2026-04-25T14:09:21.994Z</time></trkpt><trkpt lat="43.32450580995323" lon="5.66702074762345"><ele>679.0</ele><time>2026-04-25T14:09:22.994Z</time></trkpt><trkpt lat="43.324523857714546" lon="5.667194969125374"><ele>680.75</ele><time>2026-04-25T14:09:23.994Z</time></trkpt><trkpt lat="43.32447495360209" lon="5.667373322385054"><ele>682.5</ele><time>2026-04-25T14:09:24.994Z</time></trkpt><trkpt lat="43.32440938900914" lon="5.6675608141660545"><ele>684.25</ele><time>2026-04-25T14:09:25.994Z</time></trkpt><trkpt lat="43.324348947357436" lon="5.66773057208566"><ele>686.0</ele><time>2026-04-25T14:09:26.994Z</time></trkpt><trkpt lat="43.324298263223525" lon="5.667853652303724"><ele>690.5</ele><time>2026-04-25T14:09:27.994Z</time></trkpt><trkpt lat="43.32423594880433" lon="5.667954384354231"><ele>695.0</ele><time>2026-04-25T14:09:28.994Z</time></trkpt><trkpt lat="43.324108820995455" lon="5.667969113020157"><ele>699.5</ele><time>2026-04-25T14:09:29.994Z</time></trkpt><trkpt lat="43.323975777582746" lon="5.668032367154615"><ele>704.0</ele><time>2026-04-25T14:09:30.994Z</time></trkpt><trkpt lat="43.323842143319155" lon="5.668108120355778"><ele>704.0</ele><time>2026-04-25T14:09:31.994Z</time></trkpt><trkpt lat="43.32375389767968" lon="5.668219579288986"><ele>704.0</ele><time>2026-04-25T14:09:32.994Z</time></trkpt><trkpt lat="43.3237227985394" lon="5.668384081814878"><ele>704.0</ele><time>2026-04-25T14:09:33.994Z</time></trkpt><trkpt lat="43.32377981136188" lon="5.668573256109384"><ele>704.0</ele><time>2026-04-25T14:09:34.999Z</time></trkpt><trkpt lat="43.323740710954525" lon="5.668691131537838"><ele>704.75</ele><time>2026-04-25T14:09:35.999Z</time></trkpt><trkpt lat="43.32368948777673" lon="5.66881831815683"><ele>705.5</ele><time>2026-04-25T14:09:36.999Z</time></trkpt><trkpt lat="43.323662516076084" lon="5.668934890373959"><ele>706.25</ele><time>2026-04-25T14:09:37.999Z</time></trkpt><trkpt lat="43.32365986710952" lon="5.66908547508286"><ele>707.0</ele><time>2026-04-25T14:09:38.999Z</time></trkpt><trkpt lat="43.32379429473607" lon="5.669187058893013"><ele>707.0</ele><time>2026-04-25T14:09:39.999Z</time></trkpt><trkpt lat="43.323892621342665" lon="5.669252727002656"><ele>707.0</ele><time>2026-04-25T14:09:40.999Z</time></trkpt><trkpt lat="43.323933290304154" lon="5.669354658772452"><ele>707.0</ele><time>2026-04-25T14:09:41.999Z</time></trkpt><trkpt lat="43.3239478471473" lon="5.6694909663445"><ele>707.0</ele><time>2026-04-25T14:09:42.999Z</time></trkpt><trkpt lat="43.32398276862328" lon="5.669675113912833"><ele>707.0</ele><time>2026-04-25T14:09:43.999Z</time></trkpt><trkpt lat="43.324037473207085" lon="5.669867694676838"><ele>695.0</ele><time>2026-04-25T14:09:44.999Z</time></trkpt><trkpt lat="43.324101305773844" lon="5.670050145728772"><ele>683.0</ele><time>2026-04-25T14:09:45.999Z</time></trkpt><trkpt lat="43.324133301407805" lon="5.670204962128499"><ele>671.0</ele><time>2026-04-25T14:09:46.999Z</time></trkpt><trkpt lat="43.324148968151434" lon="5.670352544096975"><ele>659.0</ele><time>2026-04-25T14:09:47.999Z</time></trkpt><trkpt lat="43.32413921250784" lon="5.670473630373659"><ele>657.2</ele><time>2026-04-25T14:09:48.999Z</time></trkpt><trkpt lat="43.324080444011514" lon="5.6705910661304495"><ele>655.4000000000001</ele><time>2026-04-25T14:09:49.999Z</time></trkpt><trkpt lat="43.32400489325782" lon="5.670723257636975"><ele>653.6</ele><time>2026-04-25T14:09:50.999Z</time></trkpt><trkpt lat="43.32393477360342" lon="5.670854835466507"><ele>651.8</ele><time>2026-04-25T14:09:51.999Z</time></trkpt><trkpt lat="43.32386539454926" lon="5.670959267578842"><ele>650.0</ele><time>2026-04-25T14:09:52.999Z</time></trkpt><trkpt lat="43.32375280604354" lon="5.671027688444221"><ele>656.75</ele><time>2026-04-25T14:09:53.999Z</time></trkpt><trkpt lat="43.32363424171439" lon="5.671064457400209"><ele>663.5</ele><time>2026-04-25T14:09:54.999Z</time></trkpt><trkpt lat="43.32355974311198" lon="5.671163508780753"><ele>670.25</ele><time>2026-04-25T14:09:55.999Z</time></trkpt><trkpt lat="43.32354049205873" lon="5.671345922065314"><ele>677.0</ele><time>2026-04-25T14:09:56.999Z</time></trkpt><trkpt lat="43.32360518775642" lon="5.671480619715965"><ele>677.0</ele><time>2026-04-25T14:09:57.999Z</time></trkpt><trkpt lat="43.32369181203885" lon="5.671583479805707"><ele>677.0</ele><time>2026-04-25T14:09:58.999Z</time></trkpt><trkpt lat="43.323729411576586" lon="5.6716649625153375"><ele>677.0</ele><time>2026-04-25T14:09:59.999Z</time></trkpt><trkpt lat="43.32371429701455" lon="5.671826278381345"><ele>677.0</ele><time>2026-04-25T14:10:01.999Z</time></trkpt><trkpt lat="43.32363341906183" lon="5.671969535173487"><ele>677.0</ele><time>2026-04-25T14:10:02.999Z</time></trkpt><trkpt lat="43.32354062427562" lon="5.672108024271219"><ele>672.6666666666666</ele><time>2026-04-25T14:10:03.999Z</time></trkpt><trkpt lat="43.3234402441483" lon="5.672267058261578"><ele>668.3333333333334</ele><time>2026-04-25T14:10:04.999Z</time></trkpt><trkpt lat="43.32335137282133" lon="5.672443593794476"><ele>664.0</ele><time>2026-04-25T14:10:05.999Z</time></trkpt><trkpt lat="43.32332250063244" lon="5.672638404185456"><ele>663.25</ele><time>2026-04-25T14:10:06.999Z</time></trkpt><trkpt lat="43.32334265388974" lon="5.672810181154464"><ele>662.5</ele><time>2026-04-25T14:10:07.999Z</time></trkpt><trkpt lat="43.32341295582979" lon="5.672992171777486"><ele>661.75</ele><time>2026-04-25T14:10:08.999Z</time></trkpt><trkpt lat="43.32350193362461" lon="5.673162401583882"><ele>661.0</ele><time>2026-04-25T14:10:09.999Z</time></trkpt><trkpt lat="43.323583830087685" lon="5.673315745360319"><ele>661.0</ele><time>2026-04-25T14:10:10.999Z</time></trkpt><trkpt lat="43.3236607501883" lon="5.673447693327399"><ele>661.0</ele><time>2026-04-25T14:10:11.999Z</time></trkpt><trkpt lat="43.323774495983926" lon="5.673522268290266"><ele>661.0</ele><time>2026-04-25T14:10:12.999Z</time></trkpt><trkpt lat="43.32388094317955" lon="5.673543933380173"><ele>661.0</ele><time>2026-04-25T14:10:13.999Z</time></trkpt><trkpt lat="43.32394345992371" lon="5.673587991222453"><ele>661.0</ele><time>2026-04-25T14:10:14.999Z</time></trkpt><trkpt lat="43.323995871573864" lon="5.673669718862744"><ele>659.25</ele><time>2026-04-25T14:10:15.999Z</time></trkpt><trkpt lat="43.32402932244262" lon="5.673778725755965"><ele>657.5</ele><time>2026-04-25T14:10:16.999Z</time></trkpt><trkpt lat="43.32408499927061" lon="5.673912462742346"><ele>655.75</ele><time>2026-04-25T14:10:17.999Z</time></trkpt><trkpt lat="43.324195407497015" lon="5.674014960202833"><ele>654.0</ele><time>2026-04-25T14:10:18.999Z</time></trkpt><trkpt lat="43.32434511815891" lon="5.674050859992366"><ele>654.0</ele><time>2026-04-25T14:10:19.999Z</time></trkpt><trkpt lat="43.3245102256344" lon="5.67404343950914"><ele>654.0</ele><time>2026-04-25T14:10:20.999Z</time></trkpt><trkpt lat="43.324678100622705" lon="5.674027320769538"><ele>654.0</ele><time>2026-04-25T14:10:21.999Z</time></trkpt><trkpt lat="43.32482062535804" lon="5.674015077152349"><ele>651.6</ele><time>2026-04-25T14:10:22.999Z</time></trkpt><trkpt lat="43.32494387179218" lon="5.674011299632704"><ele>649.2</ele><time>2026-04-25T14:10:23.999Z</time></trkpt><trkpt lat="43.325026804264176" lon="5.674024468937934"><ele>646.8000000000001</ele><time>2026-04-25T14:10:24.999Z</time></trkpt><trkpt lat="43.32510094680276" lon="5.674059541560135"><ele>644.4000000000001</ele><time>2026-04-25T14:10:25.999Z</time></trkpt><trkpt lat="43.32514401650896" lon="5.674191020649868"><ele>642.0</ele><time>2026-04-25T14:10:26.999Z</time></trkpt><trkpt lat="43.32514270954571" lon="5.674348120930011"><ele>643.4000000000001</ele><time>2026-04-25T14:10:27.999Z</time></trkpt><trkpt lat="43.325114698721215" lon="5.674493705893177"><ele>644.8000000000001</ele><time>2026-04-25T14:10:28.999Z</time></trkpt><trkpt lat="43.32507048345105" lon="5.674624164183291"><ele>646.2</ele><time>2026-04-25T14:10:29.999Z</time></trkpt><trkpt lat="43.32506454051253" lon="5.674756558764893"><ele>647.6</ele><time>2026-04-25T14:10:30.999Z</time></trkpt><trkpt lat="43.325100782124586" lon="5.674876350354331"><ele>649.0</ele><time>2026-04-25T14:10:31.999Z</time></trkpt><trkpt lat="43.325202151447385" lon="5.674980369932232"><ele>649.0</ele><time>2026-04-25T14:10:32.999Z</time></trkpt><trkpt lat="43.32533573840611" lon="5.675053931190693"><ele>649.0</ele><time>2026-04-25T14:10:33.999Z</time></trkpt><trkpt lat="43.32548561342786" lon="5.675098580511284"><ele>649.0</ele><time>2026-04-25T14:10:34.999Z</time></trkpt><trkpt lat="43.325642562097535" lon="5.675108081293273"><ele>645.25</ele><time>2026-04-25T14:10:35.999Z</time></trkpt><trkpt lat="43.32578314447292" lon="5.6751121077318025"><ele>641.5</ele><time>2026-04-25T14:10:36.999Z</time></trkpt><trkpt lat="43.325914872564326" lon="5.675103897707231"><ele>637.75</ele><time>2026-04-25T14:10:37.999Z</time></trkpt><trkpt lat="43.32603411395017" lon="5.675122786258876"><ele>634.0</ele><time>2026-04-25T14:10:38.999Z</time></trkpt><trkpt lat="43.32614736498635" lon="5.675186618536834"><ele>634.0</ele><time>2026-04-25T14:10:39.999Z</time></trkpt><trkpt lat="43.326249863795255" lon="5.675291615739988"><ele>634.0</ele><time>2026-04-25T14:10:40.999Z</time></trkpt><trkpt lat="43.3263017849626" lon="5.675479670595712"><ele>634.0</ele><time>2026-04-25T14:10:41.999Z</time></trkpt><trkpt lat="43.32636403366653" lon="5.675668022037894"><ele>634.0</ele><time>2026-04-25T14:10:42.999Z</time></trkpt><trkpt lat="43.32650617514288" lon="5.675772172114385"><ele>634.0</ele><time>2026-04-25T14:10:43.999Z</time></trkpt><trkpt lat="43.32665547830493" lon="5.675829691599781"><ele>634.0</ele><time>2026-04-25T14:10:44.999Z</time></trkpt><trkpt lat="43.32681761346767" lon="5.675879563758197"><ele>634.0</ele><time>2026-04-25T14:10:45.999Z</time></trkpt><trkpt lat="43.326987260068904" lon="5.675930566493452"><ele>634.0</ele><time>2026-04-25T14:10:46.999Z</time></trkpt><trkpt lat="43.32711782067883" lon="5.675988194351692"><ele>634.0</ele><time>2026-04-25T14:10:47.999Z</time></trkpt><trkpt lat="43.3272355153922" lon="5.676041403815056"><ele>634.0</ele><time>2026-04-25T14:10:48.999Z</time></trkpt><trkpt lat="43.327336336898455" lon="5.676098165936989"><ele>634.0</ele><time>2026-04-25T14:10:49.999Z</time></trkpt><trkpt lat="43.327414862505314" lon="5.676173055980058"><ele>634.0</ele><time>2026-04-25T14:10:50.999Z</time></trkpt><trkpt lat="43.327485047317055" lon="5.676266871859874"><ele>634.0</ele><time>2026-04-25T14:10:51.999Z</time></trkpt><trkpt lat="43.32755226770453" lon="5.6764036080645885"><ele>634.0</ele><time>2026-04-25T14:10:52.999Z</time></trkpt><trkpt lat="43.32759389481425" lon="5.676557901627131"><ele>634.0</ele><time>2026-04-25T14:10:53.999Z</time></trkpt><trkpt lat="43.327558600645645" lon="5.676734973162496"><ele>634.0</ele><time>2026-04-25T14:10:54.999Z</time></trkpt><trkpt lat="43.327562195865404" lon="5.6769207886256625"><ele>634.0</ele><time>2026-04-25T14:10:55.999Z</time></trkpt><trkpt lat="43.32756534180205" lon="5.677112236936111"><ele>634.0</ele><time>2026-04-25T14:10:56.999Z</time></trkpt><trkpt lat="43.32756505271751" lon="5.677304119206069"><ele>634.0</ele><time>2026-04-25T14:10:57.999Z</time></trkpt><trkpt lat="43.32757560141455" lon="5.677473846934776"><ele>634.0</ele><time>2026-04-25T14:10:58.999Z</time></trkpt><trkpt lat="43.32759827253607" lon="5.677629815980366"><ele>634.0</ele><time>2026-04-25T14:10:59.999Z</time></trkpt><trkpt lat="43.327660395728685" lon="5.677762376210928"><ele>634.0</ele><time>2026-04-25T14:11:00.999Z</time></trkpt><trkpt lat="43.327771068286154" lon="5.677833996598694"><ele>634.0</ele><time>2026-04-25T14:11:01.999Z</time></trkpt><trkpt lat="43.327898277927574" lon="5.677847151443731"><ele>633.8</ele><time>2026-04-25T14:11:02.999Z</time></trkpt><trkpt lat="43.32799217930242" lon="5.6779215875229605"><ele>633.5999999999999</ele><time>2026-04-25T14:11:03.999Z</time></trkpt><trkpt lat="43.32806887178614" lon="5.67802072864085"><ele>633.4</ele><time>2026-04-25T14:11:04.999Z</time></trkpt><trkpt lat="43.32811620720853" lon="5.678152743913596"><ele>633.1999999999999</ele><time>2026-04-25T14:11:05.999Z</time></trkpt><trkpt lat="43.3281560932883" lon="5.678310099974975"><ele>633.0</ele><time>2026-04-25T14:11:06.999Z</time></trkpt><trkpt lat="43.32811075289803" lon="5.678438582941293"><ele>633.0</ele><time>2026-04-25T14:11:07.999Z</time></trkpt><trkpt lat="43.32804321873739" lon="5.678544393982347"><ele>633.0</ele><time>2026-04-25T14:11:08.999Z</time></trkpt><trkpt lat="43.327938296131826" lon="5.6786279304458045"><ele>633.0</ele><time>2026-04-25T14:11:09.999Z</time></trkpt><trkpt lat="43.32780756644621" lon="5.678688383683393"><ele>633.0</ele><time>2026-04-25T14:11:10.999Z</time></trkpt><trkpt lat="43.32765912507041" lon="5.6787478793074015"><ele>631.1999999999999</ele><time>2026-04-25T14:11:11.999Z</time></trkpt><trkpt lat="43.32752577970457" lon="5.678813832572813"><ele>629.4</ele><time>2026-04-25T14:11:12.999Z</time></trkpt><trkpt lat="43.327423679389895" lon="5.67887610407775"><ele>627.5999999999999</ele><time>2026-04-25T14:11:13.999Z</time></trkpt><trkpt lat="43.32737230723934" lon="5.678980140264902"><ele>625.8</ele><time>2026-04-25T14:11:14.999Z</time></trkpt><trkpt lat="43.32737069885165" lon="5.6791080140008665"><ele>624.0</ele><time>2026-04-25T14:11:15.999Z</time></trkpt><trkpt lat="43.32741002263842" lon="5.679256487143425"><ele>624.0</ele><time>2026-04-25T14:11:16.999Z</time></trkpt><trkpt lat="43.327482579948324" lon="5.679421721517438"><ele>624.0</ele><time>2026-04-25T14:11:17.999Z</time></trkpt><trkpt lat="43.3276083429579" lon="5.679539120073744"><ele>624.0</ele><time>2026-04-25T14:11:18.999Z</time></trkpt><trkpt lat="43.32774497157605" lon="5.679614317521054"><ele>624.0</ele><time>2026-04-25T14:11:19.999Z</time></trkpt><trkpt lat="43.327907545180416" lon="5.679630444014824"><ele>624.6666666666666</ele><time>2026-04-25T14:11:20.999Z</time></trkpt><trkpt lat="43.32807458895917" lon="5.67962650506966"><ele>625.3333333333333</ele><time>2026-04-25T14:11:21.999Z</time></trkpt><trkpt lat="43.328226281395736" lon="5.679656903208706"><ele>626.0</ele><time>2026-04-25T14:11:22.999Z</time></trkpt><trkpt lat="43.32837513535413" lon="5.679706313475267"><ele>626.0</ele><time>2026-04-25T14:11:23.999Z</time></trkpt><trkpt lat="43.32850936831482" lon="5.679781650023709"><ele>626.0</ele><time>2026-04-25T14:11:24.999Z</time></trkpt><trkpt lat="43.328634241470496" lon="5.679895186005998"><ele>626.0</ele><time>2026-04-25T14:11:25.999Z</time></trkpt><trkpt lat="43.32872846604138" lon="5.68003599877584"><ele>626.0</ele><time>2026-04-25T14:11:26.999Z</time></trkpt><trkpt lat="43.32882190615753" lon="5.68017277852571"><ele>625.8</ele><time>2026-04-25T14:11:27.999Z</time></trkpt><trkpt lat="43.328923064191116" lon="5.680293194035712"><ele>625.6</ele><time>2026-04-25T14:11:28.999Z</time></trkpt><trkpt lat="43.32900166245542" lon="5.680412945258053"><ele>625.4</ele><time>2026-04-25T14:11:29.999Z</time></trkpt><trkpt lat="43.329077517860036" lon="5.6805150687901325"><ele>625.2</ele><time>2026-04-25T14:11:30.999Z</time></trkpt><trkpt lat="43.3291429186446" lon="5.6805976758662995"><ele>625.0</ele><time>2026-04-25T14:11:31.999Z</time></trkpt><trkpt lat="43.32919074382405" lon="5.680672355827892"><ele>625.0</ele><time>2026-04-25T14:11:32.999Z</time></trkpt><trkpt lat="43.32925622176119" lon="5.680714633293245"><ele>625.0</ele><time>2026-04-25T14:11:33.999Z</time></trkpt><trkpt lat="43.32932592262363" lon="5.680735999994157"><ele>625.0</ele><time>2026-04-25T14:11:34.999Z</time></trkpt><trkpt lat="43.32938901708951" lon="5.680732477204688"><ele>625.0</ele><time>2026-04-25T14:11:35.999Z</time></trkpt><trkpt lat="43.32945242238295" lon="5.680720043136413"><ele>625.0</ele><time>2026-04-25T14:11:39.999Z</time></trkpt><trkpt lat="43.329531280128506" lon="5.680755327804665"><ele>625.0</ele><time>2026-04-25T14:11:54.999Z</time></trkpt><trkpt lat="43.32959572795514" lon="5.68090886488463"><ele>625.0</ele><time>2026-04-25T14:11:57.999Z</time></trkpt><trkpt lat="43.32962325337094" lon="5.680986747610968"><ele>625.0</ele><time>2026-04-25T14:11:58.999Z</time></trkpt><trkpt lat="43.329657514398946" lon="5.681087128931104"><ele>625.0</ele><time>2026-04-25T14:11:59.999Z</time></trkpt><trkpt lat="43.32968091091133" lon="5.681216732263583"><ele>625.0</ele><time>2026-04-25T14:12:00.999Z</time></trkpt><trkpt lat="43.329721554771375" lon="5.681356786200253"><ele>625.0</ele><time>2026-04-25T14:12:01.999Z</time></trkpt><trkpt lat="43.329770627489445" lon="5.681515418299917"><ele>625.25</ele><time>2026-04-25T14:12:02.999Z</time></trkpt><trkpt lat="43.329819813461064" lon="5.681674416602947"><ele>625.5</ele><time>2026-04-25T14:12:03.999Z</time></trkpt><trkpt lat="43.329878935259494" lon="5.681864584615877"><ele>625.75</ele><time>2026-04-25T14:12:04.999Z</time></trkpt><trkpt lat="43.32994514418417" lon="5.682076721842266"><ele>626.0</ele><time>2026-04-25T14:12:05.999Z</time></trkpt><trkpt lat="43.33000979534717" lon="5.682290224278527"><ele>626.0</ele><time>2026-04-25T14:12:06.999Z</time></trkpt><trkpt lat="43.3300670854764" lon="5.682505974732947"><ele>626.0</ele><time>2026-04-25T14:12:07.999Z</time></trkpt><trkpt lat="43.330085046931046" lon="5.682718135178994"><ele>626.0</ele><time>2026-04-25T14:12:08.999Z</time></trkpt><trkpt lat="43.33008242276318" lon="5.682947386650895"><ele>627.0</ele><time>2026-04-25T14:12:09.999Z</time></trkpt><trkpt lat="43.330042825539735" lon="5.683173444605133"><ele>628.0</ele><time>2026-04-25T14:12:10.999Z</time></trkpt><trkpt lat="43.33000405549036" lon="5.683410029155935"><ele>629.0</ele><time>2026-04-25T14:12:11.999Z</time></trkpt><trkpt lat="43.32996535386522" lon="5.683648835185455"><ele>630.0</ele><time>2026-04-25T14:12:12.999Z</time></trkpt><trkpt lat="43.329925443781086" lon="5.683912518278365"><ele>631.0</ele><time>2026-04-25T14:12:13.999Z</time></trkpt><trkpt lat="43.3298815996964" lon="5.684154805353763"><ele>632.0</ele><time>2026-04-25T14:12:14.999Z</time></trkpt><trkpt lat="43.32987787211642" lon="5.6843904975790105"><ele>631.0</ele><time>2026-04-25T14:12:15.999Z</time></trkpt><trkpt lat="43.32991469399016" lon="5.684626327520704"><ele>630.0</ele><time>2026-04-25T14:12:16.999Z</time></trkpt><trkpt lat="43.3299886253818" lon="5.684851326097593"><ele>629.0</ele><time>2026-04-25T14:12:17.999Z</time></trkpt><trkpt lat="43.330084965595844" lon="5.685067960761904"><ele>631.3333333333333</ele><time>2026-04-25T14:12:18.999Z</time></trkpt><trkpt lat="43.33019427236156" lon="5.68527826694673"><ele>633.6666666666666</ele><time>2026-04-25T14:12:19.999Z</time></trkpt><trkpt lat="43.33030034776794" lon="5.685478261727266"><ele>636.0</ele><time>2026-04-25T14:12:20.999Z</time></trkpt><trkpt lat="43.3303755199629" lon="5.685692293755491"><ele>636.0</ele><time>2026-04-25T14:12:21.999Z</time></trkpt><trkpt lat="43.33044330049869" lon="5.6859322843701285"><ele>636.0</ele><time>2026-04-25T14:12:22.999Z</time></trkpt><trkpt lat="43.33046978020863" lon="5.686202091121734"><ele>636.0</ele><time>2026-04-25T14:12:23.999Z</time></trkpt><trkpt lat="43.33050850002096" lon="5.686511763673502"><ele>639.5</ele><time>2026-04-25T14:12:24.999Z</time></trkpt><trkpt lat="43.33052522823175" lon="5.686840077796097"><ele>643.0</ele><time>2026-04-25T14:12:25.999Z</time></trkpt><trkpt lat="43.330544714065454" lon="5.687170119808419"><ele>640.0</ele><time>2026-04-25T14:12:26.999Z</time></trkpt><trkpt lat="43.330570360232315" lon="5.687503736106376"><ele>637.0</ele><time>2026-04-25T14:12:27.999Z</time></trkpt><trkpt lat="43.33059587368891" lon="5.687830265432676"><ele>637.0</ele><time>2026-04-25T14:12:28.999Z</time></trkpt><trkpt lat="43.33062096438463" lon="5.688137807805322"><ele>637.0</ele><time>2026-04-25T14:12:29.999Z</time></trkpt><trkpt lat="43.33064596855955" lon="5.688437846955596"><ele>637.0</ele><time>2026-04-25T14:12:30.999Z</time></trkpt><trkpt lat="43.330709074802726" lon="5.688723765319725"><ele>641.0</ele><time>2026-04-25T14:12:31.999Z</time></trkpt><trkpt lat="43.33080550248668" lon="5.689016375013893"><ele>645.0</ele><time>2026-04-25T14:12:32.999Z</time></trkpt><trkpt lat="43.3309150867703" lon="5.68930747976741"><ele>650.5</ele><time>2026-04-25T14:12:33.999Z</time></trkpt><trkpt lat="43.33102382036693" lon="5.689596209761035"><ele>656.0</ele><time>2026-04-25T14:12:34.999Z</time></trkpt><trkpt lat="43.33111870700997" lon="5.689867087448929"><ele>656.0</ele><time>2026-04-25T14:12:35.998Z</time></trkpt><trkpt lat="43.331209706606195" lon="5.690122918135852"><ele>656.0</ele><time>2026-04-25T14:12:36.998Z</time></trkpt><trkpt lat="43.331299599008915" lon="5.6903525443347265"><ele>656.0</ele><time>2026-04-25T14:12:37.998Z</time></trkpt><trkpt lat="43.331383890765174" lon="5.6905829593760755"><ele>653.6666666666666</ele><time>2026-04-25T14:12:38.998Z</time></trkpt><trkpt lat="43.33147319632048" lon="5.690799564264523"><ele>651.3333333333334</ele><time>2026-04-25T14:12:39.998Z</time></trkpt><trkpt lat="43.33157236187871" lon="5.690997923771868"><ele>649.0</ele><time>2026-04-25T14:12:40.998Z</time></trkpt><trkpt lat="43.331672509085315" lon="5.6911967847190255"><ele>647.3333333333334</ele><time>2026-04-25T14:12:41.998Z</time></trkpt><trkpt lat="43.33176773627253" lon="5.691392128477146"><ele>645.6666666666666</ele><time>2026-04-25T14:12:42.998Z</time></trkpt><trkpt lat="43.33186553641171" lon="5.691584820362233"><ele>644.0</ele><time>2026-04-25T14:12:43.998Z</time></trkpt><trkpt lat="43.33196071014242" lon="5.691772469746729"><ele>643.3333333333333</ele><time>2026-04-25T14:12:44.998Z</time></trkpt><trkpt lat="43.33207311902145" lon="5.691925107974703"><ele>642.6666666666666</ele><time>2026-04-25T14:12:45.998Z</time></trkpt><trkpt lat="43.33220040028656" lon="5.692058199932454"><ele>642.0</ele><time>2026-04-25T14:12:46.998Z</time></trkpt><trkpt lat="43.332327808669476" lon="5.692202475425154"><ele>641.0</ele><time>2026-04-25T14:12:47.998Z</time></trkpt><trkpt lat="43.33242806387414" lon="5.69237828080193"><ele>640.0</ele><time>2026-04-25T14:12:48.998Z</time></trkpt><trkpt lat="43.332506666425886" lon="5.692637059261239"><ele>639.0</ele><time>2026-04-25T14:12:49.998Z</time></trkpt><trkpt lat="43.33254060851446" lon="5.692922236900207"><ele>641.3333333333334</ele><time>2026-04-25T14:12:50.998Z</time></trkpt><trkpt lat="43.33256118892512" lon="5.693223731895419"><ele>643.6666666666667</ele><time>2026-04-25T14:12:51.998Z</time></trkpt><trkpt lat="43.332609485961775" lon="5.693510826267788"><ele>646.0</ele><time>2026-04-25T14:12:52.998Z</time></trkpt><trkpt lat="43.33265862170685" lon="5.69380252614653"><ele>648.3333333333334</ele><time>2026-04-25T14:12:53.998Z</time></trkpt><trkpt lat="43.3326945616029" lon="5.694096738993657"><ele>650.6666666666666</ele><time>2026-04-25T14:12:54.998Z</time></trkpt><trkpt lat="43.332743135552384" lon="5.694366391580923"><ele>653.0</ele><time>2026-04-25T14:12:55.998Z</time></trkpt><trkpt lat="43.33277988761463" lon="5.694626605650593"><ele>655.0</ele><time>2026-04-25T14:12:56.998Z</time></trkpt><trkpt lat="43.33281216830021" lon="5.694867754086354"><ele>657.0</ele><time>2026-04-25T14:12:57.998Z</time></trkpt><trkpt lat="43.33282205473489" lon="5.695104698561043"><ele>659.0</ele><time>2026-04-25T14:12:58.998Z</time></trkpt><trkpt lat="43.332822301710976" lon="5.69535264435315"><ele>659.0</ele><time>2026-04-25T14:12:59.998Z</time></trkpt><trkpt lat="43.332805114123815" lon="5.695597980625609"><ele>659.0</ele><time>2026-04-25T14:13:00.998Z</time></trkpt><trkpt lat="43.33277849465468" lon="5.695882542766925"><ele>659.0</ele><time>2026-04-25T14:13:01.998Z</time></trkpt><trkpt lat="43.332749843366294" lon="5.69615127004756"><ele>657.0</ele><time>2026-04-25T14:13:02.998Z</time></trkpt><trkpt lat="43.33271044198178" lon="5.696423209737419"><ele>655.0</ele><time>2026-04-25T14:13:03.998Z</time></trkpt><trkpt lat="43.332653509935504" lon="5.696682473644544"><ele>653.0</ele><time>2026-04-25T14:13:04.998Z</time></trkpt><trkpt lat="43.33257590548551" lon="5.696932912888209"><ele>651.0</ele><time>2026-04-25T14:13:05.998Z</time></trkpt><trkpt lat="43.332487768530804" lon="5.6971679156515"><ele>649.0</ele><time>2026-04-25T14:13:06.998Z</time></trkpt><trkpt lat="43.332393748101794" lon="5.697385067894599"><ele>647.0</ele><time>2026-04-25T14:13:07.998Z</time></trkpt><trkpt lat="43.33224873093628" lon="5.697584272291335"><ele>647.6666666666666</ele><time>2026-04-25T14:13:08.998Z</time></trkpt><trkpt lat="43.33208083649725" lon="5.697756373417487"><ele>648.3333333333334</ele><time>2026-04-25T14:13:09.998Z</time></trkpt><trkpt lat="43.33191044706018" lon="5.697922319379978"><ele>649.0</ele><time>2026-04-25T14:13:10.998Z</time></trkpt><trkpt lat="43.331725450475794" lon="5.697995725507143"><ele>649.0</ele><time>2026-04-25T14:13:11.998Z</time></trkpt><trkpt lat="43.33155262962908" lon="5.698091154893728"><ele>649.0</ele><time>2026-04-25T14:13:12.998Z</time></trkpt><trkpt lat="43.331371815636714" lon="5.698161762813749"><ele>649.0</ele><time>2026-04-25T14:13:13.998Z</time></trkpt><trkpt lat="43.33118708647498" lon="5.6982069946194205"><ele>651.0</ele><time>2026-04-25T14:13:14.998Z</time></trkpt><trkpt lat="43.33099884060745" lon="5.698269756508961"><ele>653.0</ele><time>2026-04-25T14:13:15.998Z</time></trkpt><trkpt lat="43.33083109451638" lon="5.698301066862668"><ele>655.0</ele><time>2026-04-25T14:13:16.998Z</time></trkpt><trkpt lat="43.330669146768415" lon="5.698345445822744"><ele>657.0</ele><time>2026-04-25T14:13:17.998Z</time></trkpt><trkpt lat="43.33051928481095" lon="5.698415620957372"><ele>659.0</ele><time>2026-04-25T14:13:18.998Z</time></trkpt><trkpt lat="43.33037864393444" lon="5.6984992993770724"><ele>661.0</ele><time>2026-04-25T14:13:19.998Z</time></trkpt><trkpt lat="43.33024581390164" lon="5.698575460074911"><ele>660.0</ele><time>2026-04-25T14:13:20.998Z</time></trkpt><trkpt lat="43.330121871675516" lon="5.6986416310941745"><ele>659.0</ele><time>2026-04-25T14:13:21.998Z</time></trkpt><trkpt lat="43.32999852233861" lon="5.698707359348831"><ele>658.0</ele><time>2026-04-25T14:13:22.998Z</time></trkpt><trkpt lat="43.329868355121626" lon="5.698749444589958"><ele>657.0</ele><time>2026-04-25T14:13:23.998Z</time></trkpt><trkpt lat="43.32972606251006" lon="5.69876610229547"><ele>657.0</ele><time>2026-04-25T14:13:24.998Z</time></trkpt><trkpt lat="43.32958235729797" lon="5.69874616741715"><ele>657.0</ele><time>2026-04-25T14:13:25.998Z</time></trkpt><trkpt lat="43.32943430729752" lon="5.698701987033301"><ele>657.0</ele><time>2026-04-25T14:13:26.998Z</time></trkpt><trkpt lat="43.32928477503708" lon="5.698638727848482"><ele>659.6666666666666</ele><time>2026-04-25T14:13:27.998Z</time></trkpt><trkpt lat="43.32912374289484" lon="5.698584001087976"><ele>662.3333333333333</ele><time>2026-04-25T14:13:28.998Z</time></trkpt><trkpt lat="43.32895499648307" lon="5.698531389994468"><ele>665.0</ele><time>2026-04-25T14:13:29.998Z</time></trkpt><trkpt lat="43.328804045175424" lon="5.698521795906898"><ele>665.25</ele><time>2026-04-25T14:13:30.998Z</time></trkpt><trkpt lat="43.32866113627076" lon="5.698552234500216"><ele>665.5</ele><time>2026-04-25T14:13:31.998Z</time></trkpt><trkpt lat="43.32853002713879" lon="5.698614982260141"><ele>665.75</ele><time>2026-04-25T14:13:32.998Z</time></trkpt><trkpt lat="43.32840032151994" lon="5.698705880585103"><ele>666.0</ele><time>2026-04-25T14:13:33.998Z</time></trkpt><trkpt lat="43.32827949969767" lon="5.698807844666681"><ele>666.3333333333334</ele><time>2026-04-25T14:13:34.998Z</time></trkpt><trkpt lat="43.328164691490855" lon="5.698948560378035"><ele>666.6666666666667</ele><time>2026-04-25T14:13:35.998Z</time></trkpt><trkpt lat="43.32806358191921" lon="5.699129026489577"><ele>667.0</ele><time>2026-04-25T14:13:36.998Z</time></trkpt><trkpt lat="43.327989653534175" lon="5.699361742299743"><ele>666.6666666666667</ele><time>2026-04-25T14:13:37.998Z</time></trkpt><trkpt lat="43.327891671588496" lon="5.699578996062801"><ele>666.3333333333334</ele><time>2026-04-25T14:13:38.998Z</time></trkpt><trkpt lat="43.32781616209522" lon="5.699798454497826"><ele>666.0</ele><time>2026-04-25T14:13:39.998Z</time></trkpt><trkpt lat="43.327727690475356" lon="5.700025270919285"><ele>666.0</ele><time>2026-04-25T14:13:40.998Z</time></trkpt><trkpt lat="43.32764208287135" lon="5.700214846640225"><ele>666.0</ele><time>2026-04-25T14:13:41.998Z</time></trkpt><trkpt lat="43.32757343749372" lon="5.700391098317388"><ele>666.0</ele><time>2026-04-25T14:13:42.998Z</time></trkpt><trkpt lat="43.32750445979494" lon="5.700567931361281"><ele>665.5</ele><time>2026-04-25T14:13:43.998Z</time></trkpt><trkpt lat="43.327440384402955" lon="5.700732094437499"><ele>665.0</ele><time>2026-04-25T14:13:44.998Z</time></trkpt><trkpt lat="43.32738140664761" lon="5.700883196930311"><ele>664.5</ele><time>2026-04-25T14:13:45.998Z</time></trkpt><trkpt lat="43.32734957148808" lon="5.701040990427944"><ele>664.0</ele><time>2026-04-25T14:13:46.998Z</time></trkpt><trkpt lat="43.3272932278828" lon="5.701175055600384"><ele>664.0</ele><time>2026-04-25T14:13:47.998Z</time></trkpt><trkpt lat="43.32723472009713" lon="5.701310683861231"><ele>664.0</ele><time>2026-04-25T14:13:48.998Z</time></trkpt><trkpt lat="43.32717805257829" lon="5.701450134675793"><ele>664.0</ele><time>2026-04-25T14:13:49.998Z</time></trkpt><trkpt lat="43.32712442438521" lon="5.701594038132467"><ele>664.0</ele><time>2026-04-25T14:13:50.998Z</time></trkpt><trkpt lat="43.32707159403915" lon="5.701739946871496"><ele>664.75</ele><time>2026-04-25T14:13:51.998Z</time></trkpt><trkpt lat="43.32702900905197" lon="5.701896780041987"><ele>665.5</ele><time>2026-04-25T14:13:52.998Z</time></trkpt><trkpt lat="43.32699423512112" lon="5.702059344540443"><ele>666.25</ele><time>2026-04-25T14:13:53.998Z</time></trkpt><trkpt lat="43.32696151454637" lon="5.702220805471732"><ele>667.0</ele><time>2026-04-25T14:13:54.998Z</time></trkpt><trkpt lat="43.326939776418456" lon="5.702394578715166"><ele>667.0</ele><time>2026-04-25T14:13:55.998Z</time></trkpt><trkpt lat="43.32691575084319" lon="5.702571055902738"><ele>667.0</ele><time>2026-04-25T14:13:56.998Z</time></trkpt><trkpt lat="43.32689849561428" lon="5.702730798901024"><ele>667.0</ele><time>2026-04-25T14:13:57.998Z</time></trkpt><trkpt lat="43.32688245446755" lon="5.702896694278114"><ele>667.0</ele><time>2026-04-25T14:13:58.998Z</time></trkpt><trkpt lat="43.32684643212911" lon="5.703073181868714"><ele>667.5</ele><time>2026-04-25T14:13:59.998Z</time></trkpt><trkpt lat="43.32683378696641" lon="5.703241549853757"><ele>668.0</ele><time>2026-04-25T14:14:00.998Z</time></trkpt><trkpt lat="43.32682361999892" lon="5.703403631478086"><ele>668.5</ele><time>2026-04-25T14:14:01.998Z</time></trkpt><trkpt lat="43.32680833974235" lon="5.7035654000897535"><ele>669.0</ele><time>2026-04-25T14:14:02.998Z</time></trkpt><trkpt lat="43.32677217744258" lon="5.703731361541419"><ele>669.5</ele><time>2026-04-25T14:14:03.998Z</time></trkpt><trkpt lat="43.32672374245478" lon="5.703879778297362"><ele>670.0</ele><time>2026-04-25T14:14:04.998Z</time></trkpt><trkpt lat="43.32665982627778" lon="5.704023607180954"><ele>670.5</ele><time>2026-04-25T14:14:05.998Z</time></trkpt><trkpt lat="43.32658702922968" lon="5.704148630624162"><ele>671.0</ele><time>2026-04-25T14:14:06.998Z</time></trkpt><trkpt lat="43.326511644056815" lon="5.704270302234368"><ele>671.0</ele><time>2026-04-25T14:14:07.998Z</time></trkpt><trkpt lat="43.32643640178683" lon="5.7043706290033525"><ele>671.0</ele><time>2026-04-25T14:14:08.998Z</time></trkpt><trkpt lat="43.32636215898187" lon="5.704497625803518"><ele>671.0</ele><time>2026-04-25T14:14:09.998Z</time></trkpt><trkpt lat="43.32629901969661" lon="5.7046210245822095"><ele>671.0</ele><time>2026-04-25T14:14:10.998Z</time></trkpt><trkpt lat="43.326232714749395" lon="5.704771875537096"><ele>672.0</ele><time>2026-04-25T14:14:11.997Z</time></trkpt><trkpt lat="43.32618078396142" lon="5.704938306265252"><ele>673.0</ele><time>2026-04-25T14:14:12.997Z</time></trkpt><trkpt lat="43.32614907013033" lon="5.705121669106408"><ele>674.0</ele><time>2026-04-25T14:14:13.997Z</time></trkpt><trkpt lat="43.326123842417196" lon="5.705310680401885"><ele>675.0</ele><time>2026-04-25T14:14:14.997Z</time></trkpt><trkpt lat="43.32610407337698" lon="5.705480190266664"><ele>675.0</ele><time>2026-04-25T14:14:15.997Z</time></trkpt><trkpt lat="43.326079775423416" lon="5.705646423032641"><ele>675.0</ele><time>2026-04-25T14:14:16.997Z</time></trkpt><trkpt lat="43.32605997816393" lon="5.705816643999243"><ele>675.0</ele><time>2026-04-25T14:14:17.997Z</time></trkpt><trkpt lat="43.32603621152737" lon="5.705996198793571"><ele>675.0</ele><time>2026-04-25T14:14:18.997Z</time></trkpt><trkpt lat="43.32604972315804" lon="5.706165570794975"><ele>675.25</ele><time>2026-04-25T14:14:19.997Z</time></trkpt><trkpt lat="43.32605582927843" lon="5.7063416482593015"><ele>675.5</ele><time>2026-04-25T14:14:20.997Z</time></trkpt><trkpt lat="43.32608600834215" lon="5.706518168895582"><ele>675.75</ele><time>2026-04-25T14:14:21.997Z</time></trkpt><trkpt lat="43.3261379527832" lon="5.706682098180358"><ele>676.0</ele><time>2026-04-25T14:14:22.997Z</time></trkpt><trkpt lat="43.32620257407652" lon="5.706837126428788"><ele>676.5</ele><time>2026-04-25T14:14:23.997Z</time></trkpt><trkpt lat="43.32628344770504" lon="5.706978405921688"><ele>677.0</ele><time>2026-04-25T14:14:24.997Z</time></trkpt><trkpt lat="43.326376575633795" lon="5.707100733399969"><ele>677.5</ele><time>2026-04-25T14:14:25.997Z</time></trkpt><trkpt lat="43.326470704092564" lon="5.707238963558622"><ele>678.0</ele><time>2026-04-25T14:14:26.997Z</time></trkpt><trkpt lat="43.32657458177261" lon="5.707387034497918"><ele>678.0</ele><time>2026-04-25T14:14:27.997Z</time></trkpt><trkpt lat="43.32668355757143" lon="5.707547995467761"><ele>678.0</ele><time>2026-04-25T14:14:28.997Z</time></trkpt><trkpt lat="43.32677997993124" lon="5.707690950181399"><ele>678.0</ele><time>2026-04-25T14:14:29.997Z</time></trkpt><trkpt lat="43.3268504493605" lon="5.707843445884056"><ele>678.0</ele><time>2026-04-25T14:14:30.997Z</time></trkpt><trkpt lat="43.32688570239889" lon="5.708013585471342"><ele>678.0</ele><time>2026-04-25T14:14:31.997Z</time></trkpt><trkpt lat="43.32688973096148" lon="5.708178978296702"><ele>678.0</ele><time>2026-04-25T14:14:32.999Z</time></trkpt><trkpt lat="43.32688138259002" lon="5.708345515089631"><ele>678.0</ele><time>2026-04-25T14:14:33.998Z</time></trkpt><trkpt lat="43.3268748508274" lon="5.708522252487481"><ele>678.0</ele><time>2026-04-25T14:14:34.998Z</time></trkpt><trkpt lat="43.32684978084435" lon="5.708688461960516"><ele>678.5</ele><time>2026-04-25T14:14:35.998Z</time></trkpt><trkpt lat="43.32682712438255" lon="5.708856075385592"><ele>679.0</ele><time>2026-04-25T14:14:36.998Z</time></trkpt><trkpt lat="43.32681744090973" lon="5.7090117721843905"><ele>679.5</ele><time>2026-04-25T14:14:37.998Z</time></trkpt><trkpt lat="43.32680831471428" lon="5.7091726960645675"><ele>680.0</ele><time>2026-04-25T14:14:38.998Z</time></trkpt><trkpt lat="43.32680355614136" lon="5.709331742185305"><ele>681.25</ele><time>2026-04-25T14:14:39.999Z</time></trkpt><trkpt lat="43.326797205003295" lon="5.709491148175401"><ele>682.5</ele><time>2026-04-25T14:14:40.999Z</time></trkpt><trkpt lat="43.326789041920186" lon="5.709654437905427"><ele>683.75</ele><time>2026-04-25T14:14:41.998Z</time></trkpt><trkpt lat="43.326777748797404" lon="5.709815171077656"><ele>685.0</ele><time>2026-04-25T14:14:42.998Z</time></trkpt><trkpt lat="43.326767701575505" lon="5.709980746791388"><ele>685.0</ele><time>2026-04-25T14:14:43.998Z</time></trkpt><trkpt lat="43.326758579039904" lon="5.710148060406738"><ele>685.0</ele><time>2026-04-25T14:14:44.999Z</time></trkpt><trkpt lat="43.32674531315716" lon="5.710319000065022"><ele>685.0</ele><time>2026-04-25T14:14:45.998Z</time></trkpt><trkpt lat="43.326730920193974" lon="5.710492719130241"><ele>685.0</ele><time>2026-04-25T14:14:46.998Z</time></trkpt><trkpt lat="43.32672444615444" lon="5.710639117571587"><ele>685.8333333333334</ele><time>2026-04-25T14:14:47.998Z</time></trkpt><trkpt lat="43.326717207001245" lon="5.7107773661300465"><ele>686.6666666666667</ele><time>2026-04-25T14:14:48.998Z</time></trkpt><trkpt lat="43.326711942160436" lon="5.710902864354116"><ele>687.5</ele><time>2026-04-25T14:14:49.998Z</time></trkpt><trkpt lat="43.3267098732995" lon="5.711004063349719"><ele>688.3333333333334</ele><time>2026-04-25T14:14:50.998Z</time></trkpt><trkpt lat="43.32670802655987" lon="5.711093730295904"><ele>689.1666666666666</ele><time>2026-04-25T14:14:51.998Z</time></trkpt><trkpt lat="43.32667658188768" lon="5.711236572402902"><ele>690.0</ele><time>2026-04-25T14:14:53.998Z</time></trkpt><trkpt lat="43.326675170206265" lon="5.711342319116737"><ele>692.0</ele><time>2026-04-25T14:14:55.998Z</time></trkpt><trkpt lat="43.32666463007537" lon="5.7114288345206035"><ele>692.0</ele><time>2026-04-25T14:14:57.998Z</time></trkpt><trkpt lat="43.326643653006364" lon="5.711512520145148"><ele>692.0</ele><time>2026-04-25T14:15:00.998Z</time></trkpt><trkpt lat="43.326587998872874" lon="5.711590032312253"><ele>692.0</ele><time>2026-04-25T14:15:04.998Z</time></trkpt></trkseg><trkseg><trkpt lat="43.32660517963282" lon="5.711422772312931"><ele>692.0</ele><time>2026-04-25T14:47:30.986Z</time></trkpt><trkpt lat="43.326560677717254" lon="5.711488240319591"><ele>692.0</ele><time>2026-04-25T14:47:38.985Z</time></trkpt><trkpt lat="43.32649682059785" lon="5.711499036649614"><ele>692.0</ele><time>2026-04-25T14:47:49.985Z</time></trkpt><trkpt lat="43.32650653140142" lon="5.711639674501355"><ele>692.0</ele><time>2026-04-25T14:51:10.983Z</time></trkpt><trkpt lat="43.32650391289458" lon="5.711739561791408"><ele>692.0</ele><time>2026-04-25T14:51:13.983Z</time></trkpt><trkpt lat="43.326551924827584" lon="5.711802797446255"><ele>692.0</ele><time>2026-04-25T14:51:17.983Z</time></trkpt><trkpt lat="43.32660133315262" lon="5.711881281253252"><ele>692.0</ele><time>2026-04-25T14:51:23.982Z</time></trkpt><trkpt lat="43.32659819412802" lon="5.711971808703995"><ele>691.8</ele><time>2026-04-25T14:51:25.982Z</time></trkpt><trkpt lat="43.32661526737126" lon="5.712101446511906"><ele>691.6</ele><time>2026-04-25T14:51:28.982Z</time></trkpt><trkpt lat="43.32663655810825" lon="5.712211566268572"><ele>691.4</ele><time>2026-04-25T14:51:31.982Z</time></trkpt><trkpt lat="43.32665633012461" lon="5.712346823065871"><ele>691.1999999999999</ele><time>2026-04-25T14:51:33.982Z</time></trkpt><trkpt lat="43.32667140140294" lon="5.71250814436986"><ele>691.0</ele><time>2026-04-25T14:51:35.982Z</time></trkpt><trkpt lat="43.32668141869909" lon="5.712594727853206"><ele>691.0</ele><time>2026-04-25T14:51:36.982Z</time></trkpt><trkpt lat="43.32670529601933" lon="5.712690751634778"><ele>691.0</ele><time>2026-04-25T14:51:37.982Z</time></trkpt><trkpt lat="43.326716685294166" lon="5.712814316798045"><ele>691.0</ele><time>2026-04-25T14:51:38.982Z</time></trkpt><trkpt lat="43.326734133406795" lon="5.71292216153159"><ele>691.0</ele><time>2026-04-25T14:51:39.982Z</time></trkpt><trkpt lat="43.32675692137171" lon="5.713017616884788"><ele>691.0</ele><time>2026-04-25T14:51:40.982Z</time></trkpt><trkpt lat="43.32678142395612" lon="5.713108577107738"><ele>691.0</ele><time>2026-04-25T14:51:41.982Z</time></trkpt><trkpt lat="43.32682367640345" lon="5.7131848598735155"><ele>690.5999999999999</ele><time>2026-04-25T14:51:42.982Z</time></trkpt><trkpt lat="43.32688011389759" lon="5.713261696832414"><ele>690.2</ele><time>2026-04-25T14:51:43.982Z</time></trkpt><trkpt lat="43.32695226948124" lon="5.713353141924685"><ele>689.8</ele><time>2026-04-25T14:51:44.982Z</time></trkpt><trkpt lat="43.32705714684694" lon="5.713361713325118"><ele>689.4000000000001</ele><time>2026-04-25T14:51:45.982Z</time></trkpt><trkpt lat="43.32714866126664" lon="5.713350867108701"><ele>689.0</ele><time>2026-04-25T14:51:46.982Z</time></trkpt><trkpt lat="43.32722963309147" lon="5.713335420929544"><ele>688.6666666666666</ele><time>2026-04-25T14:51:47.982Z</time></trkpt><trkpt lat="43.32730339654678" lon="5.713332296553766"><ele>688.3333333333333</ele><time>2026-04-25T14:51:48.982Z</time></trkpt><trkpt lat="43.32738205778005" lon="5.713333624587589"><ele>688.0</ele><time>2026-04-25T14:51:49.982Z</time></trkpt><trkpt lat="43.32749788812848" lon="5.713306383145142"><ele>687.6666666666666</ele><time>2026-04-25T14:51:51.982Z</time></trkpt><trkpt lat="43.32756673380046" lon="5.713329862813736"><ele>687.3333333333334</ele><time>2026-04-25T14:51:52.982Z</time></trkpt><trkpt lat="43.327649778237664" lon="5.713354364162655"><ele>687.0</ele><time>2026-04-25T14:51:53.982Z</time></trkpt><trkpt lat="43.32773822131695" lon="5.713378925251395"><ele>687.0</ele><time>2026-04-25T14:51:54.982Z</time></trkpt><trkpt lat="43.32783006186012" lon="5.713392016748543"><ele>687.0</ele><time>2026-04-25T14:51:55.982Z</time></trkpt><trkpt lat="43.32792180437341" lon="5.713400669876437"><ele>687.0</ele><time>2026-04-25T14:51:56.982Z</time></trkpt><trkpt lat="43.328002772699165" lon="5.71341282566032"><ele>687.0</ele><time>2026-04-25T14:51:57.982Z</time></trkpt><trkpt lat="43.328068834221355" lon="5.713413958194654"><ele>687.0</ele><time>2026-04-25T14:51:58.982Z</time></trkpt><trkpt lat="43.32818985215403" lon="5.713424716287431"><ele>687.1666666666666</ele><time>2026-04-25T14:52:00.982Z</time></trkpt><trkpt lat="43.32826439892225" lon="5.713463387410444"><ele>687.3333333333334</ele><time>2026-04-25T14:52:01.982Z</time></trkpt><trkpt lat="43.328341802199155" lon="5.713502859567568"><ele>687.5</ele><time>2026-04-25T14:52:02.982Z</time></trkpt><trkpt lat="43.32841003008005" lon="5.713556611399517"><ele>687.6666666666667</ele><time>2026-04-25T14:52:03.982Z</time></trkpt><trkpt lat="43.32850696665891" lon="5.713654853547401"><ele>687.8333333333334</ele><time>2026-04-25T14:52:05.982Z</time></trkpt><trkpt lat="43.32856213992987" lon="5.7137081505748855"><ele>688.0</ele><time>2026-04-25T14:52:06.982Z</time></trkpt><trkpt lat="43.32861586008853" lon="5.713766049730036"><ele>687.3333333333334</ele><time>2026-04-25T14:52:07.982Z</time></trkpt><trkpt lat="43.328672288698776" lon="5.713842609608009"><ele>686.6666666666667</ele><time>2026-04-25T14:52:08.982Z</time></trkpt><trkpt lat="43.328734650047785" lon="5.713904616068216"><ele>686.0</ele><time>2026-04-25T14:52:09.982Z</time></trkpt><trkpt lat="43.328791177414196" lon="5.713986990534725"><ele>685.3333333333334</ele><time>2026-04-25T14:52:10.982Z</time></trkpt><trkpt lat="43.32883770281104" lon="5.71407925735592"><ele>684.6666666666666</ele><time>2026-04-25T14:52:11.982Z</time></trkpt><trkpt lat="43.32887409964535" lon="5.714183052025982"><ele>684.0</ele><time>2026-04-25T14:52:12.982Z</time></trkpt><trkpt lat="43.328901532107196" lon="5.714300904625769"><ele>685.0</ele><time>2026-04-25T14:52:13.982Z</time></trkpt><trkpt lat="43.32892391518066" lon="5.714433966883619"><ele>686.0</ele><time>2026-04-25T14:52:14.981Z</time></trkpt><trkpt lat="43.328949364068905" lon="5.714579461998998"><ele>687.0</ele><time>2026-04-25T14:52:15.981Z</time></trkpt><trkpt lat="43.328973475963714" lon="5.714722211073681"><ele>688.0</ele><time>2026-04-25T14:52:16.981Z</time></trkpt><trkpt lat="43.32900870837917" lon="5.714887564006037"><ele>689.0</ele><time>2026-04-25T14:52:17.981Z</time></trkpt><trkpt lat="43.32904589186039" lon="5.7150470373170625"><ele>689.0</ele><time>2026-04-25T14:52:18.981Z</time></trkpt><trkpt lat="43.329086715419976" lon="5.715196116928917"><ele>689.0</ele><time>2026-04-25T14:52:19.981Z</time></trkpt><trkpt lat="43.3291273618439" lon="5.715356756125517"><ele>689.0</ele><time>2026-04-25T14:52:20.981Z</time></trkpt><trkpt lat="43.329171170250625" lon="5.71552558813185"><ele>689.0</ele><time>2026-04-25T14:52:21.981Z</time></trkpt><trkpt lat="43.329203782232646" lon="5.715689973546266"><ele>687.75</ele><time>2026-04-25T14:52:22.981Z</time></trkpt><trkpt lat="43.32924254618343" lon="5.715871808419054"><ele>686.5</ele><time>2026-04-25T14:52:23.981Z</time></trkpt><trkpt lat="43.329287503106144" lon="5.71605003605728"><ele>685.25</ele><time>2026-04-25T14:52:24.981Z</time></trkpt><trkpt lat="43.32933514893008" lon="5.7162350115728815"><ele>684.0</ele><time>2026-04-25T14:52:25.981Z</time></trkpt><trkpt lat="43.32938200208151" lon="5.716418564427502"><ele>684.0</ele><time>2026-04-25T14:52:26.981Z</time></trkpt><trkpt lat="43.32942666492281" lon="5.716596720121535"><ele>684.0</ele><time>2026-04-25T14:52:27.981Z</time></trkpt><trkpt lat="43.32947176094362" lon="5.716774253131793"><ele>684.0</ele><time>2026-04-25T14:52:28.981Z</time></trkpt><trkpt lat="43.329508739929786" lon="5.716955807663007"><ele>684.0</ele><time>2026-04-25T14:52:29.981Z</time></trkpt><trkpt lat="43.32954043519712" lon="5.717125479190512"><ele>684.0</ele><time>2026-04-25T14:52:30.981Z</time></trkpt><trkpt lat="43.32956124817865" lon="5.717295754077123"><ele>684.0</ele><time>2026-04-25T14:52:31.981Z</time></trkpt><trkpt lat="43.32954939386106" lon="5.717467459421904"><ele>684.0</ele><time>2026-04-25T14:52:32.981Z</time></trkpt><trkpt lat="43.32956514594403" lon="5.7176288822462755"><ele>684.0</ele><time>2026-04-25T14:52:33.981Z</time></trkpt><trkpt lat="43.32958158537571" lon="5.7178018123150025"><ele>683.25</ele><time>2026-04-25T14:52:34.981Z</time></trkpt><trkpt lat="43.329612148932675" lon="5.717960341964796"><ele>682.5</ele><time>2026-04-25T14:52:35.981Z</time></trkpt><trkpt lat="43.32960373325552" lon="5.718126542017934"><ele>681.75</ele><time>2026-04-25T14:52:36.981Z</time></trkpt><trkpt lat="43.32962216858916" lon="5.718277391466169"><ele>681.0</ele><time>2026-04-25T14:52:37.981Z</time></trkpt><trkpt lat="43.32964729630914" lon="5.718449736560966"><ele>680.75</ele><time>2026-04-25T14:52:38.981Z</time></trkpt><trkpt lat="43.32968400378427" lon="5.718607425382489"><ele>680.5</ele><time>2026-04-25T14:52:39.981Z</time></trkpt><trkpt lat="43.32972585124366" lon="5.718763233579785"><ele>680.25</ele><time>2026-04-25T14:52:40.981Z</time></trkpt><trkpt lat="43.329780275102955" lon="5.7189302023062405"><ele>680.0</ele><time>2026-04-25T14:52:41.981Z</time></trkpt><trkpt lat="43.32984431779573" lon="5.719094179883395"><ele>681.5</ele><time>2026-04-25T14:52:42.981Z</time></trkpt><trkpt lat="43.329892360107785" lon="5.719258823520125"><ele>683.0</ele><time>2026-04-25T14:52:43.981Z</time></trkpt><trkpt lat="43.32991639354726" lon="5.719434011169004"><ele>684.5</ele><time>2026-04-25T14:52:44.981Z</time></trkpt><trkpt lat="43.3299456253986" lon="5.719601529127403"><ele>686.0</ele><time>2026-04-25T14:52:45.981Z</time></trkpt><trkpt lat="43.329972605979606" lon="5.719784298411558"><ele>686.0</ele><time>2026-04-25T14:52:46.981Z</time></trkpt><trkpt lat="43.32999062203628" lon="5.719963586042551"><ele>686.0</ele><time>2026-04-25T14:52:47.981Z</time></trkpt><trkpt lat="43.330014350673984" lon="5.720139509828399"><ele>686.0</ele><time>2026-04-25T14:52:48.981Z</time></trkpt><trkpt lat="43.33005136584075" lon="5.72030312005772"><ele>686.0</ele><time>2026-04-25T14:52:49.981Z</time></trkpt><trkpt lat="43.33008054131315" lon="5.720460867956542"><ele>685.5</ele><time>2026-04-25T14:52:50.981Z</time></trkpt><trkpt lat="43.33012058922069" lon="5.72061820097019"><ele>685.0</ele><time>2026-04-25T14:52:51.981Z</time></trkpt><trkpt lat="43.33016770013947" lon="5.720785849665834"><ele>684.5</ele><time>2026-04-25T14:52:52.981Z</time></trkpt><trkpt lat="43.33020560503" lon="5.720960283838818"><ele>684.0</ele><time>2026-04-25T14:52:53.981Z</time></trkpt><trkpt lat="43.330246410447806" lon="5.7211150983286565"><ele>683.6</ele><time>2026-04-25T14:52:54.981Z</time></trkpt><trkpt lat="43.330291191060574" lon="5.721263610510691"><ele>683.2</ele><time>2026-04-25T14:52:55.981Z</time></trkpt><trkpt lat="43.33031652148265" lon="5.721413677572543"><ele>682.8000000000001</ele><time>2026-04-25T14:52:56.981Z</time></trkpt><trkpt lat="43.33037914285299" lon="5.721545012772793"><ele>682.4000000000001</ele><time>2026-04-25T14:52:57.981Z</time></trkpt><trkpt lat="43.33043084839057" lon="5.7216668505076695"><ele>682.0</ele><time>2026-04-25T14:52:58.981Z</time></trkpt><trkpt lat="43.330507882738736" lon="5.721753684941834"><ele>683.4000000000001</ele><time>2026-04-25T14:52:59.981Z</time></trkpt><trkpt lat="43.33060953642994" lon="5.721798426307656"><ele>684.8000000000001</ele><time>2026-04-25T14:53:00.981Z</time></trkpt><trkpt lat="43.33070592204541" lon="5.721799363595967"><ele>686.2</ele><time>2026-04-25T14:53:01.981Z</time></trkpt><trkpt lat="43.330795941538426" lon="5.721761713911221"><ele>687.6</ele><time>2026-04-25T14:53:02.981Z</time></trkpt><trkpt lat="43.3308918698137" lon="5.721713776941318"><ele>689.0</ele><time>2026-04-25T14:53:03.981Z</time></trkpt><trkpt lat="43.33097725126808" lon="5.721696641488311"><ele>689.0</ele><time>2026-04-25T14:53:04.981Z</time></trkpt><trkpt lat="43.33106567571526" lon="5.721714036236098"><ele>689.0</ele><time>2026-04-25T14:53:05.981Z</time></trkpt><trkpt lat="43.331126721178315" lon="5.721795014671932"><ele>689.0</ele><time>2026-04-25T14:53:06.981Z</time></trkpt><trkpt lat="43.33117054111363" lon="5.721884342233878"><ele>689.0</ele><time>2026-04-25T14:53:07.981Z</time></trkpt><trkpt lat="43.33117817472936" lon="5.722045484052752"><ele>689.0</ele><time>2026-04-25T14:53:08.981Z</time></trkpt><trkpt lat="43.33121747770093" lon="5.722169883572921"><ele>689.25</ele><time>2026-04-25T14:53:09.981Z</time></trkpt><trkpt lat="43.33126584593746" lon="5.722295938085628"><ele>689.5</ele><time>2026-04-25T14:53:10.981Z</time></trkpt><trkpt lat="43.33131715805058" lon="5.7224339491705996"><ele>689.75</ele><time>2026-04-25T14:53:11.981Z</time></trkpt><trkpt lat="43.331384391926" lon="5.7225786864728425"><ele>690.0</ele><time>2026-04-25T14:53:12.981Z</time></trkpt><trkpt lat="43.33145647781283" lon="5.7227242807677765"><ele>688.75</ele><time>2026-04-25T14:53:13.981Z</time></trkpt><trkpt lat="43.33151656109756" lon="5.722873895390835"><ele>687.5</ele><time>2026-04-25T14:53:14.981Z</time></trkpt><trkpt lat="43.33157754867299" lon="5.723004885071905"><ele>686.25</ele><time>2026-04-25T14:53:15.981Z</time></trkpt><trkpt lat="43.33165285286937" lon="5.723138022096822"><ele>685.0</ele><time>2026-04-25T14:53:16.981Z</time></trkpt><trkpt lat="43.33174367817447" lon="5.72325778270732"><ele>685.0</ele><time>2026-04-25T14:53:17.981Z</time></trkpt><trkpt lat="43.33184014265891" lon="5.723347548496296"><ele>685.0</ele><time>2026-04-25T14:53:18.981Z</time></trkpt><trkpt lat="43.33192763601504" lon="5.723460306826752"><ele>685.0</ele><time>2026-04-25T14:53:19.981Z</time></trkpt><trkpt lat="43.331953238282026" lon="5.723638707201395"><ele>685.0</ele><time>2026-04-25T14:53:20.981Z</time></trkpt><trkpt lat="43.33199155584012" lon="5.723825373583016"><ele>683.75</ele><time>2026-04-25T14:53:21.981Z</time></trkpt><trkpt lat="43.3320258777193" lon="5.723980208093313"><ele>682.5</ele><time>2026-04-25T14:53:22.981Z</time></trkpt><trkpt lat="43.33206178832124" lon="5.724133599865879"><ele>681.25</ele><time>2026-04-25T14:53:23.981Z</time></trkpt><trkpt lat="43.33210861224019" lon="5.724319185847289"><ele>680.0</ele><time>2026-04-25T14:53:24.981Z</time></trkpt><trkpt lat="43.332166777349634" lon="5.724478210897986"><ele>679.6</ele><time>2026-04-25T14:53:25.981Z</time></trkpt><trkpt lat="43.3321826019825" lon="5.724642929699727"><ele>679.2</ele><time>2026-04-25T14:53:26.982Z</time></trkpt><trkpt lat="43.332216491278054" lon="5.724784539903859"><ele>678.8</ele><time>2026-04-25T14:53:27.981Z</time></trkpt><trkpt lat="43.33226007638395" lon="5.724915517960928"><ele>678.4</ele><time>2026-04-25T14:53:28.981Z</time></trkpt><trkpt lat="43.33230719400319" lon="5.7250401592370155"><ele>678.0</ele><time>2026-04-25T14:53:29.981Z</time></trkpt><trkpt lat="43.33236814679413" lon="5.725176835269273"><ele>678.5999999999999</ele><time>2026-04-25T14:53:30.981Z</time></trkpt><trkpt lat="43.332436209645934" lon="5.725315616974106"><ele>679.1999999999999</ele><time>2026-04-25T14:53:31.981Z</time></trkpt><trkpt lat="43.332484898179054" lon="5.725441715405433"><ele>679.8</ele><time>2026-04-25T14:53:32.981Z</time></trkpt><trkpt lat="43.33254517410202" lon="5.725531153906734"><ele>680.4</ele><time>2026-04-25T14:53:33.98Z</time></trkpt><trkpt lat="43.332626070322085" lon="5.725557325300916"><ele>681.0</ele><time>2026-04-25T14:53:34.98Z</time></trkpt><trkpt lat="43.33273056688136" lon="5.7255207098960454"><ele>681.0</ele><time>2026-04-25T14:53:35.981Z</time></trkpt><trkpt lat="43.33281767862448" lon="5.725466599460113"><ele>681.0</ele><time>2026-04-25T14:53:36.98Z</time></trkpt><trkpt lat="43.33289779060958" lon="5.725455482482771"><ele>681.0</ele><time>2026-04-25T14:53:37.98Z</time></trkpt><trkpt lat="43.33299063054748" lon="5.725501668855591"><ele>681.0</ele><time>2026-04-25T14:53:38.981Z</time></trkpt><trkpt lat="43.33309714511548" lon="5.725609363763309"><ele>681.0</ele><time>2026-04-25T14:53:39.981Z</time></trkpt><trkpt lat="43.33318335660952" lon="5.725748477182462"><ele>679.75</ele><time>2026-04-25T14:53:40.981Z</time></trkpt><trkpt lat="43.33326974422736" lon="5.72587761115103"><ele>678.5</ele><time>2026-04-25T14:53:41.981Z</time></trkpt><trkpt lat="43.33334614765845" lon="5.72597684574886"><ele>677.25</ele><time>2026-04-25T14:53:42.981Z</time></trkpt><trkpt lat="43.33342416161397" lon="5.726084305183075"><ele>676.0</ele><time>2026-04-25T14:53:43.981Z</time></trkpt><trkpt lat="43.33350069435796" lon="5.726190861812927"><ele>676.0</ele><time>2026-04-25T14:53:44.981Z</time></trkpt><trkpt lat="43.33357582901552" lon="5.726282167655308"><ele>676.0</ele><time>2026-04-25T14:53:45.981Z</time></trkpt><trkpt lat="43.33364541647597" lon="5.726378810404496"><ele>676.0</ele><time>2026-04-25T14:53:46.981Z</time></trkpt><trkpt lat="43.33371292965942" lon="5.726463981996175"><ele>676.0</ele><time>2026-04-25T14:53:47.981Z</time></trkpt><trkpt lat="43.33376565332866" lon="5.726529392051023"><ele>676.0</ele><time>2026-04-25T14:53:48.981Z</time></trkpt><trkpt lat="43.33386789634772" lon="5.726644638786729"><ele>676.1999999999999</ele><time>2026-04-25T14:53:50.981Z</time></trkpt><trkpt lat="43.333921991405255" lon="5.72671378103426"><ele>676.4</ele><time>2026-04-25T14:53:51.981Z</time></trkpt><trkpt lat="43.333996690646366" lon="5.726795275869671"><ele>676.6</ele><time>2026-04-25T14:53:52.981Z</time></trkpt><trkpt lat="43.334082784629466" lon="5.726878508206745"><ele>676.8</ele><time>2026-04-25T14:53:53.981Z</time></trkpt><trkpt lat="43.33416537206532" lon="5.7269621505945745"><ele>677.0</ele><time>2026-04-25T14:53:54.981Z</time></trkpt><trkpt lat="43.33423731512516" lon="5.727049552226744"><ele>677.0</ele><time>2026-04-25T14:53:55.981Z</time></trkpt><trkpt lat="43.33430803817226" lon="5.727134434227803"><ele>677.0</ele><time>2026-04-25T14:53:56.981Z</time></trkpt><trkpt lat="43.33437681188818" lon="5.7272282019909975"><ele>677.0</ele><time>2026-04-25T14:53:57.981Z</time></trkpt><trkpt lat="43.334466929063304" lon="5.727314838268012"><ele>677.0</ele><time>2026-04-25T14:53:58.981Z</time></trkpt><trkpt lat="43.334555868776235" lon="5.7274090503365525"><ele>677.0</ele><time>2026-04-25T14:53:59.981Z</time></trkpt><trkpt lat="43.33464041731046" lon="5.727509767321544"><ele>677.0</ele><time>2026-04-25T14:54:00.981Z</time></trkpt><trkpt lat="43.33472404504654" lon="5.727614453071153"><ele>677.0</ele><time>2026-04-25T14:54:01.981Z</time></trkpt><trkpt lat="43.33479432228532" lon="5.72772304693313"><ele>677.0</ele><time>2026-04-25T14:54:02.981Z</time></trkpt><trkpt lat="43.33485245927355" lon="5.727825634520309"><ele>677.0</ele><time>2026-04-25T14:54:03.981Z</time></trkpt><trkpt lat="43.33488529582614" lon="5.7279001576564506"><ele>677.0</ele><time>2026-04-25T14:54:04.981Z</time></trkpt><trkpt lat="43.334934812459736" lon="5.728010052568113"><ele>677.0</ele><time>2026-04-25T14:54:06.981Z</time></trkpt><trkpt lat="43.33498113278484" lon="5.7281842050238945"><ele>677.0</ele><time>2026-04-25T14:54:08.981Z</time></trkpt><trkpt lat="43.33499812759032" lon="5.72830282393749"><ele>677.0</ele><time>2026-04-25T14:54:09.981Z</time></trkpt><trkpt lat="43.33501228727065" lon="5.728434220296982"><ele>677.0</ele><time>2026-04-25T14:54:10.981Z</time></trkpt><trkpt lat="43.33502259309275" lon="5.728571430749873"><ele>677.0</ele><time>2026-04-25T14:54:11.981Z</time></trkpt><trkpt lat="43.335027930574" lon="5.728699905664246"><ele>677.2</ele><time>2026-04-25T14:54:12.981Z</time></trkpt><trkpt lat="43.335045156967894" lon="5.728825319785046"><ele>677.4000000000001</ele><time>2026-04-25T14:54:13.981Z</time></trkpt><trkpt lat="43.33507579112807" lon="5.728947092583625"><ele>677.5999999999999</ele><time>2026-04-25T14:54:14.981Z</time></trkpt><trkpt lat="43.33513262491856" lon="5.7290703522428235"><ele>677.8</ele><time>2026-04-25T14:54:15.981Z</time></trkpt><trkpt lat="43.33520076746657" lon="5.729191985150728"><ele>678.0</ele><time>2026-04-25T14:54:16.981Z</time></trkpt><trkpt lat="43.335272385969674" lon="5.729311658650318"><ele>678.0</ele><time>2026-04-25T14:54:17.981Z</time></trkpt><trkpt lat="43.33532818236629" lon="5.729460356018624"><ele>678.0</ele><time>2026-04-25T14:54:18.981Z</time></trkpt><trkpt lat="43.33539518305557" lon="5.729603359577854"><ele>678.0</ele><time>2026-04-25T14:54:19.981Z</time></trkpt><trkpt lat="43.335475749431055" lon="5.729741618631158"><ele>678.0</ele><time>2026-04-25T14:54:20.981Z</time></trkpt><trkpt lat="43.335558061156135" lon="5.729883198098738"><ele>678.0</ele><time>2026-04-25T14:54:21.981Z</time></trkpt><trkpt lat="43.33561752005452" lon="5.730045149652238"><ele>678.0</ele><time>2026-04-25T14:54:22.981Z</time></trkpt><trkpt lat="43.33568127973688" lon="5.73021160164567"><ele>678.0</ele><time>2026-04-25T14:54:23.981Z</time></trkpt><trkpt lat="43.335747570289634" lon="5.730383554116263"><ele>678.0</ele><time>2026-04-25T14:54:24.981Z</time></trkpt><trkpt lat="43.33582076743015" lon="5.730556432685636"><ele>677.0</ele><time>2026-04-25T14:54:25.981Z</time></trkpt><trkpt lat="43.33589186190402" lon="5.73071811054471"><ele>676.0</ele><time>2026-04-25T14:54:26.981Z</time></trkpt><trkpt lat="43.33597954869522" lon="5.730860540867011"><ele>675.0</ele><time>2026-04-25T14:54:27.981Z</time></trkpt><trkpt lat="43.3360552896233" lon="5.731019931312811"><ele>674.0</ele><time>2026-04-25T14:54:28.981Z</time></trkpt><trkpt lat="43.3361349064234" lon="5.73118297596636"><ele>673.5</ele><time>2026-04-25T14:54:29.981Z</time></trkpt><trkpt lat="43.33621496132127" lon="5.731351453888697"><ele>673.0</ele><time>2026-04-25T14:54:30.981Z</time></trkpt><trkpt lat="43.336309670490486" lon="5.731504774859695"><ele>672.5</ele><time>2026-04-25T14:54:31.981Z</time></trkpt><trkpt lat="43.33639105655413" lon="5.731664575064334"><ele>672.0</ele><time>2026-04-25T14:54:32.981Z</time></trkpt><trkpt lat="43.33647273234016" lon="5.731825348043623"><ele>672.0</ele><time>2026-04-25T14:54:33.981Z</time></trkpt><trkpt lat="43.336551993602804" lon="5.7319857913428836"><ele>672.0</ele><time>2026-04-25T14:54:34.981Z</time></trkpt><trkpt lat="43.33661627807582" lon="5.732140902488618"><ele>672.0</ele><time>2026-04-25T14:54:35.981Z</time></trkpt><trkpt lat="43.336678705235165" lon="5.732292281394955"><ele>672.0</ele><time>2026-04-25T14:54:36.981Z</time></trkpt><trkpt lat="43.33674163833808" lon="5.7324386897501745"><ele>672.0</ele><time>2026-04-25T14:54:37.981Z</time></trkpt><trkpt lat="43.336826118396104" lon="5.732595561570078"><ele>672.0</ele><time>2026-04-25T14:54:38.981Z</time></trkpt><trkpt lat="43.3369156063726" lon="5.732761541577668"><ele>672.0</ele><time>2026-04-25T14:54:39.981Z</time></trkpt><trkpt lat="43.33698164588151" lon="5.732953706164631"><ele>672.0</ele><time>2026-04-25T14:54:40.98Z</time></trkpt><trkpt lat="43.337029113592884" lon="5.733168805743563"><ele>672.3333333333334</ele><time>2026-04-25T14:54:41.98Z</time></trkpt><trkpt lat="43.33705704052489" lon="5.733402523227538"><ele>672.6666666666667</ele><time>2026-04-25T14:54:42.98Z</time></trkpt><trkpt lat="43.337068974139996" lon="5.7336194768546145"><ele>673.0</ele><time>2026-04-25T14:54:43.98Z</time></trkpt><trkpt lat="43.33707879395743" lon="5.733813468159413"><ele>673.75</ele><time>2026-04-25T14:54:44.98Z</time></trkpt><trkpt lat="43.337098799308144" lon="5.734005040021182"><ele>674.5</ele><time>2026-04-25T14:54:45.98Z</time></trkpt><trkpt lat="43.337128368198506" lon="5.734192891648832"><ele>675.25</ele><time>2026-04-25T14:54:46.98Z</time></trkpt><trkpt lat="43.33716436592208" lon="5.734374254290814"><ele>676.0</ele><time>2026-04-25T14:54:47.98Z</time></trkpt><trkpt lat="43.337229859645554" lon="5.734555367225962"><ele>676.25</ele><time>2026-04-25T14:54:48.98Z</time></trkpt><trkpt lat="43.33729824705211" lon="5.734750311254194"><ele>676.5</ele><time>2026-04-25T14:54:49.98Z</time></trkpt><trkpt lat="43.337378685396864" lon="5.734922222824222"><ele>676.75</ele><time>2026-04-25T14:54:50.98Z</time></trkpt><trkpt lat="43.337455027195794" lon="5.735080346091412"><ele>677.0</ele><time>2026-04-25T14:54:51.98Z</time></trkpt><trkpt lat="43.33754264747806" lon="5.735223671039011"><ele>676.25</ele><time>2026-04-25T14:54:52.98Z</time></trkpt><trkpt lat="43.33760368007335" lon="5.735392543376285"><ele>675.5</ele><time>2026-04-25T14:54:53.98Z</time></trkpt><trkpt lat="43.337685279438816" lon="5.735564250941132"><ele>674.75</ele><time>2026-04-25T14:54:54.98Z</time></trkpt><trkpt lat="43.33777053730986" lon="5.735743310408476"><ele>674.0</ele><time>2026-04-25T14:54:55.98Z</time></trkpt><trkpt lat="43.33785182930288" lon="5.735917690661042"><ele>673.75</ele><time>2026-04-25T14:54:56.98Z</time></trkpt><trkpt lat="43.337927559497025" lon="5.736073251289567"><ele>673.5</ele><time>2026-04-25T14:54:57.98Z</time></trkpt><trkpt lat="43.33797790462418" lon="5.736247762183612"><ele>673.25</ele><time>2026-04-25T14:54:58.98Z</time></trkpt><trkpt lat="43.33799880260596" lon="5.736460025086087"><ele>673.0</ele><time>2026-04-25T14:54:59.98Z</time></trkpt><trkpt lat="43.33800885120517" lon="5.736679347067734"><ele>672.6666666666667</ele><time>2026-04-25T14:55:00.98Z</time></trkpt><trkpt lat="43.33800681462518" lon="5.736894991825943"><ele>672.3333333333334</ele><time>2026-04-25T14:55:01.98Z</time></trkpt><trkpt lat="43.337996621922414" lon="5.737119124724061"><ele>672.0</ele><time>2026-04-25T14:55:02.98Z</time></trkpt><trkpt lat="43.33798722921335" lon="5.737353398224245"><ele>672.0</ele><time>2026-04-25T14:55:03.98Z</time></trkpt><trkpt lat="43.33797641550103" lon="5.737580824782136"><ele>672.0</ele><time>2026-04-25T14:55:04.98Z</time></trkpt><trkpt lat="43.337965982770015" lon="5.73783131444459"><ele>672.0</ele><time>2026-04-25T14:55:05.98Z</time></trkpt><trkpt lat="43.337951510071065" lon="5.73806366815218"><ele>671.6666666666666</ele><time>2026-04-25T14:55:06.98Z</time></trkpt><trkpt lat="43.33794453937134" lon="5.738294470851875"><ele>671.3333333333333</ele><time>2026-04-25T14:55:07.98Z</time></trkpt><trkpt lat="43.33793406274462" lon="5.7385240953294705"><ele>671.0</ele><time>2026-04-25T14:55:08.98Z</time></trkpt><trkpt lat="43.33792800804591" lon="5.738746919627974"><ele>671.6666666666666</ele><time>2026-04-25T14:55:09.98Z</time></trkpt><trkpt lat="43.33791955596054" lon="5.738959811851243"><ele>672.3333333333334</ele><time>2026-04-25T14:55:10.98Z</time></trkpt><trkpt lat="43.33790834764249" lon="5.739178180696036"><ele>673.0</ele><time>2026-04-25T14:55:11.98Z</time></trkpt><trkpt lat="43.337896772391986" lon="5.739397966412879"><ele>673.3333333333334</ele><time>2026-04-25T14:55:12.98Z</time></trkpt><trkpt lat="43.337890928453945" lon="5.739611413861889"><ele>673.6666666666666</ele><time>2026-04-25T14:55:13.98Z</time></trkpt><trkpt lat="43.337884434868336" lon="5.739830121766533"><ele>674.0</ele><time>2026-04-25T14:55:14.98Z</time></trkpt><trkpt lat="43.33787302231897" lon="5.740047080494228"><ele>673.3333333333333</ele><time>2026-04-25T14:55:15.98Z</time></trkpt><trkpt lat="43.337860542061144" lon="5.740267757456395"><ele>672.6666666666666</ele><time>2026-04-25T14:55:16.98Z</time></trkpt><trkpt lat="43.337847394690584" lon="5.740494620457311"><ele>672.0</ele><time>2026-04-25T14:55:17.98Z</time></trkpt><trkpt lat="43.337832461015914" lon="5.740725957708499"><ele>672.0</ele><time>2026-04-25T14:55:18.98Z</time></trkpt><trkpt lat="43.337813210062166" lon="5.740964934707653"><ele>672.0</ele><time>2026-04-25T14:55:19.98Z</time></trkpt><trkpt lat="43.33779121505722" lon="5.741198237967057"><ele>672.0</ele><time>2026-04-25T14:55:20.98Z</time></trkpt><trkpt lat="43.33776990112217" lon="5.741432551648924"><ele>671.0</ele><time>2026-04-25T14:55:21.98Z</time></trkpt><trkpt lat="43.33774764554361" lon="5.741661406861533"><ele>670.0</ele><time>2026-04-25T14:55:22.98Z</time></trkpt><trkpt lat="43.33772186885708" lon="5.741898116084012"><ele>669.0</ele><time>2026-04-25T14:55:23.98Z</time></trkpt><trkpt lat="43.33769663923343" lon="5.742135163066843"><ele>668.6666666666666</ele><time>2026-04-25T14:55:24.98Z</time></trkpt><trkpt lat="43.337671363833486" lon="5.742374210370021"><ele>668.3333333333333</ele><time>2026-04-25T14:55:25.98Z</time></trkpt><trkpt lat="43.33764608326654" lon="5.742610467707979"><ele>668.0</ele><time>2026-04-25T14:55:26.98Z</time></trkpt><trkpt lat="43.33762039725058" lon="5.742846772754034"><ele>668.0</ele><time>2026-04-25T14:55:27.98Z</time></trkpt><trkpt lat="43.337601299243886" lon="5.743081109096659"><ele>668.0</ele><time>2026-04-25T14:55:28.98Z</time></trkpt><trkpt lat="43.337574406306786" lon="5.743323738101561"><ele>668.0</ele><time>2026-04-25T14:55:29.98Z</time></trkpt><trkpt lat="43.33754463577887" lon="5.743559712504035"><ele>669.0</ele><time>2026-04-25T14:55:30.98Z</time></trkpt><trkpt lat="43.33752071400009" lon="5.743793382089572"><ele>670.0</ele><time>2026-04-25T14:55:31.98Z</time></trkpt><trkpt lat="43.33751033527642" lon="5.74403190576743"><ele>671.0</ele><time>2026-04-25T14:55:32.98Z</time></trkpt><trkpt lat="43.33749243704532" lon="5.744266124161716"><ele>670.6666666666666</ele><time>2026-04-25T14:55:33.98Z</time></trkpt><trkpt lat="43.337463606822745" lon="5.744506651941444"><ele>670.3333333333334</ele><time>2026-04-25T14:55:34.98Z</time></trkpt><trkpt lat="43.33742365686206" lon="5.744738850065506"><ele>670.0</ele><time>2026-04-25T14:55:35.98Z</time></trkpt><trkpt lat="43.33737280469673" lon="5.744968822036225"><ele>670.0</ele><time>2026-04-25T14:55:36.98Z</time></trkpt><trkpt lat="43.337320717074086" lon="5.745198131136063"><ele>670.0</ele><time>2026-04-25T14:55:37.98Z</time></trkpt><trkpt lat="43.337257106730206" lon="5.745459044483455"><ele>670.0</ele><time>2026-04-25T14:55:38.98Z</time></trkpt><trkpt lat="43.337204525752185" lon="5.745692552178938"><ele>669.6666666666667</ele><time>2026-04-25T14:55:39.98Z</time></trkpt><trkpt lat="43.337152805646625" lon="5.745924177569903"><ele>669.3333333333334</ele><time>2026-04-25T14:55:40.98Z</time></trkpt><trkpt lat="43.3371047021062" lon="5.746150278385306"><ele>669.0</ele><time>2026-04-25T14:55:41.98Z</time></trkpt><trkpt lat="43.337058937433746" lon="5.7463848568389535"><ele>669.0</ele><time>2026-04-25T14:55:42.98Z</time></trkpt><trkpt lat="43.33700726004503" lon="5.74662068157001"><ele>669.0</ele><time>2026-04-25T14:55:43.98Z</time></trkpt><trkpt lat="43.33695697517696" lon="5.746852607325306"><ele>669.0</ele><time>2026-04-25T14:55:44.98Z</time></trkpt><trkpt lat="43.33690979635647" lon="5.747081180185734"><ele>669.6666666666666</ele><time>2026-04-25T14:55:45.98Z</time></trkpt><trkpt lat="43.336858164342814" lon="5.747311547262811"><ele>670.3333333333333</ele><time>2026-04-25T14:55:46.98Z</time></trkpt><trkpt lat="43.33680642191504" lon="5.74753898827973"><ele>671.0</ele><time>2026-04-25T14:55:47.98Z</time></trkpt><trkpt lat="43.33675278109104" lon="5.747767169863747"><ele>671.3333333333333</ele><time>2026-04-25T14:55:48.98Z</time></trkpt><trkpt lat="43.3367015431032" lon="5.747999071061906"><ele>671.6666666666666</ele><time>2026-04-25T14:55:49.98Z</time></trkpt><trkpt lat="43.3366538387074" lon="5.748233616205324"><ele>672.0</ele><time>2026-04-25T14:55:50.98Z</time></trkpt><trkpt lat="43.33660342316744" lon="5.748466609318543"><ele>671.6666666666666</ele><time>2026-04-25T14:55:51.98Z</time></trkpt><trkpt lat="43.33655247689479" lon="5.748698714942809"><ele>671.3333333333333</ele><time>2026-04-25T14:55:52.98Z</time></trkpt><trkpt lat="43.33649760194025" lon="5.748929852865405"><ele>671.0</ele><time>2026-04-25T14:55:53.98Z</time></trkpt><trkpt lat="43.33644821002688" lon="5.749171965497369"><ele>671.3333333333333</ele><time>2026-04-25T14:55:54.98Z</time></trkpt><trkpt lat="43.3363992728684" lon="5.749410031684177"><ele>671.6666666666666</ele><time>2026-04-25T14:55:55.98Z</time></trkpt><trkpt lat="43.33634183076641" lon="5.749640430547228"><ele>672.0</ele><time>2026-04-25T14:55:56.98Z</time></trkpt><trkpt lat="43.3362933216795" lon="5.749862681695749"><ele>671.0</ele><time>2026-04-25T14:55:57.98Z</time></trkpt><trkpt lat="43.336245151929226" lon="5.75008776889601"><ele>670.0</ele><time>2026-04-25T14:55:58.98Z</time></trkpt><trkpt lat="43.33619726992527" lon="5.750299432251214"><ele>669.0</ele><time>2026-04-25T14:55:59.98Z</time></trkpt><trkpt lat="43.33615187100762" lon="5.750518989833477"><ele>669.0</ele><time>2026-04-25T14:56:00.98Z</time></trkpt><trkpt lat="43.336109105035916" lon="5.750731183318224"><ele>669.0</ele><time>2026-04-25T14:56:01.98Z</time></trkpt><trkpt lat="43.33606495716205" lon="5.750941828871302"><ele>669.0</ele><time>2026-04-25T14:56:02.98Z</time></trkpt><trkpt lat="43.33602556059146" lon="5.751166629689503"><ele>669.3333333333334</ele><time>2026-04-25T14:56:03.98Z</time></trkpt><trkpt lat="43.33600491321316" lon="5.751400564678477"><ele>669.6666666666667</ele><time>2026-04-25T14:56:04.98Z</time></trkpt><trkpt lat="43.33598765644993" lon="5.751620466212586"><ele>670.0</ele><time>2026-04-25T14:56:05.98Z</time></trkpt><trkpt lat="43.335965681357614" lon="5.751831955542998"><ele>670.0</ele><time>2026-04-25T14:56:06.98Z</time></trkpt><trkpt lat="43.335948381634196" lon="5.752024061839914"><ele>670.0</ele><time>2026-04-25T14:56:07.98Z</time></trkpt><trkpt lat="43.335926066102886" lon="5.752246356912329"><ele>670.0</ele><time>2026-04-25T14:56:08.98Z</time></trkpt><trkpt lat="43.33590178878588" lon="5.752449465533103"><ele>670.0</ele><time>2026-04-25T14:56:09.98Z</time></trkpt><trkpt lat="43.33588578802658" lon="5.752640686216703"><ele>670.0</ele><time>2026-04-25T14:56:10.98Z</time></trkpt><trkpt lat="43.33586555653335" lon="5.752832610737918"><ele>670.0</ele><time>2026-04-25T14:56:11.98Z</time></trkpt><trkpt lat="43.335848671406765" lon="5.75301216790783"><ele>670.0</ele><time>2026-04-25T14:56:12.98Z</time></trkpt><trkpt lat="43.33582918443308" lon="5.753180185218499"><ele>670.0</ele><time>2026-04-25T14:56:13.98Z</time></trkpt><trkpt lat="43.335808873998126" lon="5.753348712253419"><ele>670.0</ele><time>2026-04-25T14:56:14.98Z</time></trkpt><trkpt lat="43.335789933194796" lon="5.7535101745151636"><ele>670.0</ele><time>2026-04-25T14:56:15.98Z</time></trkpt><trkpt lat="43.33577549916192" lon="5.753672944997361"><ele>670.0</ele><time>2026-04-25T14:56:16.98Z</time></trkpt><trkpt lat="43.335758087737936" lon="5.753841148067619"><ele>669.75</ele><time>2026-04-25T14:56:17.98Z</time></trkpt><trkpt lat="43.33574137468538" lon="5.754010112447547"><ele>669.5</ele><time>2026-04-25T14:56:18.98Z</time></trkpt><trkpt lat="43.33572374858652" lon="5.754180964036265"><ele>669.25</ele><time>2026-04-25T14:56:19.98Z</time></trkpt><trkpt lat="43.33570588792751" lon="5.7543594701572625"><ele>669.0</ele><time>2026-04-25T14:56:20.98Z</time></trkpt><trkpt lat="43.33568658510607" lon="5.754523978663927"><ele>669.0</ele><time>2026-04-25T14:56:21.98Z</time></trkpt><trkpt lat="43.335643807393474" lon="5.754688756155459"><ele>669.0</ele><time>2026-04-25T14:56:22.98Z</time></trkpt><trkpt lat="43.33562531718062" lon="5.754846978246467"><ele>669.0</ele><time>2026-04-25T14:56:23.98Z</time></trkpt><trkpt lat="43.335608315955376" lon="5.75500049592277"><ele>669.0</ele><time>2026-04-25T14:56:24.98Z</time></trkpt><trkpt lat="43.3355928040702" lon="5.755156523244149"><ele>669.25</ele><time>2026-04-25T14:56:25.98Z</time></trkpt><trkpt lat="43.3355816202959" lon="5.755319294525289"><ele>669.5</ele><time>2026-04-25T14:56:26.98Z</time></trkpt><trkpt lat="43.33557792889766" lon="5.755481227191666"><ele>669.75</ele><time>2026-04-25T14:56:27.98Z</time></trkpt><trkpt lat="43.33557737820643" lon="5.755641368108537"><ele>670.0</ele><time>2026-04-25T14:56:28.98Z</time></trkpt><trkpt lat="43.335577187038204" lon="5.755790009822451"><ele>670.0</ele><time>2026-04-25T14:56:29.98Z</time></trkpt><trkpt lat="43.33557583304729" lon="5.755936088967804"><ele>670.0</ele><time>2026-04-25T14:56:30.98Z</time></trkpt><trkpt lat="43.335579130342786" lon="5.756068345380467"><ele>670.0</ele><time>2026-04-25T14:56:31.98Z</time></trkpt><trkpt lat="43.33558019564157" lon="5.756198422916127"><ele>670.0</ele><time>2026-04-25T14:56:32.98Z</time></trkpt><trkpt lat="43.335580616831535" lon="5.7563210915605385"><ele>670.0</ele><time>2026-04-25T14:56:33.98Z</time></trkpt><trkpt lat="43.33558496271738" lon="5.756434039197223"><ele>670.1666666666667</ele><time>2026-04-25T14:56:34.98Z</time></trkpt><trkpt lat="43.33558623816127" lon="5.756553953256671"><ele>670.3333333333334</ele><time>2026-04-25T14:56:35.98Z</time></trkpt><trkpt lat="43.335585318832166" lon="5.75667871929758"><ele>670.5</ele><time>2026-04-25T14:56:36.98Z</time></trkpt><trkpt lat="43.335585626777885" lon="5.756801596477759"><ele>670.6666666666666</ele><time>2026-04-25T14:56:37.98Z</time></trkpt><trkpt lat="43.33558983575033" lon="5.756916973988264"><ele>670.8333333333333</ele><time>2026-04-25T14:56:38.98Z</time></trkpt><trkpt lat="43.335589715177804" lon="5.757043480404778"><ele>671.0</ele><time>2026-04-25T14:56:39.98Z</time></trkpt><trkpt lat="43.33558985351124" lon="5.757173239790757"><ele>671.0</ele><time>2026-04-25T14:56:40.98Z</time></trkpt><trkpt lat="43.33559231638986" lon="5.757291282538185"><ele>671.0</ele><time>2026-04-25T14:56:41.98Z</time></trkpt><trkpt lat="43.3355960718323" lon="5.757403674929476"><ele>671.0</ele><time>2026-04-25T14:56:42.98Z</time></trkpt><trkpt lat="43.33559587449214" lon="5.7575185856036155"><ele>671.0</ele><time>2026-04-25T14:56:43.98Z</time></trkpt><trkpt lat="43.335600758773936" lon="5.757641809623424"><ele>671.0</ele><time>2026-04-25T14:56:44.98Z</time></trkpt><trkpt lat="43.33560073521321" lon="5.757774055287097"><ele>671.0</ele><time>2026-04-25T14:56:45.98Z</time></trkpt><trkpt lat="43.335603468242674" lon="5.757900968539297"><ele>671.0</ele><time>2026-04-25T14:56:46.98Z</time></trkpt><trkpt lat="43.33560608550126" lon="5.758031320466929"><ele>671.0</ele><time>2026-04-25T14:56:47.98Z</time></trkpt><trkpt lat="43.33560905548327" lon="5.758164467401473"><ele>671.0</ele><time>2026-04-25T14:56:48.98Z</time></trkpt><trkpt lat="43.335615695946935" lon="5.758302408082904"><ele>671.0</ele><time>2026-04-25T14:56:49.98Z</time></trkpt><trkpt lat="43.33562547028089" lon="5.75844380823017"><ele>671.0</ele><time>2026-04-25T14:56:50.98Z</time></trkpt><trkpt lat="43.33563763459653" lon="5.758584124982354"><ele>671.1999999999999</ele><time>2026-04-25T14:56:51.98Z</time></trkpt><trkpt lat="43.33564777524047" lon="5.758725546625513"><ele>671.4</ele><time>2026-04-25T14:56:52.98Z</time></trkpt><trkpt lat="43.33566266028188" lon="5.758872682511474"><ele>671.6</ele><time>2026-04-25T14:56:53.98Z</time></trkpt><trkpt lat="43.335671513994114" lon="5.75901890399785"><ele>671.8</ele><time>2026-04-25T14:56:54.98Z</time></trkpt><trkpt lat="43.33567930098988" lon="5.759174373774356"><ele>672.0</ele><time>2026-04-25T14:56:55.98Z</time></trkpt><trkpt lat="43.33568826555204" lon="5.759337255079354"><ele>672.25</ele><time>2026-04-25T14:56:56.98Z</time></trkpt><trkpt lat="43.33570295147923" lon="5.759516461550892"><ele>672.5</ele><time>2026-04-25T14:56:57.98Z</time></trkpt><trkpt lat="43.33570755093291" lon="5.759721864590738"><ele>672.75</ele><time>2026-04-25T14:56:58.98Z</time></trkpt><trkpt lat="43.33571236805977" lon="5.759950838189811"><ele>673.0</ele><time>2026-04-25T14:56:59.98Z</time></trkpt><trkpt lat="43.33571015500717" lon="5.760205105767112"><ele>673.0</ele><time>2026-04-25T14:57:00.98Z</time></trkpt><trkpt lat="43.335726120424795" lon="5.760479064028679"><ele>673.0</ele><time>2026-04-25T14:57:01.98Z</time></trkpt><trkpt lat="43.33574319463996" lon="5.760779657550911"><ele>673.0</ele><time>2026-04-25T14:57:02.98Z</time></trkpt><trkpt lat="43.33575035217908" lon="5.761088127841533"><ele>673.0</ele><time>2026-04-25T14:57:03.98Z</time></trkpt><trkpt lat="43.33575327425973" lon="5.76137265206808"><ele>673.0</ele><time>2026-04-25T14:57:04.98Z</time></trkpt><trkpt lat="43.335757853724374" lon="5.761641158493651"><ele>673.0</ele><time>2026-04-25T14:57:05.98Z</time></trkpt><trkpt lat="43.33575469319511" lon="5.761894216558171"><ele>673.6666666666667</ele><time>2026-04-25T14:57:06.98Z</time></trkpt><trkpt lat="43.335735073032424" lon="5.762129379889685"><ele>674.3333333333334</ele><time>2026-04-25T14:57:07.98Z</time></trkpt><trkpt lat="43.33572811864558" lon="5.762399040928445"><ele>675.0</ele><time>2026-04-25T14:57:08.98Z</time></trkpt><trkpt lat="43.33572166018553" lon="5.76269408122983"><ele>676.0</ele><time>2026-04-25T14:57:09.98Z</time></trkpt><trkpt lat="43.33571552424147" lon="5.7630118118378295"><ele>677.0</ele><time>2026-04-25T14:57:10.98Z</time></trkpt><trkpt lat="43.33570952651731" lon="5.763322385019483"><ele>677.3333333333333</ele><time>2026-04-25T14:57:11.98Z</time></trkpt><trkpt lat="43.335703017784546" lon="5.763598767740671"><ele>677.6666666666666</ele><time>2026-04-25T14:57:12.98Z</time></trkpt><trkpt lat="43.33569400323909" lon="5.763865248820564"><ele>678.0</ele><time>2026-04-25T14:57:13.98Z</time></trkpt><trkpt lat="43.33568924858879" lon="5.76410866046023"><ele>678.0</ele><time>2026-04-25T14:57:14.98Z</time></trkpt><trkpt lat="43.335688463975266" lon="5.764339101363659"><ele>678.0</ele><time>2026-04-25T14:57:15.98Z</time></trkpt><trkpt lat="43.33568955771374" lon="5.7645608851820676"><ele>678.0</ele><time>2026-04-25T14:57:16.98Z</time></trkpt><trkpt lat="43.33569329786427" lon="5.764769909829304"><ele>678.25</ele><time>2026-04-25T14:57:17.979Z</time></trkpt><trkpt lat="43.33570683333546" lon="5.764970668996237"><ele>678.5</ele><time>2026-04-25T14:57:18.979Z</time></trkpt><trkpt lat="43.335740068548134" lon="5.765149702661452"><ele>678.75</ele><time>2026-04-25T14:57:19.979Z</time></trkpt><trkpt lat="43.33579253287644" lon="5.765296476348992"><ele>679.0</ele><time>2026-04-25T14:57:20.979Z</time></trkpt><trkpt lat="43.33586236391179" lon="5.765427744402449"><ele>679.3333333333334</ele><time>2026-04-25T14:57:21.979Z</time></trkpt><trkpt lat="43.33592626769113" lon="5.76553403558911"><ele>679.6666666666667</ele><time>2026-04-25T14:57:22.979Z</time></trkpt><trkpt lat="43.33598798271551" lon="5.76558663389167"><ele>680.0</ele><time>2026-04-25T14:57:23.979Z</time></trkpt><trkpt lat="43.33598433637909" lon="5.765702950807958"><ele>680.3333333333334</ele><time>2026-04-25T14:57:25.979Z</time></trkpt><trkpt lat="43.33592509422087" lon="5.765741734588114"><ele>680.6666666666666</ele><time>2026-04-25T14:57:26.979Z</time></trkpt><trkpt lat="43.33587212562202" lon="5.765800647536637"><ele>681.0</ele><time>2026-04-25T14:57:27.979Z</time></trkpt><trkpt lat="43.33584714340531" lon="5.76593286964782"><ele>681.75</ele><time>2026-04-25T14:57:28.979Z</time></trkpt><trkpt lat="43.33587439756683" lon="5.766103430088994"><ele>682.5</ele><time>2026-04-25T14:57:29.979Z</time></trkpt><trkpt lat="43.335903040338096" lon="5.766284961154683"><ele>683.25</ele><time>2026-04-25T14:57:30.979Z</time></trkpt><trkpt lat="43.33593381456696" lon="5.766476290853421"><ele>684.0</ele><time>2026-04-25T14:57:31.979Z</time></trkpt><trkpt lat="43.33596310629937" lon="5.766695927074201"><ele>684.3333333333334</ele><time>2026-04-25T14:57:32.979Z</time></trkpt><trkpt lat="43.336019705253655" lon="5.766936255495895"><ele>684.6666666666667</ele><time>2026-04-25T14:57:33.979Z</time></trkpt><trkpt lat="43.336064056852365" lon="5.7672064782152725"><ele>685.0</ele><time>2026-04-25T14:57:34.979Z</time></trkpt><trkpt lat="43.33612798543005" lon="5.767476720213644"><ele>685.5</ele><time>2026-04-25T14:57:35.979Z</time></trkpt><trkpt lat="43.33619988071795" lon="5.767765509738247"><ele>686.0</ele><time>2026-04-25T14:57:36.979Z</time></trkpt><trkpt lat="43.33626432381763" lon="5.768077639983033"><ele>686.0</ele><time>2026-04-25T14:57:37.979Z</time></trkpt><trkpt lat="43.33634210826404" lon="5.768397557627345"><ele>686.0</ele><time>2026-04-25T14:57:38.978Z</time></trkpt><trkpt lat="43.33641281308085" lon="5.76873040409683"><ele>686.0</ele><time>2026-04-25T14:57:39.978Z</time></trkpt><trkpt lat="43.33649013222633" lon="5.769064733371764"><ele>686.0</ele><time>2026-04-25T14:57:40.978Z</time></trkpt><trkpt lat="43.33657880384629" lon="5.769405229429277"><ele>686.0</ele><time>2026-04-25T14:57:41.978Z</time></trkpt><trkpt lat="43.33666440108008" lon="5.76975994359859"><ele>686.0</ele><time>2026-04-25T14:57:42.978Z</time></trkpt><trkpt lat="43.336742638191225" lon="5.770082860498015"><ele>685.5</ele><time>2026-04-25T14:57:43.978Z</time></trkpt><trkpt lat="43.33682086169012" lon="5.770392444827422"><ele>685.0</ele><time>2026-04-25T14:57:44.979Z</time></trkpt><trkpt lat="43.336895361727755" lon="5.770688157728178"><ele>685.0</ele><time>2026-04-25T14:57:45.979Z</time></trkpt><trkpt lat="43.336966863782095" lon="5.77097523010938"><ele>685.0</ele><time>2026-04-25T14:57:46.979Z</time></trkpt><trkpt lat="43.337028079126306" lon="5.771257945264452"><ele>685.0</ele><time>2026-04-25T14:57:47.978Z</time></trkpt><trkpt lat="43.33707215332608" lon="5.771546816085023"><ele>685.3333333333334</ele><time>2026-04-25T14:57:48.979Z</time></trkpt><trkpt lat="43.337122381730644" lon="5.771839202676899"><ele>685.6666666666666</ele><time>2026-04-25T14:57:49.979Z</time></trkpt><trkpt lat="43.337170560831495" lon="5.77211930455947"><ele>686.0</ele><time>2026-04-25T14:57:50.978Z</time></trkpt><trkpt lat="43.33721059113484" lon="5.772398838660835"><ele>686.6666666666666</ele><time>2026-04-25T14:57:51.979Z</time></trkpt><trkpt lat="43.33725769302865" lon="5.772675508048607"><ele>687.3333333333334</ele><time>2026-04-25T14:57:52.979Z</time></trkpt><trkpt lat="43.337303677941065" lon="5.7729466018963524"><ele>688.0</ele><time>2026-04-25T14:57:53.979Z</time></trkpt><trkpt lat="43.337364708434805" lon="5.773195496084065"><ele>688.0</ele><time>2026-04-25T14:57:54.979Z</time></trkpt><trkpt lat="43.33740689779329" lon="5.773442227549274"><ele>688.0</ele><time>2026-04-25T14:57:55.979Z</time></trkpt><trkpt lat="43.33744127615423" lon="5.773693612190462"><ele>688.0</ele><time>2026-04-25T14:57:56.979Z</time></trkpt><trkpt lat="43.33748606160663" lon="5.773930448287383"><ele>687.6666666666667</ele><time>2026-04-25T14:57:57.979Z</time></trkpt><trkpt lat="43.337533283636574" lon="5.774174127702759"><ele>687.3333333333334</ele><time>2026-04-25T14:57:58.979Z</time></trkpt><trkpt lat="43.3375726439948" lon="5.774418616653318"><ele>687.0</ele><time>2026-04-25T14:57:59.979Z</time></trkpt><trkpt lat="43.337604575019135" lon="5.774678289215995"><ele>687.0</ele><time>2026-04-25T14:58:00.979Z</time></trkpt><trkpt lat="43.33761540544788" lon="5.774949639923474"><ele>687.0</ele><time>2026-04-25T14:58:01.979Z</time></trkpt><trkpt lat="43.337637648001035" lon="5.775200634828349"><ele>687.0</ele><time>2026-04-25T14:58:02.979Z</time></trkpt><trkpt lat="43.337661602587765" lon="5.775446630531623"><ele>688.3333333333334</ele><time>2026-04-25T14:58:03.979Z</time></trkpt><trkpt lat="43.337676435261436" lon="5.775674560979217"><ele>689.6666666666667</ele><time>2026-04-25T14:58:04.979Z</time></trkpt><trkpt lat="43.33769657003345" lon="5.775904496140146"><ele>691.0</ele><time>2026-04-25T14:58:05.979Z</time></trkpt><trkpt lat="43.33772333068782" lon="5.776138814532416"><ele>691.6666666666667</ele><time>2026-04-25T14:58:06.979Z</time></trkpt><trkpt lat="43.33777603397988" lon="5.776355063479402"><ele>692.3333333333334</ele><time>2026-04-25T14:58:07.979Z</time></trkpt><trkpt lat="43.33784849748962" lon="5.77657539594666"><ele>693.0</ele><time>2026-04-25T14:58:08.979Z</time></trkpt><trkpt lat="43.337918622156025" lon="5.776786143383601"><ele>693.3333333333334</ele><time>2026-04-25T14:58:09.979Z</time></trkpt><trkpt lat="43.33798104007307" lon="5.7769911351328656"><ele>693.6666666666667</ele><time>2026-04-25T14:58:10.979Z</time></trkpt><trkpt lat="43.33804714084067" lon="5.777199100988265"><ele>694.0</ele><time>2026-04-25T14:58:11.979Z</time></trkpt><trkpt lat="43.33811258192055" lon="5.777415221683166"><ele>693.3333333333334</ele><time>2026-04-25T14:58:12.979Z</time></trkpt><trkpt lat="43.338179907335515" lon="5.777624415299263"><ele>692.6666666666666</ele><time>2026-04-25T14:58:13.979Z</time></trkpt><trkpt lat="43.33824737476982" lon="5.77785013526871"><ele>692.0</ele><time>2026-04-25T14:58:14.979Z</time></trkpt><trkpt lat="43.33831684542839" lon="5.778067250072455"><ele>692.0</ele><time>2026-04-25T14:58:15.978Z</time></trkpt><trkpt lat="43.33838532181276" lon="5.778297418572368"><ele>692.0</ele><time>2026-04-25T14:58:16.978Z</time></trkpt><trkpt lat="43.33846136535601" lon="5.778523888613731"><ele>692.0</ele><time>2026-04-25T14:58:17.978Z</time></trkpt><trkpt lat="43.33853114512039" lon="5.778749095441984"><ele>694.0</ele><time>2026-04-25T14:58:18.978Z</time></trkpt><trkpt lat="43.33860359639244" lon="5.778999470353769"><ele>696.0</ele><time>2026-04-25T14:58:19.978Z</time></trkpt><trkpt lat="43.33867382971087" lon="5.779251134418057"><ele>698.0</ele><time>2026-04-25T14:58:20.978Z</time></trkpt><trkpt lat="43.33874454098173" lon="5.779494407545207"><ele>697.6666666666666</ele><time>2026-04-25T14:58:21.978Z</time></trkpt><trkpt lat="43.33881236043975" lon="5.779724920204928"><ele>697.3333333333334</ele><time>2026-04-25T14:58:22.978Z</time></trkpt><trkpt lat="43.33888125201446" lon="5.779951394001327"><ele>697.0</ele><time>2026-04-25T14:58:23.978Z</time></trkpt><trkpt lat="43.33895122291268" lon="5.780164263904868"><ele>698.0</ele><time>2026-04-25T14:58:24.978Z</time></trkpt><trkpt lat="43.339019631482344" lon="5.780377157434274"><ele>699.0</ele><time>2026-04-25T14:58:25.978Z</time></trkpt><trkpt lat="43.339085435721294" lon="5.780591992172844"><ele>700.0</ele><time>2026-04-25T14:58:26.978Z</time></trkpt><trkpt lat="43.33914662239801" lon="5.780823282633694"><ele>701.3333333333334</ele><time>2026-04-25T14:58:27.978Z</time></trkpt><trkpt lat="43.33920868977378" lon="5.781043061407576"><ele>702.6666666666666</ele><time>2026-04-25T14:58:28.978Z</time></trkpt><trkpt lat="43.33926497551497" lon="5.781262910011022"><ele>704.0</ele><time>2026-04-25T14:58:29.978Z</time></trkpt><trkpt lat="43.33933275588517" lon="5.781489385705508"><ele>704.0</ele><time>2026-04-25T14:58:30.978Z</time></trkpt><trkpt lat="43.339402739400306" lon="5.781712411763867"><ele>704.0</ele><time>2026-04-25T14:58:31.978Z</time></trkpt><trkpt lat="43.33945060796169" lon="5.781944106007218"><ele>704.0</ele><time>2026-04-25T14:58:32.978Z</time></trkpt><trkpt lat="43.33952630792762" lon="5.782173454347072"><ele>704.3333333333333</ele><time>2026-04-25T14:58:33.978Z</time></trkpt><trkpt lat="43.339581743596504" lon="5.782400024657587"><ele>704.6666666666666</ele><time>2026-04-25T14:58:34.978Z</time></trkpt><trkpt lat="43.33964335581331" lon="5.782636663553448"><ele>705.0</ele><time>2026-04-25T14:58:35.978Z</time></trkpt><trkpt lat="43.33969862326578" lon="5.782873689875706"><ele>704.3333333333334</ele><time>2026-04-25T14:58:36.978Z</time></trkpt><trkpt lat="43.3397623624676" lon="5.783094068281271"><ele>703.6666666666667</ele><time>2026-04-25T14:58:37.978Z</time></trkpt><trkpt lat="43.33983530186822" lon="5.7833380834488075"><ele>703.0</ele><time>2026-04-25T14:58:38.978Z</time></trkpt><trkpt lat="43.339903732479435" lon="5.783582114067356"><ele>703.0</ele><time>2026-04-25T14:58:39.978Z</time></trkpt><trkpt lat="43.339963276355626" lon="5.78383575219368"><ele>703.0</ele><time>2026-04-25T14:58:40.978Z</time></trkpt><trkpt lat="43.34002928986943" lon="5.784060541489687"><ele>703.0</ele><time>2026-04-25T14:58:41.978Z</time></trkpt><trkpt lat="43.340093783362924" lon="5.784259899166203"><ele>704.3333333333334</ele><time>2026-04-25T14:58:42.978Z</time></trkpt><trkpt lat="43.34016751163881" lon="5.784438072062997"><ele>705.6666666666666</ele><time>2026-04-25T14:58:43.978Z</time></trkpt><trkpt lat="43.340261789752354" lon="5.784621307464922"><ele>707.0</ele><time>2026-04-25T14:58:44.978Z</time></trkpt><trkpt lat="43.34036693116729" lon="5.784830301998841"><ele>707.0</ele><time>2026-04-25T14:58:45.978Z</time></trkpt><trkpt lat="43.340474992811274" lon="5.785080270337907"><ele>707.0</ele><time>2026-04-25T14:58:46.978Z</time></trkpt><trkpt lat="43.34058496238406" lon="5.785360500503245"><ele>707.0</ele><time>2026-04-25T14:58:47.978Z</time></trkpt><trkpt lat="43.34071176008109" lon="5.78566043473103"><ele>706.5</ele><time>2026-04-25T14:58:48.978Z</time></trkpt><trkpt lat="43.34083572256704" lon="5.785983029152175"><ele>706.0</ele><time>2026-04-25T14:58:49.978Z</time></trkpt><trkpt lat="43.34096548743277" lon="5.786302212614824"><ele>706.0</ele><time>2026-04-25T14:58:50.978Z</time></trkpt><trkpt lat="43.34108348316069" lon="5.786602560921805"><ele>706.0</ele><time>2026-04-25T14:58:51.978Z</time></trkpt><trkpt lat="43.34120287457097" lon="5.786884896903481"><ele>705.0</ele><time>2026-04-25T14:58:52.978Z</time></trkpt><trkpt lat="43.341301259608336" lon="5.787157546667878"><ele>704.0</ele><time>2026-04-25T14:58:53.978Z</time></trkpt><trkpt lat="43.34138736634476" lon="5.787427400955763"><ele>703.0</ele><time>2026-04-25T14:58:54.978Z</time></trkpt><trkpt lat="43.34145471698046" lon="5.787696029796796"><ele>705.0</ele><time>2026-04-25T14:58:55.978Z</time></trkpt><trkpt lat="43.341490278352886" lon="5.787959985947715"><ele>707.0</ele><time>2026-04-25T14:58:56.978Z</time></trkpt><trkpt lat="43.34152792182525" lon="5.788229502334374"><ele>709.0</ele><time>2026-04-25T14:58:57.978Z</time></trkpt><trkpt lat="43.341541379786655" lon="5.788499532844329"><ele>709.6666666666667</ele><time>2026-04-25T14:58:58.978Z</time></trkpt><trkpt lat="43.341557603856394" lon="5.788739153016608"><ele>710.3333333333334</ele><time>2026-04-25T14:58:59.978Z</time></trkpt><trkpt lat="43.341569573132276" lon="5.788941599928302"><ele>711.0</ele><time>2026-04-25T14:59:00.978Z</time></trkpt><trkpt lat="43.341614234884936" lon="5.789105896724893"><ele>711.0</ele><time>2026-04-25T14:59:01.978Z</time></trkpt><trkpt lat="43.341709912188044" lon="5.789228830479715"><ele>711.0</ele><time>2026-04-25T14:59:02.978Z</time></trkpt><trkpt lat="43.341837423320285" lon="5.789346027833195"><ele>711.0</ele><time>2026-04-25T14:59:03.978Z</time></trkpt><trkpt lat="43.341987008623526" lon="5.789489031487935"><ele>711.5</ele><time>2026-04-25T14:59:04.978Z</time></trkpt><trkpt lat="43.342168525314946" lon="5.789659460249562"><ele>712.0</ele><time>2026-04-25T14:59:05.978Z</time></trkpt><trkpt lat="43.34236984710049" lon="5.789848005851367"><ele>712.0</ele><time>2026-04-25T14:59:06.978Z</time></trkpt><trkpt lat="43.34258242880159" lon="5.790046146284422"><ele>712.0</ele><time>2026-04-25T14:59:07.978Z</time></trkpt><trkpt lat="43.342782196200645" lon="5.790222730477975"><ele>713.0</ele><time>2026-04-25T14:59:08.978Z</time></trkpt><trkpt lat="43.342964014454985" lon="5.790377523242052"><ele>714.0</ele><time>2026-04-25T14:59:09.978Z</time></trkpt><trkpt lat="43.343113063639386" lon="5.790521475050137"><ele>715.0</ele><time>2026-04-25T14:59:10.978Z</time></trkpt><trkpt lat="43.343253494034364" lon="5.790643043468104"><ele>715.75</ele><time>2026-04-25T14:59:11.978Z</time></trkpt><trkpt lat="43.34337884609977" lon="5.790753812068148"><ele>716.5</ele><time>2026-04-25T14:59:12.978Z</time></trkpt><trkpt lat="43.34349553430413" lon="5.790849596716128"><ele>717.25</ele><time>2026-04-25T14:59:13.978Z</time></trkpt><trkpt lat="43.343609153015706" lon="5.790972413413581"><ele>718.0</ele><time>2026-04-25T14:59:14.978Z</time></trkpt><trkpt lat="43.34370517781091" lon="5.791139468353163"><ele>718.3333333333334</ele><time>2026-04-25T14:59:15.978Z</time></trkpt><trkpt lat="43.34377802530572" lon="5.791369462400314"><ele>718.6666666666666</ele><time>2026-04-25T14:59:16.978Z</time></trkpt><trkpt lat="43.34384717010804" lon="5.791627953517549"><ele>719.0</ele><time>2026-04-25T14:59:17.978Z</time></trkpt><trkpt lat="43.343929881386494" lon="5.791879032275609"><ele>719.3333333333333</ele><time>2026-04-25T14:59:18.978Z</time></trkpt><trkpt lat="43.34402945705889" lon="5.792116858163341"><ele>719.6666666666666</ele><time>2026-04-25T14:59:19.978Z</time></trkpt><trkpt lat="43.344123330843566" lon="5.792327204393425"><ele>720.0</ele><time>2026-04-25T14:59:20.978Z</time></trkpt><trkpt lat="43.34423750769194" lon="5.7925314770451"><ele>720.0</ele><time>2026-04-25T14:59:21.978Z</time></trkpt><trkpt lat="43.34433762722553" lon="5.792710607615213"><ele>720.0</ele><time>2026-04-25T14:59:22.978Z</time></trkpt><trkpt lat="43.344430655894804" lon="5.792881132675832"><ele>720.0</ele><time>2026-04-25T14:59:23.978Z</time></trkpt><trkpt lat="43.34449752474695" lon="5.793051500401012"><ele>720.0</ele><time>2026-04-25T14:59:24.978Z</time></trkpt><trkpt lat="43.34456677451718" lon="5.793234401051495"><ele>720.0</ele><time>2026-04-25T14:59:25.978Z</time></trkpt><trkpt lat="43.34463858822363" lon="5.793445479196676"><ele>720.0</ele><time>2026-04-25T14:59:26.978Z</time></trkpt><trkpt lat="43.34471788067676" lon="5.793669927626632"><ele>718.0</ele><time>2026-04-25T14:59:27.978Z</time></trkpt><trkpt lat="43.34480368520499" lon="5.7939122760493955"><ele>716.0</ele><time>2026-04-25T14:59:28.978Z</time></trkpt><trkpt lat="43.34490080001906" lon="5.794179566863234"><ele>714.0</ele><time>2026-04-25T14:59:29.978Z</time></trkpt><trkpt lat="43.34500205040266" lon="5.794447367464233"><ele>714.0</ele><time>2026-04-25T14:59:30.978Z</time></trkpt><trkpt lat="43.34509875011959" lon="5.794703671426868"><ele>714.0</ele><time>2026-04-25T14:59:31.978Z</time></trkpt><trkpt lat="43.34518539132552" lon="5.794950906323772"><ele>714.0</ele><time>2026-04-25T14:59:32.978Z</time></trkpt><trkpt lat="43.34526337102769" lon="5.795209534651183"><ele>713.6666666666666</ele><time>2026-04-25T14:59:33.978Z</time></trkpt><trkpt lat="43.34533836471087" lon="5.795478618384695"><ele>713.3333333333333</ele><time>2026-04-25T14:59:34.978Z</time></trkpt><trkpt lat="43.34541779373121" lon="5.795755840171054"><ele>713.0</ele><time>2026-04-25T14:59:35.978Z</time></trkpt><trkpt lat="43.34548933753689" lon="5.796016213945989"><ele>711.6666666666666</ele><time>2026-04-25T14:59:36.978Z</time></trkpt><trkpt lat="43.345551003024624" lon="5.796256366868799"><ele>710.3333333333334</ele><time>2026-04-25T14:59:37.978Z</time></trkpt><trkpt lat="43.345606680185526" lon="5.7964888168684325"><ele>709.0</ele><time>2026-04-25T14:59:38.978Z</time></trkpt><trkpt lat="43.3456455122359" lon="5.796733366171132"><ele>709.3333333333334</ele><time>2026-04-25T14:59:39.978Z</time></trkpt><trkpt lat="43.34566711192572" lon="5.796993595303766"><ele>709.6666666666666</ele><time>2026-04-25T14:59:40.978Z</time></trkpt><trkpt lat="43.3457000067487" lon="5.7972390961455975"><ele>710.0</ele><time>2026-04-25T14:59:41.978Z</time></trkpt><trkpt lat="43.345735804921716" lon="5.797469739504592"><ele>711.3333333333333</ele><time>2026-04-25T14:59:42.978Z</time></trkpt><trkpt lat="43.345764736343156" lon="5.797694546507006"><ele>712.6666666666666</ele><time>2026-04-25T14:59:43.978Z</time></trkpt><trkpt lat="43.34579125935793" lon="5.79790533366583"><ele>714.0</ele><time>2026-04-25T14:59:44.977Z</time></trkpt><trkpt lat="43.3458482421468" lon="5.798107252853762"><ele>714.0</ele><time>2026-04-25T14:59:45.977Z</time></trkpt><trkpt lat="43.34593832158223" lon="5.798305319494987"><ele>714.0</ele><time>2026-04-25T14:59:46.977Z</time></trkpt><trkpt lat="43.346057591901655" lon="5.7984591232877"><ele>714.0</ele><time>2026-04-25T14:59:47.977Z</time></trkpt><trkpt lat="43.34621738803673" lon="5.798595834588439"><ele>715.0</ele><time>2026-04-25T14:59:48.977Z</time></trkpt><trkpt lat="43.34638400855727" lon="5.798771423596108"><ele>716.0</ele><time>2026-04-25T14:59:49.977Z</time></trkpt><trkpt lat="43.34655663495291" lon="5.7989669836439965"><ele>717.0</ele><time>2026-04-25T14:59:50.978Z</time></trkpt><trkpt lat="43.346723099582874" lon="5.799167535086158"><ele>718.6666666666666</ele><time>2026-04-25T14:59:51.977Z</time></trkpt><trkpt lat="43.34686504785349" lon="5.799353138421521"><ele>720.3333333333333</ele><time>2026-04-25T14:59:52.977Z</time></trkpt><trkpt lat="43.34699211944048" lon="5.799522465224714"><ele>722.0</ele><time>2026-04-25T14:59:53.977Z</time></trkpt><trkpt lat="43.34708817034294" lon="5.799681619982265"><ele>722.0</ele><time>2026-04-25T14:59:54.978Z</time></trkpt><trkpt lat="43.347161041563865" lon="5.799829936485962"><ele>722.0</ele><time>2026-04-25T14:59:55.978Z</time></trkpt><trkpt lat="43.34724510631561" lon="5.799993230100495"><ele>722.0</ele><time>2026-04-25T14:59:56.978Z</time></trkpt><trkpt lat="43.34732249814234" lon="5.8001898398006535"><ele>722.0</ele><time>2026-04-25T14:59:57.977Z</time></trkpt><trkpt lat="43.34738175556002" lon="5.800402157114688"><ele>721.3333333333333</ele><time>2026-04-25T14:59:58.977Z</time></trkpt><trkpt lat="43.347420867084516" lon="5.800603564340326"><ele>720.6666666666666</ele><time>2026-04-25T14:59:59.977Z</time></trkpt><trkpt lat="43.34744800411544" lon="5.800800624417009"><ele>720.0</ele><time>2026-04-25T15:00:00.977Z</time></trkpt><trkpt lat="43.34746046983807" lon="5.801029155021033"><ele>720.0</ele><time>2026-04-25T15:00:01.977Z</time></trkpt><trkpt lat="43.34744198731168" lon="5.801283534555463"><ele>720.0</ele><time>2026-04-25T15:00:02.977Z</time></trkpt><trkpt lat="43.34739608836026" lon="5.801555598262945"><ele>720.0</ele><time>2026-04-25T15:00:03.977Z</time></trkpt><trkpt lat="43.3473643032067" lon="5.801833281667389"><ele>718.6666666666666</ele><time>2026-04-25T15:00:04.977Z</time></trkpt><trkpt lat="43.347338395677426" lon="5.802119364554105"><ele>717.3333333333333</ele><time>2026-04-25T15:00:05.977Z</time></trkpt><trkpt lat="43.3473173911983" lon="5.802408939770174"><ele>716.0</ele><time>2026-04-25T15:00:06.977Z</time></trkpt><trkpt lat="43.34729578891392" lon="5.802657371198198"><ele>716.0</ele><time>2026-04-25T15:00:07.977Z</time></trkpt><trkpt lat="43.34726545031027" lon="5.802927821382979"><ele>716.0</ele><time>2026-04-25T15:00:08.977Z</time></trkpt><trkpt lat="43.347248376039694" lon="5.803199075155533"><ele>716.0</ele><time>2026-04-25T15:00:09.977Z</time></trkpt><trkpt lat="43.347235845648186" lon="5.803494213533962"><ele>716.0</ele><time>2026-04-25T15:00:10.977Z</time></trkpt><trkpt lat="43.34725088834052" lon="5.803826012333025"><ele>716.0</ele><time>2026-04-25T15:00:11.977Z</time></trkpt><trkpt lat="43.347259043203216" lon="5.804159986431367"><ele>717.0</ele><time>2026-04-25T15:00:12.977Z</time></trkpt><trkpt lat="43.347262374694246" lon="5.804495245669861"><ele>718.0</ele><time>2026-04-25T15:00:13.977Z</time></trkpt><trkpt lat="43.347256613683136" lon="5.804798395162502"><ele>718.0</ele><time>2026-04-25T15:00:14.977Z</time></trkpt><trkpt lat="43.34726220694407" lon="5.805074676146411"><ele>718.0</ele><time>2026-04-25T15:00:15.977Z</time></trkpt><trkpt lat="43.347264603417024" lon="5.8053277149348"><ele>718.0</ele><time>2026-04-25T15:00:16.977Z</time></trkpt><trkpt lat="43.34727169008439" lon="5.805583863791907"><ele>718.6666666666667</ele><time>2026-04-25T15:00:17.977Z</time></trkpt><trkpt lat="43.34731516756377" lon="5.805840811152452"><ele>719.3333333333334</ele><time>2026-04-25T15:00:18.977Z</time></trkpt><trkpt lat="43.347373388979584" lon="5.806102382590953"><ele>720.0</ele><time>2026-04-25T15:00:19.977Z</time></trkpt><trkpt lat="43.34741421272658" lon="5.806386189204947"><ele>721.6666666666666</ele><time>2026-04-25T15:00:20.977Z</time></trkpt><trkpt lat="43.34745848744285" lon="5.806669501120064"><ele>723.3333333333333</ele><time>2026-04-25T15:00:21.977Z</time></trkpt><trkpt lat="43.347501725609355" lon="5.806963127059512"><ele>725.0</ele><time>2026-04-25T15:00:22.977Z</time></trkpt><trkpt lat="43.34754473698264" lon="5.807255963931994"><ele>726.6666666666666</ele><time>2026-04-25T15:00:23.977Z</time></trkpt><trkpt lat="43.347580686759585" lon="5.80756194913926"><ele>728.3333333333334</ele><time>2026-04-25T15:00:24.977Z</time></trkpt><trkpt lat="43.34762068705594" lon="5.807859407905143"><ele>730.0</ele><time>2026-04-25T15:00:25.977Z</time></trkpt><trkpt lat="43.34765725622738" lon="5.808143921155284"><ele>731.5</ele><time>2026-04-25T15:00:26.977Z</time></trkpt><trkpt lat="43.34771480957794" lon="5.80843222748327"><ele>733.0</ele><time>2026-04-25T15:00:27.977Z</time></trkpt><trkpt lat="43.34781351920488" lon="5.8087488150870605"><ele>734.0</ele><time>2026-04-25T15:00:28.977Z</time></trkpt><trkpt lat="43.347922739896944" lon="5.809087126151888"><ele>735.0</ele><time>2026-04-25T15:00:29.977Z</time></trkpt><trkpt lat="43.34803766375869" lon="5.809437253689425"><ele>733.0</ele><time>2026-04-25T15:00:30.977Z</time></trkpt><trkpt lat="43.34815982952789" lon="5.80980206757944"><ele>731.0</ele><time>2026-04-25T15:00:31.977Z</time></trkpt><trkpt lat="43.34826108289597" lon="5.810155872515008"><ele>731.0</ele><time>2026-04-25T15:00:32.977Z</time></trkpt><trkpt lat="43.34836714149452" lon="5.8105151439511875"><ele>731.0</ele><time>2026-04-25T15:00:33.977Z</time></trkpt><trkpt lat="43.348458120925045" lon="5.810871060464307"><ele>733.0</ele><time>2026-04-25T15:00:34.977Z</time></trkpt><trkpt lat="43.34853332173918" lon="5.811231118477675"><ele>735.0</ele><time>2026-04-25T15:00:35.977Z</time></trkpt><trkpt lat="43.34860080649225" lon="5.811586156793187"><ele>736.0</ele><time>2026-04-25T15:00:36.977Z</time></trkpt><trkpt lat="43.34868372778311" lon="5.811946460602865"><ele>737.0</ele><time>2026-04-25T15:00:37.977Z</time></trkpt><trkpt lat="43.348753055384016" lon="5.81227882502856"><ele>737.0</ele><time>2026-04-25T15:00:38.977Z</time></trkpt><trkpt lat="43.34882155379178" lon="5.81258313906813"><ele>737.0</ele><time>2026-04-25T15:00:39.977Z</time></trkpt><trkpt lat="43.348891514317685" lon="5.812878244690563"><ele>737.0</ele><time>2026-04-25T15:00:40.977Z</time></trkpt><trkpt lat="43.34895062353456" lon="5.813159230833133"><ele>737.0</ele><time>2026-04-25T15:00:41.977Z</time></trkpt><trkpt lat="43.34900484142764" lon="5.813430675330083"><ele>737.0</ele><time>2026-04-25T15:00:42.977Z</time></trkpt><trkpt lat="43.34905769480572" lon="5.813684628805133"><ele>737.6666666666666</ele><time>2026-04-25T15:00:43.977Z</time></trkpt><trkpt lat="43.34911274044836" lon="5.813937081165371"><ele>738.3333333333334</ele><time>2026-04-25T15:00:44.977Z</time></trkpt><trkpt lat="43.34917651457472" lon="5.814188095637714"><ele>739.0</ele><time>2026-04-25T15:00:45.977Z</time></trkpt><trkpt lat="43.349260016663514" lon="5.8144714550200405"><ele>742.0</ele><time>2026-04-25T15:00:46.977Z</time></trkpt><trkpt lat="43.34937913411028" lon="5.814758145940967"><ele>745.0</ele><time>2026-04-25T15:00:47.977Z</time></trkpt><trkpt lat="43.34949689988795" lon="5.81501907766572"><ele>745.3333333333334</ele><time>2026-04-25T15:00:48.977Z</time></trkpt><trkpt lat="43.349601395817714" lon="5.815259092504766"><ele>745.6666666666666</ele><time>2026-04-25T15:00:49.977Z</time></trkpt><trkpt lat="43.34971845669098" lon="5.81550604996264"><ele>746.0</ele><time>2026-04-25T15:00:50.977Z</time></trkpt><trkpt lat="43.34985663231871" lon="5.8157287198605"><ele>746.0</ele><time>2026-04-25T15:00:51.977Z</time></trkpt><trkpt lat="43.34998765927641" lon="5.815922394543041"><ele>746.0</ele><time>2026-04-25T15:00:52.977Z</time></trkpt><trkpt lat="43.35010185930907" lon="5.816106852295857"><ele>746.0</ele><time>2026-04-25T15:00:53.977Z</time></trkpt><trkpt lat="43.350198854807594" lon="5.816279580225037"><ele>746.3333333333333</ele><time>2026-04-25T15:00:54.977Z</time></trkpt><trkpt lat="43.35028644186058" lon="5.816489622412988"><ele>746.6666666666666</ele><time>2026-04-25T15:00:55.977Z</time></trkpt><trkpt lat="43.35037055024797" lon="5.8167059084947"><ele>747.0</ele><time>2026-04-25T15:00:56.977Z</time></trkpt><trkpt lat="43.35044402156223" lon="5.81689769961679"><ele>747.0</ele><time>2026-04-25T15:00:57.977Z</time></trkpt><trkpt lat="43.350516579608836" lon="5.817081958125799"><ele>747.0</ele><time>2026-04-25T15:00:58.977Z</time></trkpt><trkpt lat="43.350572291021365" lon="5.817289952984996"><ele>747.0</ele><time>2026-04-25T15:00:59.977Z</time></trkpt><trkpt lat="43.350620222055994" lon="5.817557323462916"><ele>746.5</ele><time>2026-04-25T15:01:00.977Z</time></trkpt><trkpt lat="43.35064359049003" lon="5.817883951300525"><ele>746.0</ele><time>2026-04-25T15:01:01.977Z</time></trkpt><trkpt lat="43.350674173355095" lon="5.818190644973225"><ele>746.0</ele><time>2026-04-25T15:01:02.977Z</time></trkpt><trkpt lat="43.3506985640294" lon="5.818478929482937"><ele>746.0</ele><time>2026-04-25T15:01:03.977Z</time></trkpt><trkpt lat="43.350697714948986" lon="5.818736325404449"><ele>746.0</ele><time>2026-04-25T15:01:04.977Z</time></trkpt><trkpt lat="43.35068295041809" lon="5.818984294727516"><ele>746.3333333333333</ele><time>2026-04-25T15:01:05.977Z</time></trkpt><trkpt lat="43.35068773339782" lon="5.819212755137179"><ele>746.6666666666666</ele><time>2026-04-25T15:01:06.977Z</time></trkpt><trkpt lat="43.35069231715294" lon="5.819431699735655"><ele>747.0</ele><time>2026-04-25T15:01:07.977Z</time></trkpt><trkpt lat="43.35072091208897" lon="5.819650473383528"><ele>746.0</ele><time>2026-04-25T15:01:08.977Z</time></trkpt><trkpt lat="43.35073782164743" lon="5.819879443112517"><ele>745.0</ele><time>2026-04-25T15:01:09.977Z</time></trkpt><trkpt lat="43.35077716256649" lon="5.820126116813148"><ele>744.0</ele><time>2026-04-25T15:01:10.977Z</time></trkpt><trkpt lat="43.35084824516619" lon="5.820385015334194"><ele>742.6666666666666</ele><time>2026-04-25T15:01:11.977Z</time></trkpt><trkpt lat="43.35091048030334" lon="5.820656009235195"><ele>741.3333333333333</ele><time>2026-04-25T15:01:12.977Z</time></trkpt><trkpt lat="43.35096172085995" lon="5.820948786665012"><ele>740.0</ele><time>2026-04-25T15:01:13.977Z</time></trkpt><trkpt lat="43.35102760274398" lon="5.821268037913752"><ele>739.5</ele><time>2026-04-25T15:01:14.977Z</time></trkpt><trkpt lat="43.35111259210912" lon="5.821607247058865"><ele>739.0</ele><time>2026-04-25T15:01:15.977Z</time></trkpt><trkpt lat="43.35119949456116" lon="5.821975966128573"><ele>739.0</ele><time>2026-04-25T15:01:16.977Z</time></trkpt><trkpt lat="43.35131424603327" lon="5.8223512043147085"><ele>739.0</ele><time>2026-04-25T15:01:17.977Z</time></trkpt><trkpt lat="43.351461181479344" lon="5.822748628257467"><ele>735.5</ele><time>2026-04-25T15:01:18.977Z</time></trkpt><trkpt lat="43.35162099457674" lon="5.823154710024507"><ele>732.0</ele><time>2026-04-25T15:01:19.977Z</time></trkpt><trkpt lat="43.351767489322256" lon="5.823574046093096"><ele>730.5</ele><time>2026-04-25T15:01:20.977Z</time></trkpt><trkpt lat="43.351907400161835" lon="5.823951872009771"><ele>729.0</ele><time>2026-04-25T15:01:21.977Z</time></trkpt><trkpt lat="43.35201453169939" lon="5.824296542290008"><ele>729.0</ele><time>2026-04-25T15:01:22.977Z</time></trkpt><trkpt lat="43.35207763790097" lon="5.824682089203979"><ele>729.0</ele><time>2026-04-25T15:01:23.977Z</time></trkpt><trkpt lat="43.35215138834577" lon="5.825034221538076"><ele>727.0</ele><time>2026-04-25T15:01:24.977Z</time></trkpt><trkpt lat="43.352213668101555" lon="5.825341731446794"><ele>725.0</ele><time>2026-04-25T15:01:25.977Z</time></trkpt><trkpt lat="43.35227003378315" lon="5.825611964775432"><ele>723.0</ele><time>2026-04-25T15:01:26.977Z</time></trkpt><trkpt lat="43.352343476545634" lon="5.825858312562417"><ele>722.75</ele><time>2026-04-25T15:01:27.977Z</time></trkpt><trkpt lat="43.352434249397106" lon="5.826045218318388"><ele>722.5</ele><time>2026-04-25T15:01:28.977Z</time></trkpt><trkpt lat="43.35250392501672" lon="5.82620158493059"><ele>722.25</ele><time>2026-04-25T15:01:29.977Z</time></trkpt><trkpt lat="43.35255026162097" lon="5.826346512384439"><ele>722.0</ele><time>2026-04-25T15:01:30.977Z</time></trkpt><trkpt lat="43.35256773885635" lon="5.826501666092124"><ele>722.0</ele><time>2026-04-25T15:01:31.977Z</time></trkpt><trkpt lat="43.352528738243414" lon="5.8266509819747325"><ele>722.0</ele><time>2026-04-25T15:01:32.977Z</time></trkpt><trkpt lat="43.35246422010592" lon="5.8268056207690995"><ele>722.0</ele><time>2026-04-25T15:01:33.977Z</time></trkpt><trkpt lat="43.35236774392777" lon="5.82695202363779"><ele>722.0</ele><time>2026-04-25T15:01:34.977Z</time></trkpt><trkpt lat="43.35227241138729" lon="5.827099925535331"><ele>723.75</ele><time>2026-04-25T15:01:35.977Z</time></trkpt><trkpt lat="43.352183225478235" lon="5.8272435126267315"><ele>725.5</ele><time>2026-04-25T15:01:36.977Z</time></trkpt><trkpt lat="43.35210397980335" lon="5.827367943305007"><ele>727.25</ele><time>2026-04-25T15:01:37.977Z</time></trkpt><trkpt lat="43.352030222195474" lon="5.827492380159167"><ele>729.0</ele><time>2026-04-25T15:01:38.977Z</time></trkpt><trkpt lat="43.3519771276681" lon="5.827611048797402"><ele>729.0</ele><time>2026-04-25T15:01:39.977Z</time></trkpt><trkpt lat="43.35196116310783" lon="5.82776354466513"><ele>729.0</ele><time>2026-04-25T15:01:40.977Z</time></trkpt><trkpt lat="43.35197196761919" lon="5.827944725592892"><ele>729.0</ele><time>2026-04-25T15:01:41.977Z</time></trkpt><trkpt lat="43.35198531780703" lon="5.828163480373152"><ele>729.0</ele><time>2026-04-25T15:01:42.977Z</time></trkpt><trkpt lat="43.35200521628647" lon="5.828408428559472"><ele>729.6666666666666</ele><time>2026-04-25T15:01:43.977Z</time></trkpt><trkpt lat="43.35199775225626" lon="5.828690625591306"><ele>730.3333333333333</ele><time>2026-04-25T15:01:44.977Z</time></trkpt><trkpt lat="43.35196009383266" lon="5.828922133151075"><ele>731.0</ele><time>2026-04-25T15:01:45.977Z</time></trkpt><trkpt lat="43.351942126854134" lon="5.8291547739868195"><ele>730.75</ele><time>2026-04-25T15:01:46.977Z</time></trkpt><trkpt lat="43.35194623333126" lon="5.8293565474991444"><ele>730.5</ele><time>2026-04-25T15:01:47.977Z</time></trkpt><trkpt lat="43.35196495012817" lon="5.829533597482148"><ele>730.25</ele><time>2026-04-25T15:01:48.977Z</time></trkpt><trkpt lat="43.35205152271035" lon="5.829697104278696"><ele>730.0</ele><time>2026-04-25T15:01:49.977Z</time></trkpt><trkpt lat="43.352141519624446" lon="5.829887789640562"><ele>725.6666666666667</ele><time>2026-04-25T15:01:50.977Z</time></trkpt><trkpt lat="43.35224389485026" lon="5.8301056448135125"><ele>721.3333333333334</ele><time>2026-04-25T15:01:51.977Z</time></trkpt><trkpt lat="43.35233153564181" lon="5.830297518678392"><ele>717.0</ele><time>2026-04-25T15:01:52.977Z</time></trkpt><trkpt lat="43.35240632662358" lon="5.83047323398381"><ele>717.0</ele><time>2026-04-25T15:01:53.977Z</time></trkpt><trkpt lat="43.35245298299555" lon="5.830634532064566"><ele>717.0</ele><time>2026-04-25T15:01:54.977Z</time></trkpt><trkpt lat="43.35248108720339" lon="5.830824819276145"><ele>717.0</ele><time>2026-04-25T15:01:55.976Z</time></trkpt><trkpt lat="43.35247205996497" lon="5.8310574895714415"><ele>717.0</ele><time>2026-04-25T15:01:56.977Z</time></trkpt><trkpt lat="43.35247140904483" lon="5.8313052020840015"><ele>716.3333333333334</ele><time>2026-04-25T15:01:57.977Z</time></trkpt><trkpt lat="43.35247077628396" lon="5.8315793783868175"><ele>715.6666666666667</ele><time>2026-04-25T15:01:58.977Z</time></trkpt><trkpt lat="43.35247113316553" lon="5.831840877919838"><ele>715.0</ele><time>2026-04-25T15:01:59.977Z</time></trkpt><trkpt lat="43.35247203567408" lon="5.8320938515248555"><ele>713.3333333333334</ele><time>2026-04-25T15:02:00.976Z</time></trkpt><trkpt lat="43.35247255012793" lon="5.8323311714260795"><ele>711.6666666666666</ele><time>2026-04-25T15:02:01.976Z</time></trkpt><trkpt lat="43.352469494536436" lon="5.832581056226462"><ele>710.0</ele><time>2026-04-25T15:02:02.977Z</time></trkpt><trkpt lat="43.35249541794268" lon="5.832853165535763"><ele>707.5</ele><time>2026-04-25T15:02:03.977Z</time></trkpt><trkpt lat="43.352536022796635" lon="5.833174126281028"><ele>705.0</ele><time>2026-04-25T15:02:04.977Z</time></trkpt><trkpt lat="43.35258248329003" lon="5.833484373197334"><ele>704.3333333333334</ele><time>2026-04-25T15:02:05.977Z</time></trkpt><trkpt lat="43.3526063707308" lon="5.833774587455994"><ele>703.6666666666667</ele><time>2026-04-25T15:02:06.977Z</time></trkpt><trkpt lat="43.35261641761368" lon="5.83404588241693"><ele>703.0</ele><time>2026-04-25T15:02:07.977Z</time></trkpt><trkpt lat="43.352637643082254" lon="5.8343207479891"><ele>701.6666666666667</ele><time>2026-04-25T15:02:08.977Z</time></trkpt><trkpt lat="43.35267232705033" lon="5.834560984934851"><ele>700.3333333333334</ele><time>2026-04-25T15:02:09.977Z</time></trkpt><trkpt lat="43.352701122759974" lon="5.834758839401928"><ele>699.0</ele><time>2026-04-25T15:02:10.977Z</time></trkpt><trkpt lat="43.35269709057184" lon="5.834960566134558"><ele>697.3333333333334</ele><time>2026-04-25T15:02:11.977Z</time></trkpt><trkpt lat="43.35265042269904" lon="5.835184046313739"><ele>695.6666666666667</ele><time>2026-04-25T15:02:12.977Z</time></trkpt><trkpt lat="43.35262887610306" lon="5.835400718393871"><ele>694.0</ele><time>2026-04-25T15:02:13.977Z</time></trkpt><trkpt lat="43.35260760064241" lon="5.8356148588128525"><ele>694.0</ele><time>2026-04-25T15:02:14.977Z</time></trkpt><trkpt lat="43.352632957730656" lon="5.8358196954778725"><ele>694.0</ele><time>2026-04-25T15:02:15.977Z</time></trkpt><trkpt lat="43.352649734615625" lon="5.836012910047802"><ele>694.0</ele><time>2026-04-25T15:02:16.977Z</time></trkpt><trkpt lat="43.35260523151419" lon="5.836224611808326"><ele>692.6666666666667</ele><time>2026-04-25T15:02:17.977Z</time></trkpt><trkpt lat="43.352525538325075" lon="5.836444561260373"><ele>691.3333333333334</ele><time>2026-04-25T15:02:18.977Z</time></trkpt><trkpt lat="43.35242408783307" lon="5.836652592371954"><ele>690.0</ele><time>2026-04-25T15:02:19.977Z</time></trkpt><trkpt lat="43.35233146207104" lon="5.836864487669797"><ele>689.0</ele><time>2026-04-25T15:02:20.977Z</time></trkpt><trkpt lat="43.35224653727575" lon="5.837057087313042"><ele>688.0</ele><time>2026-04-25T15:02:21.977Z</time></trkpt><trkpt lat="43.35217795597959" lon="5.837210178573623"><ele>687.0</ele><time>2026-04-25T15:02:22.977Z</time></trkpt><trkpt lat="43.3521344938645" lon="5.837340685321672"><ele>686.0</ele><time>2026-04-25T15:02:23.977Z</time></trkpt><trkpt lat="43.35213093714932" lon="5.837485578527446"><ele>684.3333333333333</ele><time>2026-04-25T15:02:24.977Z</time></trkpt><trkpt lat="43.35214968801709" lon="5.837681983774517"><ele>682.6666666666666</ele><time>2026-04-25T15:02:25.977Z</time></trkpt><trkpt lat="43.35219146503198" lon="5.837918341920064"><ele>681.0</ele><time>2026-04-25T15:02:26.977Z</time></trkpt><trkpt lat="43.352229472405" lon="5.838171334698297"><ele>680.6666666666666</ele><time>2026-04-25T15:02:27.977Z</time></trkpt><trkpt lat="43.352247286408456" lon="5.838437271533817"><ele>680.3333333333333</ele><time>2026-04-25T15:02:28.977Z</time></trkpt><trkpt lat="43.3522458975994" lon="5.838692812764199"><ele>680.0</ele><time>2026-04-25T15:02:29.977Z</time></trkpt><trkpt lat="43.35223804218041" lon="5.8389140993594575"><ele>679.75</ele><time>2026-04-25T15:02:30.977Z</time></trkpt><trkpt lat="43.3522383463399" lon="5.83910493830628"><ele>679.5</ele><time>2026-04-25T15:02:31.977Z</time></trkpt><trkpt lat="43.352201268073394" lon="5.839248108321492"><ele>679.25</ele><time>2026-04-25T15:02:32.977Z</time></trkpt><trkpt lat="43.352119916660875" lon="5.839376769966931"><ele>679.0</ele><time>2026-04-25T15:02:33.977Z</time></trkpt><trkpt lat="43.35200600102284" lon="5.839512249230361"><ele>677.0</ele><time>2026-04-25T15:02:34.977Z</time></trkpt><trkpt lat="43.35189441949189" lon="5.839636361670714"><ele>675.0</ele><time>2026-04-25T15:02:35.977Z</time></trkpt><trkpt lat="43.35180195335215" lon="5.839758119557768"><ele>673.0</ele><time>2026-04-25T15:02:36.977Z</time></trkpt><trkpt lat="43.35172593385056" lon="5.839876743766985"><ele>671.0</ele><time>2026-04-25T15:02:37.977Z</time></trkpt><trkpt lat="43.351657520521215" lon="5.840021344876106"><ele>669.6666666666666</ele><time>2026-04-25T15:02:38.977Z</time></trkpt><trkpt lat="43.35167259125516" lon="5.840233305316423"><ele>668.3333333333334</ele><time>2026-04-25T15:02:39.977Z</time></trkpt><trkpt lat="43.35170161376232" lon="5.8404833699648995"><ele>667.0</ele><time>2026-04-25T15:02:40.977Z</time></trkpt><trkpt lat="43.351716158611026" lon="5.840759591571376"><ele>665.6666666666667</ele><time>2026-04-25T15:02:41.977Z</time></trkpt><trkpt lat="43.35174166450215" lon="5.84101592900182"><ele>664.3333333333334</ele><time>2026-04-25T15:02:42.977Z</time></trkpt><trkpt lat="43.351766200050555" lon="5.841283637793993"><ele>663.0</ele><time>2026-04-25T15:02:43.977Z</time></trkpt><trkpt lat="43.35179167767877" lon="5.841562978721229"><ele>662.0</ele><time>2026-04-25T15:02:44.977Z</time></trkpt><trkpt lat="43.351814219976944" lon="5.841836413864776"><ele>661.0</ele><time>2026-04-25T15:02:45.977Z</time></trkpt><trkpt lat="43.35182649350796" lon="5.842084266061504"><ele>660.0</ele><time>2026-04-25T15:02:46.977Z</time></trkpt><trkpt lat="43.35182927098764" lon="5.842332325062854"><ele>660.0</ele><time>2026-04-25T15:02:47.977Z</time></trkpt><trkpt lat="43.35183842029392" lon="5.842561060599113"><ele>660.0</ele><time>2026-04-25T15:02:48.977Z</time></trkpt><trkpt lat="43.351882417089925" lon="5.8427568780944155"><ele>660.0</ele><time>2026-04-25T15:02:49.977Z</time></trkpt><trkpt lat="43.35199893872321" lon="5.842940298712859"><ele>659.0</ele><time>2026-04-25T15:02:50.977Z</time></trkpt><trkpt lat="43.35209871348492" lon="5.843133825502222"><ele>658.0</ele><time>2026-04-25T15:02:51.977Z</time></trkpt><trkpt lat="43.352167583126295" lon="5.843359729616429"><ele>657.0</ele><time>2026-04-25T15:02:52.977Z</time></trkpt><trkpt lat="43.35221816102757" lon="5.843616910394951"><ele>656.6666666666666</ele><time>2026-04-25T15:02:53.977Z</time></trkpt><trkpt lat="43.35225240365373" lon="5.843886099876141"><ele>656.3333333333333</ele><time>2026-04-25T15:02:54.977Z</time></trkpt><trkpt lat="43.35229009961576" lon="5.844175749146919"><ele>656.0</ele><time>2026-04-25T15:02:55.977Z</time></trkpt><trkpt lat="43.352327255255645" lon="5.844452814193297"><ele>654.3333333333333</ele><time>2026-04-25T15:02:56.977Z</time></trkpt><trkpt lat="43.35236185686496" lon="5.844710834127131"><ele>652.6666666666666</ele><time>2026-04-25T15:02:57.977Z</time></trkpt><trkpt lat="43.35240118290612" lon="5.84494348490982"><ele>651.0</ele><time>2026-04-25T15:02:58.977Z</time></trkpt><trkpt lat="43.35244214042158" lon="5.845160758905609"><ele>649.3333333333334</ele><time>2026-04-25T15:02:59.977Z</time></trkpt><trkpt lat="43.35248166547423" lon="5.845393528462861"><ele>647.6666666666667</ele><time>2026-04-25T15:03:00.977Z</time></trkpt><trkpt lat="43.3524968914922" lon="5.8456599468875226"><ele>646.0</ele><time>2026-04-25T15:03:01.977Z</time></trkpt><trkpt lat="43.35249171621867" lon="5.8459160911767745"><ele>645.0</ele><time>2026-04-25T15:03:02.977Z</time></trkpt><trkpt lat="43.35251001399261" lon="5.846167149861526"><ele>644.0</ele><time>2026-04-25T15:03:03.977Z</time></trkpt><trkpt lat="43.35251830358952" lon="5.846429279325531"><ele>643.0</ele><time>2026-04-25T15:03:04.977Z</time></trkpt><trkpt lat="43.3525766607447" lon="5.846689197304208"><ele>641.3333333333334</ele><time>2026-04-25T15:03:05.977Z</time></trkpt><trkpt lat="43.352617109500635" lon="5.84694628460475"><ele>639.6666666666666</ele><time>2026-04-25T15:03:06.977Z</time></trkpt><trkpt lat="43.352638981357806" lon="5.847189620791132"><ele>638.0</ele><time>2026-04-25T15:03:07.977Z</time></trkpt><trkpt lat="43.352690536199994" lon="5.847435527002649"><ele>636.6666666666666</ele><time>2026-04-25T15:03:08.977Z</time></trkpt><trkpt lat="43.35272952842129" lon="5.847689370410899"><ele>635.3333333333334</ele><time>2026-04-25T15:03:09.977Z</time></trkpt><trkpt lat="43.352787443223214" lon="5.847953271358994"><ele>634.0</ele><time>2026-04-25T15:03:10.977Z</time></trkpt><trkpt lat="43.35286354857567" lon="5.848208862549737"><ele>634.0</ele><time>2026-04-25T15:03:11.977Z</time></trkpt><trkpt lat="43.35292287939524" lon="5.8484410607545305"><ele>634.0</ele><time>2026-04-25T15:03:12.977Z</time></trkpt><trkpt lat="43.353001871892346" lon="5.8486336606669065"><ele>634.0</ele><time>2026-04-25T15:03:13.977Z</time></trkpt><trkpt lat="43.3530967124107" lon="5.848786792912558"><ele>634.0</ele><time>2026-04-25T15:03:14.977Z</time></trkpt><trkpt lat="43.353151026064026" lon="5.848931206558507"><ele>634.0</ele><time>2026-04-25T15:03:15.977Z</time></trkpt><trkpt lat="43.35315946162492" lon="5.849076991213731"><ele>634.0</ele><time>2026-04-25T15:03:16.977Z</time></trkpt><trkpt lat="43.35312775052077" lon="5.849246402610569"><ele>634.0</ele><time>2026-04-25T15:03:17.977Z</time></trkpt><trkpt lat="43.353068525989464" lon="5.8494372551006215"><ele>636.3333333333334</ele><time>2026-04-25T15:03:18.976Z</time></trkpt><trkpt lat="43.35300384074817" lon="5.849646217471004"><ele>638.6666666666666</ele><time>2026-04-25T15:03:19.976Z</time></trkpt><trkpt lat="43.35295033796682" lon="5.849848969602754"><ele>641.0</ele><time>2026-04-25T15:03:20.976Z</time></trkpt><trkpt lat="43.35290140663538" lon="5.850017619413948"><ele>641.75</ele><time>2026-04-25T15:03:21.976Z</time></trkpt><trkpt lat="43.35287224506518" lon="5.8501924334958195"><ele>642.5</ele><time>2026-04-25T15:03:22.976Z</time></trkpt><trkpt lat="43.35286172791016" lon="5.850385019604037"><ele>643.25</ele><time>2026-04-25T15:03:23.976Z</time></trkpt><trkpt lat="43.35286541023379" lon="5.850592242975567"><ele>644.0</ele><time>2026-04-25T15:03:24.976Z</time></trkpt><trkpt lat="43.352891557683265" lon="5.850774101214645"><ele>644.0</ele><time>2026-04-25T15:03:25.976Z</time></trkpt><trkpt lat="43.352915008071335" lon="5.850943330015192"><ele>644.0</ele><time>2026-04-25T15:03:26.976Z</time></trkpt><trkpt lat="43.35294616347205" lon="5.851091727935847"><ele>644.0</ele><time>2026-04-25T15:03:27.976Z</time></trkpt><trkpt lat="43.352921522355715" lon="5.851283864048868"><ele>644.0</ele><time>2026-04-25T15:03:28.976Z</time></trkpt><trkpt lat="43.352882756926704" lon="5.851439692149488"><ele>641.75</ele><time>2026-04-25T15:03:29.976Z</time></trkpt><trkpt lat="43.35288255359901" lon="5.851617181332603"><ele>639.5</ele><time>2026-04-25T15:03:30.976Z</time></trkpt><trkpt lat="43.352939230756895" lon="5.851822880201393"><ele>637.25</ele><time>2026-04-25T15:03:31.976Z</time></trkpt><trkpt lat="43.35300285357153" lon="5.851990668998901"><ele>635.0</ele><time>2026-04-25T15:03:32.976Z</time></trkpt><trkpt lat="43.35308116759303" lon="5.852147156744517"><ele>631.5</ele><time>2026-04-25T15:03:33.976Z</time></trkpt><trkpt lat="43.353121820666715" lon="5.852312454805513"><ele>628.0</ele><time>2026-04-25T15:03:34.976Z</time></trkpt><trkpt lat="43.35318488795885" lon="5.852481318569232"><ele>624.5</ele><time>2026-04-25T15:03:35.976Z</time></trkpt><trkpt lat="43.353272290705455" lon="5.852641662253512"><ele>621.0</ele><time>2026-04-25T15:03:36.976Z</time></trkpt><trkpt lat="43.353331803864776" lon="5.852796524265148"><ele>620.0</ele><time>2026-04-25T15:03:37.976Z</time></trkpt><trkpt lat="43.353384832293905" lon="5.852966106328754"><ele>619.0</ele><time>2026-04-25T15:03:38.976Z</time></trkpt><trkpt lat="43.35341978922191" lon="5.853134961266074"><ele>618.0</ele><time>2026-04-25T15:03:39.976Z</time></trkpt><trkpt lat="43.35342361210042" lon="5.853327094807721"><ele>617.0</ele><time>2026-04-25T15:03:40.976Z</time></trkpt><trkpt lat="43.35344465232703" lon="5.853515154752004"><ele>616.0</ele><time>2026-04-25T15:03:41.976Z</time></trkpt><trkpt lat="43.35346389456786" lon="5.853697483299425"><ele>615.0</ele><time>2026-04-25T15:03:42.976Z</time></trkpt><trkpt lat="43.35347753623828" lon="5.853863785263416"><ele>614.0</ele><time>2026-04-25T15:03:43.976Z</time></trkpt><trkpt lat="43.35349936321636" lon="5.85401008309371"><ele>613.0</ele><time>2026-04-25T15:03:44.976Z</time></trkpt><trkpt lat="43.35349391957878" lon="5.854141019551227"><ele>613.0</ele><time>2026-04-25T15:03:45.976Z</time></trkpt><trkpt lat="43.35347283570826" lon="5.854257219104195"><ele>613.0</ele><time>2026-04-25T15:03:46.976Z</time></trkpt><trkpt lat="43.35343595631113" lon="5.854373795959436"><ele>613.0</ele><time>2026-04-25T15:03:47.976Z</time></trkpt><trkpt lat="43.353364341319676" lon="5.854481117173745"><ele>613.0</ele><time>2026-04-25T15:03:48.976Z</time></trkpt><trkpt lat="43.35326318383161" lon="5.854578426710649"><ele>613.0</ele><time>2026-04-25T15:03:49.976Z</time></trkpt><trkpt lat="43.353152307620455" lon="5.854677679372759"><ele>612.1999999999999</ele><time>2026-04-25T15:03:50.976Z</time></trkpt><trkpt lat="43.35305896395087" lon="5.854765924149134"><ele>611.4</ele><time>2026-04-25T15:03:51.976Z</time></trkpt><trkpt lat="43.352976028761404" lon="5.854855978388032"><ele>610.5999999999999</ele><time>2026-04-25T15:03:52.976Z</time></trkpt><trkpt lat="43.352894630287956" lon="5.854954318574876"><ele>609.8</ele><time>2026-04-25T15:03:53.976Z</time></trkpt><trkpt lat="43.352814850691956" lon="5.855062821369006"><ele>609.0</ele><time>2026-04-25T15:03:54.976Z</time></trkpt><trkpt lat="43.352739378703895" lon="5.8552032895476565"><ele>611.25</ele><time>2026-04-25T15:03:55.976Z</time></trkpt><trkpt lat="43.35269600284187" lon="5.855371099222948"><ele>613.5</ele><time>2026-04-25T15:03:56.976Z</time></trkpt><trkpt lat="43.35267073911227" lon="5.855554885159642"><ele>615.75</ele><time>2026-04-25T15:03:57.976Z</time></trkpt><trkpt lat="43.3526497431626" lon="5.8557339447058565"><ele>618.0</ele><time>2026-04-25T15:03:58.976Z</time></trkpt><trkpt lat="43.3525946884897" lon="5.855900257660466"><ele>614.6666666666666</ele><time>2026-04-25T15:03:59.977Z</time></trkpt><trkpt lat="43.352514621397674" lon="5.856088433509129"><ele>611.3333333333333</ele><time>2026-04-25T15:04:00.976Z</time></trkpt><trkpt lat="43.35243074436935" lon="5.85626057971081"><ele>608.0</ele><time>2026-04-25T15:04:01.976Z</time></trkpt><trkpt lat="43.35234658100158" lon="5.856433681328059"><ele>608.0</ele><time>2026-04-25T15:04:02.976Z</time></trkpt><trkpt lat="43.35229057482927" lon="5.856614229557443"><ele>608.0</ele><time>2026-04-25T15:04:03.976Z</time></trkpt><trkpt lat="43.35226385543855" lon="5.856811273761902"><ele>608.0</ele><time>2026-04-25T15:04:04.976Z</time></trkpt><trkpt lat="43.352230592875024" lon="5.856974236716399"><ele>608.0</ele><time>2026-04-25T15:04:05.976Z</time></trkpt><trkpt lat="43.35216979694228" lon="5.857115921665456"><ele>611.1999999999999</ele><time>2026-04-25T15:04:06.976Z</time></trkpt><trkpt lat="43.35210552889261" lon="5.857233440822516"><ele>614.4</ele><time>2026-04-25T15:04:07.976Z</time></trkpt><trkpt lat="43.35206018515273" lon="5.857358674142026"><ele>617.5999999999999</ele><time>2026-04-25T15:04:08.977Z</time></trkpt><trkpt lat="43.3520630331581" lon="5.857486580253093"><ele>620.8</ele><time>2026-04-25T15:04:09.976Z</time></trkpt><trkpt lat="43.352112149638515" lon="5.857622408246542"><ele>624.0</ele><time>2026-04-25T15:04:10.976Z</time></trkpt><trkpt lat="43.352204379893855" lon="5.857736621873205"><ele>619.5</ele><time>2026-04-25T15:04:11.976Z</time></trkpt><trkpt lat="43.35231944740182" lon="5.857827852980837"><ele>615.0</ele><time>2026-04-25T15:04:12.976Z</time></trkpt><trkpt lat="43.35241323728813" lon="5.857930888721638"><ele>610.5</ele><time>2026-04-25T15:04:13.976Z</time></trkpt><trkpt lat="43.35254462092834" lon="5.858028589809139"><ele>606.0</ele><time>2026-04-25T15:04:14.976Z</time></trkpt><trkpt lat="43.35268034547865" lon="5.858084969862825"><ele>606.0</ele><time>2026-04-25T15:04:15.976Z</time></trkpt><trkpt lat="43.35279196898824" lon="5.85815848665473"><ele>606.0</ele><time>2026-04-25T15:04:16.976Z</time></trkpt><trkpt lat="43.352879374331536" lon="5.858265302961057"><ele>606.0</ele><time>2026-04-25T15:04:17.976Z</time></trkpt><trkpt lat="43.352901875693405" lon="5.858356342215279"><ele>606.0</ele><time>2026-04-25T15:04:18.976Z</time></trkpt><trkpt lat="43.35290430143375" lon="5.8584537643125305"><ele>606.0</ele><time>2026-04-25T15:04:19.976Z</time></trkpt><trkpt lat="43.352845299633465" lon="5.858578013670477"><ele>606.2</ele><time>2026-04-25T15:04:20.976Z</time></trkpt><trkpt lat="43.35275852413977" lon="5.858715209890285"><ele>606.4000000000001</ele><time>2026-04-25T15:04:21.976Z</time></trkpt><trkpt lat="43.35269792871481" lon="5.858815961461575"><ele>606.6</ele><time>2026-04-25T15:04:22.976Z</time></trkpt><trkpt lat="43.352681622462235" lon="5.8589388304541625"><ele>606.8000000000001</ele><time>2026-04-25T15:04:23.976Z</time></trkpt><trkpt lat="43.352705292583664" lon="5.8590737574807115"><ele>607.0</ele><time>2026-04-25T15:04:24.976Z</time></trkpt><trkpt lat="43.352755990892966" lon="5.859172139560979"><ele>607.25</ele><time>2026-04-25T15:04:25.976Z</time></trkpt><trkpt lat="43.35280966320242" lon="5.859320519374753"><ele>607.5</ele><time>2026-04-25T15:04:26.976Z</time></trkpt><trkpt lat="43.352928397108975" lon="5.859451799764153"><ele>607.75</ele><time>2026-04-25T15:04:27.976Z</time></trkpt><trkpt lat="43.35301426794449" lon="5.859596210195104"><ele>608.0</ele><time>2026-04-25T15:04:28.976Z</time></trkpt><trkpt lat="43.35306869246475" lon="5.859774933105352"><ele>601.5</ele><time>2026-04-25T15:04:29.976Z</time></trkpt><trkpt lat="43.35310114184786" lon="5.859981091391942"><ele>595.0</ele><time>2026-04-25T15:04:30.976Z</time></trkpt><trkpt lat="43.35312347528954" lon="5.86018642909753"><ele>588.5</ele><time>2026-04-25T15:04:31.976Z</time></trkpt><trkpt lat="43.353096581977425" lon="5.860361727930697"><ele>582.0</ele><time>2026-04-25T15:04:32.976Z</time></trkpt><trkpt lat="43.353061934269064" lon="5.860501508110785"><ele>582.0</ele><time>2026-04-25T15:04:33.976Z</time></trkpt><trkpt lat="43.35304991535377" lon="5.860599806201135"><ele>582.0</ele><time>2026-04-25T15:04:34.976Z</time></trkpt><trkpt lat="43.35308874141247" lon="5.860703873370909"><ele>582.0</ele><time>2026-04-25T15:04:35.976Z</time></trkpt><trkpt lat="43.353198373144274" lon="5.860812728209032"><ele>582.0</ele><time>2026-04-25T15:04:36.976Z</time></trkpt><trkpt lat="43.35329905428608" lon="5.860912890920515"><ele>582.0</ele><time>2026-04-25T15:04:37.976Z</time></trkpt><trkpt lat="43.35338889982158" lon="5.861098469802922"><ele>581.0</ele><time>2026-04-25T15:04:38.976Z</time></trkpt><trkpt lat="43.35345499713251" lon="5.861297254898843"><ele>580.0</ele><time>2026-04-25T15:04:39.976Z</time></trkpt><trkpt lat="43.35352110426513" lon="5.861458599299155"><ele>579.0</ele><time>2026-04-25T15:04:40.976Z</time></trkpt><trkpt lat="43.35355174337811" lon="5.861612829410702"><ele>578.0</ele><time>2026-04-25T15:04:41.976Z</time></trkpt><trkpt lat="43.35355064300478" lon="5.8618058575778695"><ele>577.5</ele><time>2026-04-25T15:04:42.976Z</time></trkpt><trkpt lat="43.353533186780965" lon="5.8620050587161385"><ele>577.0</ele><time>2026-04-25T15:04:43.976Z</time></trkpt><trkpt lat="43.35353886572068" lon="5.862190234762546"><ele>576.5</ele><time>2026-04-25T15:04:44.976Z</time></trkpt><trkpt lat="43.353589949938346" lon="5.862384244254963"><ele>576.0</ele><time>2026-04-25T15:04:45.976Z</time></trkpt><trkpt lat="43.35363590384964" lon="5.8625666987595455"><ele>574.25</ele><time>2026-04-25T15:04:46.976Z</time></trkpt><trkpt lat="43.353653569529" lon="5.8627576634991"><ele>572.5</ele><time>2026-04-25T15:04:47.976Z</time></trkpt><trkpt lat="43.35370046811033" lon="5.862952660348841"><ele>570.75</ele><time>2026-04-25T15:04:48.976Z</time></trkpt><trkpt lat="43.35375716109493" lon="5.863118263153703"><ele>569.0</ele><time>2026-04-25T15:04:49.976Z</time></trkpt><trkpt lat="43.35375736468488" lon="5.8632775858508035"><ele>569.25</ele><time>2026-04-25T15:04:50.976Z</time></trkpt><trkpt lat="43.353734625204204" lon="5.863447977141844"><ele>569.5</ele><time>2026-04-25T15:04:51.976Z</time></trkpt><trkpt lat="43.353690127940226" lon="5.863616393000942"><ele>569.75</ele><time>2026-04-25T15:04:52.976Z</time></trkpt><trkpt lat="43.353645402774035" lon="5.8637799942743944"><ele>570.0</ele><time>2026-04-25T15:04:53.976Z</time></trkpt><trkpt lat="43.35359892761382" lon="5.863910138980624"><ele>570.0</ele><time>2026-04-25T15:04:54.976Z</time></trkpt><trkpt lat="43.35360471201231" lon="5.86404084282685"><ele>570.0</ele><time>2026-04-25T15:04:55.976Z</time></trkpt><trkpt lat="43.35368185824407" lon="5.864169211696341"><ele>570.0</ele><time>2026-04-25T15:04:56.976Z</time></trkpt><trkpt lat="43.35378410385407" lon="5.864280301192498"><ele>570.0</ele><time>2026-04-25T15:04:57.976Z</time></trkpt><trkpt lat="43.35393193838585" lon="5.864380328186856"><ele>565.5</ele><time>2026-04-25T15:04:58.976Z</time></trkpt><trkpt lat="43.35407040394181" lon="5.864439648997821"><ele>561.0</ele><time>2026-04-25T15:04:59.976Z</time></trkpt><trkpt lat="43.354189971691376" lon="5.864522749026864"><ele>556.5</ele><time>2026-04-25T15:05:00.976Z</time></trkpt><trkpt lat="43.354278553105495" lon="5.864651424170127"><ele>552.0</ele><time>2026-04-25T15:05:01.976Z</time></trkpt><trkpt lat="43.35434175755968" lon="5.8648096541484716"><ele>552.0</ele><time>2026-04-25T15:05:02.976Z</time></trkpt><trkpt lat="43.35439049972934" lon="5.86499298014301"><ele>552.0</ele><time>2026-04-25T15:05:03.976Z</time></trkpt><trkpt lat="43.35442421037864" lon="5.865191370278319"><ele>552.0</ele><time>2026-04-25T15:05:04.976Z</time></trkpt><trkpt lat="43.35445239847518" lon="5.865383275847337"><ele>552.0</ele><time>2026-04-25T15:05:05.976Z</time></trkpt><trkpt lat="43.354442702814026" lon="5.865564998010903"><ele>551.5</ele><time>2026-04-25T15:05:06.976Z</time></trkpt><trkpt lat="43.35440460030809" lon="5.8657276546718755"><ele>551.0</ele><time>2026-04-25T15:05:07.976Z</time></trkpt><trkpt lat="43.35440109498241" lon="5.865888758025746"><ele>550.5</ele><time>2026-04-25T15:05:08.976Z</time></trkpt><trkpt lat="43.354462436419865" lon="5.866063966255711"><ele>550.0</ele><time>2026-04-25T15:05:09.976Z</time></trkpt><trkpt lat="43.3545374951657" lon="5.866227644474934"><ele>550.0</ele><time>2026-04-25T15:05:10.976Z</time></trkpt><trkpt lat="43.354625438801996" lon="5.866355808874718"><ele>550.0</ele><time>2026-04-25T15:05:11.976Z</time></trkpt><trkpt lat="43.3547410777081" lon="5.86644506468714"><ele>550.0</ele><time>2026-04-25T15:05:12.976Z</time></trkpt><trkpt lat="43.354852508943765" lon="5.866513605390475"><ele>550.0</ele><time>2026-04-25T15:05:13.976Z</time></trkpt><trkpt lat="43.35494612371617" lon="5.8666130933147445"><ele>544.3333333333334</ele><time>2026-04-25T15:05:14.976Z</time></trkpt><trkpt lat="43.35503607665604" lon="5.866781471189864"><ele>538.6666666666666</ele><time>2026-04-25T15:05:15.976Z</time></trkpt><trkpt lat="43.35510365628892" lon="5.866984710641058"><ele>533.0</ele><time>2026-04-25T15:05:16.975Z</time></trkpt><trkpt lat="43.355213230162974" lon="5.867206422445519"><ele>533.0</ele><time>2026-04-25T15:05:17.975Z</time></trkpt><trkpt lat="43.35533900773531" lon="5.867419212572886"><ele>533.0</ele><time>2026-04-25T15:05:18.975Z</time></trkpt><trkpt lat="43.35543511764381" lon="5.867586023728867"><ele>533.0</ele><time>2026-04-25T15:05:19.975Z</time></trkpt><trkpt lat="43.355525629390364" lon="5.867703608647575"><ele>529.75</ele><time>2026-04-25T15:05:20.975Z</time></trkpt><trkpt lat="43.35562080663304" lon="5.867788724346286"><ele>526.5</ele><time>2026-04-25T15:05:21.975Z</time></trkpt><trkpt lat="43.3557044427046" lon="5.8678941048175925"><ele>523.25</ele><time>2026-04-25T15:05:22.975Z</time></trkpt><trkpt lat="43.35578773612732" lon="5.868052642721917"><ele>520.0</ele><time>2026-04-25T15:05:23.975Z</time></trkpt><trkpt lat="43.35583656328423" lon="5.868227852388064"><ele>520.0</ele><time>2026-04-25T15:05:24.975Z</time></trkpt><trkpt lat="43.35586927009319" lon="5.868408227478677"><ele>520.0</ele><time>2026-04-25T15:05:25.975Z</time></trkpt><trkpt lat="43.35588498506512" lon="5.868570710582402"><ele>520.0</ele><time>2026-04-25T15:05:26.975Z</time></trkpt><trkpt lat="43.35587450325216" lon="5.868710779293159"><ele>520.0</ele><time>2026-04-25T15:05:27.975Z</time></trkpt><trkpt lat="43.355893349938825" lon="5.868806730950196"><ele>520.0</ele><time>2026-04-25T15:05:28.975Z</time></trkpt><trkpt lat="43.355955927335415" lon="5.8688650367364055"><ele>520.0</ele><time>2026-04-25T15:05:29.975Z</time></trkpt><trkpt lat="43.35603278153658" lon="5.868846655439849"><ele>520.0</ele><time>2026-04-25T15:05:30.975Z</time></trkpt><trkpt lat="43.35609604237125" lon="5.868752350950369"><ele>520.0</ele><time>2026-04-25T15:05:31.975Z</time></trkpt><trkpt lat="43.35612676791021" lon="5.868618968821818"><ele>520.0</ele><time>2026-04-25T15:05:32.975Z</time></trkpt><trkpt lat="43.356099184446" lon="5.86843320517132"><ele>520.0</ele><time>2026-04-25T15:05:33.975Z</time></trkpt><trkpt lat="43.3560776950675" lon="5.868253738596801"><ele>520.0</ele><time>2026-04-25T15:05:34.975Z</time></trkpt><trkpt lat="43.356106081676124" lon="5.868073896966963"><ele>520.0</ele><time>2026-04-25T15:05:35.975Z</time></trkpt><trkpt lat="43.35617070727299" lon="5.867908110805031"><ele>520.0</ele><time>2026-04-25T15:05:36.975Z</time></trkpt><trkpt lat="43.35623154083117" lon="5.867772514578536"><ele>520.0</ele><time>2026-04-25T15:05:37.975Z</time></trkpt><trkpt lat="43.35630127892989" lon="5.867655509973042"><ele>517.0</ele><time>2026-04-25T15:05:38.975Z</time></trkpt><trkpt lat="43.35639583315714" lon="5.867591571099677"><ele>514.0</ele><time>2026-04-25T15:05:39.975Z</time></trkpt><trkpt lat="43.35652262679607" lon="5.867561769771912"><ele>511.0</ele><time>2026-04-25T15:05:40.975Z</time></trkpt><trkpt lat="43.35667041968627" lon="5.867584076936174"><ele>508.0</ele><time>2026-04-25T15:05:41.975Z</time></trkpt><trkpt lat="43.35683974428692" lon="5.867600297614555"><ele>508.0</ele><time>2026-04-25T15:05:42.975Z</time></trkpt><trkpt lat="43.35700387832241" lon="5.867570288500159"><ele>508.0</ele><time>2026-04-25T15:05:43.975Z</time></trkpt><trkpt lat="43.35714342569183" lon="5.867502021340576"><ele>508.0</ele><time>2026-04-25T15:05:44.975Z</time></trkpt><trkpt lat="43.35727991262572" lon="5.867403281917597"><ele>506.0</ele><time>2026-04-25T15:05:45.975Z</time></trkpt><trkpt lat="43.35740465309192" lon="5.867311965125815"><ele>504.0</ele><time>2026-04-25T15:05:46.975Z</time></trkpt><trkpt lat="43.35754218883323" lon="5.86727048017903"><ele>502.0</ele><time>2026-04-25T15:05:47.975Z</time></trkpt><trkpt lat="43.357713346284875" lon="5.867267610033068"><ele>502.0</ele><time>2026-04-25T15:05:48.975Z</time></trkpt><trkpt lat="43.357868597510425" lon="5.867288724092386"><ele>502.0</ele><time>2026-04-25T15:05:49.975Z</time></trkpt><trkpt lat="43.358011473625034" lon="5.867298821245422"><ele>502.0</ele><time>2026-04-25T15:05:50.975Z</time></trkpt><trkpt lat="43.35813851349665" lon="5.867317415072164"><ele>502.0</ele><time>2026-04-25T15:05:51.975Z</time></trkpt><trkpt lat="43.35825942756685" lon="5.867367736363667"><ele>499.0</ele><time>2026-04-25T15:05:52.975Z</time></trkpt><trkpt lat="43.358362983881776" lon="5.867493804634924"><ele>496.0</ele><time>2026-04-25T15:05:53.975Z</time></trkpt><trkpt lat="43.35847765204979" lon="5.867666823110272"><ele>493.0</ele><time>2026-04-25T15:05:54.975Z</time></trkpt><trkpt lat="43.35860077222894" lon="5.867851367184128"><ele>493.0</ele><time>2026-04-25T15:05:55.975Z</time></trkpt><trkpt lat="43.358731129768586" lon="5.867973114141613"><ele>493.0</ele><time>2026-04-25T15:05:56.975Z</time></trkpt><trkpt lat="43.35886006704639" lon="5.868055354876268"><ele>493.0</ele><time>2026-04-25T15:05:57.975Z</time></trkpt><trkpt lat="43.358982632468035" lon="5.8681514964017"><ele>493.0</ele><time>2026-04-25T15:05:58.975Z</time></trkpt><trkpt lat="43.359101809563874" lon="5.868265597247088"><ele>488.0</ele><time>2026-04-25T15:05:59.975Z</time></trkpt><trkpt lat="43.359203740655715" lon="5.868403553584984"><ele>483.0</ele><time>2026-04-25T15:06:00.975Z</time></trkpt><trkpt lat="43.35926942872478" lon="5.8685997487147095"><ele>478.0</ele><time>2026-04-25T15:06:01.975Z</time></trkpt><trkpt lat="43.35929718734772" lon="5.868840866278744"><ele>476.5</ele><time>2026-04-25T15:06:02.975Z</time></trkpt><trkpt lat="43.359339753146294" lon="5.869123940677877"><ele>475.0</ele><time>2026-04-25T15:06:03.975Z</time></trkpt><trkpt lat="43.35942931159896" lon="5.869446076193674"><ele>474.5</ele><time>2026-04-25T15:06:04.975Z</time></trkpt><trkpt lat="43.35952085229219" lon="5.869769566765853"><ele>474.0</ele><time>2026-04-25T15:06:05.975Z</time></trkpt><trkpt lat="43.35960476143653" lon="5.870123616158253"><ele>474.0</ele><time>2026-04-25T15:06:06.976Z</time></trkpt><trkpt lat="43.35968327155572" lon="5.870479344712474"><ele>474.0</ele><time>2026-04-25T15:06:07.976Z</time></trkpt><trkpt lat="43.359759012320644" lon="5.870854303106256"><ele>470.0</ele><time>2026-04-25T15:06:08.975Z</time></trkpt><trkpt lat="43.35982022829817" lon="5.871203633713692"><ele>466.0</ele><time>2026-04-25T15:06:09.975Z</time></trkpt><trkpt lat="43.35989147123237" lon="5.871532952473482"><ele>465.0</ele><time>2026-04-25T15:06:10.975Z</time></trkpt><trkpt lat="43.35996304298675" lon="5.871842824639485"><ele>464.0</ele><time>2026-04-25T15:06:11.975Z</time></trkpt><trkpt lat="43.360038411721796" lon="5.872158747088883"><ele>464.0</ele><time>2026-04-25T15:06:12.975Z</time></trkpt><trkpt lat="43.360149120493816" lon="5.872494519803061"><ele>464.0</ele><time>2026-04-25T15:06:13.975Z</time></trkpt><trkpt lat="43.36026423210273" lon="5.872796860289127"><ele>462.5</ele><time>2026-04-25T15:06:14.975Z</time></trkpt><trkpt lat="43.3603710884564" lon="5.873085552470272"><ele>461.0</ele><time>2026-04-25T15:06:15.975Z</time></trkpt><trkpt lat="43.36047092111551" lon="5.873365651446328"><ele>460.66666666666663</ele><time>2026-04-25T15:06:16.975Z</time></trkpt><trkpt lat="43.360570082368426" lon="5.873629444173589"><ele>460.33333333333337</ele><time>2026-04-25T15:06:17.975Z</time></trkpt><trkpt lat="43.36065108825628" lon="5.87388114069576"><ele>460.0</ele><time>2026-04-25T15:06:18.975Z</time></trkpt><trkpt lat="43.36073883172296" lon="5.8741027565487745"><ele>459.0</ele><time>2026-04-25T15:06:19.975Z</time></trkpt><trkpt lat="43.360817435885465" lon="5.8743196053447315"><ele>458.0</ele><time>2026-04-25T15:06:20.975Z</time></trkpt><trkpt lat="43.360869628702616" lon="5.874531086042573"><ele>457.0</ele><time>2026-04-25T15:06:21.975Z</time></trkpt><trkpt lat="43.36089443154568" lon="5.8747472315505025"><ele>457.0</ele><time>2026-04-25T15:06:22.975Z</time></trkpt><trkpt lat="43.3608884479948" lon="5.874968778721028"><ele>457.0</ele><time>2026-04-25T15:06:23.975Z</time></trkpt><trkpt lat="43.36087415221809" lon="5.875175832809979"><ele>457.0</ele><time>2026-04-25T15:06:24.975Z</time></trkpt><trkpt lat="43.36088173768863" lon="5.875371537801251"><ele>456.25</ele><time>2026-04-25T15:06:25.975Z</time></trkpt><trkpt lat="43.36089286130497" lon="5.875561194459402"><ele>455.5</ele><time>2026-04-25T15:06:26.975Z</time></trkpt><trkpt lat="43.36089417718354" lon="5.875753950717132"><ele>454.75</ele><time>2026-04-25T15:06:27.975Z</time></trkpt><trkpt lat="43.36089939897204" lon="5.875940643695578"><ele>454.0</ele><time>2026-04-25T15:06:28.975Z</time></trkpt><trkpt lat="43.360905236199066" lon="5.87611698984126"><ele>453.5</ele><time>2026-04-25T15:06:29.975Z</time></trkpt><trkpt lat="43.360897320145654" lon="5.876282728593526"><ele>453.0</ele><time>2026-04-25T15:06:30.975Z</time></trkpt><trkpt lat="43.36088756852098" lon="5.876452711708253"><ele>452.5</ele><time>2026-04-25T15:06:31.975Z</time></trkpt><trkpt lat="43.36087148429593" lon="5.876627597848658"><ele>452.0</ele><time>2026-04-25T15:06:32.975Z</time></trkpt><trkpt lat="43.360856331852204" lon="5.8768185007292955"><ele>450.66666666666663</ele><time>2026-04-25T15:06:33.975Z</time></trkpt><trkpt lat="43.360842084740035" lon="5.877053155638487"><ele>449.33333333333337</ele><time>2026-04-25T15:06:34.975Z</time></trkpt><trkpt lat="43.360821421206644" lon="5.877303291043414"><ele>448.0</ele><time>2026-04-25T15:06:35.975Z</time></trkpt><trkpt lat="43.36080608718125" lon="5.877547000404301"><ele>447.33333333333337</ele><time>2026-04-25T15:06:36.975Z</time></trkpt><trkpt lat="43.360804611175936" lon="5.877789908355261"><ele>446.66666666666663</ele><time>2026-04-25T15:06:37.975Z</time></trkpt><trkpt lat="43.36084391990201" lon="5.8780868027045505"><ele>446.0</ele><time>2026-04-25T15:06:38.975Z</time></trkpt><trkpt lat="43.36087461769458" lon="5.878363761652342"><ele>445.66666666666663</ele><time>2026-04-25T15:06:39.975Z</time></trkpt><trkpt lat="43.360902547047615" lon="5.878639909224615"><ele>445.33333333333337</ele><time>2026-04-25T15:06:40.975Z</time></trkpt><trkpt lat="43.36093003583241" lon="5.878924102805174"><ele>445.0</ele><time>2026-04-25T15:06:41.975Z</time></trkpt><trkpt lat="43.36096666841193" lon="5.879190033150629"><ele>443.6666666666667</ele><time>2026-04-25T15:06:42.975Z</time></trkpt><trkpt lat="43.36102775616702" lon="5.87946848288137"><ele>442.33333333333337</ele><time>2026-04-25T15:06:43.975Z</time></trkpt><trkpt lat="43.36109251655961" lon="5.879743506737311"><ele>441.0</ele><time>2026-04-25T15:06:44.975Z</time></trkpt><trkpt lat="43.36115080769112" lon="5.880038659243017"><ele>440.33333333333337</ele><time>2026-04-25T15:06:45.975Z</time></trkpt><trkpt lat="43.361208110406444" lon="5.880322564469523"><ele>439.6666666666667</ele><time>2026-04-25T15:06:46.975Z</time></trkpt><trkpt lat="43.36127517989957" lon="5.880588176410887"><ele>439.0</ele><time>2026-04-25T15:06:47.975Z</time></trkpt><trkpt lat="43.36133916098812" lon="5.88084561436781"><ele>438.0</ele><time>2026-04-25T15:06:48.975Z</time></trkpt><trkpt lat="43.361392369275066" lon="5.881078594869297"><ele>437.0</ele><time>2026-04-25T15:06:49.975Z</time></trkpt><trkpt lat="43.36141584872727" lon="5.881293555796861"><ele>436.0</ele><time>2026-04-25T15:06:50.975Z</time></trkpt><trkpt lat="43.36137881922282" lon="5.881475783190579"><ele>435.0</ele><time>2026-04-25T15:06:51.975Z</time></trkpt><trkpt lat="43.361292938602936" lon="5.881654523826508"><ele>434.0</ele><time>2026-04-25T15:06:52.975Z</time></trkpt><trkpt lat="43.361163993556175" lon="5.881838897101243"><ele>433.0</ele><time>2026-04-25T15:06:53.975Z</time></trkpt><trkpt lat="43.36099669844918" lon="5.882026634697262"><ele>433.0</ele><time>2026-04-25T15:06:54.975Z</time></trkpt><trkpt lat="43.360835224127534" lon="5.882202094201032"><ele>433.0</ele><time>2026-04-25T15:06:55.975Z</time></trkpt><trkpt lat="43.3606972057687" lon="5.88239853306263"><ele>433.0</ele><time>2026-04-25T15:06:56.975Z</time></trkpt><trkpt lat="43.36055531352836" lon="5.88260719088132"><ele>432.33333333333337</ele><time>2026-04-25T15:06:57.975Z</time></trkpt><trkpt lat="43.36044039734413" lon="5.882837281029518"><ele>431.66666666666663</ele><time>2026-04-25T15:06:58.975Z</time></trkpt><trkpt lat="43.36035574599284" lon="5.8830737798673995"><ele>431.0</ele><time>2026-04-25T15:06:59.975Z</time></trkpt><trkpt lat="43.36026515087648" lon="5.883275119743429"><ele>431.3333333333333</ele><time>2026-04-25T15:07:00.975Z</time></trkpt><trkpt lat="43.360171660517146" lon="5.883494800747061"><ele>431.66666666666663</ele><time>2026-04-25T15:07:01.975Z</time></trkpt><trkpt lat="43.36008708243446" lon="5.883718659876294"><ele>432.0</ele><time>2026-04-25T15:07:02.975Z</time></trkpt><trkpt lat="43.35998489419648" lon="5.883936553167374"><ele>432.0</ele><time>2026-04-25T15:07:03.975Z</time></trkpt><trkpt lat="43.359897315423694" lon="5.884159780573676"><ele>432.0</ele><time>2026-04-25T15:07:04.975Z</time></trkpt><trkpt lat="43.35983674309653" lon="5.884399875625142"><ele>432.0</ele><time>2026-04-25T15:07:05.975Z</time></trkpt><trkpt lat="43.35979175035431" lon="5.8846167900451904"><ele>431.33333333333337</ele><time>2026-04-25T15:07:06.975Z</time></trkpt><trkpt lat="43.3597496515737" lon="5.8848141936280465"><ele>430.6666666666667</ele><time>2026-04-25T15:07:07.975Z</time></trkpt><trkpt lat="43.35970872735984" lon="5.885014796245406"><ele>430.0</ele><time>2026-04-25T15:07:08.975Z</time></trkpt><trkpt lat="43.35967498047429" lon="5.885242661769276"><ele>428.33333333333337</ele><time>2026-04-25T15:07:09.975Z</time></trkpt><trkpt lat="43.359648450051054" lon="5.885524845594604"><ele>426.66666666666663</ele><time>2026-04-25T15:07:10.974Z</time></trkpt><trkpt lat="43.35962819211496" lon="5.88584955309005"><ele>425.0</ele><time>2026-04-25T15:07:11.974Z</time></trkpt><trkpt lat="43.35960900022176" lon="5.886160373638256"><ele>423.0</ele><time>2026-04-25T15:07:12.974Z</time></trkpt><trkpt lat="43.35959053349347" lon="5.886485997854378"><ele>421.0</ele><time>2026-04-25T15:07:13.974Z</time></trkpt><trkpt lat="43.3595930998494" lon="5.886805603591189"><ele>420.6666666666667</ele><time>2026-04-25T15:07:14.974Z</time></trkpt><trkpt lat="43.35961597077214" lon="5.887100996234088"><ele>420.33333333333337</ele><time>2026-04-25T15:07:15.974Z</time></trkpt><trkpt lat="43.3596430990331" lon="5.8873818597229866"><ele>420.0</ele><time>2026-04-25T15:07:16.974Z</time></trkpt><trkpt lat="43.35965939145453" lon="5.887642189248375"><ele>420.0</ele><time>2026-04-25T15:07:17.974Z</time></trkpt><trkpt lat="43.359675319039226" lon="5.8878900254709015"><ele>420.0</ele><time>2026-04-25T15:07:18.974Z</time></trkpt><trkpt lat="43.35969642047619" lon="5.888129811820095"><ele>420.0</ele><time>2026-04-25T15:07:19.974Z</time></trkpt><trkpt lat="43.35971443409413" lon="5.888361763789136"><ele>420.0</ele><time>2026-04-25T15:07:20.974Z</time></trkpt><trkpt lat="43.35972715859141" lon="5.888598967868761"><ele>420.0</ele><time>2026-04-25T15:07:21.974Z</time></trkpt><trkpt lat="43.359713309797975" lon="5.888857560735569"><ele>420.0</ele><time>2026-04-25T15:07:22.974Z</time></trkpt><trkpt lat="43.359674235591015" lon="5.889125987491899"><ele>418.66666666666663</ele><time>2026-04-25T15:07:23.974Z</time></trkpt><trkpt lat="43.35962794671293" lon="5.889399698101758"><ele>417.3333333333333</ele><time>2026-04-25T15:07:24.974Z</time></trkpt><trkpt lat="43.35958053817385" lon="5.889675753849241"><ele>416.0</ele><time>2026-04-25T15:07:25.974Z</time></trkpt><trkpt lat="43.359528486543944" lon="5.8899663368917805"><ele>415.3333333333333</ele><time>2026-04-25T15:07:26.974Z</time></trkpt><trkpt lat="43.359472050213924" lon="5.890255118373088"><ele>414.66666666666663</ele><time>2026-04-25T15:07:27.974Z</time></trkpt><trkpt lat="43.359422342728834" lon="5.890525017329992"><ele>414.0</ele><time>2026-04-25T15:07:28.974Z</time></trkpt><trkpt lat="43.35938679027791" lon="5.890791367348906"><ele>412.33333333333337</ele><time>2026-04-25T15:07:29.974Z</time></trkpt><trkpt lat="43.35935152431853" lon="5.891084839664552"><ele>410.6666666666667</ele><time>2026-04-25T15:07:30.974Z</time></trkpt><trkpt lat="43.35932181598684" lon="5.891371298917806"><ele>409.0</ele><time>2026-04-25T15:07:31.974Z</time></trkpt><trkpt lat="43.35930379028491" lon="5.891653007039224"><ele>408.33333333333337</ele><time>2026-04-25T15:07:32.974Z</time></trkpt><trkpt lat="43.35929116954043" lon="5.891939666157973"><ele>407.66666666666663</ele><time>2026-04-25T15:07:33.974Z</time></trkpt><trkpt lat="43.35927791035153" lon="5.8922238690111985"><ele>407.0</ele><time>2026-04-25T15:07:34.974Z</time></trkpt><trkpt lat="43.35926069196044" lon="5.892506971127348"><ele>405.66666666666663</ele><time>2026-04-25T15:07:35.974Z</time></trkpt><trkpt lat="43.35922403707061" lon="5.892777413841567"><ele>404.33333333333337</ele><time>2026-04-25T15:07:36.974Z</time></trkpt><trkpt lat="43.35919116243476" lon="5.893036256658408"><ele>403.0</ele><time>2026-04-25T15:07:37.974Z</time></trkpt><trkpt lat="43.35916083941849" lon="5.8933037929171155"><ele>402.6666666666667</ele><time>2026-04-25T15:07:38.974Z</time></trkpt><trkpt lat="43.35914558390381" lon="5.893585507993049"><ele>402.33333333333337</ele><time>2026-04-25T15:07:39.974Z</time></trkpt><trkpt lat="43.35913567285748" lon="5.89388382482361"><ele>402.0</ele><time>2026-04-25T15:07:40.974Z</time></trkpt><trkpt lat="43.35912769072554" lon="5.89419212277695"><ele>402.33333333333337</ele><time>2026-04-25T15:07:41.974Z</time></trkpt><trkpt lat="43.35912219730382" lon="5.89449486693763"><ele>402.6666666666667</ele><time>2026-04-25T15:07:42.974Z</time></trkpt><trkpt lat="43.35911294385049" lon="5.8947994237737396"><ele>403.0</ele><time>2026-04-25T15:07:43.974Z</time></trkpt><trkpt lat="43.35910274346919" lon="5.895094453841639"><ele>403.0</ele><time>2026-04-25T15:07:44.974Z</time></trkpt><trkpt lat="43.359077345089275" lon="5.895369497261014"><ele>403.0</ele><time>2026-04-25T15:07:45.974Z</time></trkpt><trkpt lat="43.359028117904494" lon="5.895635617017307"><ele>403.0</ele><time>2026-04-25T15:07:46.974Z</time></trkpt><trkpt lat="43.35896820753017" lon="5.89591638316147"><ele>402.5</ele><time>2026-04-25T15:07:47.974Z</time></trkpt><trkpt lat="43.358909026099305" lon="5.896224647715972"><ele>402.0</ele><time>2026-04-25T15:07:48.974Z</time></trkpt><trkpt lat="43.35884686795668" lon="5.896555704247613"><ele>399.5</ele><time>2026-04-25T15:07:49.974Z</time></trkpt><trkpt lat="43.35878882422617" lon="5.896868416215034"><ele>397.0</ele><time>2026-04-25T15:07:50.974Z</time></trkpt><trkpt lat="43.358738244072036" lon="5.897164790406692"><ele>397.0</ele><time>2026-04-25T15:07:51.974Z</time></trkpt><trkpt lat="43.35868515627561" lon="5.897448651986285"><ele>397.0</ele><time>2026-04-25T15:07:52.974Z</time></trkpt><trkpt lat="43.358629639976165" lon="5.897712379455659"><ele>397.0</ele><time>2026-04-25T15:07:53.974Z</time></trkpt><trkpt lat="43.358578442411115" lon="5.897987397653556"><ele>396.33333333333337</ele><time>2026-04-25T15:07:54.974Z</time></trkpt><trkpt lat="43.35853365700363" lon="5.898237961656596"><ele>395.66666666666663</ele><time>2026-04-25T15:07:55.974Z</time></trkpt><trkpt lat="43.35850931371039" lon="5.898514770026243"><ele>395.0</ele><time>2026-04-25T15:07:56.974Z</time></trkpt><trkpt lat="43.35852332500729" lon="5.898827552196694"><ele>395.0</ele><time>2026-04-25T15:07:57.974Z</time></trkpt><trkpt lat="43.358560267798005" lon="5.899171591364342"><ele>395.0</ele><time>2026-04-25T15:07:58.974Z</time></trkpt><trkpt lat="43.358560860474256" lon="5.899529221064678"><ele>395.0</ele><time>2026-04-25T15:07:59.974Z</time></trkpt><trkpt lat="43.35854134287118" lon="5.899838844661409"><ele>395.0</ele><time>2026-04-25T15:08:00.974Z</time></trkpt><trkpt lat="43.35852969737321" lon="5.90008536947351"><ele>395.0</ele><time>2026-04-25T15:08:01.974Z</time></trkpt><trkpt lat="43.35850622261791" lon="5.900260380369545"><ele>394.0</ele><time>2026-04-25T15:08:02.974Z</time></trkpt><trkpt lat="43.358437475350115" lon="5.9004454926423655"><ele>393.0</ele><time>2026-04-25T15:08:03.974Z</time></trkpt><trkpt lat="43.358312759763784" lon="5.900637321492178"><ele>392.0</ele><time>2026-04-25T15:08:04.974Z</time></trkpt><trkpt lat="43.35818718173721" lon="5.900844408457036"><ele>391.3333333333333</ele><time>2026-04-25T15:08:05.974Z</time></trkpt><trkpt lat="43.35809310131307" lon="5.901070994102708"><ele>390.66666666666663</ele><time>2026-04-25T15:08:06.974Z</time></trkpt><trkpt lat="43.358013795168034" lon="5.901325739587945"><ele>390.0</ele><time>2026-04-25T15:08:07.974Z</time></trkpt><trkpt lat="43.35793260208148" lon="5.901590936481764"><ele>389.5</ele><time>2026-04-25T15:08:08.975Z</time></trkpt><trkpt lat="43.35784839611272" lon="5.90186859343644"><ele>389.0</ele><time>2026-04-25T15:08:09.975Z</time></trkpt><trkpt lat="43.35774151447123" lon="5.9021511480043936"><ele>389.0</ele><time>2026-04-25T15:08:10.975Z</time></trkpt><trkpt lat="43.35763552508512" lon="5.902440236959716"><ele>389.0</ele><time>2026-04-25T15:08:11.975Z</time></trkpt><trkpt lat="43.35751708226158" lon="5.902741142506369"><ele>387.5</ele><time>2026-04-25T15:08:12.974Z</time></trkpt><trkpt lat="43.35739004967569" lon="5.903053789192247"><ele>386.0</ele><time>2026-04-25T15:08:13.974Z</time></trkpt><trkpt lat="43.35725304538839" lon="5.9033870133241395"><ele>388.5</ele><time>2026-04-25T15:08:14.975Z</time></trkpt><trkpt lat="43.35712621580792" lon="5.903701747202745"><ele>391.0</ele><time>2026-04-25T15:08:15.975Z</time></trkpt><trkpt lat="43.35699026380948" lon="5.903968943848846"><ele>391.0</ele><time>2026-04-25T15:08:16.975Z</time></trkpt><trkpt lat="43.356856208999545" lon="5.904209313935269"><ele>391.0</ele><time>2026-04-25T15:08:17.975Z</time></trkpt><trkpt lat="43.35673735578133" lon="5.9044313416915255"><ele>391.0</ele><time>2026-04-25T15:08:18.975Z</time></trkpt><trkpt lat="43.35661859995328" lon="5.904659657136592"><ele>389.5</ele><time>2026-04-25T15:08:19.975Z</time></trkpt><trkpt lat="43.35646422461913" lon="5.904882173946913"><ele>388.0</ele><time>2026-04-25T15:08:20.974Z</time></trkpt><trkpt lat="43.356283961441" lon="5.905098743788276"><ele>388.0</ele><time>2026-04-25T15:08:21.975Z</time></trkpt><trkpt lat="43.35608715950081" lon="5.905315106045486"><ele>388.0</ele><time>2026-04-25T15:08:22.975Z</time></trkpt><trkpt lat="43.355913355789625" lon="5.9055272210125285"><ele>388.0</ele><time>2026-04-25T15:08:23.975Z</time></trkpt><trkpt lat="43.35575814161852" lon="5.905722898223494"><ele>388.0</ele><time>2026-04-25T15:08:24.975Z</time></trkpt><trkpt lat="43.355613324747765" lon="5.905907480546375"><ele>388.0</ele><time>2026-04-25T15:08:25.975Z</time></trkpt><trkpt lat="43.355482750610534" lon="5.906066307985601"><ele>388.0</ele><time>2026-04-25T15:08:26.975Z</time></trkpt><trkpt lat="43.355364304036605" lon="5.906206739362564"><ele>388.0</ele><time>2026-04-25T15:08:27.975Z</time></trkpt><trkpt lat="43.35527954368154" lon="5.906348076743945"><ele>388.0</ele><time>2026-04-25T15:08:28.975Z</time></trkpt><trkpt lat="43.3552401914337" lon="5.90652885757937"><ele>388.0</ele><time>2026-04-25T15:08:29.975Z</time></trkpt><trkpt lat="43.355222686466725" lon="5.906757827395893"><ele>388.0</ele><time>2026-04-25T15:08:30.975Z</time></trkpt><trkpt lat="43.35521097163257" lon="5.906985296758606"><ele>388.0</ele><time>2026-04-25T15:08:31.975Z</time></trkpt><trkpt lat="43.35517746018196" lon="5.907192445383514"><ele>388.0</ele><time>2026-04-25T15:08:32.975Z</time></trkpt><trkpt lat="43.355111970101" lon="5.907401883608164"><ele>387.0</ele><time>2026-04-25T15:08:33.975Z</time></trkpt><trkpt lat="43.35498771620548" lon="5.907601347255292"><ele>386.0</ele><time>2026-04-25T15:08:34.975Z</time></trkpt><trkpt lat="43.35481901532464" lon="5.907790833404103"><ele>385.0</ele><time>2026-04-25T15:08:35.975Z</time></trkpt><trkpt lat="43.35466454656405" lon="5.90798264047934"><ele>386.0</ele><time>2026-04-25T15:08:36.975Z</time></trkpt><trkpt lat="43.354538999926895" lon="5.908188561236042"><ele>387.0</ele><time>2026-04-25T15:08:37.975Z</time></trkpt><trkpt lat="43.35442986158551" lon="5.9084103350221095"><ele>388.0</ele><time>2026-04-25T15:08:38.975Z</time></trkpt><trkpt lat="43.354327702506716" lon="5.908627525377113"><ele>388.0</ele><time>2026-04-25T15:08:39.975Z</time></trkpt><trkpt lat="43.354237911276634" lon="5.908823775517573"><ele>388.0</ele><time>2026-04-25T15:08:40.975Z</time></trkpt><trkpt lat="43.35415449179105" lon="5.909027399847149"><ele>388.0</ele><time>2026-04-25T15:08:41.975Z</time></trkpt><trkpt lat="43.354078355242684" lon="5.9092613982223705"><ele>387.6666666666667</ele><time>2026-04-25T15:08:42.975Z</time></trkpt><trkpt lat="43.354020309928416" lon="5.909487342110513"><ele>387.33333333333337</ele><time>2026-04-25T15:08:43.975Z</time></trkpt><trkpt lat="43.35395741415128" lon="5.909704242562364"><ele>387.0</ele><time>2026-04-25T15:08:44.975Z</time></trkpt><trkpt lat="43.35389224775806" lon="5.909930210596427"><ele>387.66666666666663</ele><time>2026-04-25T15:08:45.975Z</time></trkpt><trkpt lat="43.35382848517562" lon="5.910161157963613"><ele>388.3333333333333</ele><time>2026-04-25T15:08:46.975Z</time></trkpt><trkpt lat="43.353781236756355" lon="5.910391173904444"><ele>389.0</ele><time>2026-04-25T15:08:47.975Z</time></trkpt><trkpt lat="43.35374661081785" lon="5.910627038007001"><ele>389.0</ele><time>2026-04-25T15:08:48.975Z</time></trkpt><trkpt lat="43.353730489911584" lon="5.910844242398849"><ele>389.0</ele><time>2026-04-25T15:08:49.975Z</time></trkpt><trkpt lat="43.35371401652739" lon="5.91105784593157"><ele>389.0</ele><time>2026-04-25T15:08:50.975Z</time></trkpt><trkpt lat="43.35371771632367" lon="5.911246758439331"><ele>389.0</ele><time>2026-04-25T15:08:51.975Z</time></trkpt><trkpt lat="43.35371242027296" lon="5.91142425947096"><ele>389.0</ele><time>2026-04-25T15:08:52.975Z</time></trkpt><trkpt lat="43.35368519953772" lon="5.9115908478017625"><ele>389.0</ele><time>2026-04-25T15:08:53.975Z</time></trkpt><trkpt lat="43.353619324140126" lon="5.911742269537596"><ele>389.0</ele><time>2026-04-25T15:08:54.975Z</time></trkpt><trkpt lat="43.3535405612218" lon="5.911894502857143"><ele>388.4</ele><time>2026-04-25T15:08:55.975Z</time></trkpt><trkpt lat="43.35347589882842" lon="5.912025066650774"><ele>387.79999999999995</ele><time>2026-04-25T15:08:56.975Z</time></trkpt><trkpt lat="43.35341401126653" lon="5.912158004348215"><ele>387.20000000000005</ele><time>2026-04-25T15:08:57.975Z</time></trkpt><trkpt lat="43.35336264358895" lon="5.912272684026264"><ele>386.6</ele><time>2026-04-25T15:08:58.975Z</time></trkpt><trkpt lat="43.35331480218554" lon="5.912376171528132"><ele>386.0</ele><time>2026-04-25T15:08:59.975Z</time></trkpt><trkpt lat="43.35326840183352" lon="5.912474386116638"><ele>385.99999999999994</ele><time>2026-04-25T15:09:00.975Z</time></trkpt><trkpt lat="43.35322168888213" lon="5.912566935597534"><ele>386.0</ele><time>2026-04-25T15:09:01.975Z</time></trkpt><trkpt lat="43.35318591592386" lon="5.912647023328184"><ele>386.0</ele><time>2026-04-25T15:09:02.975Z</time></trkpt><trkpt lat="43.35314178715131" lon="5.912740622730854"><ele>386.0</ele><time>2026-04-25T15:09:03.975Z</time></trkpt><trkpt lat="43.35308855874421" lon="5.91283032624488"><ele>385.99999999999994</ele><time>2026-04-25T15:09:04.975Z</time></trkpt><trkpt lat="43.35302007551716" lon="5.912905234293683"><ele>386.0</ele><time>2026-04-25T15:09:05.975Z</time></trkpt><trkpt lat="43.35292811910891" lon="5.912969138558042"><ele>386.25</ele><time>2026-04-25T15:09:06.975Z</time></trkpt><trkpt lat="43.352810276119754" lon="5.913032109144091"><ele>386.5</ele><time>2026-04-25T15:09:07.975Z</time></trkpt><trkpt lat="43.35268849990184" lon="5.913091310113346"><ele>386.75</ele><time>2026-04-25T15:09:08.975Z</time></trkpt><trkpt lat="43.35256328429324" lon="5.913155167620556"><ele>387.0</ele><time>2026-04-25T15:09:09.975Z</time></trkpt><trkpt lat="43.3524477857355" lon="5.913230342478277"><ele>387.0</ele><time>2026-04-25T15:09:10.975Z</time></trkpt><trkpt lat="43.352339174309094" lon="5.913319135013845"><ele>387.0</ele><time>2026-04-25T15:09:11.975Z</time></trkpt><trkpt lat="43.352222963557864" lon="5.913414172185236"><ele>387.0</ele><time>2026-04-25T15:09:12.975Z</time></trkpt><trkpt lat="43.35210532267137" lon="5.913514767751903"><ele>387.0</ele><time>2026-04-25T15:09:13.975Z</time></trkpt><trkpt lat="43.351987560396026" lon="5.913611376854739"><ele>387.25</ele><time>2026-04-25T15:09:14.974Z</time></trkpt><trkpt lat="43.351876489078634" lon="5.913694018275816"><ele>387.5</ele><time>2026-04-25T15:09:15.974Z</time></trkpt><trkpt lat="43.35176536470377" lon="5.913770830547591"><ele>387.75</ele><time>2026-04-25T15:09:16.974Z</time></trkpt><trkpt lat="43.351653915394785" lon="5.913818642349354"><ele>388.0</ele><time>2026-04-25T15:09:17.974Z</time></trkpt><trkpt lat="43.35154424924783" lon="5.913856059113426"><ele>388.0</ele><time>2026-04-25T15:09:18.974Z</time></trkpt><trkpt lat="43.3514423592365" lon="5.913886455021254"><ele>388.0</ele><time>2026-04-25T15:09:19.974Z</time></trkpt><trkpt lat="43.351348415071726" lon="5.913909957017847"><ele>388.0</ele><time>2026-04-25T15:09:20.974Z</time></trkpt><trkpt lat="43.351261374165915" lon="5.913964615653259"><ele>388.0</ele><time>2026-04-25T15:09:21.974Z</time></trkpt><trkpt lat="43.351192488296554" lon="5.9140708099996795"><ele>388.0</ele><time>2026-04-25T15:09:22.974Z</time></trkpt><trkpt lat="43.35114312182497" lon="5.914216456995395"><ele>388.5</ele><time>2026-04-25T15:09:23.974Z</time></trkpt><trkpt lat="43.35108601254764" lon="5.914384244191081"><ele>389.0</ele><time>2026-04-25T15:09:24.974Z</time></trkpt><trkpt lat="43.35100855054799" lon="5.914556440525965"><ele>389.5</ele><time>2026-04-25T15:09:25.974Z</time></trkpt><trkpt lat="43.35093200744156" lon="5.914703786683635"><ele>390.0</ele><time>2026-04-25T15:09:26.974Z</time></trkpt><trkpt lat="43.35085507525274" lon="5.914862241865098"><ele>390.0</ele><time>2026-04-25T15:09:27.974Z</time></trkpt><trkpt lat="43.3508005724931" lon="5.914970706316272"><ele>390.0</ele><time>2026-04-25T15:09:28.974Z</time></trkpt><trkpt lat="43.35075846877893" lon="5.91504194468326"><ele>390.0</ele><time>2026-04-25T15:09:29.974Z</time></trkpt><trkpt lat="43.35072208854638" lon="5.915122351565786"><ele>390.0</ele><time>2026-04-25T15:09:31.974Z</time></trkpt><trkpt lat="43.35069329014911" lon="5.9152052878883055"><ele>390.0</ele><time>2026-04-25T15:09:33.974Z</time></trkpt><trkpt lat="43.35060743624504" lon="5.91534982718024"><ele>390.0</ele><time>2026-04-25T15:09:35.974Z</time></trkpt><trkpt lat="43.35055045963773" lon="5.9154674652632275"><ele>392.0</ele><time>2026-04-25T15:09:36.974Z</time></trkpt><trkpt lat="43.350498877368494" lon="5.915615088624897"><ele>394.0</ele><time>2026-04-25T15:09:37.974Z</time></trkpt><trkpt lat="43.350413516763375" lon="5.91573361663031"><ele>396.0</ele><time>2026-04-25T15:09:38.974Z</time></trkpt><trkpt lat="43.350334314548405" lon="5.91588260679659"><ele>398.0</ele><time>2026-04-25T15:09:39.974Z</time></trkpt><trkpt lat="43.35026826495309" lon="5.916029993321338"><ele>398.2</ele><time>2026-04-25T15:09:40.974Z</time></trkpt><trkpt lat="43.350207121262066" lon="5.9161614790456705"><ele>398.4</ele><time>2026-04-25T15:09:41.974Z</time></trkpt><trkpt lat="43.3501550866521" lon="5.916281755372737"><ele>398.59999999999997</ele><time>2026-04-25T15:09:42.974Z</time></trkpt><trkpt lat="43.35010038062625" lon="5.916413508706071"><ele>398.79999999999995</ele><time>2026-04-25T15:09:43.974Z</time></trkpt><trkpt lat="43.35003870484604" lon="5.91655592523191"><ele>399.0</ele><time>2026-04-25T15:09:44.974Z</time></trkpt><trkpt lat="43.349969030639755" lon="5.916696082452218"><ele>398.4</ele><time>2026-04-25T15:09:45.974Z</time></trkpt><trkpt lat="43.34988791550466" lon="5.9168354055507555"><ele>397.79999999999995</ele><time>2026-04-25T15:09:46.974Z</time></trkpt><trkpt lat="43.34983795593932" lon="5.916966895951885"><ele>397.20000000000005</ele><time>2026-04-25T15:09:47.974Z</time></trkpt><trkpt lat="43.3497830572392" lon="5.917090302789537"><ele>396.6</ele><time>2026-04-25T15:09:48.974Z</time></trkpt><trkpt lat="43.349736446177005" lon="5.917198829065749"><ele>396.0</ele><time>2026-04-25T15:09:49.974Z</time></trkpt><trkpt lat="43.34968960636248" lon="5.917304549159149"><ele>396.8</ele><time>2026-04-25T15:09:50.974Z</time></trkpt><trkpt lat="43.34964209025722" lon="5.91741592219689"><ele>397.6</ele><time>2026-04-25T15:09:51.974Z</time></trkpt><trkpt lat="43.349592206322136" lon="5.917541404829097"><ele>398.4</ele><time>2026-04-25T15:09:52.974Z</time></trkpt><trkpt lat="43.34954140184745" lon="5.917674229517156"><ele>399.2</ele><time>2026-04-25T15:09:53.974Z</time></trkpt><trkpt lat="43.34950226248322" lon="5.917785600970173"><ele>400.0</ele><time>2026-04-25T15:09:54.974Z</time></trkpt><trkpt lat="43.34945147054162" lon="5.917864305010313"><ele>400.0</ele><time>2026-04-25T15:09:55.974Z</time></trkpt><trkpt lat="43.34941167100239" lon="5.9179604819463565"><ele>400.0</ele><time>2026-04-25T15:09:56.974Z</time></trkpt><trkpt lat="43.349380610295775" lon="5.918081393638935"><ele>400.0</ele><time>2026-04-25T15:09:57.974Z</time></trkpt><trkpt lat="43.349329731952686" lon="5.9181953850328135"><ele>400.0</ele><time>2026-04-25T15:09:58.974Z</time></trkpt><trkpt lat="43.34926913248513" lon="5.918313724738716"><ele>400.0</ele><time>2026-04-25T15:09:59.974Z</time></trkpt><trkpt lat="43.34921240772117" lon="5.918449061484498"><ele>399.75</ele><time>2026-04-25T15:10:00.974Z</time></trkpt><trkpt lat="43.34915945832019" lon="5.918581690039516"><ele>399.5</ele><time>2026-04-25T15:10:01.974Z</time></trkpt><trkpt lat="43.34910705242869" lon="5.918732976873743"><ele>399.25</ele><time>2026-04-25T15:10:02.974Z</time></trkpt><trkpt lat="43.34902993871551" lon="5.9188887813302395"><ele>399.0</ele><time>2026-04-25T15:10:03.974Z</time></trkpt><trkpt lat="43.34896857906098" lon="5.919064641276303"><ele>399.0</ele><time>2026-04-25T15:10:04.974Z</time></trkpt><trkpt lat="43.34890370845166" lon="5.919203633134644"><ele>399.0</ele><time>2026-04-25T15:10:05.974Z</time></trkpt><trkpt lat="43.34884935001612" lon="5.919345579343775"><ele>399.0</ele><time>2026-04-25T15:10:06.974Z</time></trkpt><trkpt lat="43.34879898900997" lon="5.919481990451335"><ele>399.0</ele><time>2026-04-25T15:10:07.974Z</time></trkpt><trkpt lat="43.348747283027826" lon="5.9196107720014375"><ele>401.4</ele><time>2026-04-25T15:10:08.974Z</time></trkpt><trkpt lat="43.34868442741559" lon="5.919730010743423"><ele>403.79999999999995</ele><time>2026-04-25T15:10:09.974Z</time></trkpt><trkpt lat="43.34863164921422" lon="5.919844887811691"><ele>406.20000000000005</ele><time>2026-04-25T15:10:10.974Z</time></trkpt><trkpt lat="43.34859136129504" lon="5.919959179409044"><ele>408.6</ele><time>2026-04-25T15:10:11.974Z</time></trkpt><trkpt lat="43.34855077609971" lon="5.920065056458425"><ele>411.0</ele><time>2026-04-25T15:10:12.974Z</time></trkpt><trkpt lat="43.348509929976785" lon="5.920152456083075"><ele>411.0</ele><time>2026-04-25T15:10:13.974Z</time></trkpt><trkpt lat="43.34847246666301" lon="5.920226656841345"><ele>411.0</ele><time>2026-04-25T15:10:14.975Z</time></trkpt><trkpt lat="43.34842199044976" lon="5.920365401589766"><ele>411.0</ele><time>2026-04-25T15:10:16.974Z</time></trkpt><trkpt lat="43.34836256900877" lon="5.920488519022947"><ele>411.0</ele><time>2026-04-25T15:10:18.975Z</time></trkpt><trkpt lat="43.34832110599091" lon="5.920594770683191"><ele>411.0</ele><time>2026-04-25T15:10:20.975Z</time></trkpt><trkpt lat="43.34826023022" lon="5.920730483995741"><ele>411.0</ele><time>2026-04-25T15:10:22.974Z</time></trkpt><trkpt lat="43.3482298606535" lon="5.920831090881904"><ele>411.0</ele><time>2026-04-25T15:10:23.974Z</time></trkpt><trkpt lat="43.34819008161023" lon="5.920937451162527"><ele>411.0</ele><time>2026-04-25T15:10:24.975Z</time></trkpt><trkpt lat="43.34814846990167" lon="5.92104595104472"><ele>411.0</ele><time>2026-04-25T15:10:25.975Z</time></trkpt><trkpt lat="43.348099842715904" lon="5.921127803914271"><ele>411.0</ele><time>2026-04-25T15:10:26.974Z</time></trkpt><trkpt lat="43.34803351106524" lon="5.921199181706244"><ele>411.0</ele><time>2026-04-25T15:10:27.974Z</time></trkpt><trkpt lat="43.34796406092101" lon="5.92124680599345"><ele>412.25</ele><time>2026-04-25T15:10:28.974Z</time></trkpt><trkpt lat="43.34786366549453" lon="5.921336466719525"><ele>413.5</ele><time>2026-04-25T15:10:30.974Z</time></trkpt><trkpt lat="43.347759897931944" lon="5.92144265189921"><ele>414.75</ele><time>2026-04-25T15:10:32.974Z</time></trkpt><trkpt lat="43.347649900380695" lon="5.921526697658237"><ele>416.0</ele><time>2026-04-25T15:10:34.974Z</time></trkpt><trkpt lat="43.34754192338621" lon="5.921620701012967"><ele>415.99999999999994</ele><time>2026-04-25T15:10:36.974Z</time></trkpt><trkpt lat="43.34748631993449" lon="5.921666885006156"><ele>416.0</ele><time>2026-04-25T15:10:37.974Z</time></trkpt><trkpt lat="43.34743232091106" lon="5.921711836800625"><ele>416.0</ele><time>2026-04-25T15:10:38.974Z</time></trkpt><trkpt lat="43.347342692310605" lon="5.9217901223616325"><ele>416.0</ele><time>2026-04-25T15:10:40.974Z</time></trkpt><trkpt lat="43.34728626086279" lon="5.921836112827229"><ele>415.99999999999994</ele><time>2026-04-25T15:10:42.974Z</time></trkpt><trkpt lat="43.347194106474674" lon="5.92197363081211"><ele>416.0</ele><time>2026-04-25T15:10:45.974Z</time></trkpt><trkpt lat="43.347199682664254" lon="5.922060996943399"><ele>416.20000000000005</ele><time>2026-04-25T15:10:46.974Z</time></trkpt><trkpt lat="43.3472106206889" lon="5.922160888636828"><ele>416.40000000000003</ele><time>2026-04-25T15:10:48.974Z</time></trkpt><trkpt lat="43.34721823922184" lon="5.922257337908759"><ele>416.6</ele><time>2026-04-25T15:10:50.974Z</time></trkpt><trkpt lat="43.34722605549197" lon="5.92236643716891"><ele>416.8</ele><time>2026-04-25T15:10:52.974Z</time></trkpt><trkpt lat="43.34735957738436" lon="5.922451676797065"><ele>417.0</ele><time>2026-04-25T15:10:54.974Z</time></trkpt><trkpt lat="43.34745243234495" lon="5.922510116716871"><ele>418.8</ele><time>2026-04-25T15:10:57.974Z</time></trkpt><trkpt lat="43.34745035465024" lon="5.922599979312014"><ele>420.6</ele><time>2026-04-25T15:10:58.974Z</time></trkpt><trkpt lat="43.347536281814094" lon="5.92258402792018"><ele>422.40000000000003</ele><time>2026-04-25T15:11:01.974Z</time></trkpt><trkpt lat="43.347607438932506" lon="5.922666829400094"><ele>424.20000000000005</ele><time>2026-04-25T15:11:03.974Z</time></trkpt><trkpt lat="43.34767506079797" lon="5.9227649902403385"><ele>426.0</ele><time>2026-04-25T15:11:05.974Z</time></trkpt><trkpt lat="43.34778819047578" lon="5.92275988045072"><ele>426.0</ele><time>2026-04-25T15:11:06.974Z</time></trkpt><trkpt lat="43.34788765990977" lon="5.9227856514043795"><ele>426.0</ele><time>2026-04-25T15:11:07.974Z</time></trkpt><trkpt lat="43.347995275955654" lon="5.922813051191207"><ele>426.0</ele><time>2026-04-25T15:11:08.974Z</time></trkpt><trkpt lat="43.34810565502435" lon="5.922839692661302"><ele>426.0</ele><time>2026-04-25T15:11:09.974Z</time></trkpt><trkpt lat="43.34822379978548" lon="5.922831368328157"><ele>426.0</ele><time>2026-04-25T15:11:10.974Z</time></trkpt><trkpt lat="43.34832709829201" lon="5.92287586493288"><ele>425.4</ele><time>2026-04-25T15:11:11.974Z</time></trkpt><trkpt lat="43.3484184474834" lon="5.922909553443968"><ele>424.8</ele><time>2026-04-25T15:11:12.974Z</time></trkpt><trkpt lat="43.348518504974926" lon="5.92293190476978"><ele>424.2</ele><time>2026-04-25T15:11:13.974Z</time></trkpt><trkpt lat="43.34861759105316" lon="5.922951093691984"><ele>423.59999999999997</ele><time>2026-04-25T15:11:14.974Z</time></trkpt><trkpt lat="43.348723000433864" lon="5.922980181067714"><ele>423.0</ele><time>2026-04-25T15:11:15.974Z</time></trkpt><trkpt lat="43.34883018965804" lon="5.922998673063943"><ele>423.0</ele><time>2026-04-25T15:11:16.974Z</time></trkpt><trkpt lat="43.3489304125502" lon="5.9230190272466"><ele>423.0</ele><time>2026-04-25T15:11:17.974Z</time></trkpt><trkpt lat="43.34901467977711" lon="5.923050992976915"><ele>423.0</ele><time>2026-04-25T15:11:18.974Z</time></trkpt><trkpt lat="43.34907767017053" lon="5.923118073931043"><ele>423.0</ele><time>2026-04-25T15:11:19.974Z</time></trkpt><trkpt lat="43.34912589461266" lon="5.92322108955586"><ele>423.0</ele><time>2026-04-25T15:11:20.974Z</time></trkpt><trkpt lat="43.349141412460526" lon="5.923357179931567"><ele>428.0</ele><time>2026-04-25T15:11:21.974Z</time></trkpt><trkpt lat="43.349137584179886" lon="5.923530026551233"><ele>433.0</ele><time>2026-04-25T15:11:22.974Z</time></trkpt><trkpt lat="43.349143566440915" lon="5.923680850378396"><ele>438.0</ele><time>2026-04-25T15:11:23.974Z</time></trkpt><trkpt lat="43.349190981448935" lon="5.923805453643931"><ele>443.0</ele><time>2026-04-25T15:11:24.974Z</time></trkpt><trkpt lat="43.349286464385145" lon="5.923895816283539"><ele>443.0</ele><time>2026-04-25T15:11:25.974Z</time></trkpt><trkpt lat="43.34941103845727" lon="5.923955322649224"><ele>443.0</ele><time>2026-04-25T15:11:26.974Z</time></trkpt><trkpt lat="43.349549833643124" lon="5.9240215184169545"><ele>443.0</ele><time>2026-04-25T15:11:27.974Z</time></trkpt><trkpt lat="43.3496827597985" lon="5.924062925235732"><ele>443.0</ele><time>2026-04-25T15:11:28.974Z</time></trkpt><trkpt lat="43.349809465544226" lon="5.924150798612946"><ele>444.0</ele><time>2026-04-25T15:11:29.974Z</time></trkpt><trkpt lat="43.34993266345139" lon="5.924253609683674"><ele>444.99999999999994</ele><time>2026-04-25T15:11:30.974Z</time></trkpt><trkpt lat="43.35003456326457" lon="5.9243466846047586"><ele>445.99999999999994</ele><time>2026-04-25T15:11:31.974Z</time></trkpt><trkpt lat="43.35010366914086" lon="5.924403019105021"><ele>447.0</ele><time>2026-04-25T15:11:32.974Z</time></trkpt><trkpt lat="43.350098734443144" lon="5.924520744614962"><ele>448.0</ele><time>2026-04-25T15:11:34.974Z</time></trkpt><trkpt lat="43.34998543594551" lon="5.924495042651391"><ele>448.00000000000006</ele><time>2026-04-25T15:11:36.974Z</time></trkpt><trkpt lat="43.349905569718146" lon="5.924413972894408"><ele>448.0</ele><time>2026-04-25T15:11:37.974Z</time></trkpt><trkpt lat="43.34983070053213" lon="5.924332923948338"><ele>448.0</ele><time>2026-04-25T15:11:38.974Z</time></trkpt><trkpt lat="43.34975758344947" lon="5.924302465714482"><ele>448.0</ele><time>2026-04-25T15:11:39.974Z</time></trkpt><trkpt lat="43.34969743507576" lon="5.924338257076103"><ele>448.00000000000006</ele><time>2026-04-25T15:11:40.974Z</time></trkpt><trkpt lat="43.349653157999775" lon="5.9244158919110985"><ele>448.0</ele><time>2026-04-25T15:11:41.974Z</time></trkpt><trkpt lat="43.34968392150813" lon="5.924532870730536"><ele>448.0</ele><time>2026-04-25T15:11:42.974Z</time></trkpt><trkpt lat="43.34977034394793" lon="5.924593757290248"><ele>448.0</ele><time>2026-04-25T15:11:43.974Z</time></trkpt><trkpt lat="43.349868632760064" lon="5.9246809238823275"><ele>448.0</ele><time>2026-04-25T15:11:44.974Z</time></trkpt><trkpt lat="43.350004574064485" lon="5.924783327732396"><ele>448.0</ele><time>2026-04-25T15:11:45.974Z</time></trkpt><trkpt lat="43.35013751043386" lon="5.924891262971404"><ele>448.0</ele><time>2026-04-25T15:11:46.974Z</time></trkpt><trkpt lat="43.35024769580641" lon="5.924987783923221"><ele>447.99999999999994</ele><time>2026-04-25T15:11:47.973Z</time></trkpt><trkpt lat="43.350326176277235" lon="5.92505247456231"><ele>447.99999999999994</ele><time>2026-04-25T15:11:48.973Z</time></trkpt><trkpt lat="43.350378698068546" lon="5.9251039728061725"><ele>448.0</ele><time>2026-04-25T15:11:49.973Z</time></trkpt><trkpt lat="43.35039804253897" lon="5.925214258722342"><ele>448.0</ele><time>2026-04-25T15:11:51.973Z</time></trkpt><trkpt lat="43.35028860962213" lon="5.925221575778121"><ele>448.0</ele><time>2026-04-25T15:11:53.973Z</time></trkpt><trkpt lat="43.35021557970162" lon="5.925171019817782"><ele>448.0</ele><time>2026-04-25T15:11:54.973Z</time></trkpt><trkpt lat="43.350113924585486" lon="5.925097469615721"><ele>448.0</ele><time>2026-04-25T15:11:55.973Z</time></trkpt><trkpt lat="43.35000813195658" lon="5.925025961271994"><ele>448.0</ele><time>2026-04-25T15:11:56.973Z</time></trkpt><trkpt lat="43.34988311530258" lon="5.924952907665672"><ele>448.0</ele><time>2026-04-25T15:11:57.973Z</time></trkpt><trkpt lat="43.349725472369606" lon="5.924873228966167"><ele>448.0</ele><time>2026-04-25T15:11:58.973Z</time></trkpt><trkpt lat="43.349544413509435" lon="5.924823916272657"><ele>448.0</ele><time>2026-04-25T15:11:59.973Z</time></trkpt><trkpt lat="43.34937761289129" lon="5.92475974957631"><ele>452.0</ele><time>2026-04-25T15:12:00.973Z</time></trkpt><trkpt lat="43.34923364797504" lon="5.924714649848554"><ele>456.0</ele><time>2026-04-25T15:12:01.973Z</time></trkpt><trkpt lat="43.34910507338184" lon="5.924624373265759"><ele>460.0</ele><time>2026-04-25T15:12:02.973Z</time></trkpt><trkpt lat="43.34900878424666" lon="5.924506224389833"><ele>464.0</ele><time>2026-04-25T15:12:03.973Z</time></trkpt><trkpt lat="43.34893655654233" lon="5.924397764040829"><ele>465.75</ele><time>2026-04-25T15:12:04.973Z</time></trkpt><trkpt lat="43.3488341767906" lon="5.924311525871706"><ele>467.5</ele><time>2026-04-25T15:12:05.973Z</time></trkpt><trkpt lat="43.34870004122331" lon="5.924277283763914"><ele>469.25</ele><time>2026-04-25T15:12:06.973Z</time></trkpt><trkpt lat="43.34854911075612" lon="5.924361274957553"><ele>471.0</ele><time>2026-04-25T15:12:07.973Z</time></trkpt><trkpt lat="43.34837144385311" lon="5.924439833469032"><ele>471.0</ele><time>2026-04-25T15:12:08.973Z</time></trkpt><trkpt lat="43.34819354522585" lon="5.924499804569544"><ele>471.0</ele><time>2026-04-25T15:12:09.973Z</time></trkpt><trkpt lat="43.34804648998302" lon="5.924519822230308"><ele>471.0</ele><time>2026-04-25T15:12:10.973Z</time></trkpt><trkpt lat="43.34792622215153" lon="5.924534279758523"><ele>469.0</ele><time>2026-04-25T15:12:11.973Z</time></trkpt><trkpt lat="43.347831758447924" lon="5.92459371345637"><ele>467.0</ele><time>2026-04-25T15:12:12.973Z</time></trkpt><trkpt lat="43.34777303294538" lon="5.924698182679845"><ele>465.0</ele><time>2026-04-25T15:12:13.973Z</time></trkpt><trkpt lat="43.34776394039089" lon="5.924846974486334"><ele>463.0</ele><time>2026-04-25T15:12:14.973Z</time></trkpt><trkpt lat="43.34779788830895" lon="5.925021857026714"><ele>461.0</ele><time>2026-04-25T15:12:15.973Z</time></trkpt><trkpt lat="43.34789267083342" lon="5.925230530382533"><ele>461.0</ele><time>2026-04-25T15:12:16.973Z</time></trkpt><trkpt lat="43.347977715092" lon="5.925420403041727"><ele>461.0</ele><time>2026-04-25T15:12:17.973Z</time></trkpt><trkpt lat="43.34802760272281" lon="5.925596732033215"><ele>461.0</ele><time>2026-04-25T15:12:18.973Z</time></trkpt><trkpt lat="43.34803989297342" lon="5.925793968524196"><ele>461.0</ele><time>2026-04-25T15:12:19.973Z</time></trkpt><trkpt lat="43.34802957775999" lon="5.9260333016227955"><ele>465.3333333333333</ele><time>2026-04-25T15:12:20.974Z</time></trkpt><trkpt lat="43.34799832815189" lon="5.926298595685841"><ele>469.66666666666663</ele><time>2026-04-25T15:12:21.974Z</time></trkpt><trkpt lat="43.34797558830465" lon="5.926527480856678"><ele>474.0</ele><time>2026-04-25T15:12:22.974Z</time></trkpt><trkpt lat="43.34795692462215" lon="5.926756628884625"><ele>476.66666666666663</ele><time>2026-04-25T15:12:23.974Z</time></trkpt><trkpt lat="43.347969259421156" lon="5.92699044598888"><ele>479.3333333333333</ele><time>2026-04-25T15:12:24.974Z</time></trkpt><trkpt lat="43.34801120460408" lon="5.927234158782306"><ele>482.0</ele><time>2026-04-25T15:12:25.974Z</time></trkpt><trkpt lat="43.34808017728381" lon="5.9274980801392045"><ele>484.66666666666663</ele><time>2026-04-25T15:12:26.975Z</time></trkpt><trkpt lat="43.34812506771647" lon="5.927743472647503"><ele>487.33333333333337</ele><time>2026-04-25T15:12:27.974Z</time></trkpt><trkpt lat="43.348159333064984" lon="5.92796399212678"><ele>490.0</ele><time>2026-04-25T15:12:28.974Z</time></trkpt><trkpt lat="43.34818007665565" lon="5.9281890005686355"><ele>491.6666666666667</ele><time>2026-04-25T15:12:29.975Z</time></trkpt><trkpt lat="43.34817156974352" lon="5.9284076620731705"><ele>493.33333333333337</ele><time>2026-04-25T15:12:30.974Z</time></trkpt><trkpt lat="43.348153546635174" lon="5.928621422044689"><ele>495.0</ele><time>2026-04-25T15:12:31.974Z</time></trkpt><trkpt lat="43.3481424309013" lon="5.92881747192288"><ele>495.0</ele><time>2026-04-25T15:12:32.975Z</time></trkpt><trkpt lat="43.3481353879081" lon="5.928995009703488"><ele>495.0</ele><time>2026-04-25T15:12:33.974Z</time></trkpt><trkpt lat="43.34811698011608" lon="5.929132981763508"><ele>495.0</ele><time>2026-04-25T15:12:34.974Z</time></trkpt><trkpt lat="43.34806655817017" lon="5.9292547120595955"><ele>495.0</ele><time>2026-04-25T15:12:35.974Z</time></trkpt><trkpt lat="43.34797028395341" lon="5.929339093040916"><ele>495.0</ele><time>2026-04-25T15:12:36.974Z</time></trkpt><trkpt lat="43.34783827127838" lon="5.929398333202457"><ele>494.75</ele><time>2026-04-25T15:12:37.974Z</time></trkpt><trkpt lat="43.34768881145887" lon="5.929449963715858"><ele>494.5</ele><time>2026-04-25T15:12:38.974Z</time></trkpt><trkpt lat="43.347580006522726" lon="5.929514680398705"><ele>494.25</ele><time>2026-04-25T15:12:39.974Z</time></trkpt><trkpt lat="43.347499413091676" lon="5.929659659789667"><ele>494.0</ele><time>2026-04-25T15:12:40.974Z</time></trkpt><trkpt lat="43.34743585723878" lon="5.929865805987122"><ele>496.0</ele><time>2026-04-25T15:12:41.974Z</time></trkpt><trkpt lat="43.34738108115916" lon="5.930104804647273"><ele>498.0</ele><time>2026-04-25T15:12:42.974Z</time></trkpt><trkpt lat="43.34730559781087" lon="5.930339159292609"><ele>500.0</ele><time>2026-04-25T15:12:43.974Z</time></trkpt><trkpt lat="43.347233997968544" lon="5.930575371043856"><ele>500.0</ele><time>2026-04-25T15:12:44.974Z</time></trkpt><trkpt lat="43.34716910596481" lon="5.9307968532271635"><ele>500.0</ele><time>2026-04-25T15:12:45.974Z</time></trkpt><trkpt lat="43.34709443059863" lon="5.931029936901326"><ele>500.0</ele><time>2026-04-25T15:12:46.974Z</time></trkpt><trkpt lat="43.347012344218015" lon="5.931238960322156"><ele>500.0</ele><time>2026-04-25T15:12:47.974Z</time></trkpt><trkpt lat="43.346939975825" lon="5.93141546203222"><ele>500.0</ele><time>2026-04-25T15:12:48.974Z</time></trkpt><trkpt lat="43.34691486583455" lon="5.931597702228592"><ele>500.0</ele><time>2026-04-25T15:12:49.974Z</time></trkpt><trkpt lat="43.346938446450984" lon="5.931774530443589"><ele>500.0</ele><time>2026-04-25T15:12:50.974Z</time></trkpt><trkpt lat="43.347000140116904" lon="5.9319271589395495"><ele>499.6</ele><time>2026-04-25T15:12:51.974Z</time></trkpt><trkpt lat="43.347063598444734" lon="5.932056173680543"><ele>499.2</ele><time>2026-04-25T15:12:52.974Z</time></trkpt><trkpt lat="43.34708210699009" lon="5.932146643959327"><ele>498.79999999999995</ele><time>2026-04-25T15:12:53.974Z</time></trkpt><trkpt lat="43.34703955980213" lon="5.932263081491328"><ele>498.4</ele><time>2026-04-25T15:12:54.974Z</time></trkpt><trkpt lat="43.3469371754401" lon="5.932371539838052"><ele>498.0</ele><time>2026-04-25T15:12:55.974Z</time></trkpt><trkpt lat="43.34680026431594" lon="5.932472928684275"><ele>501.0</ele><time>2026-04-25T15:12:56.974Z</time></trkpt><trkpt lat="43.34665036439257" lon="5.932573624345455"><ele>504.0</ele><time>2026-04-25T15:12:57.974Z</time></trkpt><trkpt lat="43.3465277728763" lon="5.932685608843663"><ele>507.0</ele><time>2026-04-25T15:12:58.974Z</time></trkpt><trkpt lat="43.34641191810204" lon="5.932771223443995"><ele>510.0</ele><time>2026-04-25T15:12:59.974Z</time></trkpt><trkpt lat="43.34631366706699" lon="5.932865808594266"><ele>501.0</ele><time>2026-04-25T15:13:00.974Z</time></trkpt><trkpt lat="43.34625459647358" lon="5.933038780359229"><ele>492.0</ele><time>2026-04-25T15:13:01.974Z</time></trkpt><trkpt lat="43.346206257946314" lon="5.9332739009558235"><ele>483.0</ele><time>2026-04-25T15:13:02.974Z</time></trkpt><trkpt lat="43.34618446092764" lon="5.933536023829301"><ele>483.0</ele><time>2026-04-25T15:13:03.974Z</time></trkpt><trkpt lat="43.34614970991984" lon="5.933817419220214"><ele>483.0</ele><time>2026-04-25T15:13:04.974Z</time></trkpt><trkpt lat="43.346112517318545" lon="5.934058754403725"><ele>483.0</ele><time>2026-04-25T15:13:05.974Z</time></trkpt><trkpt lat="43.346088822294426" lon="5.934331427280875"><ele>481.0</ele><time>2026-04-25T15:13:06.974Z</time></trkpt><trkpt lat="43.346087685098865" lon="5.9345989912858155"><ele>479.0</ele><time>2026-04-25T15:13:07.974Z</time></trkpt><trkpt lat="43.346100529637354" lon="5.934872847689978"><ele>477.0</ele><time>2026-04-25T15:13:08.974Z</time></trkpt><trkpt lat="43.34610542213237" lon="5.935118251660657"><ele>474.33333333333337</ele><time>2026-04-25T15:13:09.974Z</time></trkpt><trkpt lat="43.346106715831354" lon="5.935379688229973"><ele>471.6666666666667</ele><time>2026-04-25T15:13:10.974Z</time></trkpt><trkpt lat="43.34610972224482" lon="5.935638050633274"><ele>469.0</ele><time>2026-04-25T15:13:11.974Z</time></trkpt><trkpt lat="43.346108989374535" lon="5.9358815854138856"><ele>468.0</ele><time>2026-04-25T15:13:12.974Z</time></trkpt><trkpt lat="43.346095072671694" lon="5.936126853610315"><ele>467.0</ele><time>2026-04-25T15:13:13.974Z</time></trkpt><trkpt lat="43.346067936230284" lon="5.936351725437304"><ele>466.0</ele><time>2026-04-25T15:13:14.974Z</time></trkpt><trkpt lat="43.34602370410728" lon="5.936510771061105"><ele>466.0</ele><time>2026-04-25T15:13:15.974Z</time></trkpt><trkpt lat="43.34595624040804" lon="5.9366223568941825"><ele>466.0</ele><time>2026-04-25T15:13:16.974Z</time></trkpt><trkpt lat="43.34582796488921" lon="5.936686273317774"><ele>466.0</ele><time>2026-04-25T15:13:17.974Z</time></trkpt><trkpt lat="43.345713087009145" lon="5.9367546484865175"><ele>466.0</ele><time>2026-04-25T15:13:18.974Z</time></trkpt><trkpt lat="43.34561526224473" lon="5.936900783991502"><ele>464.0</ele><time>2026-04-25T15:13:19.974Z</time></trkpt><trkpt lat="43.345551978486554" lon="5.937128620318162"><ele>462.0</ele><time>2026-04-25T15:13:20.974Z</time></trkpt><trkpt lat="43.345482458116834" lon="5.937384538567491"><ele>460.0</ele><time>2026-04-25T15:13:21.974Z</time></trkpt><trkpt lat="43.34539345540088" lon="5.937657681498445"><ele>459.33333333333337</ele><time>2026-04-25T15:13:22.974Z</time></trkpt><trkpt lat="43.345307870904335" lon="5.937934028526857"><ele>458.66666666666663</ele><time>2026-04-25T15:13:23.974Z</time></trkpt><trkpt lat="43.345228487253074" lon="5.938212002548805"><ele>458.0</ele><time>2026-04-25T15:13:24.974Z</time></trkpt><trkpt lat="43.3451586832977" lon="5.938476512304543"><ele>458.0</ele><time>2026-04-25T15:13:25.974Z</time></trkpt><trkpt lat="43.345064965817826" lon="5.938743245917921"><ele>458.0</ele><time>2026-04-25T15:13:26.974Z</time></trkpt><trkpt lat="43.34496614500339" lon="5.938997539878344"><ele>458.0</ele><time>2026-04-25T15:13:27.974Z</time></trkpt><trkpt lat="43.344879582699555" lon="5.93924593312195"><ele>458.66666666666663</ele><time>2026-04-25T15:13:28.974Z</time></trkpt><trkpt lat="43.34479345594909" lon="5.939488658499957"><ele>459.33333333333337</ele><time>2026-04-25T15:13:29.974Z</time></trkpt><trkpt lat="43.344713253168436" lon="5.939721224287773"><ele>460.0</ele><time>2026-04-25T15:13:30.974Z</time></trkpt><trkpt lat="43.34462462776416" lon="5.93995827684057"><ele>455.33333333333337</ele><time>2026-04-25T15:13:31.974Z</time></trkpt><trkpt lat="43.34454256375761" lon="5.9401872017107396"><ele>450.66666666666663</ele><time>2026-04-25T15:13:32.974Z</time></trkpt><trkpt lat="43.344457283237354" lon="5.940402988108439"><ele>446.0</ele><time>2026-04-25T15:13:33.973Z</time></trkpt><trkpt lat="43.34435779665012" lon="5.940596596695395"><ele>446.0</ele><time>2026-04-25T15:13:34.973Z</time></trkpt><trkpt lat="43.34421451179914" lon="5.940735811407379"><ele>446.0</ele><time>2026-04-25T15:13:35.973Z</time></trkpt><trkpt lat="43.344069233880944" lon="5.940865485089371"><ele>446.0</ele><time>2026-04-25T15:13:36.973Z</time></trkpt><trkpt lat="43.34395365713294" lon="5.941040906761243"><ele>446.3333333333333</ele><time>2026-04-25T15:13:37.973Z</time></trkpt><trkpt lat="43.343864670195444" lon="5.941288558096883"><ele>446.66666666666663</ele><time>2026-04-25T15:13:38.973Z</time></trkpt><trkpt lat="43.34376872798822" lon="5.941572144774266"><ele>447.0</ele><time>2026-04-25T15:13:39.973Z</time></trkpt><trkpt lat="43.34366892452065" lon="5.9418110806831566"><ele>444.0</ele><time>2026-04-25T15:13:40.973Z</time></trkpt><trkpt lat="43.343570470995004" lon="5.942026744137085"><ele>441.0</ele><time>2026-04-25T15:13:41.973Z</time></trkpt><trkpt lat="43.343483262630436" lon="5.942219312563902"><ele>438.0</ele><time>2026-04-25T15:13:42.973Z</time></trkpt><trkpt lat="43.3434091452061" lon="5.942374485914503"><ele>438.0</ele><time>2026-04-25T15:13:43.973Z</time></trkpt><trkpt lat="43.34334470169576" lon="5.942488548059726"><ele>437.99999999999994</ele><time>2026-04-25T15:13:44.973Z</time></trkpt><trkpt lat="43.34326728857872" lon="5.94255511310065"><ele>437.99999999999994</ele><time>2026-04-25T15:13:45.973Z</time></trkpt><trkpt lat="43.34316152071526" lon="5.942559268107705"><ele>438.0</ele><time>2026-04-25T15:13:46.973Z</time></trkpt><trkpt lat="43.34303227078191" lon="5.942553863315169"><ele>438.0</ele><time>2026-04-25T15:13:47.973Z</time></trkpt><trkpt lat="43.34289707491023" lon="5.94261016852354"><ele>439.25</ele><time>2026-04-25T15:13:48.973Z</time></trkpt><trkpt lat="43.342758779943615" lon="5.942724891161313"><ele>440.5</ele><time>2026-04-25T15:13:49.973Z</time></trkpt><trkpt lat="43.34268073001236" lon="5.942887941389498"><ele>441.75</ele><time>2026-04-25T15:13:50.973Z</time></trkpt><trkpt lat="43.34263406482388" lon="5.943059130740578"><ele>443.0</ele><time>2026-04-25T15:13:51.973Z</time></trkpt><trkpt lat="43.342626080224036" lon="5.943261166499519"><ele>443.3333333333333</ele><time>2026-04-25T15:13:52.973Z</time></trkpt><trkpt lat="43.34265690957978" lon="5.9434816741260965"><ele>443.66666666666663</ele><time>2026-04-25T15:13:53.973Z</time></trkpt><trkpt lat="43.34268560804786" lon="5.94375128511036"><ele>444.0</ele><time>2026-04-25T15:13:54.973Z</time></trkpt><trkpt lat="43.34270051987387" lon="5.944054736942052"><ele>443.66666666666663</ele><time>2026-04-25T15:13:55.973Z</time></trkpt><trkpt lat="43.342701089782956" lon="5.94435585619775"><ele>443.3333333333333</ele><time>2026-04-25T15:13:56.973Z</time></trkpt><trkpt lat="43.34270488469644" lon="5.9446578962945615"><ele>443.0</ele><time>2026-04-25T15:13:57.973Z</time></trkpt><trkpt lat="43.34270143515473" lon="5.944947212808225"><ele>442.3333333333333</ele><time>2026-04-25T15:13:58.973Z</time></trkpt><trkpt lat="43.342707650814276" lon="5.945208710397826"><ele>441.66666666666663</ele><time>2026-04-25T15:13:59.973Z</time></trkpt><trkpt lat="43.34271812946454" lon="5.9454583636536995"><ele>441.0</ele><time>2026-04-25T15:14:00.973Z</time></trkpt><trkpt lat="43.34273015144723" lon="5.945705880151636"><ele>438.66666666666663</ele><time>2026-04-25T15:14:01.973Z</time></trkpt><trkpt lat="43.342724893005325" lon="5.945955996049785"><ele>436.3333333333333</ele><time>2026-04-25T15:14:02.973Z</time></trkpt><trkpt lat="43.34270190427364" lon="5.946201516993572"><ele>434.0</ele><time>2026-04-25T15:14:03.973Z</time></trkpt><trkpt lat="43.34265335633362" lon="5.9464659289107304"><ele>431.66666666666663</ele><time>2026-04-25T15:14:04.973Z</time></trkpt><trkpt lat="43.34256507882798" lon="5.946738927036957"><ele>429.33333333333337</ele><time>2026-04-25T15:14:05.973Z</time></trkpt><trkpt lat="43.34245836681394" lon="5.947021868643688"><ele>427.0</ele><time>2026-04-25T15:14:06.973Z</time></trkpt><trkpt lat="43.34236519841366" lon="5.947292980838602"><ele>426.6666666666667</ele><time>2026-04-25T15:14:07.973Z</time></trkpt><trkpt lat="43.34226750010415" lon="5.947564739992101"><ele>426.33333333333337</ele><time>2026-04-25T15:14:08.973Z</time></trkpt><trkpt lat="43.342185046871876" lon="5.947801421837567"><ele>426.0</ele><time>2026-04-25T15:14:09.973Z</time></trkpt><trkpt lat="43.34209559364364" lon="5.948030845057374"><ele>426.66666666666663</ele><time>2026-04-25T15:14:10.973Z</time></trkpt><trkpt lat="43.341976668976265" lon="5.948215536563096"><ele>427.3333333333333</ele><time>2026-04-25T15:14:11.973Z</time></trkpt><trkpt lat="43.341810914526484" lon="5.948372867104963"><ele>428.0</ele><time>2026-04-25T15:14:12.973Z</time></trkpt><trkpt lat="43.341623020442626" lon="5.948523427955058"><ele>429.0</ele><time>2026-04-25T15:14:13.973Z</time></trkpt><trkpt lat="43.34143418479482" lon="5.948708170069663"><ele>430.0</ele><time>2026-04-25T15:14:14.973Z</time></trkpt><trkpt lat="43.341276240962046" lon="5.948901424413183"><ele>431.0</ele><time>2026-04-25T15:14:15.973Z</time></trkpt><trkpt lat="43.34112302752775" lon="5.949073405015671"><ele>427.3333333333333</ele><time>2026-04-25T15:14:16.973Z</time></trkpt><trkpt lat="43.34098000130182" lon="5.949240648268908"><ele>423.66666666666663</ele><time>2026-04-25T15:14:17.973Z</time></trkpt><trkpt lat="43.34086719149791" lon="5.949440564146031"><ele>420.0</ele><time>2026-04-25T15:14:18.973Z</time></trkpt><trkpt lat="43.340765942063435" lon="5.949676512719718"><ele>420.0</ele><time>2026-04-25T15:14:19.973Z</time></trkpt><trkpt lat="43.34069090550699" lon="5.9499378631718285"><ele>420.0</ele><time>2026-04-25T15:14:20.973Z</time></trkpt><trkpt lat="43.34063162453125" lon="5.950165941446204"><ele>420.0</ele><time>2026-04-25T15:14:21.973Z</time></trkpt><trkpt lat="43.34059346692663" lon="5.950424040221889"><ele>419.33333333333337</ele><time>2026-04-25T15:14:22.973Z</time></trkpt><trkpt lat="43.34058683727325" lon="5.9507092769709615"><ele>418.6666666666667</ele><time>2026-04-25T15:14:23.973Z</time></trkpt><trkpt lat="43.340592369893294" lon="5.9510067255889565"><ele>418.0</ele><time>2026-04-25T15:14:24.973Z</time></trkpt><trkpt lat="43.34057487782877" lon="5.95129801926176"><ele>418.33333333333337</ele><time>2026-04-25T15:14:25.973Z</time></trkpt><trkpt lat="43.340545937727924" lon="5.951584397009355"><ele>418.66666666666663</ele><time>2026-04-25T15:14:26.974Z</time></trkpt><trkpt lat="43.340492303228295" lon="5.951871390944243"><ele>419.0</ele><time>2026-04-25T15:14:27.974Z</time></trkpt><trkpt lat="43.34043690904718" lon="5.952147802533087"><ele>419.0</ele><time>2026-04-25T15:14:28.974Z</time></trkpt><trkpt lat="43.34038976694392" lon="5.952424811261721"><ele>419.0</ele><time>2026-04-25T15:14:29.974Z</time></trkpt><trkpt lat="43.34036847164894" lon="5.952717667711639"><ele>419.0</ele><time>2026-04-25T15:14:30.974Z</time></trkpt><trkpt lat="43.34036218816691" lon="5.95300765089456"><ele>419.0</ele><time>2026-04-25T15:14:31.974Z</time></trkpt><trkpt lat="43.34035301598219" lon="5.953297746031806"><ele>419.0</ele><time>2026-04-25T15:14:32.974Z</time></trkpt><trkpt lat="43.34034494291083" lon="5.95360879086542"><ele>419.0</ele><time>2026-04-25T15:14:33.973Z</time></trkpt><trkpt lat="43.340344219546694" lon="5.953910025332254"><ele>419.0</ele><time>2026-04-25T15:14:34.973Z</time></trkpt><trkpt lat="43.340332562544226" lon="5.954198416229318"><ele>419.0</ele><time>2026-04-25T15:14:35.974Z</time></trkpt><trkpt lat="43.340301200811396" lon="5.95450165866899"><ele>419.0</ele><time>2026-04-25T15:14:36.973Z</time></trkpt><trkpt lat="43.34027630931563" lon="5.954785867553063"><ele>419.66666666666663</ele><time>2026-04-25T15:14:37.973Z</time></trkpt><trkpt lat="43.34023625617642" lon="5.955070684286306"><ele>420.33333333333337</ele><time>2026-04-25T15:14:38.973Z</time></trkpt><trkpt lat="43.340203876801624" lon="5.955339418850521"><ele>421.0</ele><time>2026-04-25T15:14:39.974Z</time></trkpt><trkpt lat="43.34017947955679" lon="5.955593893137009"><ele>421.0</ele><time>2026-04-25T15:14:40.974Z</time></trkpt><trkpt lat="43.34016118674565" lon="5.95585650524619"><ele>421.0</ele><time>2026-04-25T15:14:41.974Z</time></trkpt><trkpt lat="43.34014773553304" lon="5.956125363537391"><ele>421.0</ele><time>2026-04-25T15:14:42.974Z</time></trkpt><trkpt lat="43.34013682946538" lon="5.956381476322417"><ele>420.33333333333337</ele><time>2026-04-25T15:14:43.974Z</time></trkpt><trkpt lat="43.34014225939956" lon="5.956611608762439"><ele>419.66666666666663</ele><time>2026-04-25T15:14:44.974Z</time></trkpt><trkpt lat="43.34013984944973" lon="5.956820418142318"><ele>419.0</ele><time>2026-04-25T15:14:45.974Z</time></trkpt><trkpt lat="43.34012619759046" lon="5.957022236498408"><ele>418.3333333333333</ele><time>2026-04-25T15:14:46.974Z</time></trkpt><trkpt lat="43.340075797453935" lon="5.957240371857917"><ele>417.66666666666663</ele><time>2026-04-25T15:14:47.974Z</time></trkpt><trkpt lat="43.339999854039945" lon="5.957464145368383"><ele>417.0</ele><time>2026-04-25T15:14:48.974Z</time></trkpt><trkpt lat="43.33993121812071" lon="5.957650368345515"><ele>417.0</ele><time>2026-04-25T15:14:49.974Z</time></trkpt><trkpt lat="43.33989036557831" lon="5.957828729495741"><ele>417.0</ele><time>2026-04-25T15:14:50.974Z</time></trkpt><trkpt lat="43.3398457840084" lon="5.957980889894099"><ele>417.0</ele><time>2026-04-25T15:14:51.974Z</time></trkpt><trkpt lat="43.33976999580445" lon="5.95811854281108"><ele>417.0</ele><time>2026-04-25T15:14:52.974Z</time></trkpt><trkpt lat="43.33963732007643" lon="5.958247465698535"><ele>415.33333333333337</ele><time>2026-04-25T15:14:53.974Z</time></trkpt><trkpt lat="43.33947046487406" lon="5.958351771270385"><ele>413.6666666666667</ele><time>2026-04-25T15:14:54.974Z</time></trkpt><trkpt lat="43.33933674521358" lon="5.958447149209928"><ele>412.0</ele><time>2026-04-25T15:14:55.974Z</time></trkpt><trkpt lat="43.339232276951144" lon="5.958549039381931"><ele>412.0</ele><time>2026-04-25T15:14:56.974Z</time></trkpt><trkpt lat="43.33915768465592" lon="5.958641218591151"><ele>412.0</ele><time>2026-04-25T15:14:57.974Z</time></trkpt><trkpt lat="43.33910880602826" lon="5.9587508353336665"><ele>412.0</ele><time>2026-04-25T15:14:58.974Z</time></trkpt><trkpt lat="43.33909372169583" lon="5.958901939620794"><ele>412.0</ele><time>2026-04-25T15:14:59.974Z</time></trkpt><trkpt lat="43.33914471381777" lon="5.95910636768521"><ele>411.6666666666667</ele><time>2026-04-25T15:15:00.974Z</time></trkpt><trkpt lat="43.33918434797019" lon="5.959322415967485"><ele>411.33333333333337</ele><time>2026-04-25T15:15:01.974Z</time></trkpt><trkpt lat="43.339236636518905" lon="5.959537229069663"><ele>411.0</ele><time>2026-04-25T15:15:02.974Z</time></trkpt><trkpt lat="43.33930822736457" lon="5.9597160261378255"><ele>411.0</ele><time>2026-04-25T15:15:03.973Z</time></trkpt><trkpt lat="43.3393795595022" lon="5.959870637141661"><ele>411.0</ele><time>2026-04-25T15:15:04.973Z</time></trkpt><trkpt lat="43.33944425099542" lon="5.960008998662106"><ele>411.0</ele><time>2026-04-25T15:15:05.973Z</time></trkpt><trkpt lat="43.33952142752161" lon="5.960096737747468"><ele>411.0</ele><time>2026-04-25T15:15:06.973Z</time></trkpt><trkpt lat="43.339617714763634" lon="5.960124088892453"><ele>409.33333333333337</ele><time>2026-04-25T15:15:07.973Z</time></trkpt><trkpt lat="43.339725419057395" lon="5.960063441377303"><ele>407.6666666666667</ele><time>2026-04-25T15:15:08.973Z</time></trkpt><trkpt lat="43.339850029834324" lon="5.959938395581897"><ele>406.0</ele><time>2026-04-25T15:15:09.973Z</time></trkpt><trkpt lat="43.340014846408764" lon="5.959836873025984"><ele>406.0</ele><time>2026-04-25T15:15:10.973Z</time></trkpt><trkpt lat="43.34014848919821" lon="5.959809677963608"><ele>406.0</ele><time>2026-04-25T15:15:11.973Z</time></trkpt><trkpt lat="43.340293511338054" lon="5.95986539077323"><ele>406.0</ele><time>2026-04-25T15:15:12.973Z</time></trkpt><trkpt lat="43.340391209809766" lon="5.960033080814453"><ele>406.0</ele><time>2026-04-25T15:15:13.973Z</time></trkpt><trkpt lat="43.3405100797328" lon="5.960214051711991"><ele>405.6666666666667</ele><time>2026-04-25T15:15:14.973Z</time></trkpt><trkpt lat="43.340628990068986" lon="5.960392894939948"><ele>405.33333333333337</ele><time>2026-04-25T15:15:15.973Z</time></trkpt><trkpt lat="43.340721508105005" lon="5.960582578580193"><ele>405.0</ele><time>2026-04-25T15:15:16.973Z</time></trkpt><trkpt lat="43.34079558022116" lon="5.960790504175455"><ele>405.33333333333337</ele><time>2026-04-25T15:15:17.973Z</time></trkpt><trkpt lat="43.340859779046035" lon="5.960974233346058"><ele>405.6666666666667</ele><time>2026-04-25T15:15:18.973Z</time></trkpt><trkpt lat="43.34093475924115" lon="5.961174119930414"><ele>406.0</ele><time>2026-04-25T15:15:19.973Z</time></trkpt><trkpt lat="43.34101677293012" lon="5.9613351053970005"><ele>406.0</ele><time>2026-04-25T15:15:20.973Z</time></trkpt><trkpt lat="43.341136603631554" lon="5.961511477812451"><ele>406.0</ele><time>2026-04-25T15:15:21.973Z</time></trkpt><trkpt lat="43.34124612151903" lon="5.961652329826567"><ele>406.0</ele><time>2026-04-25T15:15:22.973Z</time></trkpt><trkpt lat="43.34136276807933" lon="5.961788056850888"><ele>405.33333333333337</ele><time>2026-04-25T15:15:23.973Z</time></trkpt><trkpt lat="43.34147785573947" lon="5.961933711557112"><ele>404.66666666666663</ele><time>2026-04-25T15:15:24.973Z</time></trkpt><trkpt lat="43.34157364858959" lon="5.962091597985532"><ele>404.0</ele><time>2026-04-25T15:15:25.973Z</time></trkpt><trkpt lat="43.34164848070823" lon="5.962297202188597"><ele>404.0</ele><time>2026-04-25T15:15:26.973Z</time></trkpt><trkpt lat="43.341712790418704" lon="5.9625118954155205"><ele>404.0</ele><time>2026-04-25T15:15:27.973Z</time></trkpt><trkpt lat="43.34176454298176" lon="5.962717067898045"><ele>404.0</ele><time>2026-04-25T15:15:28.973Z</time></trkpt><trkpt lat="43.341787713243214" lon="5.962923694817775"><ele>403.0</ele><time>2026-04-25T15:15:29.973Z</time></trkpt><trkpt lat="43.3418044598289" lon="5.963106955052845"><ele>402.0</ele><time>2026-04-25T15:15:30.973Z</time></trkpt><trkpt lat="43.341768220950186" lon="5.963307534311851"><ele>401.0</ele><time>2026-04-25T15:15:31.973Z</time></trkpt><trkpt lat="43.34171843818088" lon="5.963486847537652"><ele>400.0</ele><time>2026-04-25T15:15:32.973Z</time></trkpt><trkpt lat="43.3416499915339" lon="5.963678270388832"><ele>399.33333333333337</ele><time>2026-04-25T15:15:33.973Z</time></trkpt><trkpt lat="43.3416182804648" lon="5.963874615598831"><ele>398.66666666666663</ele><time>2026-04-25T15:15:34.973Z</time></trkpt><trkpt lat="43.341599695083225" lon="5.964107750335572"><ele>398.0</ele><time>2026-04-25T15:15:35.973Z</time></trkpt><trkpt lat="43.341590268881376" lon="5.96434527325095"><ele>397.66666666666663</ele><time>2026-04-25T15:15:36.973Z</time></trkpt><trkpt lat="43.341580701320304" lon="5.964580146595957"><ele>397.33333333333337</ele><time>2026-04-25T15:15:37.973Z</time></trkpt><trkpt lat="43.341570827314705" lon="5.9648307864768615"><ele>397.0</ele><time>2026-04-25T15:15:38.973Z</time></trkpt><trkpt lat="43.34159224976518" lon="5.965096441395249"><ele>395.0</ele><time>2026-04-25T15:15:39.973Z</time></trkpt><trkpt lat="43.341615591827335" lon="5.965341465142951"><ele>393.0</ele><time>2026-04-25T15:15:40.973Z</time></trkpt><trkpt lat="43.34164873103718" lon="5.965587933685156"><ele>391.0</ele><time>2026-04-25T15:15:41.973Z</time></trkpt><trkpt lat="43.34169878316484" lon="5.965836362446048"><ele>391.0</ele><time>2026-04-25T15:15:42.974Z</time></trkpt><trkpt lat="43.341757117764374" lon="5.966065239263747"><ele>391.0</ele><time>2026-04-25T15:15:43.974Z</time></trkpt><trkpt lat="43.34181729340233" lon="5.966278802776919"><ele>391.0</ele><time>2026-04-25T15:15:44.974Z</time></trkpt><trkpt lat="43.34190602983721" lon="5.966507833259873"><ele>389.6666666666667</ele><time>2026-04-25T15:15:45.974Z</time></trkpt><trkpt lat="43.342018759308424" lon="5.966696916350856"><ele>388.33333333333337</ele><time>2026-04-25T15:15:46.974Z</time></trkpt><trkpt lat="43.34211967273115" lon="5.966876371435129"><ele>387.0</ele><time>2026-04-25T15:15:47.975Z</time></trkpt><trkpt lat="43.3422060962124" lon="5.967078488081231"><ele>390.0</ele><time>2026-04-25T15:15:48.975Z</time></trkpt><trkpt lat="43.34225758796124" lon="5.967275624700957"><ele>393.0</ele><time>2026-04-25T15:15:49.975Z</time></trkpt><trkpt lat="43.34229409915466" lon="5.9674779418681885"><ele>396.0</ele><time>2026-04-25T15:15:50.975Z</time></trkpt><trkpt lat="43.342274541478986" lon="5.967707906976769"><ele>396.0</ele><time>2026-04-25T15:15:51.975Z</time></trkpt><trkpt lat="43.34222025189937" lon="5.9679366215367535"><ele>396.0</ele><time>2026-04-25T15:15:52.975Z</time></trkpt><trkpt lat="43.34213937167963" lon="5.96815891309888"><ele>396.0</ele><time>2026-04-25T15:15:53.976Z</time></trkpt><trkpt lat="43.342039926044365" lon="5.968353098181211"><ele>392.66666666666663</ele><time>2026-04-25T15:15:54.976Z</time></trkpt><trkpt lat="43.34193024621886" lon="5.968533758388051"><ele>389.3333333333333</ele><time>2026-04-25T15:15:55.976Z</time></trkpt><trkpt lat="43.341816503578315" lon="5.968714273684827"><ele>386.0</ele><time>2026-04-25T15:15:56.976Z</time></trkpt><trkpt lat="43.34170340363715" lon="5.968893807415013"><ele>386.0</ele><time>2026-04-25T15:15:57.976Z</time></trkpt><trkpt lat="43.34159774227727" lon="5.969080116980565"><ele>386.0</ele><time>2026-04-25T15:15:58.976Z</time></trkpt><trkpt lat="43.341508801590685" lon="5.969261793024314"><ele>386.0</ele><time>2026-04-25T15:15:59.976Z</time></trkpt><trkpt lat="43.34143520543376" lon="5.969447798428648"><ele>385.5</ele><time>2026-04-25T15:16:00.976Z</time></trkpt><trkpt lat="43.34138186800494" lon="5.969639532692205"><ele>385.0</ele><time>2026-04-25T15:16:01.976Z</time></trkpt><trkpt lat="43.34133791664251" lon="5.969833991441582"><ele>384.5</ele><time>2026-04-25T15:16:02.976Z</time></trkpt><trkpt lat="43.34129131826219" lon="5.970022562017116"><ele>384.0</ele><time>2026-04-25T15:16:03.976Z</time></trkpt><trkpt lat="43.34124434948022" lon="5.970200948701061"><ele>382.5</ele><time>2026-04-25T15:16:04.976Z</time></trkpt><trkpt lat="43.34120546418118" lon="5.970369274617739"><ele>381.0</ele><time>2026-04-25T15:16:05.976Z</time></trkpt><trkpt lat="43.341165764766885" lon="5.970537878792937"><ele>379.5</ele><time>2026-04-25T15:16:06.977Z</time></trkpt><trkpt lat="43.341140654698755" lon="5.970699686597405"><ele>378.0</ele><time>2026-04-25T15:16:07.977Z</time></trkpt><trkpt lat="43.34113560294589" lon="5.970859958208176"><ele>376.75</ele><time>2026-04-25T15:16:08.977Z</time></trkpt><trkpt lat="43.34112854357671" lon="5.971034303685771"><ele>375.5</ele><time>2026-04-25T15:16:09.977Z</time></trkpt><trkpt lat="43.3411378916171" lon="5.971212349790302"><ele>374.25</ele><time>2026-04-25T15:16:10.977Z</time></trkpt><trkpt lat="43.34114734241204" lon="5.971399100896471"><ele>373.0</ele><time>2026-04-25T15:16:11.977Z</time></trkpt><trkpt lat="43.341155339796394" lon="5.971579092356602"><ele>373.0</ele><time>2026-04-25T15:16:12.977Z</time></trkpt><trkpt lat="43.34116669253079" lon="5.971767619236247"><ele>373.0</ele><time>2026-04-25T15:16:13.977Z</time></trkpt><trkpt lat="43.34114439256217" lon="5.971957921899977"><ele>373.0</ele><time>2026-04-25T15:16:14.977Z</time></trkpt><trkpt lat="43.34110380930363" lon="5.972123742160814"><ele>373.0</ele><time>2026-04-25T15:16:15.977Z</time></trkpt><trkpt lat="43.341050568737906" lon="5.972284515814176"><ele>373.0</ele><time>2026-04-25T15:16:16.977Z</time></trkpt><trkpt lat="43.34101204381935" lon="5.972411858398464"><ele>373.0</ele><time>2026-04-25T15:16:17.977Z</time></trkpt><trkpt lat="43.340972280194265" lon="5.972537535517875"><ele>373.0</ele><time>2026-04-25T15:16:18.977Z</time></trkpt><trkpt lat="43.34092801650453" lon="5.972652006307789"><ele>373.0</ele><time>2026-04-25T15:16:19.977Z</time></trkpt><trkpt lat="43.340890560154044" lon="5.972750174668997"><ele>373.0</ele><time>2026-04-25T15:16:20.977Z</time></trkpt><trkpt lat="43.34084819577157" lon="5.972835360823883"><ele>372.79999999999995</ele><time>2026-04-25T15:16:21.977Z</time></trkpt><trkpt lat="43.340792004361475" lon="5.9729127391599555"><ele>372.6</ele><time>2026-04-25T15:16:22.977Z</time></trkpt><trkpt lat="43.340712897688356" lon="5.973001497065915"><ele>372.4</ele><time>2026-04-25T15:16:23.977Z</time></trkpt><trkpt lat="43.34061788097132" lon="5.973076537208008"><ele>372.20000000000005</ele><time>2026-04-25T15:16:24.977Z</time></trkpt><trkpt lat="43.34049986362388" lon="5.973130415961933"><ele>372.0</ele><time>2026-04-25T15:16:25.977Z</time></trkpt><trkpt lat="43.340384634013624" lon="5.973159887377948"><ele>372.0</ele><time>2026-04-25T15:16:26.977Z</time></trkpt><trkpt lat="43.34025939973535" lon="5.973162593861737"><ele>372.0</ele><time>2026-04-25T15:16:27.977Z</time></trkpt><trkpt lat="43.34013723232528" lon="5.973186305917879"><ele>372.0</ele><time>2026-04-25T15:16:28.977Z</time></trkpt><trkpt lat="43.34000350984383" lon="5.9732252714994045"><ele>372.0</ele><time>2026-04-25T15:16:29.977Z</time></trkpt><trkpt lat="43.33985697736501" lon="5.973245395417966"><ele>371.3333333333333</ele><time>2026-04-25T15:16:30.977Z</time></trkpt><trkpt lat="43.33970640296901" lon="5.973300717330114"><ele>370.66666666666663</ele><time>2026-04-25T15:16:31.977Z</time></trkpt><trkpt lat="43.33955051136319" lon="5.973370513110394"><ele>370.0</ele><time>2026-04-25T15:16:32.977Z</time></trkpt><trkpt lat="43.339396767381295" lon="5.9734441960169695"><ele>370.0</ele><time>2026-04-25T15:16:33.977Z</time></trkpt><trkpt lat="43.339233547109984" lon="5.973541502619154"><ele>370.0</ele><time>2026-04-25T15:16:34.977Z</time></trkpt><trkpt lat="43.339072240532" lon="5.973649477546976"><ele>370.0</ele><time>2026-04-25T15:16:35.978Z</time></trkpt><trkpt lat="43.33890129703316" lon="5.973762500168136"><ele>371.0</ele><time>2026-04-25T15:16:36.977Z</time></trkpt><trkpt lat="43.33876082107084" lon="5.973911735352411"><ele>372.0</ele><time>2026-04-25T15:16:37.977Z</time></trkpt><trkpt lat="43.338612580624" lon="5.974062038320557"><ele>373.0</ele><time>2026-04-25T15:16:38.978Z</time></trkpt><trkpt lat="43.33846637420778" lon="5.974219694534381"><ele>373.0</ele><time>2026-04-25T15:16:39.977Z</time></trkpt><trkpt lat="43.33832922702741" lon="5.9743908927628695"><ele>373.0</ele><time>2026-04-25T15:16:40.977Z</time></trkpt><trkpt lat="43.33820595483634" lon="5.974568962135192"><ele>373.0</ele><time>2026-04-25T15:16:41.978Z</time></trkpt><trkpt lat="43.338093037019874" lon="5.974765682767278"><ele>376.0</ele><time>2026-04-25T15:16:42.977Z</time></trkpt><trkpt lat="43.337986570931626" lon="5.974972078186808"><ele>379.0</ele><time>2026-04-25T15:16:43.977Z</time></trkpt><trkpt lat="43.337894956604195" lon="5.975176357518895"><ele>382.0</ele><time>2026-04-25T15:16:44.977Z</time></trkpt><trkpt lat="43.33780602694349" lon="5.9753797634108015"><ele>375.3333333333333</ele><time>2026-04-25T15:16:45.978Z</time></trkpt><trkpt lat="43.33772483374986" lon="5.975576181310141"><ele>368.6666666666667</ele><time>2026-04-25T15:16:46.978Z</time></trkpt><trkpt lat="43.337652630019534" lon="5.975768820120036"><ele>362.0</ele><time>2026-04-25T15:16:47.978Z</time></trkpt><trkpt lat="43.33757511913413" lon="5.975950412213204"><ele>361.25</ele><time>2026-04-25T15:16:48.978Z</time></trkpt><trkpt lat="43.33749974963868" lon="5.976123621917881"><ele>360.5</ele><time>2026-04-25T15:16:49.978Z</time></trkpt><trkpt lat="43.33743272814804" lon="5.976290225326267"><ele>359.75</ele><time>2026-04-25T15:16:50.978Z</time></trkpt><trkpt lat="43.33736923392825" lon="5.976441929911249"><ele>359.0</ele><time>2026-04-25T15:16:51.978Z</time></trkpt><trkpt lat="43.33731225234441" lon="5.976579733173072"><ele>358.83333333333337</ele><time>2026-04-25T15:16:52.978Z</time></trkpt><trkpt lat="43.33726133838173" lon="5.976695746862341"><ele>358.6666666666667</ele><time>2026-04-25T15:16:53.978Z</time></trkpt><trkpt lat="43.337215423978165" lon="5.976793839384045"><ele>358.5</ele><time>2026-04-25T15:16:54.978Z</time></trkpt><trkpt lat="43.337172398829516" lon="5.976890357033466"><ele>358.3333333333333</ele><time>2026-04-25T15:16:55.978Z</time></trkpt><trkpt lat="43.337126712537" lon="5.976991742080993"><ele>358.16666666666663</ele><time>2026-04-25T15:16:56.978Z</time></trkpt><trkpt lat="43.33707856065822" lon="5.977096314550341"><ele>358.0</ele><time>2026-04-25T15:16:57.978Z</time></trkpt><trkpt lat="43.337029852165664" lon="5.977207227535403"><ele>358.0</ele><time>2026-04-25T15:16:58.978Z</time></trkpt><trkpt lat="43.33698403159604" lon="5.97733584470142"><ele>358.0</ele><time>2026-04-25T15:16:59.978Z</time></trkpt><trkpt lat="43.336933392483324" lon="5.977472265619906"><ele>358.0</ele><time>2026-04-25T15:17:00.978Z</time></trkpt><trkpt lat="43.33687447319919" lon="5.977615347932013"><ele>358.0</ele><time>2026-04-25T15:17:01.978Z</time></trkpt><trkpt lat="43.336817292997736" lon="5.977759563550432"><ele>358.59999999999997</ele><time>2026-04-25T15:17:02.978Z</time></trkpt><trkpt lat="43.3367647724104" lon="5.977905641717673"><ele>359.2</ele><time>2026-04-25T15:17:03.978Z</time></trkpt><trkpt lat="43.33671021492261" lon="5.97804149250587"><ele>359.8</ele><time>2026-04-25T15:17:04.978Z</time></trkpt><trkpt lat="43.3366578317711" lon="5.978164872282667"><ele>360.4</ele><time>2026-04-25T15:17:05.978Z</time></trkpt><trkpt lat="43.33661315657433" lon="5.978279389117148"><ele>361.0</ele><time>2026-04-25T15:17:06.978Z</time></trkpt><trkpt lat="43.33656638959408" lon="5.9783684188815815"><ele>361.16666666666663</ele><time>2026-04-25T15:17:07.978Z</time></trkpt><trkpt lat="43.3365206194019" lon="5.978468587013683"><ele>361.3333333333333</ele><time>2026-04-25T15:17:08.978Z</time></trkpt><trkpt lat="43.33647414771233" lon="5.978564476246025"><ele>361.5</ele><time>2026-04-25T15:17:09.978Z</time></trkpt><trkpt lat="43.33642339866747" lon="5.978656078572034"><ele>361.6666666666667</ele><time>2026-04-25T15:17:10.978Z</time></trkpt><trkpt lat="43.336373116075414" lon="5.978743965537232"><ele>361.83333333333337</ele><time>2026-04-25T15:17:11.978Z</time></trkpt><trkpt lat="43.336304668309396" lon="5.978826852590186"><ele>362.0</ele><time>2026-04-25T15:17:12.978Z</time></trkpt><trkpt lat="43.33622060231672" lon="5.978900840536339"><ele>361.6666666666667</ele><time>2026-04-25T15:17:13.978Z</time></trkpt><trkpt lat="43.33613774204617" lon="5.978965155079568"><ele>361.33333333333337</ele><time>2026-04-25T15:17:14.978Z</time></trkpt><trkpt lat="43.33610125719506" lon="5.97905111719046"><ele>361.0</ele><time>2026-04-25T15:17:15.978Z</time></trkpt><trkpt lat="43.336116471337775" lon="5.979165793141929"><ele>360.6666666666667</ele><time>2026-04-25T15:17:16.978Z</time></trkpt><trkpt lat="43.336165102681655" lon="5.97927502953445"><ele>360.3333333333333</ele><time>2026-04-25T15:17:17.978Z</time></trkpt><trkpt lat="43.33623183107549" lon="5.9793666773123455"><ele>360.0</ele><time>2026-04-25T15:17:18.978Z</time></trkpt><trkpt lat="43.336278609700216" lon="5.979445449590243"><ele>359.8</ele><time>2026-04-25T15:17:19.978Z</time></trkpt><trkpt lat="43.33628062961265" lon="5.979553617498548"><ele>359.6</ele><time>2026-04-25T15:17:20.978Z</time></trkpt><trkpt lat="43.33623609874261" lon="5.979670268014895"><ele>359.4</ele><time>2026-04-25T15:17:21.978Z</time></trkpt><trkpt lat="43.33615915196153" lon="5.97978536130292"><ele>359.2</ele><time>2026-04-25T15:17:22.978Z</time></trkpt><trkpt lat="43.33606736524248" lon="5.979884168764236"><ele>359.0</ele><time>2026-04-25T15:17:23.978Z</time></trkpt><trkpt lat="43.335969729467955" lon="5.980004433458331"><ele>359.0</ele><time>2026-04-25T15:17:24.978Z</time></trkpt><trkpt lat="43.33587726670375" lon="5.980129518371792"><ele>359.0</ele><time>2026-04-25T15:17:25.978Z</time></trkpt><trkpt lat="43.335781990170965" lon="5.980262731617119"><ele>359.0</ele><time>2026-04-25T15:17:26.978Z</time></trkpt><trkpt lat="43.3356759076179" lon="5.9803896164859465"><ele>359.0</ele><time>2026-04-25T15:17:27.978Z</time></trkpt><trkpt lat="43.3355762475028" lon="5.980537402871938"><ele>358.25</ele><time>2026-04-25T15:17:28.978Z</time></trkpt><trkpt lat="43.3354730901908" lon="5.980678569879884"><ele>357.5</ele><time>2026-04-25T15:17:29.978Z</time></trkpt><trkpt lat="43.33536961993148" lon="5.980787584167943"><ele>356.75</ele><time>2026-04-25T15:17:30.978Z</time></trkpt><trkpt lat="43.335272840317714" lon="5.980940696217617"><ele>356.0</ele><time>2026-04-25T15:17:31.978Z</time></trkpt><trkpt lat="43.33516431979232" lon="5.981088107526026"><ele>356.0</ele><time>2026-04-25T15:17:32.978Z</time></trkpt><trkpt lat="43.335058053861594" lon="5.98124105293995"><ele>356.0</ele><time>2026-04-25T15:17:33.978Z</time></trkpt><trkpt lat="43.334970683857996" lon="5.981406984897471"><ele>356.0</ele><time>2026-04-25T15:17:34.978Z</time></trkpt><trkpt lat="43.33486504113925" lon="5.98157383446851"><ele>356.0</ele><time>2026-04-25T15:17:35.978Z</time></trkpt><trkpt lat="43.334762907980235" lon="5.981744732455493"><ele>356.0</ele><time>2026-04-25T15:17:36.978Z</time></trkpt><trkpt lat="43.33465507685158" lon="5.981936081940141"><ele>356.0</ele><time>2026-04-25T15:17:37.978Z</time></trkpt><trkpt lat="43.33454025482314" lon="5.982146496825098"><ele>355.0</ele><time>2026-04-25T15:17:38.978Z</time></trkpt><trkpt lat="43.33441487541562" lon="5.982371984288382"><ele>354.0</ele><time>2026-04-25T15:17:39.978Z</time></trkpt><trkpt lat="43.334292811243074" lon="5.982589701245581"><ele>353.0</ele><time>2026-04-25T15:17:40.978Z</time></trkpt><trkpt lat="43.33419498748876" lon="5.9828123376496505"><ele>353.0</ele><time>2026-04-25T15:17:41.978Z</time></trkpt><trkpt lat="43.334137424959486" lon="5.983024552770419"><ele>353.0</ele><time>2026-04-25T15:17:42.978Z</time></trkpt><trkpt lat="43.33409516279645" lon="5.983223868484832"><ele>353.0</ele><time>2026-04-25T15:17:43.978Z</time></trkpt><trkpt lat="43.334076284756186" lon="5.983436248943938"><ele>352.6666666666667</ele><time>2026-04-25T15:17:44.978Z</time></trkpt><trkpt lat="43.334072284531224" lon="5.983679577634003"><ele>352.3333333333333</ele><time>2026-04-25T15:17:45.978Z</time></trkpt><trkpt lat="43.334093400801805" lon="5.983965232280908"><ele>352.0</ele><time>2026-04-25T15:17:46.978Z</time></trkpt><trkpt lat="43.334114729428435" lon="5.984282389009673"><ele>351.5</ele><time>2026-04-25T15:17:47.978Z</time></trkpt><trkpt lat="43.334128153786345" lon="5.984611072375824"><ele>351.0</ele><time>2026-04-25T15:17:48.978Z</time></trkpt><trkpt lat="43.334141800590494" lon="5.9849489208981534"><ele>350.5</ele><time>2026-04-25T15:17:49.978Z</time></trkpt><trkpt lat="43.33415346974768" lon="5.985316237284522"><ele>350.0</ele><time>2026-04-25T15:17:50.978Z</time></trkpt><trkpt lat="43.334162572030955" lon="5.9857103769916105"><ele>350.5</ele><time>2026-04-25T15:17:51.978Z</time></trkpt><trkpt lat="43.33417569810375" lon="5.986100469629561"><ele>351.0</ele><time>2026-04-25T15:17:52.978Z</time></trkpt><trkpt lat="43.33418804855541" lon="5.986469718154975"><ele>350.0</ele><time>2026-04-25T15:17:53.978Z</time></trkpt><trkpt lat="43.33420242540339" lon="5.9868149134248005"><ele>349.0</ele><time>2026-04-25T15:17:54.978Z</time></trkpt><trkpt lat="43.334204014633116" lon="5.987139553053296"><ele>349.0</ele><time>2026-04-25T15:17:55.978Z</time></trkpt><trkpt lat="43.334185878991384" lon="5.987448357435432"><ele>349.0</ele><time>2026-04-25T15:17:56.978Z</time></trkpt><trkpt lat="43.33412400920956" lon="5.987749603912212"><ele>349.0</ele><time>2026-04-25T15:17:57.978Z</time></trkpt><trkpt lat="43.33404896993904" lon="5.988052354685587"><ele>349.0</ele><time>2026-04-25T15:17:58.977Z</time></trkpt><trkpt lat="43.33395097589289" lon="5.988362662631453"><ele>348.0</ele><time>2026-04-25T15:17:59.977Z</time></trkpt><trkpt lat="43.333835178208254" lon="5.988650735101991"><ele>347.0</ele><time>2026-04-25T15:18:00.977Z</time></trkpt><trkpt lat="43.33368241240706" lon="5.988938657490164"><ele>346.0</ele><time>2026-04-25T15:18:01.977Z</time></trkpt><trkpt lat="43.33353671990614" lon="5.9892083884381755"><ele>345.0</ele><time>2026-04-25T15:18:02.977Z</time></trkpt><trkpt lat="43.33340442946405" lon="5.989460961945031"><ele>345.0</ele><time>2026-04-25T15:18:03.977Z</time></trkpt><trkpt lat="43.33328305853601" lon="5.9897053116627115"><ele>345.0</ele><time>2026-04-25T15:18:04.977Z</time></trkpt><trkpt lat="43.33317310459582" lon="5.989953862570928"><ele>345.0</ele><time>2026-04-25T15:18:05.977Z</time></trkpt><trkpt lat="43.33306709800008" lon="5.990228489550382"><ele>345.0</ele><time>2026-04-25T15:18:06.977Z</time></trkpt><trkpt lat="43.33298437204727" lon="5.990537400777213"><ele>345.0</ele><time>2026-04-25T15:18:07.977Z</time></trkpt><trkpt lat="43.332925214427874" lon="5.990860895203842"><ele>344.5</ele><time>2026-04-25T15:18:08.977Z</time></trkpt><trkpt lat="43.332888822477" lon="5.991182781807115"><ele>344.0</ele><time>2026-04-25T15:18:09.977Z</time></trkpt><trkpt lat="43.33286097431957" lon="5.991491951785966"><ele>343.5</ele><time>2026-04-25T15:18:10.977Z</time></trkpt><trkpt lat="43.3328274778212" lon="5.991803782218722"><ele>343.0</ele><time>2026-04-25T15:18:11.977Z</time></trkpt><trkpt lat="43.33279267733249" lon="5.992141384929119"><ele>344.5</ele><time>2026-04-25T15:18:12.977Z</time></trkpt><trkpt lat="43.33275611537533" lon="5.992511176732875"><ele>346.0</ele><time>2026-04-25T15:18:13.977Z</time></trkpt><trkpt lat="43.33270535508419" lon="5.992882576323484"><ele>346.0</ele><time>2026-04-25T15:18:14.977Z</time></trkpt><trkpt lat="43.332620094235295" lon="5.993228866579556"><ele>346.0</ele><time>2026-04-25T15:18:15.977Z</time></trkpt><trkpt lat="43.332540460704244" lon="5.993577880610036"><ele>347.5</ele><time>2026-04-25T15:18:16.977Z</time></trkpt><trkpt lat="43.33245012333555" lon="5.993890563100495"><ele>349.0</ele><time>2026-04-25T15:18:17.977Z</time></trkpt><trkpt lat="43.332377861104746" lon="5.994197193143184"><ele>349.5</ele><time>2026-04-25T15:18:18.977Z</time></trkpt><trkpt lat="43.332314774980325" lon="5.9944919023958265"><ele>350.0</ele><time>2026-04-25T15:18:19.977Z</time></trkpt><trkpt lat="43.33227485809676" lon="5.994809905813864"><ele>349.5</ele><time>2026-04-25T15:18:20.977Z</time></trkpt><trkpt lat="43.332269133458816" lon="5.995164222646923"><ele>349.0</ele><time>2026-04-25T15:18:21.977Z</time></trkpt><trkpt lat="43.332237353319066" lon="5.995534977185079"><ele>347.5</ele><time>2026-04-25T15:18:22.977Z</time></trkpt><trkpt lat="43.33221557383206" lon="5.995927076687268"><ele>346.0</ele><time>2026-04-25T15:18:23.977Z</time></trkpt><trkpt lat="43.332203895897294" lon="5.99634151452725"><ele>346.5</ele><time>2026-04-25T15:18:24.977Z</time></trkpt><trkpt lat="43.332164312878504" lon="5.996771740289807"><ele>347.0</ele><time>2026-04-25T15:18:25.977Z</time></trkpt><trkpt lat="43.332146404522135" lon="5.997211352065644"><ele>347.5</ele><time>2026-04-25T15:18:26.977Z</time></trkpt><trkpt lat="43.332135373333955" lon="5.997611320713923"><ele>348.0</ele><time>2026-04-25T15:18:27.977Z</time></trkpt><trkpt lat="43.33210985719211" lon="5.9980008088168875"><ele>348.0</ele><time>2026-04-25T15:18:28.977Z</time></trkpt><trkpt lat="43.332060974963355" lon="5.998365229260693"><ele>348.0</ele><time>2026-04-25T15:18:29.977Z</time></trkpt><trkpt lat="43.33198125009239" lon="5.998719195809117"><ele>348.0</ele><time>2026-04-25T15:18:30.977Z</time></trkpt><trkpt lat="43.3318753678154" lon="5.999066376977215"><ele>348.0</ele><time>2026-04-25T15:18:31.977Z</time></trkpt><trkpt lat="43.331757549498064" lon="5.9994204260570365"><ele>347.5</ele><time>2026-04-25T15:18:32.977Z</time></trkpt><trkpt lat="43.331631207236626" lon="5.999783563200825"><ele>347.0</ele><time>2026-04-25T15:18:33.977Z</time></trkpt><trkpt lat="43.331505389332285" lon="6.000161570550123"><ele>345.5</ele><time>2026-04-25T15:18:34.977Z</time></trkpt><trkpt lat="43.33137187772656" lon="6.000555444285727"><ele>344.0</ele><time>2026-04-25T15:18:35.977Z</time></trkpt><trkpt lat="43.3312388378827" lon="6.000941661200971"><ele>343.5</ele><time>2026-04-25T15:18:36.977Z</time></trkpt><trkpt lat="43.331119478015175" lon="6.001300040241701"><ele>343.0</ele><time>2026-04-25T15:18:37.977Z</time></trkpt><trkpt lat="43.331013115951706" lon="6.001662867830464"><ele>343.0</ele><time>2026-04-25T15:18:38.978Z</time></trkpt><trkpt lat="43.33093681790313" lon="6.002043228714463"><ele>343.0</ele><time>2026-04-25T15:18:39.977Z</time></trkpt><trkpt lat="43.33088447967731" lon="6.0024159898847795"><ele>343.0</ele><time>2026-04-25T15:18:40.977Z</time></trkpt><trkpt lat="43.330858212715725" lon="6.002779773080443"><ele>343.0</ele><time>2026-04-25T15:18:41.977Z</time></trkpt><trkpt lat="43.33083298888209" lon="6.003121935094503"><ele>342.5</ele><time>2026-04-25T15:18:42.978Z</time></trkpt><trkpt lat="43.33080626151487" lon="6.003454477979697"><ele>342.0</ele><time>2026-04-25T15:18:43.978Z</time></trkpt><trkpt lat="43.33078040657074" lon="6.003774758439769"><ele>342.0</ele><time>2026-04-25T15:18:44.978Z</time></trkpt><trkpt lat="43.33073482185393" lon="6.004086040026151"><ele>342.0</ele><time>2026-04-25T15:18:45.977Z</time></trkpt><trkpt lat="43.33065649432355" lon="6.004381970497143"><ele>340.0</ele><time>2026-04-25T15:18:46.977Z</time></trkpt><trkpt lat="43.33055046332906" lon="6.0046705082891085"><ele>338.0</ele><time>2026-04-25T15:18:47.977Z</time></trkpt><trkpt lat="43.330438071510535" lon="6.004939901491697"><ele>338.0</ele><time>2026-04-25T15:18:48.978Z</time></trkpt><trkpt lat="43.330325577067974" lon="6.00520025374632"><ele>338.0</ele><time>2026-04-25T15:18:49.978Z</time></trkpt><trkpt lat="43.330235808891146" lon="6.005481518581939"><ele>338.0</ele><time>2026-04-25T15:18:50.978Z</time></trkpt><trkpt lat="43.330171723481" lon="6.005779272598191"><ele>337.0</ele><time>2026-04-25T15:18:51.978Z</time></trkpt><trkpt lat="43.330129552464776" lon="6.006090836925447"><ele>336.0</ele><time>2026-04-25T15:18:52.978Z</time></trkpt><trkpt lat="43.33012165970584" lon="6.006419752789152"><ele>336.0</ele><time>2026-04-25T15:18:53.978Z</time></trkpt><trkpt lat="43.330147028610725" lon="6.006749775191771"><ele>336.0</ele><time>2026-04-25T15:18:54.978Z</time></trkpt><trkpt lat="43.33019197660736" lon="6.007058345027185"><ele>336.0</ele><time>2026-04-25T15:18:55.978Z</time></trkpt><trkpt lat="43.33026085688316" lon="6.007349328842696"><ele>336.0</ele><time>2026-04-25T15:18:56.978Z</time></trkpt><trkpt lat="43.33034105937983" lon="6.0076379625603655"><ele>336.0</ele><time>2026-04-25T15:18:57.978Z</time></trkpt><trkpt lat="43.33042614705121" lon="6.0079212312113315"><ele>335.6666666666667</ele><time>2026-04-25T15:18:58.978Z</time></trkpt><trkpt lat="43.330498824276916" lon="6.0082108504644145"><ele>335.33333333333337</ele><time>2026-04-25T15:18:59.978Z</time></trkpt><trkpt lat="43.33056798849412" lon="6.008492176986043"><ele>335.0</ele><time>2026-04-25T15:19:00.978Z</time></trkpt><trkpt lat="43.33061300158191" lon="6.008751249591184"><ele>334.0</ele><time>2026-04-25T15:19:01.978Z</time></trkpt><trkpt lat="43.33064167938824" lon="6.00898468354452"><ele>333.0</ele><time>2026-04-25T15:19:02.978Z</time></trkpt><trkpt lat="43.33064042092744" lon="6.009194667161908"><ele>332.0</ele><time>2026-04-25T15:19:03.978Z</time></trkpt><trkpt lat="43.33062337460426" lon="6.009408023169024"><ele>332.0</ele><time>2026-04-25T15:19:04.978Z</time></trkpt><trkpt lat="43.33057892919893" lon="6.009663792035626"><ele>332.0</ele><time>2026-04-25T15:19:05.978Z</time></trkpt><trkpt lat="43.330528750968924" lon="6.009936768835149"><ele>332.0</ele><time>2026-04-25T15:19:06.978Z</time></trkpt><trkpt lat="43.33047606450318" lon="6.010226070454766"><ele>332.5</ele><time>2026-04-25T15:19:07.978Z</time></trkpt><trkpt lat="43.33042329489533" lon="6.010534974378719"><ele>333.0</ele><time>2026-04-25T15:19:08.978Z</time></trkpt><trkpt lat="43.33036286692223" lon="6.010859854741472"><ele>333.0</ele><time>2026-04-25T15:19:09.978Z</time></trkpt><trkpt lat="43.33030557593989" lon="6.01117860564517"><ele>333.0</ele><time>2026-04-25T15:19:10.978Z</time></trkpt><trkpt lat="43.330260187217114" lon="6.01150828144677"><ele>334.5</ele><time>2026-04-25T15:19:11.978Z</time></trkpt><trkpt lat="43.330241283231736" lon="6.011844998728272"><ele>336.0</ele><time>2026-04-25T15:19:12.978Z</time></trkpt><trkpt lat="43.33024523825403" lon="6.012206504950284"><ele>336.5</ele><time>2026-04-25T15:19:13.977Z</time></trkpt><trkpt lat="43.33027200329384" lon="6.0125846222226045"><ele>337.0</ele><time>2026-04-25T15:19:14.977Z</time></trkpt><trkpt lat="43.33031997642173" lon="6.012970780515853"><ele>337.5</ele><time>2026-04-25T15:19:15.977Z</time></trkpt><trkpt lat="43.330377738791704" lon="6.013377014752094"><ele>338.0</ele><time>2026-04-25T15:19:16.977Z</time></trkpt><trkpt lat="43.33043440964616" lon="6.013807124370664"><ele>339.0</ele><time>2026-04-25T15:19:17.977Z</time></trkpt><trkpt lat="43.3304984935499" lon="6.014258515599896"><ele>340.0</ele><time>2026-04-25T15:19:18.977Z</time></trkpt><trkpt lat="43.330566729192775" lon="6.0147262543696405"><ele>340.5</ele><time>2026-04-25T15:19:19.977Z</time></trkpt><trkpt lat="43.330636458307715" lon="6.015220890984182"><ele>341.0</ele><time>2026-04-25T15:19:20.977Z</time></trkpt><trkpt lat="43.330712110903164" lon="6.015733362810617"><ele>341.5</ele><time>2026-04-25T15:19:21.977Z</time></trkpt><trkpt lat="43.33078721986198" lon="6.016265375153061"><ele>342.0</ele><time>2026-04-25T15:19:22.977Z</time></trkpt><trkpt lat="43.3308630023807" lon="6.016774112110437"><ele>342.0</ele><time>2026-04-25T15:19:23.977Z</time></trkpt><trkpt lat="43.33093577221996" lon="6.017249720598911"><ele>342.0</ele><time>2026-04-25T15:19:24.977Z</time></trkpt><trkpt lat="43.33099912716188" lon="6.017692155520686"><ele>342.5</ele><time>2026-04-25T15:19:25.977Z</time></trkpt><trkpt lat="43.33105743957765" lon="6.018095033724791"><ele>343.0</ele><time>2026-04-25T15:19:26.977Z</time></trkpt><trkpt lat="43.33113526420701" lon="6.01848502036706"><ele>343.0</ele><time>2026-04-25T15:19:27.977Z</time></trkpt><trkpt lat="43.33124213139885" lon="6.018860765492345"><ele>343.0</ele><time>2026-04-25T15:19:28.977Z</time></trkpt><trkpt lat="43.33137739510231" lon="6.019241515478581"><ele>345.0</ele><time>2026-04-25T15:19:29.977Z</time></trkpt><trkpt lat="43.33149758314724" lon="6.019596853710749"><ele>347.0</ele><time>2026-04-25T15:19:30.977Z</time></trkpt><trkpt lat="43.331609229079234" lon="6.019943208055872"><ele>346.0</ele><time>2026-04-25T15:19:31.977Z</time></trkpt><trkpt lat="43.33171599647052" lon="6.020266439603851"><ele>345.0</ele><time>2026-04-25T15:19:32.977Z</time></trkpt><trkpt lat="43.331816247922035" lon="6.0205776811892395"><ele>345.5</ele><time>2026-04-25T15:19:33.977Z</time></trkpt><trkpt lat="43.33189163256036" lon="6.020886120316316"><ele>346.0</ele><time>2026-04-25T15:19:34.977Z</time></trkpt><trkpt lat="43.331933527398796" lon="6.021184240485865"><ele>346.0</ele><time>2026-04-25T15:19:35.977Z</time></trkpt><trkpt lat="43.33194424825541" lon="6.0214715929749225"><ele>346.0</ele><time>2026-04-25T15:19:36.977Z</time></trkpt><trkpt lat="43.33194300672696" lon="6.021748167374552"><ele>346.0</ele><time>2026-04-25T15:19:37.977Z</time></trkpt><trkpt lat="43.33192140411025" lon="6.022013536974328"><ele>345.3333333333333</ele><time>2026-04-25T15:19:38.977Z</time></trkpt><trkpt lat="43.33186451860421" lon="6.022291849628918"><ele>344.6666666666667</ele><time>2026-04-25T15:19:39.977Z</time></trkpt><trkpt lat="43.33178021582036" lon="6.0225679708618225"><ele>344.0</ele><time>2026-04-25T15:19:40.977Z</time></trkpt><trkpt lat="43.331680071201994" lon="6.022863341007235"><ele>343.5</ele><time>2026-04-25T15:19:41.977Z</time></trkpt><trkpt lat="43.33156728912985" lon="6.023174249419593"><ele>343.0</ele><time>2026-04-25T15:19:42.977Z</time></trkpt><trkpt lat="43.33145472181183" lon="6.023518666070506"><ele>342.0</ele><time>2026-04-25T15:19:43.977Z</time></trkpt><trkpt lat="43.33133351568982" lon="6.023886377459759"><ele>341.0</ele><time>2026-04-25T15:19:44.977Z</time></trkpt><trkpt lat="43.33119787877663" lon="6.024280375879071"><ele>340.0</ele><time>2026-04-25T15:19:45.977Z</time></trkpt><trkpt lat="43.33105801850526" lon="6.0246902347701585"><ele>339.0</ele><time>2026-04-25T15:19:46.977Z</time></trkpt><trkpt lat="43.33091370781531" lon="6.025105795660497"><ele>339.0</ele><time>2026-04-25T15:19:47.977Z</time></trkpt><trkpt lat="43.330781619765006" lon="6.025496891695602"><ele>339.0</ele><time>2026-04-25T15:19:48.977Z</time></trkpt><trkpt lat="43.33065606035667" lon="6.02586497268275"><ele>337.0</ele><time>2026-04-25T15:19:49.977Z</time></trkpt><trkpt lat="43.330538685298016" lon="6.026217969644709"><ele>335.0</ele><time>2026-04-25T15:19:50.977Z</time></trkpt><trkpt lat="43.33042819022845" lon="6.026582962952337"><ele>335.5</ele><time>2026-04-25T15:19:51.977Z</time></trkpt><trkpt lat="43.330345884090875" lon="6.02695632318863"><ele>336.0</ele><time>2026-04-25T15:19:52.977Z</time></trkpt><trkpt lat="43.3302840432632" lon="6.027333941493878"><ele>335.0</ele><time>2026-04-25T15:19:53.977Z</time></trkpt><trkpt lat="43.33022983713155" lon="6.027711482899297"><ele>334.0</ele><time>2026-04-25T15:19:54.977Z</time></trkpt><trkpt lat="43.330169896119884" lon="6.028090511228796"><ele>333.0</ele><time>2026-04-25T15:19:55.977Z</time></trkpt><trkpt lat="43.330107733709994" lon="6.028472453164204"><ele>332.0</ele><time>2026-04-25T15:19:56.977Z</time></trkpt><trkpt lat="43.330064930109266" lon="6.02886348667885"><ele>331.5</ele><time>2026-04-25T15:19:57.977Z</time></trkpt><trkpt lat="43.33005329527623" lon="6.02926796075323"><ele>331.0</ele><time>2026-04-25T15:19:58.977Z</time></trkpt><trkpt lat="43.33004453101124" lon="6.029670065996124"><ele>330.5</ele><time>2026-04-25T15:19:59.977Z</time></trkpt><trkpt lat="43.33002554653146" lon="6.030077679388784"><ele>330.0</ele><time>2026-04-25T15:20:00.977Z</time></trkpt><trkpt lat="43.33000087797605" lon="6.030487709290104"><ele>329.5</ele><time>2026-04-25T15:20:01.977Z</time></trkpt><trkpt lat="43.32997865837093" lon="6.030889005721588"><ele>329.0</ele><time>2026-04-25T15:20:02.977Z</time></trkpt><trkpt lat="43.32994258812564" lon="6.0312848641780885"><ele>328.0</ele><time>2026-04-25T15:20:03.977Z</time></trkpt><trkpt lat="43.32987517691786" lon="6.031660726735485"><ele>327.0</ele><time>2026-04-25T15:20:04.977Z</time></trkpt><trkpt lat="43.329806911270204" lon="6.03203219270471"><ele>327.0</ele><time>2026-04-25T15:20:05.977Z</time></trkpt><trkpt lat="43.329743446930905" lon="6.032387864428404"><ele>327.0</ele><time>2026-04-25T15:20:06.977Z</time></trkpt><trkpt lat="43.32968300871178" lon="6.0327234668928424"><ele>326.5</ele><time>2026-04-25T15:20:07.977Z</time></trkpt><trkpt lat="43.32962557185278" lon="6.033035459334854"><ele>326.0</ele><time>2026-04-25T15:20:08.977Z</time></trkpt><trkpt lat="43.329567723862425" lon="6.033330227637725"><ele>326.0</ele><time>2026-04-25T15:20:09.977Z</time></trkpt><trkpt lat="43.32951609518513" lon="6.033608878345272"><ele>326.0</ele><time>2026-04-25T15:20:10.977Z</time></trkpt><trkpt lat="43.329465442401315" lon="6.033877274470226"><ele>326.0</ele><time>2026-04-25T15:20:11.977Z</time></trkpt><trkpt lat="43.329422128685934" lon="6.034121858719828"><ele>325.33333333333337</ele><time>2026-04-25T15:20:12.977Z</time></trkpt><trkpt lat="43.32937468249388" lon="6.03434915351434"><ele>324.6666666666667</ele><time>2026-04-25T15:20:13.977Z</time></trkpt><trkpt lat="43.32932660504765" lon="6.034558190727518"><ele>324.0</ele><time>2026-04-25T15:20:14.977Z</time></trkpt><trkpt lat="43.32926751753104" lon="6.034761121705141"><ele>324.0</ele><time>2026-04-25T15:20:15.977Z</time></trkpt><trkpt lat="43.329195496007905" lon="6.0349575392584285"><ele>324.0</ele><time>2026-04-25T15:20:16.977Z</time></trkpt><trkpt lat="43.32910662025697" lon="6.035148012724703"><ele>324.0</ele><time>2026-04-25T15:20:17.977Z</time></trkpt><trkpt lat="43.32900120984038" lon="6.03532860796263"><ele>322.6666666666667</ele><time>2026-04-25T15:20:18.977Z</time></trkpt><trkpt lat="43.32887559105384" lon="6.0355011128576725"><ele>321.33333333333337</ele><time>2026-04-25T15:20:19.977Z</time></trkpt><trkpt lat="43.328742977751276" lon="6.035640983262096"><ele>320.0</ele><time>2026-04-25T15:20:20.977Z</time></trkpt><trkpt lat="43.32860944083885" lon="6.035766590974796"><ele>319.33333333333337</ele><time>2026-04-25T15:20:21.977Z</time></trkpt><trkpt lat="43.32847049035268" lon="6.035885234507122"><ele>318.6666666666667</ele><time>2026-04-25T15:20:22.977Z</time></trkpt><trkpt lat="43.328321001376786" lon="6.0359953511983635"><ele>318.0</ele><time>2026-04-25T15:20:23.977Z</time></trkpt><trkpt lat="43.32818058005887" lon="6.036098950247341"><ele>317.75</ele><time>2026-04-25T15:20:24.977Z</time></trkpt><trkpt lat="43.328051498968534" lon="6.036192211543734"><ele>317.5</ele><time>2026-04-25T15:20:25.977Z</time></trkpt><trkpt lat="43.32792759419466" lon="6.036282904389929"><ele>317.25</ele><time>2026-04-25T15:20:26.977Z</time></trkpt><trkpt lat="43.327806333244546" lon="6.03637042669635"><ele>317.0</ele><time>2026-04-25T15:20:27.977Z</time></trkpt><trkpt lat="43.327695841696375" lon="6.0364441261037465"><ele>317.0</ele><time>2026-04-25T15:20:28.977Z</time></trkpt><trkpt lat="43.32759128376918" lon="6.036509439276253"><ele>317.0</ele><time>2026-04-25T15:20:29.977Z</time></trkpt><trkpt lat="43.327496787576464" lon="6.036571813290266"><ele>317.0</ele><time>2026-04-25T15:20:30.977Z</time></trkpt><trkpt lat="43.327406271246176" lon="6.0366218540578105"><ele>317.0</ele><time>2026-04-25T15:20:31.977Z</time></trkpt><trkpt lat="43.32733285983027" lon="6.036656306805371"><ele>317.0</ele><time>2026-04-25T15:20:32.977Z</time></trkpt><trkpt lat="43.327239297898466" lon="6.036698423509619"><ele>316.5</ele><time>2026-04-25T15:20:34.977Z</time></trkpt><trkpt lat="43.32713844675041" lon="6.036733462505763"><ele>316.0</ele><time>2026-04-25T15:20:37.977Z</time></trkpt><trkpt lat="43.32702106288911" lon="6.036699386029194"><ele>315.5</ele><time>2026-04-25T15:20:39.977Z</time></trkpt><trkpt lat="43.326948839678174" lon="6.036669973525113"><ele>315.0</ele><time>2026-04-25T15:20:40.977Z</time></trkpt><trkpt lat="43.32688140053656" lon="6.036660505226352"><ele>314.5</ele><time>2026-04-25T15:20:41.977Z</time></trkpt><trkpt lat="43.32681574611687" lon="6.0366733149284375"><ele>314.0</ele><time>2026-04-25T15:20:42.977Z</time></trkpt><trkpt lat="43.32671793057707" lon="6.036785826128734"><ele>314.0</ele><time>2026-04-25T15:20:44.977Z</time></trkpt><trkpt lat="43.32667908162422" lon="6.036887504708881"><ele>314.0</ele><time>2026-04-25T15:20:45.977Z</time></trkpt><trkpt lat="43.3266307942705" lon="6.03702806359213"><ele>314.0</ele><time>2026-04-25T15:20:46.978Z</time></trkpt><trkpt lat="43.32653706806611" lon="6.03714899171547"><ele>314.0</ele><time>2026-04-25T15:20:47.978Z</time></trkpt><trkpt lat="43.326405748730004" lon="6.037263575944853"><ele>314.0</ele><time>2026-04-25T15:20:48.978Z</time></trkpt><trkpt lat="43.32623246718476" lon="6.037398202092766"><ele>314.0</ele><time>2026-04-25T15:20:49.978Z</time></trkpt><trkpt lat="43.32601832607899" lon="6.03755453721367"><ele>314.0</ele><time>2026-04-25T15:20:50.978Z</time></trkpt><trkpt lat="43.32577030341045" lon="6.037719889030127"><ele>313.0</ele><time>2026-04-25T15:20:51.978Z</time></trkpt><trkpt lat="43.32551520297275" lon="6.037886697280835"><ele>312.0</ele><time>2026-04-25T15:20:52.978Z</time></trkpt><trkpt lat="43.325261146065245" lon="6.038064887327146"><ele>312.0</ele><time>2026-04-25T15:20:53.977Z</time></trkpt><trkpt lat="43.325016793335" lon="6.038239056597028"><ele>312.0</ele><time>2026-04-25T15:20:54.977Z</time></trkpt><trkpt lat="43.32478783814039" lon="6.038402729345711"><ele>310.0</ele><time>2026-04-25T15:20:55.977Z</time></trkpt><trkpt lat="43.324581018480664" lon="6.038553298988913"><ele>308.0</ele><time>2026-04-25T15:20:56.978Z</time></trkpt><trkpt lat="43.32438671276566" lon="6.038691818440184"><ele>308.0</ele><time>2026-04-25T15:20:57.978Z</time></trkpt><trkpt lat="43.32420043666308" lon="6.03882547488057"><ele>308.0</ele><time>2026-04-25T15:20:58.978Z</time></trkpt><trkpt lat="43.3239850517047" lon="6.038975961586221"><ele>306.5</ele><time>2026-04-25T15:20:59.978Z</time></trkpt><trkpt lat="43.3237539621981" lon="6.039140576699746"><ele>305.0</ele><time>2026-04-25T15:21:00.978Z</time></trkpt><trkpt lat="43.323514615824614" lon="6.039312210120158"><ele>305.0</ele><time>2026-04-25T15:21:01.978Z</time></trkpt><trkpt lat="43.32329161575317" lon="6.039480056107265"><ele>305.0</ele><time>2026-04-25T15:21:02.978Z</time></trkpt><trkpt lat="43.32306679465629" lon="6.039635972724931"><ele>305.0</ele><time>2026-04-25T15:21:03.978Z</time></trkpt><trkpt lat="43.32283608813502" lon="6.0397997197089595"><ele>305.0</ele><time>2026-04-25T15:21:04.978Z</time></trkpt><trkpt lat="43.32260736955362" lon="6.039961407893429"><ele>305.0</ele><time>2026-04-25T15:21:05.978Z</time></trkpt><trkpt lat="43.32239587356782" lon="6.040117443849333"><ele>305.0</ele><time>2026-04-25T15:21:06.978Z</time></trkpt><trkpt lat="43.32219985621312" lon="6.040260547382493"><ele>305.0</ele><time>2026-04-25T15:21:07.978Z</time></trkpt><trkpt lat="43.32200885313509" lon="6.040390576801322"><ele>305.0</ele><time>2026-04-25T15:21:08.978Z</time></trkpt><trkpt lat="43.321828715210906" lon="6.04052204053325"><ele>305.0</ele><time>2026-04-25T15:21:09.978Z</time></trkpt><trkpt lat="43.32164925730801" lon="6.040678777737069"><ele>305.0</ele><time>2026-04-25T15:21:10.978Z</time></trkpt><trkpt lat="43.321480525401945" lon="6.040869216738698"><ele>305.0</ele><time>2026-04-25T15:21:11.978Z</time></trkpt><trkpt lat="43.32132071315492" lon="6.0410799673013775"><ele>305.0</ele><time>2026-04-25T15:21:12.978Z</time></trkpt><trkpt lat="43.321175673723495" lon="6.041309894011942"><ele>304.6666666666667</ele><time>2026-04-25T15:21:13.978Z</time></trkpt><trkpt lat="43.321054655545" lon="6.041558589729759"><ele>304.3333333333333</ele><time>2026-04-25T15:21:14.978Z</time></trkpt><trkpt lat="43.32094296916287" lon="6.041826305473708"><ele>304.0</ele><time>2026-04-25T15:21:15.978Z</time></trkpt><trkpt lat="43.32086126321617" lon="6.042105415522051"><ele>303.66666666666663</ele><time>2026-04-25T15:21:16.978Z</time></trkpt><trkpt lat="43.32080075627468" lon="6.042387015041593"><ele>303.3333333333333</ele><time>2026-04-25T15:21:17.978Z</time></trkpt><trkpt lat="43.320760277770965" lon="6.042679367566113"><ele>303.0</ele><time>2026-04-25T15:21:18.978Z</time></trkpt><trkpt lat="43.32075071678624" lon="6.042964816715411"><ele>303.0</ele><time>2026-04-25T15:21:19.978Z</time></trkpt><trkpt lat="43.32074879779142" lon="6.043253316370621"><ele>303.0</ele><time>2026-04-25T15:21:20.978Z</time></trkpt><trkpt lat="43.320768186785465" lon="6.043541031097689"><ele>303.0</ele><time>2026-04-25T15:21:21.978Z</time></trkpt><trkpt lat="43.32080804448411" lon="6.043816460241343"><ele>303.0</ele><time>2026-04-25T15:21:22.978Z</time></trkpt><trkpt lat="43.32086789329207" lon="6.044086935581732"><ele>303.0</ele><time>2026-04-25T15:21:23.978Z</time></trkpt><trkpt lat="43.3209387804521" lon="6.044347478825452"><ele>303.0</ele><time>2026-04-25T15:21:24.978Z</time></trkpt><trkpt lat="43.321012769938996" lon="6.044620357186486"><ele>303.3333333333333</ele><time>2026-04-25T15:21:25.978Z</time></trkpt><trkpt lat="43.32109117574955" lon="6.044892118555487"><ele>303.66666666666663</ele><time>2026-04-25T15:21:26.978Z</time></trkpt><trkpt lat="43.321170697173926" lon="6.045172378434566"><ele>304.0</ele><time>2026-04-25T15:21:27.978Z</time></trkpt><trkpt lat="43.321250000184115" lon="6.045451468160443"><ele>303.3333333333333</ele><time>2026-04-25T15:21:28.978Z</time></trkpt><trkpt lat="43.32132955128691" lon="6.045731617990346"><ele>302.6666666666667</ele><time>2026-04-25T15:21:29.978Z</time></trkpt><trkpt lat="43.32140923010038" lon="6.046009321036616"><ele>302.0</ele><time>2026-04-25T15:21:30.978Z</time></trkpt><trkpt lat="43.32148913555985" lon="6.046285076787725"><ele>302.0</ele><time>2026-04-25T15:21:31.978Z</time></trkpt><trkpt lat="43.32157306073982" lon="6.046563954455052"><ele>302.0</ele><time>2026-04-25T15:21:32.978Z</time></trkpt><trkpt lat="43.32165253469742" lon="6.046849274000938"><ele>302.0</ele><time>2026-04-25T15:21:33.978Z</time></trkpt><trkpt lat="43.321731004894254" lon="6.047134753801056"><ele>303.0</ele><time>2026-04-25T15:21:34.978Z</time></trkpt><trkpt lat="43.3218095927626" lon="6.047412608990558"><ele>304.0</ele><time>2026-04-25T15:21:35.978Z</time></trkpt><trkpt lat="43.32188971444931" lon="6.047690308483401"><ele>305.0</ele><time>2026-04-25T15:21:36.978Z</time></trkpt><trkpt lat="43.32196772638835" lon="6.04795961518563"><ele>305.0</ele><time>2026-04-25T15:21:37.978Z</time></trkpt><trkpt lat="43.32204598281993" lon="6.048230866569107"><ele>305.0</ele><time>2026-04-25T15:21:38.978Z</time></trkpt><trkpt lat="43.32211413046233" lon="6.048480736968899"><ele>305.0</ele><time>2026-04-25T15:21:39.978Z</time></trkpt><trkpt lat="43.32217900995407" lon="6.0487236369923325"><ele>304.0</ele><time>2026-04-25T15:21:40.978Z</time></trkpt><trkpt lat="43.32224767586334" lon="6.048976169986208"><ele>303.0</ele><time>2026-04-25T15:21:41.978Z</time></trkpt><trkpt lat="43.322316498151714" lon="6.049237981740002"><ele>302.0</ele><time>2026-04-25T15:21:42.978Z</time></trkpt><trkpt lat="43.32239049403884" lon="6.0495073735625535"><ele>301.6666666666667</ele><time>2026-04-25T15:21:43.978Z</time></trkpt><trkpt lat="43.32246939508983" lon="6.0497838152529475"><ele>301.3333333333333</ele><time>2026-04-25T15:21:44.978Z</time></trkpt><trkpt lat="43.32254640435704" lon="6.050066846272959"><ele>301.0</ele><time>2026-04-25T15:21:45.978Z</time></trkpt><trkpt lat="43.322630362953106" lon="6.05035122768955"><ele>301.0</ele><time>2026-04-25T15:21:46.978Z</time></trkpt><trkpt lat="43.32272684105388" lon="6.050628486753847"><ele>301.0</ele><time>2026-04-25T15:21:47.978Z</time></trkpt><trkpt lat="43.32281460943472" lon="6.050904710370571"><ele>301.0</ele><time>2026-04-25T15:21:48.978Z</time></trkpt><trkpt lat="43.322889160329076" lon="6.051168066734471"><ele>301.0</ele><time>2026-04-25T15:21:49.978Z</time></trkpt><trkpt lat="43.322970735309944" lon="6.051424299527768"><ele>301.0</ele><time>2026-04-25T15:21:50.978Z</time></trkpt><trkpt lat="43.32306386542641" lon="6.051666787594073"><ele>301.0</ele><time>2026-04-25T15:21:51.978Z</time></trkpt><trkpt lat="43.32314997642988" lon="6.051898366800965"><ele>301.0</ele><time>2026-04-25T15:21:52.977Z</time></trkpt><trkpt lat="43.323233573556045" lon="6.052115003669917"><ele>301.0</ele><time>2026-04-25T15:21:53.977Z</time></trkpt><trkpt lat="43.323313486288235" lon="6.052322045005756"><ele>301.0</ele><time>2026-04-25T15:21:54.977Z</time></trkpt><trkpt lat="43.323390624930255" lon="6.052522409906621"><ele>301.66666666666663</ele><time>2026-04-25T15:21:55.977Z</time></trkpt><trkpt lat="43.32344631876599" lon="6.052725426796749"><ele>302.3333333333333</ele><time>2026-04-25T15:21:56.977Z</time></trkpt><trkpt lat="43.32347357523203" lon="6.0529560284611446"><ele>303.0</ele><time>2026-04-25T15:21:57.977Z</time></trkpt><trkpt lat="43.323465756635485" lon="6.053209528493678"><ele>303.3333333333333</ele><time>2026-04-25T15:21:58.977Z</time></trkpt><trkpt lat="43.32344148041819" lon="6.053471369076062"><ele>303.66666666666663</ele><time>2026-04-25T15:21:59.977Z</time></trkpt><trkpt lat="43.323400521026606" lon="6.053729305138748"><ele>304.0</ele><time>2026-04-25T15:22:00.977Z</time></trkpt><trkpt lat="43.323335805593764" lon="6.0539953744762425"><ele>304.3333333333333</ele><time>2026-04-25T15:22:01.977Z</time></trkpt><trkpt lat="43.32327675675931" lon="6.05427974224757"><ele>304.6666666666667</ele><time>2026-04-25T15:22:02.977Z</time></trkpt><trkpt lat="43.32322316836042" lon="6.054561333211546"><ele>305.0</ele><time>2026-04-25T15:22:03.977Z</time></trkpt><trkpt lat="43.323159976252335" lon="6.054817402152647"><ele>305.0</ele><time>2026-04-25T15:22:04.977Z</time></trkpt><trkpt lat="43.32309202386306" lon="6.055052949033243"><ele>305.0</ele><time>2026-04-25T15:22:05.977Z</time></trkpt><trkpt lat="43.32301314858121" lon="6.055288102695878"><ele>305.0</ele><time>2026-04-25T15:22:06.977Z</time></trkpt><trkpt lat="43.322935159581704" lon="6.0555194070651"><ele>304.6666666666667</ele><time>2026-04-25T15:22:07.977Z</time></trkpt><trkpt lat="43.32284986273035" lon="6.055749931175353"><ele>304.3333333333333</ele><time>2026-04-25T15:22:08.977Z</time></trkpt><trkpt lat="43.322768321345194" lon="6.055982366556465"><ele>304.0</ele><time>2026-04-25T15:22:09.977Z</time></trkpt><trkpt lat="43.322690911638745" lon="6.056225936112536"><ele>304.0</ele><time>2026-04-25T15:22:10.977Z</time></trkpt><trkpt lat="43.32261031295127" lon="6.056468017017109"><ele>304.0</ele><time>2026-04-25T15:22:11.977Z</time></trkpt><trkpt lat="43.322529752423236" lon="6.056705674586133"><ele>304.0</ele><time>2026-04-25T15:22:12.977Z</time></trkpt><trkpt lat="43.32245103098884" lon="6.056949442508031"><ele>303.66666666666663</ele><time>2026-04-25T15:22:13.977Z</time></trkpt><trkpt lat="43.32237408673611" lon="6.057190157216981"><ele>303.3333333333333</ele><time>2026-04-25T15:22:14.977Z</time></trkpt><trkpt lat="43.32229491783686" lon="6.05743746287225"><ele>303.0</ele><time>2026-04-25T15:22:15.977Z</time></trkpt><trkpt lat="43.32221380115926" lon="6.0576856918022255"><ele>303.6666666666667</ele><time>2026-04-25T15:22:16.977Z</time></trkpt><trkpt lat="43.32213150902587" lon="6.05793410686354"><ele>304.33333333333337</ele><time>2026-04-25T15:22:17.977Z</time></trkpt><trkpt lat="43.32204932413334" lon="6.058182682795678"><ele>305.0</ele><time>2026-04-25T15:22:18.977Z</time></trkpt><trkpt lat="43.32196909244721" lon="6.0584331183115205"><ele>306.0</ele><time>2026-04-25T15:22:19.977Z</time></trkpt><trkpt lat="43.32188649087352" lon="6.058681380511472"><ele>307.0</ele><time>2026-04-25T15:22:20.977Z</time></trkpt><trkpt lat="43.32180840434598" lon="6.058932768805704"><ele>308.0</ele><time>2026-04-25T15:22:21.977Z</time></trkpt><trkpt lat="43.32173308063823" lon="6.05918964406088"><ele>309.6666666666667</ele><time>2026-04-25T15:22:22.977Z</time></trkpt><trkpt lat="43.321664421017594" lon="6.059443890214644"><ele>311.3333333333333</ele><time>2026-04-25T15:22:23.977Z</time></trkpt><trkpt lat="43.321602105740496" lon="6.059704739905668"><ele>313.0</ele><time>2026-04-25T15:22:24.977Z</time></trkpt><trkpt lat="43.321543683869045" lon="6.0599655635029785"><ele>313.3333333333333</ele><time>2026-04-25T15:22:25.977Z</time></trkpt><trkpt lat="43.32147722846442" lon="6.060225648107771"><ele>313.6666666666667</ele><time>2026-04-25T15:22:26.977Z</time></trkpt><trkpt lat="43.32139980634652" lon="6.060478893165826"><ele>314.0</ele><time>2026-04-25T15:22:27.977Z</time></trkpt><trkpt lat="43.321313290722685" lon="6.060726155753851"><ele>313.0</ele><time>2026-04-25T15:22:28.977Z</time></trkpt><trkpt lat="43.32122966017104" lon="6.060967586377121"><ele>312.0</ele><time>2026-04-25T15:22:29.977Z</time></trkpt><trkpt lat="43.32114472370603" lon="6.0612169283764015"><ele>311.0</ele><time>2026-04-25T15:22:30.977Z</time></trkpt><trkpt lat="43.321064842881604" lon="6.061477119274846"><ele>310.0</ele><time>2026-04-25T15:22:31.977Z</time></trkpt><trkpt lat="43.320978125656886" lon="6.06174740004322"><ele>309.0</ele><time>2026-04-25T15:22:32.977Z</time></trkpt><trkpt lat="43.32088686300618" lon="6.0620245130029415"><ele>308.0</ele><time>2026-04-25T15:22:33.977Z</time></trkpt><trkpt lat="43.32079680390384" lon="6.06231680592587"><ele>308.5</ele><time>2026-04-25T15:22:34.977Z</time></trkpt><trkpt lat="43.320710614687684" lon="6.06261039066049"><ele>309.0</ele><time>2026-04-25T15:22:35.977Z</time></trkpt><trkpt lat="43.320646709438044" lon="6.0629134618173035"><ele>309.0</ele><time>2026-04-25T15:22:36.977Z</time></trkpt><trkpt lat="43.320610156075624" lon="6.063221579021804"><ele>309.0</ele><time>2026-04-25T15:22:37.977Z</time></trkpt><trkpt lat="43.320576677999256" lon="6.06353678514273"><ele>310.0</ele><time>2026-04-25T15:22:38.977Z</time></trkpt><trkpt lat="43.32052850090013" lon="6.063850630660255"><ele>311.0</ele><time>2026-04-25T15:22:39.977Z</time></trkpt><trkpt lat="43.32046303107876" lon="6.064155918244875"><ele>311.0</ele><time>2026-04-25T15:22:40.977Z</time></trkpt><trkpt lat="43.320380121178346" lon="6.064457128814519"><ele>311.0</ele><time>2026-04-25T15:22:41.977Z</time></trkpt><trkpt lat="43.320290626536575" lon="6.064764077298643"><ele>311.5</ele><time>2026-04-25T15:22:42.977Z</time></trkpt><trkpt lat="43.32019973706196" lon="6.065076456680504"><ele>312.0</ele><time>2026-04-25T15:22:43.977Z</time></trkpt><trkpt lat="43.3201151990197" lon="6.065359723414526"><ele>312.0</ele><time>2026-04-25T15:22:44.977Z</time></trkpt><trkpt lat="43.3200312732126" lon="6.065650257856592"><ele>312.0</ele><time>2026-04-25T15:22:45.977Z</time></trkpt><trkpt lat="43.31995040132833" lon="6.065945816967466"><ele>311.5</ele><time>2026-04-25T15:22:46.977Z</time></trkpt><trkpt lat="43.31987263137141" lon="6.066243506213045"><ele>311.0</ele><time>2026-04-25T15:22:47.977Z</time></trkpt><trkpt lat="43.319793858670025" lon="6.06653617268601"><ele>312.0</ele><time>2026-04-25T15:22:48.977Z</time></trkpt><trkpt lat="43.319716648363595" lon="6.066828285358201"><ele>313.0</ele><time>2026-04-25T15:22:49.977Z</time></trkpt><trkpt lat="43.31964164863439" lon="6.0671123856802645"><ele>314.0</ele><time>2026-04-25T15:22:50.977Z</time></trkpt><trkpt lat="43.319566480678354" lon="6.067402444666142"><ele>314.0</ele><time>2026-04-25T15:22:51.977Z</time></trkpt><trkpt lat="43.31948634201664" lon="6.067685998704046"><ele>314.0</ele><time>2026-04-25T15:22:52.977Z</time></trkpt><trkpt lat="43.31940169979174" lon="6.067966261076847"><ele>314.0</ele><time>2026-04-25T15:22:53.977Z</time></trkpt><trkpt lat="43.31931396565879" lon="6.0682448056339995"><ele>314.33333333333337</ele><time>2026-04-25T15:22:54.977Z</time></trkpt><trkpt lat="43.31922230692991" lon="6.068527697524932"><ele>314.6666666666667</ele><time>2026-04-25T15:22:55.977Z</time></trkpt><trkpt lat="43.319124673858326" lon="6.068801544137515"><ele>315.0</ele><time>2026-04-25T15:22:56.977Z</time></trkpt><trkpt lat="43.31902914934945" lon="6.069078030595213"><ele>315.0</ele><time>2026-04-25T15:22:57.977Z</time></trkpt><trkpt lat="43.318934894522265" lon="6.06934957314697"><ele>315.0</ele><time>2026-04-25T15:22:58.977Z</time></trkpt><trkpt lat="43.31884134643451" lon="6.069623156268158"><ele>315.0</ele><time>2026-04-25T15:22:59.977Z</time></trkpt><trkpt lat="43.318747690519686" lon="6.069886481149726"><ele>320.0</ele><time>2026-04-25T15:23:00.977Z</time></trkpt><trkpt lat="43.31865300574345" lon="6.0701459582878"><ele>325.0</ele><time>2026-04-25T15:23:01.977Z</time></trkpt><trkpt lat="43.31856865138838" lon="6.07039556854608"><ele>330.0</ele><time>2026-04-25T15:23:02.977Z</time></trkpt><trkpt lat="43.31848417747925" lon="6.070636429615017"><ele>328.0</ele><time>2026-04-25T15:23:03.977Z</time></trkpt><trkpt lat="43.318399133559375" lon="6.070887784025138"><ele>326.0</ele><time>2026-04-25T15:23:04.977Z</time></trkpt><trkpt lat="43.31831351398198" lon="6.071136984272837"><ele>324.0</ele><time>2026-04-25T15:23:05.977Z</time></trkpt><trkpt lat="43.31822799472077" lon="6.071368173308964"><ele>324.0</ele><time>2026-04-25T15:23:06.977Z</time></trkpt><trkpt lat="43.318153188311776" lon="6.07159570853107"><ele>324.0</ele><time>2026-04-25T15:23:07.976Z</time></trkpt><trkpt lat="43.318079344377786" lon="6.071809514230489"><ele>324.0</ele><time>2026-04-25T15:23:08.976Z</time></trkpt><trkpt lat="43.31801488794309" lon="6.07200810900045"><ele>326.5</ele><time>2026-04-25T15:23:09.976Z</time></trkpt><trkpt lat="43.31795310946357" lon="6.072192363711491"><ele>329.0</ele><time>2026-04-25T15:23:10.976Z</time></trkpt><trkpt lat="43.31789367802257" lon="6.072364203766999"><ele>331.5</ele><time>2026-04-25T15:23:11.976Z</time></trkpt><trkpt lat="43.317833897348144" lon="6.072534898907675"><ele>334.0</ele><time>2026-04-25T15:23:12.976Z</time></trkpt><trkpt lat="43.31777417774308" lon="6.072697252824854"><ele>334.0</ele><time>2026-04-25T15:23:13.976Z</time></trkpt><trkpt lat="43.317718293464715" lon="6.072856184614921"><ele>334.0</ele><time>2026-04-25T15:23:14.976Z</time></trkpt><trkpt lat="43.31766925053848" lon="6.073021650166971"><ele>334.0</ele><time>2026-04-25T15:23:15.976Z</time></trkpt><trkpt lat="43.31762232227689" lon="6.073196360479295"><ele>334.0</ele><time>2026-04-25T15:23:16.976Z</time></trkpt><trkpt lat="43.31756875182638" lon="6.073368272260023"><ele>332.25</ele><time>2026-04-25T15:23:17.976Z</time></trkpt><trkpt lat="43.31750805410977" lon="6.0735371078014175"><ele>330.5</ele><time>2026-04-25T15:23:18.976Z</time></trkpt><trkpt lat="43.31745043217051" lon="6.073698626833863"><ele>328.75</ele><time>2026-04-25T15:23:19.976Z</time></trkpt><trkpt lat="43.317386285666004" lon="6.073858116171341"><ele>327.0</ele><time>2026-04-25T15:23:20.976Z</time></trkpt><trkpt lat="43.317315747021375" lon="6.07400265158455"><ele>327.0</ele><time>2026-04-25T15:23:21.976Z</time></trkpt><trkpt lat="43.31723916667529" lon="6.074139326777963"><ele>327.0</ele><time>2026-04-25T15:23:22.976Z</time></trkpt><trkpt lat="43.317171069434785" lon="6.074245700060549"><ele>327.0</ele><time>2026-04-25T15:23:23.976Z</time></trkpt><trkpt lat="43.317109847080374" lon="6.074341157179648"><ele>327.0</ele><time>2026-04-25T15:23:24.976Z</time></trkpt><trkpt lat="43.31705594134236" lon="6.074424586803828"><ele>327.0</ele><time>2026-04-25T15:23:25.976Z</time></trkpt><trkpt lat="43.3169707449554" lon="6.074521910044282"><ele>327.0</ele><time>2026-04-25T15:23:27.976Z</time></trkpt><trkpt lat="43.31690901343957" lon="6.074568678891373"><ele>327.0</ele><time>2026-04-25T15:23:29.976Z</time></trkpt><trkpt lat="43.316848801601274" lon="6.074603686692682"><ele>327.0</ele><time>2026-04-25T15:23:33.976Z</time></trkpt><trkpt lat="43.31676965029455" lon="6.074643244760415"><ele>327.0</ele><time>2026-04-25T15:23:49.976Z</time></trkpt><trkpt lat="43.3166399569169" lon="6.074634818820693"><ele>327.0</ele><time>2026-04-25T15:23:51.976Z</time></trkpt><trkpt lat="43.31655648837801" lon="6.074642198952733"><ele>327.0</ele><time>2026-04-25T15:23:52.976Z</time></trkpt><trkpt lat="43.31647973743593" lon="6.074671855730335"><ele>327.0</ele><time>2026-04-25T15:23:53.976Z</time></trkpt><trkpt lat="43.31641203873759" lon="6.074706236040866"><ele>327.0</ele><time>2026-04-25T15:23:54.976Z</time></trkpt><trkpt lat="43.31633223842644" lon="6.0747071902107415"><ele>327.0</ele><time>2026-04-25T15:23:55.976Z</time></trkpt><trkpt lat="43.316238935121554" lon="6.074679314954804"><ele>327.0</ele><time>2026-04-25T15:23:56.976Z</time></trkpt><trkpt lat="43.31612470633953" lon="6.074624774206985"><ele>327.0</ele><time>2026-04-25T15:23:57.976Z</time></trkpt><trkpt lat="43.31597528953531" lon="6.074545893761516"><ele>327.3333333333333</ele><time>2026-04-25T15:23:58.976Z</time></trkpt><trkpt lat="43.31580593918229" lon="6.074446847290997"><ele>327.66666666666663</ele><time>2026-04-25T15:23:59.976Z</time></trkpt><trkpt lat="43.31562536194407" lon="6.074353936861061"><ele>328.0</ele><time>2026-04-25T15:24:00.976Z</time></trkpt><trkpt lat="43.315433859971854" lon="6.074276648694867"><ele>328.3333333333333</ele><time>2026-04-25T15:24:01.976Z</time></trkpt><trkpt lat="43.31526587768047" lon="6.074209783928673"><ele>328.6666666666667</ele><time>2026-04-25T15:24:02.976Z</time></trkpt><trkpt lat="43.31509323489865" lon="6.074153920057414"><ele>329.0</ele><time>2026-04-25T15:24:03.976Z</time></trkpt><trkpt lat="43.31491013279053" lon="6.074114591502561"><ele>330.33333333333337</ele><time>2026-04-25T15:24:04.976Z</time></trkpt><trkpt lat="43.31471912692643" lon="6.074094462731737"><ele>331.6666666666667</ele><time>2026-04-25T15:24:05.976Z</time></trkpt><trkpt lat="43.314520906979915" lon="6.074093355655432"><ele>333.0</ele><time>2026-04-25T15:24:06.976Z</time></trkpt><trkpt lat="43.3143282748512" lon="6.074108818781586"><ele>333.0</ele><time>2026-04-25T15:24:07.976Z</time></trkpt><trkpt lat="43.31412822044484" lon="6.0741350671689815"><ele>333.0</ele><time>2026-04-25T15:24:08.976Z</time></trkpt><trkpt lat="43.3139263285956" lon="6.07419149552624"><ele>333.0</ele><time>2026-04-25T15:24:09.976Z</time></trkpt><trkpt lat="43.31372502816068" lon="6.074274457770823"><ele>335.6666666666667</ele><time>2026-04-25T15:24:10.976Z</time></trkpt><trkpt lat="43.31353281627374" lon="6.074363476764713"><ele>338.33333333333337</ele><time>2026-04-25T15:24:11.976Z</time></trkpt><trkpt lat="43.313349812965185" lon="6.074468639136701"><ele>341.0</ele><time>2026-04-25T15:24:12.976Z</time></trkpt><trkpt lat="43.313170494300486" lon="6.074578769100568"><ele>343.33333333333337</ele><time>2026-04-25T15:24:13.976Z</time></trkpt><trkpt lat="43.3129954153897" lon="6.074698374977352"><ele>345.6666666666667</ele><time>2026-04-25T15:24:14.976Z</time></trkpt><trkpt lat="43.31282366667896" lon="6.074825944991793"><ele>348.0</ele><time>2026-04-25T15:24:15.976Z</time></trkpt><trkpt lat="43.31264836249088" lon="6.074952480774038"><ele>348.0</ele><time>2026-04-25T15:24:16.976Z</time></trkpt><trkpt lat="43.312475358268365" lon="6.075081814150629"><ele>348.0</ele><time>2026-04-25T15:24:17.976Z</time></trkpt><trkpt lat="43.31230430164043" lon="6.0752067909021985"><ele>348.0</ele><time>2026-04-25T15:24:18.976Z</time></trkpt><trkpt lat="43.31213698577808" lon="6.075328535412633"><ele>352.3333333333333</ele><time>2026-04-25T15:24:19.976Z</time></trkpt><trkpt lat="43.31196933251548" lon="6.075442925612796"><ele>356.66666666666663</ele><time>2026-04-25T15:24:20.976Z</time></trkpt><trkpt lat="43.311805025465716" lon="6.075559300943197"><ele>361.0</ele><time>2026-04-25T15:24:21.976Z</time></trkpt><trkpt lat="43.31163433266113" lon="6.075656966451093"><ele>361.0</ele><time>2026-04-25T15:24:22.976Z</time></trkpt><trkpt lat="43.311454590257995" lon="6.075741616853907"><ele>361.0</ele><time>2026-04-25T15:24:23.976Z</time></trkpt><trkpt lat="43.311271165063474" lon="6.075821781117126"><ele>361.0</ele><time>2026-04-25T15:24:24.976Z</time></trkpt><trkpt lat="43.31108641514681" lon="6.075906971742884"><ele>359.3333333333333</ele><time>2026-04-25T15:24:25.976Z</time></trkpt><trkpt lat="43.310897916564926" lon="6.075986740367355"><ele>357.6666666666667</ele><time>2026-04-25T15:24:26.976Z</time></trkpt><trkpt lat="43.310720623841206" lon="6.076073885227275"><ele>356.0</ele><time>2026-04-25T15:24:27.976Z</time></trkpt><trkpt lat="43.31054646556057" lon="6.076107298399676"><ele>353.33333333333337</ele><time>2026-04-25T15:24:28.976Z</time></trkpt><trkpt lat="43.31035044948987" lon="6.076140378418484"><ele>350.6666666666667</ele><time>2026-04-25T15:24:29.976Z</time></trkpt><trkpt lat="43.31013909141933" lon="6.07616241868621"><ele>348.0</ele><time>2026-04-25T15:24:30.976Z</time></trkpt><trkpt lat="43.30993526385634" lon="6.076163470001462"><ele>346.0</ele><time>2026-04-25T15:24:31.976Z</time></trkpt><trkpt lat="43.30973607086102" lon="6.0761483389638"><ele>344.0</ele><time>2026-04-25T15:24:32.976Z</time></trkpt><trkpt lat="43.3095299186054" lon="6.076123683057592"><ele>342.0</ele><time>2026-04-25T15:24:33.976Z</time></trkpt><trkpt lat="43.30933677164612" lon="6.076097621780886"><ele>342.0</ele><time>2026-04-25T15:24:34.976Z</time></trkpt><trkpt lat="43.309134316771726" lon="6.076058345170463"><ele>342.0</ele><time>2026-04-25T15:24:35.976Z</time></trkpt><trkpt lat="43.308932632712754" lon="6.076011635086735"><ele>342.0</ele><time>2026-04-25T15:24:36.976Z</time></trkpt><trkpt lat="43.30873457883347" lon="6.075960800110145"><ele>342.6666666666667</ele><time>2026-04-25T15:24:37.976Z</time></trkpt><trkpt lat="43.30852496230259" lon="6.075901415877436"><ele>343.33333333333337</ele><time>2026-04-25T15:24:38.976Z</time></trkpt><trkpt lat="43.308311358717845" lon="6.0758405487976805"><ele>344.0</ele><time>2026-04-25T15:24:39.976Z</time></trkpt><trkpt lat="43.308091898403056" lon="6.075788489761182"><ele>341.6666666666667</ele><time>2026-04-25T15:24:40.976Z</time></trkpt><trkpt lat="43.30786995804212" lon="6.075733026097227"><ele>339.3333333333333</ele><time>2026-04-25T15:24:41.976Z</time></trkpt><trkpt lat="43.30765530181059" lon="6.075677973241018"><ele>337.0</ele><time>2026-04-25T15:24:42.976Z</time></trkpt><trkpt lat="43.30745032638987" lon="6.075624003452197"><ele>337.0</ele><time>2026-04-25T15:24:43.976Z</time></trkpt><trkpt lat="43.30724815339822" lon="6.075566466569975"><ele>337.0</ele><time>2026-04-25T15:24:44.976Z</time></trkpt><trkpt lat="43.30705675800599" lon="6.07552538409892"><ele>337.0</ele><time>2026-04-25T15:24:45.976Z</time></trkpt><trkpt lat="43.30686670243977" lon="6.075476590340443"><ele>337.66666666666663</ele><time>2026-04-25T15:24:46.976Z</time></trkpt><trkpt lat="43.30667895272063" lon="6.0754233951587"><ele>338.3333333333333</ele><time>2026-04-25T15:24:47.976Z</time></trkpt><trkpt lat="43.30650695245958" lon="6.075375943603158"><ele>339.0</ele><time>2026-04-25T15:24:48.976Z</time></trkpt><trkpt lat="43.306328917458735" lon="6.075319796982055"><ele>339.0</ele><time>2026-04-25T15:24:49.976Z</time></trkpt><trkpt lat="43.306161562332626" lon="6.075267461885783"><ele>339.0</ele><time>2026-04-25T15:24:50.976Z</time></trkpt><trkpt lat="43.30598901512736" lon="6.0752114430211375"><ele>339.0</ele><time>2026-04-25T15:24:51.976Z</time></trkpt><trkpt lat="43.305817747800305" lon="6.075159285265754"><ele>339.0</ele><time>2026-04-25T15:24:52.975Z</time></trkpt><trkpt lat="43.3056533633748" lon="6.075116022184585"><ele>339.0</ele><time>2026-04-25T15:24:53.975Z</time></trkpt><trkpt lat="43.30548675452151" lon="6.075067489527235"><ele>339.0</ele><time>2026-04-25T15:24:54.975Z</time></trkpt><trkpt lat="43.305315833057485" lon="6.075019535660656"><ele>338.3333333333333</ele><time>2026-04-25T15:24:55.976Z</time></trkpt><trkpt lat="43.30513807249473" lon="6.074951275180468"><ele>337.66666666666663</ele><time>2026-04-25T15:24:56.976Z</time></trkpt><trkpt lat="43.30497081042246" lon="6.074853250191397"><ele>337.0</ele><time>2026-04-25T15:24:57.976Z</time></trkpt><trkpt lat="43.30479623758236" lon="6.074719459299749"><ele>337.0</ele><time>2026-04-25T15:24:58.976Z</time></trkpt><trkpt lat="43.30462514219323" lon="6.074566615808862"><ele>337.0</ele><time>2026-04-25T15:24:59.976Z</time></trkpt><trkpt lat="43.30446942342378" lon="6.074381897678756"><ele>337.0</ele><time>2026-04-25T15:25:00.976Z</time></trkpt><trkpt lat="43.304331114617035" lon="6.074176059101917"><ele>338.66666666666663</ele><time>2026-04-25T15:25:01.976Z</time></trkpt><trkpt lat="43.304220009649256" lon="6.07396964997375"><ele>340.3333333333333</ele><time>2026-04-25T15:25:02.976Z</time></trkpt><trkpt lat="43.30411837633937" lon="6.073742521804825"><ele>342.0</ele><time>2026-04-25T15:25:03.976Z</time></trkpt><trkpt lat="43.304041791717886" lon="6.073517697798739"><ele>342.0</ele><time>2026-04-25T15:25:04.976Z</time></trkpt><trkpt lat="43.30399725883843" lon="6.073284647626643"><ele>342.0</ele><time>2026-04-25T15:25:05.976Z</time></trkpt><trkpt lat="43.30396209080431" lon="6.073039383821452"><ele>342.0</ele><time>2026-04-25T15:25:06.976Z</time></trkpt><trkpt lat="43.30393845954929" lon="6.072793326229737"><ele>346.3333333333333</ele><time>2026-04-25T15:25:07.976Z</time></trkpt><trkpt lat="43.30391128023953" lon="6.072532818069089"><ele>350.66666666666663</ele><time>2026-04-25T15:25:08.976Z</time></trkpt><trkpt lat="43.30390865462186" lon="6.072267308266066"><ele>355.0</ele><time>2026-04-25T15:25:09.975Z</time></trkpt><trkpt lat="43.303883477511214" lon="6.072013044685247"><ele>355.66666666666663</ele><time>2026-04-25T15:25:10.975Z</time></trkpt><trkpt lat="43.30385796102786" lon="6.071763705540082"><ele>356.3333333333333</ele><time>2026-04-25T15:25:11.975Z</time></trkpt><trkpt lat="43.30384848586571" lon="6.071501784929767"><ele>357.0</ele><time>2026-04-25T15:25:12.975Z</time></trkpt><trkpt lat="43.303833029525386" lon="6.07124433925506"><ele>357.6666666666667</ele><time>2026-04-25T15:25:13.975Z</time></trkpt><trkpt lat="43.30380179067736" lon="6.070991080607976"><ele>358.33333333333337</ele><time>2026-04-25T15:25:14.975Z</time></trkpt><trkpt lat="43.30378181935883" lon="6.07073998784294"><ele>359.0</ele><time>2026-04-25T15:25:15.975Z</time></trkpt><trkpt lat="43.30374050831442" lon="6.070504371234751"><ele>360.0</ele><time>2026-04-25T15:25:16.975Z</time></trkpt><trkpt lat="43.30366026450272" lon="6.0702831462406115"><ele>361.0</ele><time>2026-04-25T15:25:17.975Z</time></trkpt><trkpt lat="43.303568251663826" lon="6.070069000381856"><ele>362.0</ele><time>2026-04-25T15:25:18.975Z</time></trkpt><trkpt lat="43.30345789738674" lon="6.069884668969602"><ele>362.0</ele><time>2026-04-25T15:25:19.975Z</time></trkpt><trkpt lat="43.303320024447515" lon="6.069746668923373"><ele>362.0</ele><time>2026-04-25T15:25:20.975Z</time></trkpt><trkpt lat="43.303166086473546" lon="6.069628545704424"><ele>362.0</ele><time>2026-04-25T15:25:21.975Z</time></trkpt><trkpt lat="43.30301267432949" lon="6.069542663660555"><ele>362.0</ele><time>2026-04-25T15:25:22.975Z</time></trkpt><trkpt lat="43.30285050748581" lon="6.069490048120772"><ele>362.0</ele><time>2026-04-25T15:25:23.975Z</time></trkpt><trkpt lat="43.302683860398574" lon="6.069481579748008"><ele>362.0</ele><time>2026-04-25T15:25:24.975Z</time></trkpt><trkpt lat="43.30251348246148" lon="6.069504281437093"><ele>362.0</ele><time>2026-04-25T15:25:25.975Z</time></trkpt><trkpt lat="43.30234335946573" lon="6.069554639235521"><ele>362.0</ele><time>2026-04-25T15:25:26.975Z</time></trkpt><trkpt lat="43.30217886547909" lon="6.069638879544339"><ele>362.0</ele><time>2026-04-25T15:25:27.975Z</time></trkpt><trkpt lat="43.30202612822245" lon="6.069763138833843"><ele>361.0</ele><time>2026-04-25T15:25:28.975Z</time></trkpt><trkpt lat="43.30186745011356" lon="6.069920961682499"><ele>360.0</ele><time>2026-04-25T15:25:29.975Z</time></trkpt><trkpt lat="43.301684106711534" lon="6.070087126007067"><ele>359.0</ele><time>2026-04-25T15:25:30.975Z</time></trkpt><trkpt lat="43.30149136946753" lon="6.070264891105349"><ele>357.0</ele><time>2026-04-25T15:25:31.975Z</time></trkpt><trkpt lat="43.30131937209612" lon="6.070449870489757"><ele>355.0</ele><time>2026-04-25T15:25:32.975Z</time></trkpt><trkpt lat="43.301163361799496" lon="6.07063831732509"><ele>353.0</ele><time>2026-04-25T15:25:33.975Z</time></trkpt><trkpt lat="43.301014328740735" lon="6.070823625856963"><ele>353.0</ele><time>2026-04-25T15:25:34.975Z</time></trkpt><trkpt lat="43.300876296496455" lon="6.071013588859521"><ele>353.0</ele><time>2026-04-25T15:25:35.975Z</time></trkpt><trkpt lat="43.300745678980064" lon="6.071214045591319"><ele>353.0</ele><time>2026-04-25T15:25:36.975Z</time></trkpt><trkpt lat="43.300617438199666" lon="6.071417249985608"><ele>349.0</ele><time>2026-04-25T15:25:37.975Z</time></trkpt><trkpt lat="43.30049110331226" lon="6.071624015168947"><ele>345.0</ele><time>2026-04-25T15:25:38.975Z</time></trkpt><trkpt lat="43.30037406273559" lon="6.07182987497338"><ele>341.0</ele><time>2026-04-25T15:25:39.975Z</time></trkpt><trkpt lat="43.30027880228002" lon="6.072047542065383"><ele>341.0</ele><time>2026-04-25T15:25:40.975Z</time></trkpt><trkpt lat="43.30018271778359" lon="6.072273675058461"><ele>341.0</ele><time>2026-04-25T15:25:41.975Z</time></trkpt><trkpt lat="43.30007540883815" lon="6.07248826464684"><ele>341.0</ele><time>2026-04-25T15:25:42.975Z</time></trkpt><trkpt lat="43.29996774054492" lon="6.072691516995405"><ele>339.6666666666667</ele><time>2026-04-25T15:25:43.975Z</time></trkpt><trkpt lat="43.29985059473383" lon="6.0728852579604276"><ele>338.3333333333333</ele><time>2026-04-25T15:25:44.975Z</time></trkpt><trkpt lat="43.299703897278874" lon="6.073048986807893"><ele>337.0</ele><time>2026-04-25T15:25:45.975Z</time></trkpt><trkpt lat="43.2995338524276" lon="6.073182183804826"><ele>339.66666666666663</ele><time>2026-04-25T15:25:46.975Z</time></trkpt><trkpt lat="43.29935580734106" lon="6.073282718566216"><ele>342.3333333333333</ele><time>2026-04-25T15:25:47.975Z</time></trkpt><trkpt lat="43.29916216786036" lon="6.073350060204612"><ele>345.0</ele><time>2026-04-25T15:25:48.975Z</time></trkpt><trkpt lat="43.29895954886451" lon="6.073382754158375"><ele>342.0</ele><time>2026-04-25T15:25:49.975Z</time></trkpt><trkpt lat="43.29875846204717" lon="6.0733728546569505"><ele>339.0</ele><time>2026-04-25T15:25:50.975Z</time></trkpt><trkpt lat="43.29856306239764" lon="6.073319231280249"><ele>336.0</ele><time>2026-04-25T15:25:51.975Z</time></trkpt><trkpt lat="43.29837592212661" lon="6.073228863098267"><ele>335.6666666666667</ele><time>2026-04-25T15:25:52.975Z</time></trkpt><trkpt lat="43.29819945934235" lon="6.073097722465708"><ele>335.33333333333337</ele><time>2026-04-25T15:25:53.975Z</time></trkpt><trkpt lat="43.29803926507636" lon="6.072945239907503"><ele>335.0</ele><time>2026-04-25T15:25:54.975Z</time></trkpt><trkpt lat="43.297885546978705" lon="6.0727900428789345"><ele>335.0</ele><time>2026-04-25T15:25:55.975Z</time></trkpt><trkpt lat="43.29774043841049" lon="6.072636994110946"><ele>335.0</ele><time>2026-04-25T15:25:56.975Z</time></trkpt><trkpt lat="43.297606729554325" lon="6.072489604161975"><ele>335.0</ele><time>2026-04-25T15:25:57.975Z</time></trkpt><trkpt lat="43.2974739780957" lon="6.072345465679333"><ele>335.33333333333337</ele><time>2026-04-25T15:25:58.975Z</time></trkpt><trkpt lat="43.29734179411705" lon="6.0722082007616045"><ele>335.6666666666667</ele><time>2026-04-25T15:25:59.975Z</time></trkpt><trkpt lat="43.29720645518256" lon="6.072065283219011"><ele>336.0</ele><time>2026-04-25T15:26:00.975Z</time></trkpt><trkpt lat="43.29706208311069" lon="6.071916458256275"><ele>336.3333333333333</ele><time>2026-04-25T15:26:01.975Z</time></trkpt><trkpt lat="43.29690862466579" lon="6.071764938520021"><ele>336.66666666666663</ele><time>2026-04-25T15:26:02.975Z</time></trkpt><trkpt lat="43.29673892889488" lon="6.071619170684222"><ele>337.0</ele><time>2026-04-25T15:26:03.975Z</time></trkpt><trkpt lat="43.29657161619804" lon="6.071500047889853"><ele>340.3333333333333</ele><time>2026-04-25T15:26:04.975Z</time></trkpt><trkpt lat="43.2964052907637" lon="6.071421917032383"><ele>343.6666666666667</ele><time>2026-04-25T15:26:05.975Z</time></trkpt><trkpt lat="43.29623100937639" lon="6.071388931190502"><ele>347.0</ele><time>2026-04-25T15:26:06.975Z</time></trkpt><trkpt lat="43.296054984185496" lon="6.071389138677229"><ele>347.0</ele><time>2026-04-25T15:26:07.975Z</time></trkpt><trkpt lat="43.295865247350235" lon="6.071404960260787"><ele>347.0</ele><time>2026-04-25T15:26:08.975Z</time></trkpt><trkpt lat="43.29567022609874" lon="6.071474308648511"><ele>347.0</ele><time>2026-04-25T15:26:09.975Z</time></trkpt><trkpt lat="43.29547206767435" lon="6.071568848390795"><ele>350.5</ele><time>2026-04-25T15:26:10.975Z</time></trkpt><trkpt lat="43.29526554386174" lon="6.07167932977466"><ele>354.0</ele><time>2026-04-25T15:26:11.975Z</time></trkpt><trkpt lat="43.29504898709137" lon="6.071817246759985"><ele>354.0</ele><time>2026-04-25T15:26:12.975Z</time></trkpt><trkpt lat="43.29481860223707" lon="6.071952833738278"><ele>354.0</ele><time>2026-04-25T15:26:13.975Z</time></trkpt><trkpt lat="43.29457983592249" lon="6.0720931465545505"><ele>363.5</ele><time>2026-04-25T15:26:14.975Z</time></trkpt><trkpt lat="43.29433791294955" lon="6.072233075930766"><ele>373.0</ele><time>2026-04-25T15:26:15.975Z</time></trkpt><trkpt lat="43.294100665588715" lon="6.072351076496935"><ele>378.0</ele><time>2026-04-25T15:26:16.975Z</time></trkpt><trkpt lat="43.29387623396355" lon="6.072432197715048"><ele>383.0</ele><time>2026-04-25T15:26:17.975Z</time></trkpt><trkpt lat="43.293648051413754" lon="6.072471401043681"><ele>383.0</ele><time>2026-04-25T15:26:18.975Z</time></trkpt><trkpt lat="43.29342309180815" lon="6.072465712164611"><ele>383.0</ele><time>2026-04-25T15:26:19.975Z</time></trkpt><trkpt lat="43.29320762249297" lon="6.072412485591813"><ele>383.0</ele><time>2026-04-25T15:26:20.975Z</time></trkpt><trkpt lat="43.29301677185663" lon="6.072311060877041"><ele>378.0</ele><time>2026-04-25T15:26:21.975Z</time></trkpt><trkpt lat="43.29285566697171" lon="6.072155845589418"><ele>373.0</ele><time>2026-04-25T15:26:22.975Z</time></trkpt><trkpt lat="43.292715526616036" lon="6.071962454736744"><ele>368.0</ele><time>2026-04-25T15:26:23.975Z</time></trkpt><trkpt lat="43.29260480587945" lon="6.071735082212851"><ele>372.33333333333337</ele><time>2026-04-25T15:26:24.975Z</time></trkpt><trkpt lat="43.2925360469431" lon="6.071483510391993"><ele>376.6666666666667</ele><time>2026-04-25T15:26:25.975Z</time></trkpt><trkpt lat="43.2924785443673" lon="6.0712194241356645"><ele>381.0</ele><time>2026-04-25T15:26:26.975Z</time></trkpt><trkpt lat="43.29243075548443" lon="6.070937093286839"><ele>380.6666666666667</ele><time>2026-04-25T15:26:27.975Z</time></trkpt><trkpt lat="43.29238370385878" lon="6.070639274228041"><ele>380.33333333333337</ele><time>2026-04-25T15:26:28.975Z</time></trkpt><trkpt lat="43.2923127758678" lon="6.070350525056337"><ele>380.0</ele><time>2026-04-25T15:26:29.975Z</time></trkpt><trkpt lat="43.292208153798306" lon="6.070099180308029"><ele>381.6666666666667</ele><time>2026-04-25T15:26:30.975Z</time></trkpt><trkpt lat="43.292093828835156" lon="6.069891842127705"><ele>383.33333333333337</ele><time>2026-04-25T15:26:31.975Z</time></trkpt><trkpt lat="43.291956815014395" lon="6.069707594940676"><ele>385.0</ele><time>2026-04-25T15:26:32.975Z</time></trkpt><trkpt lat="43.291793650588716" lon="6.069554453512697"><ele>385.0</ele><time>2026-04-25T15:26:33.975Z</time></trkpt><trkpt lat="43.2916082007763" lon="6.0694265509244865"><ele>385.0</ele><time>2026-04-25T15:26:34.975Z</time></trkpt><trkpt lat="43.291407158599064" lon="6.06933071970409"><ele>385.0</ele><time>2026-04-25T15:26:35.975Z</time></trkpt><trkpt lat="43.29120392583898" lon="6.069276795244817"><ele>386.33333333333337</ele><time>2026-04-25T15:26:36.975Z</time></trkpt><trkpt lat="43.29100011969368" lon="6.0692605078389965"><ele>387.66666666666663</ele><time>2026-04-25T15:26:37.975Z</time></trkpt><trkpt lat="43.290786558273304" lon="6.069278700284211"><ele>389.0</ele><time>2026-04-25T15:26:38.975Z</time></trkpt><trkpt lat="43.29056282864389" lon="6.069316068347675"><ele>395.0</ele><time>2026-04-25T15:26:39.975Z</time></trkpt><trkpt lat="43.29032858648296" lon="6.069351140103921"><ele>401.0</ele><time>2026-04-25T15:26:40.975Z</time></trkpt><trkpt lat="43.29008923638163" lon="6.0693845211552535"><ele>401.0</ele><time>2026-04-25T15:26:41.975Z</time></trkpt><trkpt lat="43.28985309097871" lon="6.069411606146774"><ele>401.0</ele><time>2026-04-25T15:26:42.975Z</time></trkpt><trkpt lat="43.289617142115155" lon="6.069420864271059"><ele>405.0</ele><time>2026-04-25T15:26:43.975Z</time></trkpt><trkpt lat="43.28938536256266" lon="6.069397115844281"><ele>409.0</ele><time>2026-04-25T15:26:44.975Z</time></trkpt><trkpt lat="43.28915887890868" lon="6.069351220092992"><ele>409.0</ele><time>2026-04-25T15:26:45.975Z</time></trkpt><trkpt lat="43.28893626005692" lon="6.069289639090056"><ele>409.0</ele><time>2026-04-25T15:26:46.975Z</time></trkpt><trkpt lat="43.288725335034705" lon="6.069207219638534"><ele>409.0</ele><time>2026-04-25T15:26:47.975Z</time></trkpt><trkpt lat="43.28852828391596" lon="6.069128187507209"><ele>413.6666666666667</ele><time>2026-04-25T15:26:48.975Z</time></trkpt><trkpt lat="43.28834879116784" lon="6.069059543246939"><ele>418.33333333333337</ele><time>2026-04-25T15:26:49.975Z</time></trkpt><trkpt lat="43.28818022676074" lon="6.068997967801679"><ele>423.0</ele><time>2026-04-25T15:26:50.975Z</time></trkpt><trkpt lat="43.28800616021603" lon="6.068941598792848"><ele>423.33333333333337</ele><time>2026-04-25T15:26:51.975Z</time></trkpt><trkpt lat="43.287834262732765" lon="6.068898977487927"><ele>423.6666666666667</ele><time>2026-04-25T15:26:52.975Z</time></trkpt><trkpt lat="43.28765852146997" lon="6.068893274876176"><ele>424.0</ele><time>2026-04-25T15:26:53.975Z</time></trkpt><trkpt lat="43.287481385229334" lon="6.068931956595244"><ele>424.0</ele><time>2026-04-25T15:26:54.975Z</time></trkpt><trkpt lat="43.287308036247595" lon="6.068996658670322"><ele>424.0</ele><time>2026-04-25T15:26:55.975Z</time></trkpt><trkpt lat="43.28714016351244" lon="6.069091330377473"><ele>424.0</ele><time>2026-04-25T15:26:56.975Z</time></trkpt><trkpt lat="43.286994138965696" lon="6.0692341478861"><ele>424.0</ele><time>2026-04-25T15:26:57.975Z</time></trkpt><trkpt lat="43.286866743288584" lon="6.06939752394537"><ele>424.0</ele><time>2026-04-25T15:26:58.975Z</time></trkpt><trkpt lat="43.28674112826923" lon="6.069556654242726"><ele>424.0</ele><time>2026-04-25T15:26:59.975Z</time></trkpt><trkpt lat="43.286617856735795" lon="6.069705196378245"><ele>424.0</ele><time>2026-04-25T15:27:00.975Z</time></trkpt><trkpt lat="43.28649056627688" lon="6.069856108871637"><ele>424.0</ele><time>2026-04-25T15:27:01.976Z</time></trkpt><trkpt lat="43.28636107263651" lon="6.070011651454534"><ele>424.0</ele><time>2026-04-25T15:27:02.976Z</time></trkpt><trkpt lat="43.28623318458428" lon="6.070166058849684"><ele>422.0</ele><time>2026-04-25T15:27:03.976Z</time></trkpt><trkpt lat="43.28611081337338" lon="6.070313573460596"><ele>420.0</ele><time>2026-04-25T15:27:04.976Z</time></trkpt><trkpt lat="43.28598323669781" lon="6.0704458882845165"><ele>418.0</ele><time>2026-04-25T15:27:05.976Z</time></trkpt><trkpt lat="43.285862741651265" lon="6.070580004590254"><ele>418.0</ele><time>2026-04-25T15:27:06.976Z</time></trkpt><trkpt lat="43.2857516331098" lon="6.070724980912364"><ele>418.0</ele><time>2026-04-25T15:27:07.976Z</time></trkpt><trkpt lat="43.2856315696318" lon="6.070876998962493"><ele>418.0</ele><time>2026-04-25T15:27:08.976Z</time></trkpt><trkpt lat="43.285506220665" lon="6.071025929144612"><ele>414.33333333333337</ele><time>2026-04-25T15:27:09.976Z</time></trkpt><trkpt lat="43.28537355059196" lon="6.071172330535075"><ele>410.66666666666663</ele><time>2026-04-25T15:27:10.976Z</time></trkpt><trkpt lat="43.285241687951356" lon="6.071314183043597"><ele>407.0</ele><time>2026-04-25T15:27:11.975Z</time></trkpt><trkpt lat="43.28510919316103" lon="6.07144752108065"><ele>407.0</ele><time>2026-04-25T15:27:12.975Z</time></trkpt><trkpt lat="43.28497356662519" lon="6.07158405371673"><ele>407.0</ele><time>2026-04-25T15:27:13.975Z</time></trkpt><trkpt lat="43.28483072823184" lon="6.07172184770089"><ele>407.0</ele><time>2026-04-25T15:27:14.976Z</time></trkpt><trkpt lat="43.28467516541664" lon="6.07185253979859"><ele>403.66666666666663</ele><time>2026-04-25T15:27:15.976Z</time></trkpt><trkpt lat="43.28451623222633" lon="6.07198291426207"><ele>400.33333333333337</ele><time>2026-04-25T15:27:16.976Z</time></trkpt><trkpt lat="43.28435524382489" lon="6.072110278737669"><ele>397.0</ele><time>2026-04-25T15:27:17.976Z</time></trkpt><trkpt lat="43.28419125713892" lon="6.0722422258223245"><ele>397.0</ele><time>2026-04-25T15:27:18.976Z</time></trkpt><trkpt lat="43.28402230565248" lon="6.072374305553843"><ele>397.0</ele><time>2026-04-25T15:27:19.976Z</time></trkpt><trkpt lat="43.283851360057305" lon="6.072511206519196"><ele>397.0</ele><time>2026-04-25T15:27:20.976Z</time></trkpt><trkpt lat="43.28367976269838" lon="6.072652033156768"><ele>396.6666666666667</ele><time>2026-04-25T15:27:21.976Z</time></trkpt><trkpt lat="43.28350516811457" lon="6.07278495663397"><ele>396.33333333333337</ele><time>2026-04-25T15:27:22.976Z</time></trkpt><trkpt lat="43.28333264472628" lon="6.072909075103791"><ele>396.0</ele><time>2026-04-25T15:27:23.976Z</time></trkpt><trkpt lat="43.283151077696765" lon="6.073031387756695"><ele>396.66666666666663</ele><time>2026-04-25T15:27:24.976Z</time></trkpt><trkpt lat="43.28296498636631" lon="6.073160431309559"><ele>397.3333333333333</ele><time>2026-04-25T15:27:25.976Z</time></trkpt><trkpt lat="43.28278090305096" lon="6.073294332366269"><ele>398.0</ele><time>2026-04-25T15:27:26.976Z</time></trkpt><trkpt lat="43.282595370367375" lon="6.073424539037728"><ele>398.0</ele><time>2026-04-25T15:27:27.976Z</time></trkpt><trkpt lat="43.282412834517444" lon="6.073538631345943"><ele>398.0</ele><time>2026-04-25T15:27:28.976Z</time></trkpt><trkpt lat="43.282232446446876" lon="6.07363600422016"><ele>398.0</ele><time>2026-04-25T15:27:29.976Z</time></trkpt><trkpt lat="43.282053631281784" lon="6.073723388527666"><ele>392.0</ele><time>2026-04-25T15:27:30.976Z</time></trkpt><trkpt lat="43.281870196372644" lon="6.073765802501488"><ele>386.0</ele><time>2026-04-25T15:27:31.976Z</time></trkpt><trkpt lat="43.28167408880772" lon="6.073783782350613"><ele>380.0</ele><time>2026-04-25T15:27:32.976Z</time></trkpt><trkpt lat="43.28148224662504" lon="6.073777188372313"><ele>380.0</ele><time>2026-04-25T15:27:33.976Z</time></trkpt><trkpt lat="43.2812933860307" lon="6.073734603443059"><ele>380.0</ele><time>2026-04-25T15:27:34.976Z</time></trkpt><trkpt lat="43.281101378926536" lon="6.07365359646149"><ele>380.0</ele><time>2026-04-25T15:27:35.976Z</time></trkpt><trkpt lat="43.2809040972948" lon="6.0735504668236455"><ele>380.0</ele><time>2026-04-25T15:27:36.976Z</time></trkpt><trkpt lat="43.28070737657419" lon="6.073444135289327"><ele>380.0</ele><time>2026-04-25T15:27:37.976Z</time></trkpt><trkpt lat="43.28050219155824" lon="6.0733382593055065"><ele>380.0</ele><time>2026-04-25T15:27:38.976Z</time></trkpt><trkpt lat="43.280293555979924" lon="6.073248314007582"><ele>373.0</ele><time>2026-04-25T15:27:39.976Z</time></trkpt><trkpt lat="43.28008067346929" lon="6.073183791046506"><ele>366.0</ele><time>2026-04-25T15:27:40.976Z</time></trkpt><trkpt lat="43.279874414221155" lon="6.073160195540444"><ele>359.0</ele><time>2026-04-25T15:27:41.976Z</time></trkpt><trkpt lat="43.27966897336497" lon="6.073171593516662"><ele>356.0</ele><time>2026-04-25T15:27:42.976Z</time></trkpt><trkpt lat="43.2794540976343" lon="6.0731861241886795"><ele>353.0</ele><time>2026-04-25T15:27:43.976Z</time></trkpt><trkpt lat="43.27924875277922" lon="6.073208054027886"><ele>350.0</ele><time>2026-04-25T15:27:44.976Z</time></trkpt><trkpt lat="43.27904138027157" lon="6.073229347841249"><ele>349.33333333333337</ele><time>2026-04-25T15:27:45.976Z</time></trkpt><trkpt lat="43.27883253493141" lon="6.0732491514167695"><ele>348.6666666666667</ele><time>2026-04-25T15:27:46.976Z</time></trkpt><trkpt lat="43.278621225988594" lon="6.073262352448493"><ele>348.0</ele><time>2026-04-25T15:27:47.976Z</time></trkpt><trkpt lat="43.27841716368758" lon="6.073272794193182"><ele>346.6666666666667</ele><time>2026-04-25T15:27:48.976Z</time></trkpt><trkpt lat="43.27821956891893" lon="6.073276286796261"><ele>345.33333333333337</ele><time>2026-04-25T15:27:49.976Z</time></trkpt><trkpt lat="43.278025568434025" lon="6.073262648408817"><ele>344.0</ele><time>2026-04-25T15:27:50.976Z</time></trkpt><trkpt lat="43.27783234776596" lon="6.073213262487403"><ele>344.0</ele><time>2026-04-25T15:27:51.976Z</time></trkpt><trkpt lat="43.27764794836099" lon="6.073146221742308"><ele>344.0</ele><time>2026-04-25T15:27:52.976Z</time></trkpt><trkpt lat="43.277470090626736" lon="6.073063749102362"><ele>344.0</ele><time>2026-04-25T15:27:53.976Z</time></trkpt><trkpt lat="43.27730341828293" lon="6.072947765587693"><ele>347.0</ele><time>2026-04-25T15:27:54.976Z</time></trkpt><trkpt lat="43.27713035083014" lon="6.072817365019681"><ele>350.0</ele><time>2026-04-25T15:27:55.976Z</time></trkpt><trkpt lat="43.276952588411895" lon="6.072684755603968"><ele>353.0</ele><time>2026-04-25T15:27:56.976Z</time></trkpt><trkpt lat="43.27677473680352" lon="6.07255400469728"><ele>346.6666666666667</ele><time>2026-04-25T15:27:57.976Z</time></trkpt><trkpt lat="43.27660088216382" lon="6.072423462277272"><ele>340.3333333333333</ele><time>2026-04-25T15:27:58.976Z</time></trkpt><trkpt lat="43.2764304694906" lon="6.072294004415556"><ele>334.0</ele><time>2026-04-25T15:27:59.976Z</time></trkpt><trkpt lat="43.276260135838854" lon="6.072166136957205"><ele>334.0</ele><time>2026-04-25T15:28:00.976Z</time></trkpt><trkpt lat="43.27608955670238" lon="6.072048322770119"><ele>334.0</ele><time>2026-04-25T15:28:01.976Z</time></trkpt><trkpt lat="43.275913686429526" lon="6.071942691323435"><ele>334.0</ele><time>2026-04-25T15:28:02.976Z</time></trkpt><trkpt lat="43.275733188845294" lon="6.071840227671403"><ele>336.3333333333333</ele><time>2026-04-25T15:28:03.976Z</time></trkpt><trkpt lat="43.27555960713804" lon="6.071748427576336"><ele>338.6666666666667</ele><time>2026-04-25T15:28:04.976Z</time></trkpt><trkpt lat="43.27538827293149" lon="6.071654319240277"><ele>341.0</ele><time>2026-04-25T15:28:05.976Z</time></trkpt><trkpt lat="43.27521545613591" lon="6.071567011106098"><ele>335.33333333333337</ele><time>2026-04-25T15:28:06.976Z</time></trkpt><trkpt lat="43.27503529868691" lon="6.071469965539976"><ele>329.6666666666667</ele><time>2026-04-25T15:28:07.976Z</time></trkpt><trkpt lat="43.27485228746404" lon="6.07136661575396"><ele>324.0</ele><time>2026-04-25T15:28:08.976Z</time></trkpt><trkpt lat="43.27466929051134" lon="6.071274417796344"><ele>324.0</ele><time>2026-04-25T15:28:09.976Z</time></trkpt><trkpt lat="43.27448084618928" lon="6.071181213708508"><ele>324.0</ele><time>2026-04-25T15:28:10.976Z</time></trkpt><trkpt lat="43.27429279889697" lon="6.07106899640747"><ele>324.0</ele><time>2026-04-25T15:28:11.976Z</time></trkpt><trkpt lat="43.27410922053757" lon="6.070961294900718"><ele>323.3333333333333</ele><time>2026-04-25T15:28:12.976Z</time></trkpt><trkpt lat="43.27391599244908" lon="6.070848748976567"><ele>322.66666666666663</ele><time>2026-04-25T15:28:13.976Z</time></trkpt><trkpt lat="43.27369819086724" lon="6.0707137508776245"><ele>322.0</ele><time>2026-04-25T15:28:14.976Z</time></trkpt><trkpt lat="43.2734626625085" lon="6.070557920180536"><ele>321.0</ele><time>2026-04-25T15:28:15.976Z</time></trkpt><trkpt lat="43.273218792858096" lon="6.0703897822032395"><ele>320.0</ele><time>2026-04-25T15:28:16.976Z</time></trkpt><trkpt lat="43.27298437052176" lon="6.070230887287801"><ele>320.0</ele><time>2026-04-25T15:28:17.976Z</time></trkpt><trkpt lat="43.272762512060055" lon="6.070080163530504"><ele>320.0</ele><time>2026-04-25T15:28:18.976Z</time></trkpt><trkpt lat="43.27254965183192" lon="6.069923095972698"><ele>315.33333333333337</ele><time>2026-04-25T15:28:19.976Z</time></trkpt><trkpt lat="43.27234808701012" lon="6.069777523962262"><ele>310.6666666666667</ele><time>2026-04-25T15:28:20.976Z</time></trkpt><trkpt lat="43.272155254724645" lon="6.06962862138079"><ele>306.0</ele><time>2026-04-25T15:28:21.976Z</time></trkpt><trkpt lat="43.27196891674862" lon="6.069488201203648"><ele>306.0</ele><time>2026-04-25T15:28:22.976Z</time></trkpt><trkpt lat="43.27176100442149" lon="6.069336520281111"><ele>306.0</ele><time>2026-04-25T15:28:23.976Z</time></trkpt><trkpt lat="43.271536144002695" lon="6.069165717005948"><ele>300.0</ele><time>2026-04-25T15:28:24.976Z</time></trkpt><trkpt lat="43.271298310334245" lon="6.068978048053739"><ele>294.0</ele><time>2026-04-25T15:28:25.976Z</time></trkpt><trkpt lat="43.271074424002286" lon="6.068801607000109"><ele>294.0</ele><time>2026-04-25T15:28:26.976Z</time></trkpt><trkpt lat="43.270850325114644" lon="6.068623985177963"><ele>294.0</ele><time>2026-04-25T15:28:27.976Z</time></trkpt><trkpt lat="43.27063510199177" lon="6.068454211826909"><ele>292.0</ele><time>2026-04-25T15:28:28.976Z</time></trkpt><trkpt lat="43.27042950993943" lon="6.068299641742722"><ele>290.0</ele><time>2026-04-25T15:28:29.976Z</time></trkpt><trkpt lat="43.270214268924406" lon="6.068138428353305"><ele>290.0</ele><time>2026-04-25T15:28:30.976Z</time></trkpt><trkpt lat="43.26999098796932" lon="6.067976945212477"><ele>290.0</ele><time>2026-04-25T15:28:31.976Z</time></trkpt><trkpt lat="43.26975880010276" lon="6.067818616095771"><ele>292.0</ele><time>2026-04-25T15:28:32.976Z</time></trkpt><trkpt lat="43.26952190445126" lon="6.067684478325682"><ele>294.0</ele><time>2026-04-25T15:28:33.976Z</time></trkpt><trkpt lat="43.269273247573906" lon="6.067569627526981"><ele>294.0</ele><time>2026-04-25T15:28:34.976Z</time></trkpt><trkpt lat="43.26903481346428" lon="6.0674811618596225"><ele>294.0</ele><time>2026-04-25T15:28:35.976Z</time></trkpt><trkpt lat="43.268799744934945" lon="6.0674230427911136"><ele>281.5</ele><time>2026-04-25T15:28:36.976Z</time></trkpt><trkpt lat="43.26857072049634" lon="6.0673832014418645"><ele>269.0</ele><time>2026-04-25T15:28:37.976Z</time></trkpt><trkpt lat="43.26834466411449" lon="6.067355057223139"><ele>269.5</ele><time>2026-04-25T15:28:38.976Z</time></trkpt><trkpt lat="43.26810977880141" lon="6.067330948623496"><ele>270.0</ele><time>2026-04-25T15:28:39.976Z</time></trkpt><trkpt lat="43.26787414406732" lon="6.067318281156454"><ele>270.0</ele><time>2026-04-25T15:28:40.976Z</time></trkpt><trkpt lat="43.267643905786834" lon="6.067309246149325"><ele>270.0</ele><time>2026-04-25T15:28:41.976Z</time></trkpt><trkpt lat="43.26739900352468" lon="6.0672948513862375"><ele>267.0</ele><time>2026-04-25T15:28:42.976Z</time></trkpt><trkpt lat="43.267154302052475" lon="6.06727806486962"><ele>264.0</ele><time>2026-04-25T15:28:43.976Z</time></trkpt><trkpt lat="43.266917854865675" lon="6.06725454517769"><ele>264.0</ele><time>2026-04-25T15:28:44.976Z</time></trkpt><trkpt lat="43.26669504436157" lon="6.067237507133655"><ele>264.0</ele><time>2026-04-25T15:28:45.976Z</time></trkpt><trkpt lat="43.266461691157495" lon="6.067215453937551"><ele>262.3333333333333</ele><time>2026-04-25T15:28:46.976Z</time></trkpt><trkpt lat="43.26624040646951" lon="6.067207906843907"><ele>260.66666666666663</ele><time>2026-04-25T15:28:47.976Z</time></trkpt><trkpt lat="43.266022508294256" lon="6.067191697152893"><ele>259.0</ele><time>2026-04-25T15:28:48.976Z</time></trkpt><trkpt lat="43.26580302560548" lon="6.067174433320401"><ele>257.66666666666663</ele><time>2026-04-25T15:28:49.976Z</time></trkpt><trkpt lat="43.26558213038579" lon="6.0671581256767375"><ele>256.3333333333333</ele><time>2026-04-25T15:28:50.976Z</time></trkpt><trkpt lat="43.26536260154964" lon="6.067143028402165"><ele>255.0</ele><time>2026-04-25T15:28:51.976Z</time></trkpt><trkpt lat="43.26514645090562" lon="6.067123182153489"><ele>255.0</ele><time>2026-04-25T15:28:52.976Z</time></trkpt><trkpt lat="43.264942148835175" lon="6.067107408406055"><ele>255.0</ele><time>2026-04-25T15:28:53.976Z</time></trkpt><trkpt lat="43.26472656523457" lon="6.067079693758059"><ele>255.0</ele><time>2026-04-25T15:28:54.976Z</time></trkpt><trkpt lat="43.26451282840885" lon="6.067053412444269"><ele>254.66666666666669</ele><time>2026-04-25T15:28:55.976Z</time></trkpt><trkpt lat="43.26429986014763" lon="6.06701668216041"><ele>254.33333333333334</ele><time>2026-04-25T15:28:56.976Z</time></trkpt><trkpt lat="43.26409617185016" lon="6.066981072805314"><ele>254.0</ele><time>2026-04-25T15:28:57.976Z</time></trkpt><trkpt lat="43.26389782808916" lon="6.066938824841381"><ele>251.33333333333334</ele><time>2026-04-25T15:28:58.976Z</time></trkpt><trkpt lat="43.263697771500084" lon="6.066892589030206"><ele>248.66666666666669</ele><time>2026-04-25T15:28:59.976Z</time></trkpt><trkpt lat="43.263497704643044" lon="6.066847230222012"><ele>246.0</ele><time>2026-04-25T15:29:00.976Z</time></trkpt><trkpt lat="43.26329316980822" lon="6.06679440761857"><ele>248.33333333333331</ele><time>2026-04-25T15:29:01.975Z</time></trkpt><trkpt lat="43.263099139193905" lon="6.066744205066901"><ele>250.66666666666666</ele><time>2026-04-25T15:29:02.975Z</time></trkpt><trkpt lat="43.26290898216523" lon="6.0666894655747825"><ele>253.0</ele><time>2026-04-25T15:29:03.975Z</time></trkpt><trkpt lat="43.26272425011111" lon="6.066632748864329"><ele>246.0</ele><time>2026-04-25T15:29:04.975Z</time></trkpt><trkpt lat="43.262533705870354" lon="6.066569296480448"><ele>239.0</ele><time>2026-04-25T15:29:05.975Z</time></trkpt><trkpt lat="43.26232684953424" lon="6.066495860912848"><ele>232.0</ele><time>2026-04-25T15:29:06.975Z</time></trkpt><trkpt lat="43.26210512058892" lon="6.066413284393449"><ele>232.0</ele><time>2026-04-25T15:29:07.976Z</time></trkpt><trkpt lat="43.26186926035957" lon="6.066320430804597"><ele>232.0</ele><time>2026-04-25T15:29:08.976Z</time></trkpt><trkpt lat="43.26164605474006" lon="6.066234749423888"><ele>233.66666666666666</ele><time>2026-04-25T15:29:09.976Z</time></trkpt><trkpt lat="43.261430735529885" lon="6.066157572157835"><ele>235.33333333333331</ele><time>2026-04-25T15:29:10.976Z</time></trkpt><trkpt lat="43.261223923387405" lon="6.066074118861457"><ele>237.0</ele><time>2026-04-25T15:29:11.975Z</time></trkpt><trkpt lat="43.26102375869898" lon="6.065977984150079"><ele>237.0</ele><time>2026-04-25T15:29:12.975Z</time></trkpt><trkpt lat="43.2608244744391" lon="6.065859584158019"><ele>237.0</ele><time>2026-04-25T15:29:13.976Z</time></trkpt><trkpt lat="43.26064504524541" lon="6.065702783462644"><ele>237.0</ele><time>2026-04-25T15:29:14.976Z</time></trkpt><trkpt lat="43.2604836919579" lon="6.065516375693428"><ele>234.66666666666669</ele><time>2026-04-25T15:29:15.976Z</time></trkpt><trkpt lat="43.26033449742007" lon="6.06532930584349"><ele>232.33333333333334</ele><time>2026-04-25T15:29:16.976Z</time></trkpt><trkpt lat="43.26018439146233" lon="6.06514777726226"><ele>230.0</ele><time>2026-04-25T15:29:17.976Z</time></trkpt><trkpt lat="43.26003824510476" lon="6.0649691761979225"><ele>228.0</ele><time>2026-04-25T15:29:18.976Z</time></trkpt><trkpt lat="43.25989731356627" lon="6.064793600282536"><ele>226.0</ele><time>2026-04-25T15:29:19.975Z</time></trkpt><trkpt lat="43.25974635421958" lon="6.064629272733438"><ele>224.0</ele><time>2026-04-25T15:29:20.975Z</time></trkpt><trkpt lat="43.25958787474668" lon="6.064484972272737"><ele>224.0</ele><time>2026-04-25T15:29:21.975Z</time></trkpt><trkpt lat="43.259424483076245" lon="6.06435120506289"><ele>224.0</ele><time>2026-04-25T15:29:22.975Z</time></trkpt><trkpt lat="43.259260221999845" lon="6.0642316449754885"><ele>224.0</ele><time>2026-04-25T15:29:23.975Z</time></trkpt><trkpt lat="43.25909671574418" lon="6.064141070438663"><ele>219.33333333333334</ele><time>2026-04-25T15:29:24.975Z</time></trkpt><trkpt lat="43.2589301996117" lon="6.064069706025742"><ele>214.66666666666669</ele><time>2026-04-25T15:29:25.975Z</time></trkpt><trkpt lat="43.258744902026066" lon="6.063991916979736"><ele>210.0</ele><time>2026-04-25T15:29:26.975Z</time></trkpt><trkpt lat="43.25855407356818" lon="6.063919198392734"><ele>210.0</ele><time>2026-04-25T15:29:27.975Z</time></trkpt><trkpt lat="43.25836098771925" lon="6.063846486611057"><ele>210.0</ele><time>2026-04-25T15:29:28.975Z</time></trkpt><trkpt lat="43.25816513218631" lon="6.063768721605668"><ele>210.0</ele><time>2026-04-25T15:29:29.975Z</time></trkpt><trkpt lat="43.257967550295085" lon="6.063693746829447"><ele>210.33333333333331</ele><time>2026-04-25T15:29:30.975Z</time></trkpt><trkpt lat="43.25776462286138" lon="6.063618628365227"><ele>210.66666666666666</ele><time>2026-04-25T15:29:31.975Z</time></trkpt><trkpt lat="43.2575626118167" lon="6.063539308274017"><ele>211.0</ele><time>2026-04-25T15:29:32.975Z</time></trkpt><trkpt lat="43.25735976247389" lon="6.063464640181964"><ele>211.33333333333331</ele><time>2026-04-25T15:29:33.975Z</time></trkpt><trkpt lat="43.25716515424812" lon="6.06339031501846"><ele>211.66666666666669</ele><time>2026-04-25T15:29:34.975Z</time></trkpt><trkpt lat="43.256972100070236" lon="6.063314715695516"><ele>212.0</ele><time>2026-04-25T15:29:35.975Z</time></trkpt><trkpt lat="43.25678002446434" lon="6.063247842837664"><ele>209.0</ele><time>2026-04-25T15:29:36.975Z</time></trkpt><trkpt lat="43.256584976613574" lon="6.063195612870442"><ele>206.0</ele><time>2026-04-25T15:29:37.975Z</time></trkpt><trkpt lat="43.256383492108014" lon="6.063160645171542"><ele>203.0</ele><time>2026-04-25T15:29:38.975Z</time></trkpt><trkpt lat="43.256192114224625" lon="6.063144231519199"><ele>203.0</ele><time>2026-04-25T15:29:39.975Z</time></trkpt><trkpt lat="43.2560025326541" lon="6.063142705047274"><ele>203.0</ele><time>2026-04-25T15:29:40.975Z</time></trkpt><trkpt lat="43.255822122178444" lon="6.063155735904738"><ele>203.0</ele><time>2026-04-25T15:29:41.975Z</time></trkpt><trkpt lat="43.255643343444255" lon="6.06316768650728"><ele>200.66666666666669</ele><time>2026-04-25T15:29:42.975Z</time></trkpt><trkpt lat="43.255469301604336" lon="6.0631832537242305"><ele>198.33333333333331</ele><time>2026-04-25T15:29:43.975Z</time></trkpt><trkpt lat="43.25529848383804" lon="6.063203585289211"><ele>196.0</ele><time>2026-04-25T15:29:44.975Z</time></trkpt><trkpt lat="43.25510021409731" lon="6.063235244817356"><ele>196.0</ele><time>2026-04-25T15:29:45.975Z</time></trkpt><trkpt lat="43.25491135706964" lon="6.063257657234309"><ele>196.0</ele><time>2026-04-25T15:29:46.975Z</time></trkpt><trkpt lat="43.25472864331564" lon="6.063280729745735"><ele>196.0</ele><time>2026-04-25T15:29:47.975Z</time></trkpt><trkpt lat="43.254564036851704" lon="6.063314373350519"><ele>195.25</ele><time>2026-04-25T15:29:48.975Z</time></trkpt><trkpt lat="43.25442088314949" lon="6.063363344318265"><ele>194.5</ele><time>2026-04-25T15:29:49.975Z</time></trkpt><trkpt lat="43.25429237341935" lon="6.063417106630759"><ele>193.75</ele><time>2026-04-25T15:29:50.975Z</time></trkpt><trkpt lat="43.25418488847031" lon="6.063472138608509"><ele>193.0</ele><time>2026-04-25T15:29:51.975Z</time></trkpt><trkpt lat="43.25409577333348" lon="6.063528010497928"><ele>193.0</ele><time>2026-04-25T15:29:52.975Z</time></trkpt><trkpt lat="43.25402265878446" lon="6.06358256367946"><ele>193.0</ele><time>2026-04-25T15:29:53.975Z</time></trkpt><trkpt lat="43.25396780868373" lon="6.063628389404037"><ele>193.0</ele><time>2026-04-25T15:29:54.975Z</time></trkpt><trkpt lat="43.25389904758862" lon="6.063680230970018"><ele>193.0</ele><time>2026-04-25T15:29:56.975Z</time></trkpt><trkpt lat="43.253795227201216" lon="6.063769711191457"><ele>193.0</ele><time>2026-04-25T15:29:58.975Z</time></trkpt><trkpt lat="43.25369581253208" lon="6.06384178422963"><ele>192.49999999999997</ele><time>2026-04-25T15:30:00.975Z</time></trkpt><trkpt lat="43.25362357549672" lon="6.063896074142388"><ele>192.0</ele><time>2026-04-25T15:30:02.975Z</time></trkpt><trkpt lat="43.25351810765386" lon="6.0639308650829165"><ele>191.5</ele><time>2026-04-25T15:30:04.975Z</time></trkpt><trkpt lat="43.25339930765474" lon="6.0639271215831245"><ele>191.0</ele><time>2026-04-25T15:30:06.975Z</time></trkpt><trkpt lat="43.253336939714366" lon="6.063941072632637"><ele>190.5</ele><time>2026-04-25T15:30:07.975Z</time></trkpt><trkpt lat="43.253282801849295" lon="6.063997619545163"><ele>190.0</ele><time>2026-04-25T15:30:08.975Z</time></trkpt><trkpt lat="43.25324063123736" lon="6.064096805495957"><ele>189.5</ele><time>2026-04-25T15:30:09.975Z</time></trkpt><trkpt lat="43.253193949874884" lon="6.064212243959201"><ele>189.0</ele><time>2026-04-25T15:30:10.975Z</time></trkpt><trkpt lat="43.25312098487167" lon="6.0643181911645385"><ele>188.5</ele><time>2026-04-25T15:30:11.975Z</time></trkpt><trkpt lat="43.253014606278015" lon="6.064436433732713"><ele>188.0</ele><time>2026-04-25T15:30:12.975Z</time></trkpt><trkpt lat="43.252868690944915" lon="6.064574833976446"><ele>186.5</ele><time>2026-04-25T15:30:13.975Z</time></trkpt><trkpt lat="43.252687209631766" lon="6.064727937578305"><ele>185.0</ele><time>2026-04-25T15:30:14.975Z</time></trkpt><trkpt lat="43.25247756066516" lon="6.0648865775802205"><ele>184.0</ele><time>2026-04-25T15:30:15.975Z</time></trkpt><trkpt lat="43.2522846991077" lon="6.065032973472189"><ele>183.0</ele><time>2026-04-25T15:30:16.975Z</time></trkpt><trkpt lat="43.252106569087424" lon="6.0651750910541065"><ele>182.0</ele><time>2026-04-25T15:30:17.975Z</time></trkpt><trkpt lat="43.25194208550384" lon="6.0653160229954866"><ele>182.0</ele><time>2026-04-25T15:30:18.975Z</time></trkpt><trkpt lat="43.25178629213538" lon="6.065462971680923"><ele>182.0</ele><time>2026-04-25T15:30:19.975Z</time></trkpt><trkpt lat="43.25163677475092" lon="6.065617329867218"><ele>182.0</ele><time>2026-04-25T15:30:20.975Z</time></trkpt><trkpt lat="43.25149351370629" lon="6.065774693168885"><ele>180.66666666666666</ele><time>2026-04-25T15:30:21.975Z</time></trkpt><trkpt lat="43.25135854975232" lon="6.065946791937577"><ele>179.33333333333334</ele><time>2026-04-25T15:30:22.975Z</time></trkpt><trkpt lat="43.251227106237955" lon="6.066133981499103"><ele>178.0</ele><time>2026-04-25T15:30:23.975Z</time></trkpt><trkpt lat="43.251095039197374" lon="6.066333251273077"><ele>178.0</ele><time>2026-04-25T15:30:24.975Z</time></trkpt><trkpt lat="43.25096656952554" lon="6.066556564146837"><ele>178.0</ele><time>2026-04-25T15:30:25.975Z</time></trkpt><trkpt lat="43.25084458396756" lon="6.066793365089144"><ele>178.0</ele><time>2026-04-25T15:30:26.975Z</time></trkpt><trkpt lat="43.25072925702259" lon="6.06704225898751"><ele>175.5</ele><time>2026-04-25T15:30:27.975Z</time></trkpt><trkpt lat="43.250614648381934" lon="6.067321024004122"><ele>173.0</ele><time>2026-04-25T15:30:28.975Z</time></trkpt><trkpt lat="43.25048729377572" lon="6.067622966782857"><ele>170.5</ele><time>2026-04-25T15:30:29.975Z</time></trkpt><trkpt lat="43.25034586047983" lon="6.06793588655398"><ele>168.0</ele><time>2026-04-25T15:30:30.975Z</time></trkpt><trkpt lat="43.25020416054169" lon="6.068289924377802"><ele>168.0</ele><time>2026-04-25T15:30:31.975Z</time></trkpt><trkpt lat="43.25006306176754" lon="6.068673438926829"><ele>168.0</ele><time>2026-04-25T15:30:32.975Z</time></trkpt><trkpt lat="43.24992929188074" lon="6.069069142415342"><ele>167.5</ele><time>2026-04-25T15:30:33.975Z</time></trkpt><trkpt lat="43.24981465886247" lon="6.069486114496755"><ele>167.0</ele><time>2026-04-25T15:30:34.975Z</time></trkpt><trkpt lat="43.249722182854406" lon="6.069886273340189"><ele>167.5</ele><time>2026-04-25T15:30:35.975Z</time></trkpt><trkpt lat="43.24963531458265" lon="6.070263747202931"><ele>168.0</ele><time>2026-04-25T15:30:36.975Z</time></trkpt><trkpt lat="43.24954750719664" lon="6.070616245110645"><ele>166.0</ele><time>2026-04-25T15:30:37.975Z</time></trkpt><trkpt lat="43.24946436713554" lon="6.070962301226709"><ele>164.0</ele><time>2026-04-25T15:30:38.975Z</time></trkpt><trkpt lat="43.249393299378724" lon="6.071289263596489"><ele>164.0</ele><time>2026-04-25T15:30:39.975Z</time></trkpt><trkpt lat="43.24932297640321" lon="6.071605592128789"><ele>164.0</ele><time>2026-04-25T15:30:40.975Z</time></trkpt><trkpt lat="43.24926613197602" lon="6.071909495897954"><ele>163.0</ele><time>2026-04-25T15:30:41.975Z</time></trkpt><trkpt lat="43.24921357579207" lon="6.072202983058339"><ele>162.0</ele><time>2026-04-25T15:30:42.975Z</time></trkpt><trkpt lat="43.24916977978015" lon="6.072491992775086"><ele>161.0</ele><time>2026-04-25T15:30:43.975Z</time></trkpt><trkpt lat="43.24913264941303" lon="6.072787457986116"><ele>161.0</ele><time>2026-04-25T15:30:44.975Z</time></trkpt><trkpt lat="43.24910175568852" lon="6.073081115654827"><ele>161.0</ele><time>2026-04-25T15:30:45.975Z</time></trkpt><trkpt lat="43.249072949914186" lon="6.073378906262881"><ele>161.0</ele><time>2026-04-25T15:30:46.975Z</time></trkpt><trkpt lat="43.24904982096991" lon="6.073685272591374"><ele>161.0</ele><time>2026-04-25T15:30:47.975Z</time></trkpt><trkpt lat="43.2490322720197" lon="6.07399602723708"><ele>161.0</ele><time>2026-04-25T15:30:48.975Z</time></trkpt><trkpt lat="43.249029263787165" lon="6.0743110062899435"><ele>159.66666666666666</ele><time>2026-04-25T15:30:49.975Z</time></trkpt><trkpt lat="43.24903298167375" lon="6.0746229130533616"><ele>158.33333333333334</ele><time>2026-04-25T15:30:50.975Z</time></trkpt><trkpt lat="43.24903726929345" lon="6.074919020917369"><ele>157.0</ele><time>2026-04-25T15:30:51.975Z</time></trkpt><trkpt lat="43.24905030647574" lon="6.075208928709926"><ele>157.0</ele><time>2026-04-25T15:30:52.975Z</time></trkpt><trkpt lat="43.24907050301563" lon="6.075501140041051"><ele>157.0</ele><time>2026-04-25T15:30:53.975Z</time></trkpt><trkpt lat="43.24910030057594" lon="6.075789988415673"><ele>157.0</ele><time>2026-04-25T15:30:54.975Z</time></trkpt><trkpt lat="43.24913304919832" lon="6.07606785010436"><ele>159.0</ele><time>2026-04-25T15:30:55.975Z</time></trkpt><trkpt lat="43.24916892560417" lon="6.07632967993382"><ele>161.0</ele><time>2026-04-25T15:30:56.975Z</time></trkpt><trkpt lat="43.249199716302826" lon="6.076584209045259"><ele>163.0</ele><time>2026-04-25T15:30:57.975Z</time></trkpt><trkpt lat="43.249237999109894" lon="6.076852374487256"><ele>166.33333333333334</ele><time>2026-04-25T15:30:58.975Z</time></trkpt><trkpt lat="43.24927537827365" lon="6.07709807466074"><ele>169.66666666666666</ele><time>2026-04-25T15:30:59.975Z</time></trkpt><trkpt lat="43.24931829866421" lon="6.077330271505725"><ele>173.0</ele><time>2026-04-25T15:31:00.975Z</time></trkpt><trkpt lat="43.249364994373536" lon="6.077557979050528"><ele>175.0</ele><time>2026-04-25T15:31:01.975Z</time></trkpt><trkpt lat="43.249409389598505" lon="6.077771987614836"><ele>177.0</ele><time>2026-04-25T15:31:02.975Z</time></trkpt><trkpt lat="43.249454115398024" lon="6.077964866128493"><ele>179.0</ele><time>2026-04-25T15:31:03.975Z</time></trkpt><trkpt lat="43.2494994382495" lon="6.078147404232229"><ele>180.0</ele><time>2026-04-25T15:31:04.975Z</time></trkpt><trkpt lat="43.24954682816656" lon="6.0783369934020754"><ele>181.0</ele><time>2026-04-25T15:31:05.975Z</time></trkpt><trkpt lat="43.24959046458032" lon="6.078528819880702"><ele>182.0</ele><time>2026-04-25T15:31:06.975Z</time></trkpt><trkpt lat="43.24963221365016" lon="6.07872217041733"><ele>183.0</ele><time>2026-04-25T15:31:07.975Z</time></trkpt><trkpt lat="43.2496880230032" lon="6.0789330112580755"><ele>183.66666666666666</ele><time>2026-04-25T15:31:08.975Z</time></trkpt><trkpt lat="43.24973958279722" lon="6.0791857221206245"><ele>184.33333333333331</ele><time>2026-04-25T15:31:09.975Z</time></trkpt><trkpt lat="43.24979377391809" lon="6.079430514424108"><ele>185.0</ele><time>2026-04-25T15:31:10.975Z</time></trkpt><trkpt lat="43.249851713317426" lon="6.079647453136031"><ele>175.66666666666666</ele><time>2026-04-25T15:31:11.975Z</time></trkpt><trkpt lat="43.24990160374348" lon="6.079862421680172"><ele>166.33333333333334</ele><time>2026-04-25T15:31:12.975Z</time></trkpt><trkpt lat="43.24994818817072" lon="6.080072561877292"><ele>157.0</ele><time>2026-04-25T15:31:13.976Z</time></trkpt><trkpt lat="43.24998309272877" lon="6.080297028426496"><ele>157.0</ele><time>2026-04-25T15:31:14.976Z</time></trkpt><trkpt lat="43.25002840202012" lon="6.080503884634773"><ele>157.0</ele><time>2026-04-25T15:31:15.976Z</time></trkpt><trkpt lat="43.25008463948901" lon="6.080717980879088"><ele>157.0</ele><time>2026-04-25T15:31:16.976Z</time></trkpt><trkpt lat="43.250123920332236" lon="6.080933349387458"><ele>158.33333333333334</ele><time>2026-04-25T15:31:17.975Z</time></trkpt><trkpt lat="43.25017419641762" lon="6.081150452948993"><ele>159.66666666666666</ele><time>2026-04-25T15:31:18.975Z</time></trkpt><trkpt lat="43.25022316261609" lon="6.0813641930054425"><ele>161.0</ele><time>2026-04-25T15:31:19.976Z</time></trkpt><trkpt lat="43.25027318819588" lon="6.081574246842037"><ele>164.0</ele><time>2026-04-25T15:31:20.975Z</time></trkpt><trkpt lat="43.25033052967926" lon="6.081791569693424"><ele>167.0</ele><time>2026-04-25T15:31:21.975Z</time></trkpt><trkpt lat="43.25038700748477" lon="6.082012502988474"><ele>170.0</ele><time>2026-04-25T15:31:22.975Z</time></trkpt><trkpt lat="43.25044593338585" lon="6.082245292506585"><ele>173.66666666666666</ele><time>2026-04-25T15:31:23.976Z</time></trkpt><trkpt lat="43.25052724006729" lon="6.082510975508997"><ele>177.33333333333334</ele><time>2026-04-25T15:31:24.976Z</time></trkpt><trkpt lat="43.25061177651005" lon="6.082809511582037"><ele>181.0</ele><time>2026-04-25T15:31:25.976Z</time></trkpt><trkpt lat="43.25069285646373" lon="6.08310386527506"><ele>170.33333333333334</ele><time>2026-04-25T15:31:26.975Z</time></trkpt><trkpt lat="43.25078231201528" lon="6.083389471054024"><ele>159.66666666666666</ele><time>2026-04-25T15:31:27.975Z</time></trkpt><trkpt lat="43.250869131532916" lon="6.083665010411697"><ele>149.0</ele><time>2026-04-25T15:31:28.975Z</time></trkpt><trkpt lat="43.250953623420266" lon="6.083913134679478"><ele>150.0</ele><time>2026-04-25T15:31:29.975Z</time></trkpt><trkpt lat="43.251035202385644" lon="6.084151420889561"><ele>151.0</ele><time>2026-04-25T15:31:30.975Z</time></trkpt><trkpt lat="43.25112361221513" lon="6.0843870858403"><ele>152.0</ele><time>2026-04-25T15:31:31.975Z</time></trkpt><trkpt lat="43.251203813341974" lon="6.084603120352405"><ele>152.0</ele><time>2026-04-25T15:31:32.975Z</time></trkpt><trkpt lat="43.25127562418339" lon="6.084814903680606"><ele>152.0</ele><time>2026-04-25T15:31:33.975Z</time></trkpt><trkpt lat="43.25134768173334" lon="6.08503046059678"><ele>152.0</ele><time>2026-04-25T15:31:34.975Z</time></trkpt><trkpt lat="43.25142097814264" lon="6.085244950351819"><ele>147.33333333333331</ele><time>2026-04-25T15:31:35.975Z</time></trkpt><trkpt lat="43.251512446806466" lon="6.0854816885938"><ele>142.66666666666666</ele><time>2026-04-25T15:31:36.975Z</time></trkpt><trkpt lat="43.25161333366104" lon="6.085760953016881"><ele>138.0</ele><time>2026-04-25T15:31:37.975Z</time></trkpt><trkpt lat="43.251712018873185" lon="6.086069893035416"><ele>138.0</ele><time>2026-04-25T15:31:38.975Z</time></trkpt><trkpt lat="43.251813457355965" lon="6.086405139212756"><ele>138.0</ele><time>2026-04-25T15:31:39.975Z</time></trkpt><trkpt lat="43.251910669470924" lon="6.086770125613978"><ele>141.0</ele><time>2026-04-25T15:31:40.975Z</time></trkpt><trkpt lat="43.252010377062646" lon="6.087148847666112"><ele>144.0</ele><time>2026-04-25T15:31:41.975Z</time></trkpt><trkpt lat="43.25211125096891" lon="6.087519027622822"><ele>146.0</ele><time>2026-04-25T15:31:42.976Z</time></trkpt><trkpt lat="43.252210233197914" lon="6.087878676635761"><ele>148.0</ele><time>2026-04-25T15:31:43.976Z</time></trkpt><trkpt lat="43.252300696344555" lon="6.088216393789295"><ele>140.5</ele><time>2026-04-25T15:31:44.976Z</time></trkpt><trkpt lat="43.2523867981131" lon="6.088521271974761"><ele>133.0</ele><time>2026-04-25T15:31:45.976Z</time></trkpt><trkpt lat="43.25246342303843" lon="6.088799610999849"><ele>133.0</ele><time>2026-04-25T15:31:46.976Z</time></trkpt><trkpt lat="43.2525241451313" lon="6.0890524352472415"><ele>133.0</ele><time>2026-04-25T15:31:47.976Z</time></trkpt><trkpt lat="43.25257824614511" lon="6.089286354530711"><ele>133.0</ele><time>2026-04-25T15:31:48.976Z</time></trkpt><trkpt lat="43.252625408874096" lon="6.089517892835914"><ele>133.0</ele><time>2026-04-25T15:31:49.976Z</time></trkpt><trkpt lat="43.25266376481306" lon="6.089758560525863"><ele>133.0</ele><time>2026-04-25T15:31:50.977Z</time></trkpt><trkpt lat="43.25269677073697" lon="6.089995561908295"><ele>133.0</ele><time>2026-04-25T15:31:51.977Z</time></trkpt><trkpt lat="43.25271126932922" lon="6.090223353585284"><ele>132.66666666666669</ele><time>2026-04-25T15:31:52.977Z</time></trkpt><trkpt lat="43.25270986533922" lon="6.090458695702596"><ele>132.33333333333334</ele><time>2026-04-25T15:31:53.977Z</time></trkpt><trkpt lat="43.25270089418342" lon="6.090698760100789"><ele>132.0</ele><time>2026-04-25T15:31:54.977Z</time></trkpt><trkpt lat="43.252677860981436" lon="6.090936805796917"><ele>130.66666666666666</ele><time>2026-04-25T15:31:55.977Z</time></trkpt><trkpt lat="43.25264041544509" lon="6.091180754431264"><ele>129.33333333333331</ele><time>2026-04-25T15:31:56.977Z</time></trkpt><trkpt lat="43.252593818751166" lon="6.091420286338294"><ele>128.0</ele><time>2026-04-25T15:31:57.977Z</time></trkpt><trkpt lat="43.25253192096156" lon="6.091656480415523"><ele>127.0</ele><time>2026-04-25T15:31:58.977Z</time></trkpt><trkpt lat="43.25245671525391" lon="6.091869993174435"><ele>126.0</ele><time>2026-04-25T15:31:59.977Z</time></trkpt><trkpt lat="43.25237415291385" lon="6.0920745898514665"><ele>125.0</ele><time>2026-04-25T15:32:00.977Z</time></trkpt><trkpt lat="43.25227573486523" lon="6.092279315124549"><ele>126.66666666666666</ele><time>2026-04-25T15:32:01.977Z</time></trkpt><trkpt lat="43.25216847198166" lon="6.092470474053197"><ele>128.33333333333334</ele><time>2026-04-25T15:32:02.977Z</time></trkpt><trkpt lat="43.25205992214268" lon="6.092644648889559"><ele>130.0</ele><time>2026-04-25T15:32:03.977Z</time></trkpt><trkpt lat="43.251938177543295" lon="6.09281004719603"><ele>130.0</ele><time>2026-04-25T15:32:04.977Z</time></trkpt><trkpt lat="43.25180561130912" lon="6.092964084953724"><ele>130.0</ele><time>2026-04-25T15:32:05.977Z</time></trkpt><trkpt lat="43.25166681036491" lon="6.093101456114705"><ele>130.0</ele><time>2026-04-25T15:32:06.977Z</time></trkpt><trkpt lat="43.25152102968921" lon="6.0932231428869965"><ele>127.5</ele><time>2026-04-25T15:32:07.977Z</time></trkpt><trkpt lat="43.25139499373082" lon="6.093325610240273"><ele>125.0</ele><time>2026-04-25T15:32:08.977Z</time></trkpt><trkpt lat="43.25127674282199" lon="6.093398414708483"><ele>122.5</ele><time>2026-04-25T15:32:09.977Z</time></trkpt><trkpt lat="43.25117319646534" lon="6.093439202852775"><ele>120.0</ele><time>2026-04-25T15:32:10.977Z</time></trkpt><trkpt lat="43.25109091670205" lon="6.0934659906477915"><ele>120.0</ele><time>2026-04-25T15:32:11.977Z</time></trkpt><trkpt lat="43.251025939462004" lon="6.093487441211244"><ele>120.0</ele><time>2026-04-25T15:32:12.977Z</time></trkpt><trkpt lat="43.25095315275528" lon="6.093493657311872"><ele>120.0</ele><time>2026-04-25T15:32:14.978Z</time></trkpt><trkpt lat="43.25086496702232" lon="6.093472615664992"><ele>120.0</ele><time>2026-04-25T15:32:17.978Z</time></trkpt><trkpt lat="43.25078858021483" lon="6.0934119030073575"><ele>120.0</ele><time>2026-04-25T15:32:18.978Z</time></trkpt><trkpt lat="43.25070947168763" lon="6.093341075354503"><ele>120.0</ele><time>2026-04-25T15:32:19.978Z</time></trkpt><trkpt lat="43.25063238388513" lon="6.093290269778515"><ele>119.0</ele><time>2026-04-25T15:32:20.978Z</time></trkpt><trkpt lat="43.25054766978606" lon="6.093277436778276"><ele>118.0</ele><time>2026-04-25T15:32:21.978Z</time></trkpt><trkpt lat="43.25046966598397" lon="6.093293654569536"><ele>117.0</ele><time>2026-04-25T15:32:22.978Z</time></trkpt><trkpt lat="43.25039675066229" lon="6.093334941596489"><ele>116.0</ele><time>2026-04-25T15:32:23.978Z</time></trkpt><trkpt lat="43.25032926229152" lon="6.093407248307068"><ele>115.0</ele><time>2026-04-25T15:32:24.978Z</time></trkpt><trkpt lat="43.250280924844084" lon="6.093490320996275"><ele>114.0</ele><time>2026-04-25T15:32:25.978Z</time></trkpt><trkpt lat="43.25021521098007" lon="6.093578822817003"><ele>114.0</ele><time>2026-04-25T15:32:26.978Z</time></trkpt><trkpt lat="43.25011882426305" lon="6.093637150140988"><ele>114.0</ele><time>2026-04-25T15:32:27.978Z</time></trkpt><trkpt lat="43.25002079474973" lon="6.093664368130035"><ele>114.0</ele><time>2026-04-25T15:32:28.978Z</time></trkpt><trkpt lat="43.24992853401162" lon="6.093666127754754"><ele>114.0</ele><time>2026-04-25T15:32:29.978Z</time></trkpt><trkpt lat="43.24982999891933" lon="6.093654443345178"><ele>114.0</ele><time>2026-04-25T15:32:30.978Z</time></trkpt><trkpt lat="43.24972387836317" lon="6.093654185015493"><ele>113.6</ele><time>2026-04-25T15:32:31.978Z</time></trkpt><trkpt lat="43.249622017069" lon="6.0936561757217085"><ele>113.2</ele><time>2026-04-25T15:32:32.978Z</time></trkpt><trkpt lat="43.24951723424618" lon="6.093661075326657"><ele>112.79999999999998</ele><time>2026-04-25T15:32:33.978Z</time></trkpt><trkpt lat="43.24942162480903" lon="6.093669622862093"><ele>112.39999999999999</ele><time>2026-04-25T15:32:34.978Z</time></trkpt><trkpt lat="43.24933300108897" lon="6.093681318927542"><ele>112.0</ele><time>2026-04-25T15:32:35.978Z</time></trkpt><trkpt lat="43.24924915467271" lon="6.093695533059968"><ele>112.00000000000001</ele><time>2026-04-25T15:32:36.978Z</time></trkpt><trkpt lat="43.24916930175443" lon="6.093711375426443"><ele>112.0</ele><time>2026-04-25T15:32:37.978Z</time></trkpt><trkpt lat="43.24908619720256" lon="6.093728330338468"><ele>112.0</ele><time>2026-04-25T15:32:38.978Z</time></trkpt><trkpt lat="43.249008653809014" lon="6.093743653490221"><ele>112.0</ele><time>2026-04-25T15:32:39.978Z</time></trkpt><trkpt lat="43.24893621368711" lon="6.093757555860891"><ele>112.00000000000001</ele><time>2026-04-25T15:32:40.978Z</time></trkpt><trkpt lat="43.24886590046791" lon="6.09377341453791"><ele>112.0</ele><time>2026-04-25T15:32:41.978Z</time></trkpt><trkpt lat="43.248803557372526" lon="6.09379552256519"><ele>111.83333333333334</ele><time>2026-04-25T15:32:42.978Z</time></trkpt><trkpt lat="43.24874294752738" lon="6.093821775755488"><ele>111.66666666666667</ele><time>2026-04-25T15:32:43.978Z</time></trkpt><trkpt lat="43.248668004327925" lon="6.093838776739795"><ele>111.5</ele><time>2026-04-25T15:32:44.978Z</time></trkpt><trkpt lat="43.2485770176558" lon="6.0938086552450095"><ele>111.33333333333334</ele><time>2026-04-25T15:32:45.978Z</time></trkpt><trkpt lat="43.248479369435486" lon="6.093746491307165"><ele>111.16666666666667</ele><time>2026-04-25T15:32:46.978Z</time></trkpt><trkpt lat="43.24839126677358" lon="6.09367870383529"><ele>111.0</ele><time>2026-04-25T15:32:47.978Z</time></trkpt><trkpt lat="43.24828246833245" lon="6.0936360938864755"><ele>111.0</ele><time>2026-04-25T15:32:48.978Z</time></trkpt><trkpt lat="43.24815931744701" lon="6.093634894241576"><ele>111.0</ele><time>2026-04-25T15:32:49.978Z</time></trkpt><trkpt lat="43.24805147619225" lon="6.093662672010864"><ele>111.0</ele><time>2026-04-25T15:32:50.978Z</time></trkpt><trkpt lat="43.24796063272832" lon="6.093717463880221"><ele>111.0</ele><time>2026-04-25T15:32:51.978Z</time></trkpt><trkpt lat="43.247884188825836" lon="6.093791185887218"><ele>111.0</ele><time>2026-04-25T15:32:52.978Z</time></trkpt><trkpt lat="43.2478208689447" lon="6.0938770537760165"><ele>111.19999999999999</ele><time>2026-04-25T15:32:53.978Z</time></trkpt><trkpt lat="43.24777095987867" lon="6.093978804671876"><ele>111.39999999999999</ele><time>2026-04-25T15:32:54.978Z</time></trkpt><trkpt lat="43.2477372529461" lon="6.094083999941574"><ele>111.6</ele><time>2026-04-25T15:32:55.978Z</time></trkpt><trkpt lat="43.24771800691752" lon="6.0941978252834845"><ele>111.8</ele><time>2026-04-25T15:32:56.978Z</time></trkpt><trkpt lat="43.24770962229162" lon="6.094337853254095"><ele>112.0</ele><time>2026-04-25T15:32:57.978Z</time></trkpt><trkpt lat="43.24769311284783" lon="6.09447994032778"><ele>111.25</ele><time>2026-04-25T15:32:58.978Z</time></trkpt><trkpt lat="43.24763682902154" lon="6.094595634308696"><ele>110.5</ele><time>2026-04-25T15:32:59.978Z</time></trkpt><trkpt lat="43.247558937917916" lon="6.094683292325165"><ele>109.75</ele><time>2026-04-25T15:33:00.978Z</time></trkpt><trkpt lat="43.24745382290849" lon="6.0947453067184085"><ele>109.0</ele><time>2026-04-25T15:33:01.978Z</time></trkpt><trkpt lat="43.2473194139203" lon="6.094794026038664"><ele>109.0</ele><time>2026-04-25T15:33:02.978Z</time></trkpt><trkpt lat="43.24715339803032" lon="6.0948516024349475"><ele>109.0</ele><time>2026-04-25T15:33:03.978Z</time></trkpt><trkpt lat="43.2469541208329" lon="6.09491322668069"><ele>109.0</ele><time>2026-04-25T15:33:04.978Z</time></trkpt><trkpt lat="43.24673206802066" lon="6.094982083550122"><ele>108.66666666666667</ele><time>2026-04-25T15:33:05.978Z</time></trkpt><trkpt lat="43.246520666573765" lon="6.095050857814909"><ele>108.33333333333334</ele><time>2026-04-25T15:33:06.978Z</time></trkpt><trkpt lat="43.24631396100728" lon="6.095110698869025"><ele>108.0</ele><time>2026-04-25T15:33:07.978Z</time></trkpt><trkpt lat="43.24611743228994" lon="6.095161193451478"><ele>108.0</ele><time>2026-04-25T15:33:08.978Z</time></trkpt><trkpt lat="43.24592735594903" lon="6.095203751741811"><ele>108.0</ele><time>2026-04-25T15:33:09.978Z</time></trkpt><trkpt lat="43.2457358086446" lon="6.095238981387062"><ele>108.0</ele><time>2026-04-25T15:33:10.978Z</time></trkpt><trkpt lat="43.245537724812195" lon="6.095274743194678"><ele>107.5</ele><time>2026-04-25T15:33:11.978Z</time></trkpt><trkpt lat="43.24531014755991" lon="6.09531431579189"><ele>107.0</ele><time>2026-04-25T15:33:12.978Z</time></trkpt><trkpt lat="43.245064251709294" lon="6.095351893972247"><ele>107.0</ele><time>2026-04-25T15:33:13.977Z</time></trkpt><trkpt lat="43.244819025673145" lon="6.095382302360762"><ele>107.0</ele><time>2026-04-25T15:33:14.977Z</time></trkpt><trkpt lat="43.244596032771064" lon="6.095403869692187"><ele>107.0</ele><time>2026-04-25T15:33:15.977Z</time></trkpt><trkpt lat="43.2443813465656" lon="6.09542175946513"><ele>107.0</ele><time>2026-04-25T15:33:16.977Z</time></trkpt><trkpt lat="43.24417982471107" lon="6.095445080312766"><ele>107.0</ele><time>2026-04-25T15:33:17.977Z</time></trkpt><trkpt lat="43.24397568910953" lon="6.095487353178927"><ele>107.0</ele><time>2026-04-25T15:33:18.977Z</time></trkpt><trkpt lat="43.24375625054586" lon="6.095536609243163"><ele>107.0</ele><time>2026-04-25T15:33:19.978Z</time></trkpt><trkpt lat="43.24351440763903" lon="6.095597913311826"><ele>107.0</ele><time>2026-04-25T15:33:20.978Z</time></trkpt><trkpt lat="43.243253597892995" lon="6.095677691813941"><ele>107.0</ele><time>2026-04-25T15:33:21.978Z</time></trkpt><trkpt lat="43.24297692869511" lon="6.095757142273247"><ele>106.0</ele><time>2026-04-25T15:33:22.978Z</time></trkpt><trkpt lat="43.242691099043704" lon="6.095839540016836"><ele>105.0</ele><time>2026-04-25T15:33:23.979Z</time></trkpt><trkpt lat="43.24241154313842" lon="6.095928757064105"><ele>106.0</ele><time>2026-04-25T15:33:24.979Z</time></trkpt><trkpt lat="43.242157279683504" lon="6.096018033341466"><ele>107.0</ele><time>2026-04-25T15:33:25.978Z</time></trkpt><trkpt lat="43.24191706777375" lon="6.0961051065867204"><ele>107.0</ele><time>2026-04-25T15:33:26.978Z</time></trkpt><trkpt lat="43.241678975949455" lon="6.096192838641273"><ele>107.0</ele><time>2026-04-25T15:33:27.978Z</time></trkpt><trkpt lat="43.24145890994623" lon="6.096280548365719"><ele>107.0</ele><time>2026-04-25T15:33:28.978Z</time></trkpt><trkpt lat="43.241244332014716" lon="6.096381268719488"><ele>107.0</ele><time>2026-04-25T15:33:29.979Z</time></trkpt><trkpt lat="43.241038644873605" lon="6.096499705991536"><ele>107.33333333333333</ele><time>2026-04-25T15:33:30.979Z</time></trkpt><trkpt lat="43.24084033934592" lon="6.096632650316596"><ele>107.66666666666666</ele><time>2026-04-25T15:33:31.979Z</time></trkpt><trkpt lat="43.24064941268988" lon="6.096780436803138"><ele>108.0</ele><time>2026-04-25T15:33:32.979Z</time></trkpt><trkpt lat="43.240469011966454" lon="6.096933380600841"><ele>108.0</ele><time>2026-04-25T15:33:33.979Z</time></trkpt><trkpt lat="43.24029415460811" lon="6.097102387809206"><ele>108.0</ele><time>2026-04-25T15:33:34.979Z</time></trkpt><trkpt lat="43.2401288474461" lon="6.097291960151644"><ele>108.0</ele><time>2026-04-25T15:33:35.979Z</time></trkpt><trkpt lat="43.2399596948069" lon="6.097490574605118"><ele>107.33333333333334</ele><time>2026-04-25T15:33:36.979Z</time></trkpt><trkpt lat="43.239807029564766" lon="6.097705357939512"><ele>106.66666666666667</ele><time>2026-04-25T15:33:37.979Z</time></trkpt><trkpt lat="43.23966431563456" lon="6.097933224921004"><ele>106.0</ele><time>2026-04-25T15:33:38.979Z</time></trkpt><trkpt lat="43.239528905766065" lon="6.09816792013537"><ele>109.33333333333334</ele><time>2026-04-25T15:33:39.979Z</time></trkpt><trkpt lat="43.23940466057831" lon="6.098407544636734"><ele>112.66666666666666</ele><time>2026-04-25T15:33:40.979Z</time></trkpt><trkpt lat="43.239291462609714" lon="6.0986535892069815"><ele>116.0</ele><time>2026-04-25T15:33:41.979Z</time></trkpt><trkpt lat="43.23918679808755" lon="6.098895374444967"><ele>114.66666666666666</ele><time>2026-04-25T15:33:42.979Z</time></trkpt><trkpt lat="43.239081379239416" lon="6.099135529295927"><ele>113.33333333333334</ele><time>2026-04-25T15:33:43.979Z</time></trkpt><trkpt lat="43.23897601166076" lon="6.099392431261706"><ele>112.0</ele><time>2026-04-25T15:33:44.979Z</time></trkpt><trkpt lat="43.23886681834257" lon="6.099660387233212"><ele>112.0</ele><time>2026-04-25T15:33:45.979Z</time></trkpt><trkpt lat="43.23875969301549" lon="6.099914799773761"><ele>112.0</ele><time>2026-04-25T15:33:46.979Z</time></trkpt><trkpt lat="43.23864501591279" lon="6.100193570173517"><ele>112.0</ele><time>2026-04-25T15:33:47.979Z</time></trkpt><trkpt lat="43.2385140245533" lon="6.1004805558149915"><ele>105.5</ele><time>2026-04-25T15:33:48.978Z</time></trkpt><trkpt lat="43.2383540317797" lon="6.100760420368593"><ele>99.0</ele><time>2026-04-25T15:33:49.978Z</time></trkpt><trkpt lat="43.23819169816078" lon="6.101014150442486"><ele>98.5</ele><time>2026-04-25T15:33:50.978Z</time></trkpt><trkpt lat="43.2380285063681" lon="6.101250802336806"><ele>98.0</ele><time>2026-04-25T15:33:51.978Z</time></trkpt><trkpt lat="43.23785242539478" lon="6.101463947962747"><ele>97.66666666666666</ele><time>2026-04-25T15:33:52.978Z</time></trkpt><trkpt lat="43.23767882418739" lon="6.1016473285291815"><ele>97.33333333333334</ele><time>2026-04-25T15:33:53.978Z</time></trkpt><trkpt lat="43.23751298916841" lon="6.10181145833102"><ele>97.0</ele><time>2026-04-25T15:33:54.978Z</time></trkpt><trkpt lat="43.23735112947253" lon="6.101958198929411"><ele>97.33333333333334</ele><time>2026-04-25T15:33:55.978Z</time></trkpt><trkpt lat="43.23719815703962" lon="6.102099321985629"><ele>97.66666666666666</ele><time>2026-04-25T15:33:56.978Z</time></trkpt><trkpt lat="43.23705553352761" lon="6.102235659021031"><ele>98.0</ele><time>2026-04-25T15:33:57.978Z</time></trkpt><trkpt lat="43.23692044078852" lon="6.102366623409449"><ele>97.25</ele><time>2026-04-25T15:33:58.978Z</time></trkpt><trkpt lat="43.236790432522376" lon="6.102490690935883"><ele>96.5</ele><time>2026-04-25T15:33:59.978Z</time></trkpt><trkpt lat="43.23666888323952" lon="6.102603803985378"><ele>95.75</ele><time>2026-04-25T15:34:00.978Z</time></trkpt><trkpt lat="43.23655544661952" lon="6.1027094296205515"><ele>95.0</ele><time>2026-04-25T15:34:01.978Z</time></trkpt><trkpt lat="43.236452074211044" lon="6.102809216297021"><ele>95.0</ele><time>2026-04-25T15:34:02.978Z</time></trkpt><trkpt lat="43.2363609854521" lon="6.102897604029588"><ele>95.0</ele><time>2026-04-25T15:34:03.978Z</time></trkpt><trkpt lat="43.236290560570275" lon="6.102955569433142"><ele>95.0</ele><time>2026-04-25T15:34:04.978Z</time></trkpt><trkpt lat="43.23618564140286" lon="6.103015962015817"><ele>95.0</ele><time>2026-04-25T15:34:06.978Z</time></trkpt><trkpt lat="43.236118932932634" lon="6.103034033225224"><ele>95.0</ele><time>2026-04-25T15:34:07.978Z</time></trkpt><trkpt lat="43.23601923847547" lon="6.103042983137249"><ele>95.0</ele><time>2026-04-25T15:34:08.978Z</time></trkpt><trkpt lat="43.23594710779833" lon="6.103084539395204"><ele>95.0</ele><time>2026-04-25T15:34:09.978Z</time></trkpt><trkpt lat="43.235892054365266" lon="6.103174657906517"><ele>95.0</ele><time>2026-04-25T15:34:10.978Z</time></trkpt><trkpt lat="43.23584345880311" lon="6.103297790589166"><ele>95.0</ele><time>2026-04-25T15:34:11.978Z</time></trkpt><trkpt lat="43.23577293303425" lon="6.103427530782318"><ele>95.0</ele><time>2026-04-25T15:34:12.978Z</time></trkpt><trkpt lat="43.2356713952754" lon="6.103559932202703"><ele>95.0</ele><time>2026-04-25T15:34:13.978Z</time></trkpt><trkpt lat="43.23555584890285" lon="6.103696060546262"><ele>95.0</ele><time>2026-04-25T15:34:14.978Z</time></trkpt><trkpt lat="43.23542486321176" lon="6.103826571901386"><ele>95.0</ele><time>2026-04-25T15:34:15.978Z</time></trkpt><trkpt lat="43.235279308034016" lon="6.103969318850436"><ele>94.33333333333334</ele><time>2026-04-25T15:34:16.978Z</time></trkpt><trkpt lat="43.235115248532736" lon="6.104130045651114"><ele>93.66666666666667</ele><time>2026-04-25T15:34:17.978Z</time></trkpt><trkpt lat="43.23496414747573" lon="6.10428258693745"><ele>93.0</ele><time>2026-04-25T15:34:18.978Z</time></trkpt><trkpt lat="43.23480420600192" lon="6.104448113671927"><ele>93.0</ele><time>2026-04-25T15:34:19.978Z</time></trkpt><trkpt lat="43.23463351798733" lon="6.104648749523833"><ele>93.0</ele><time>2026-04-25T15:34:20.978Z</time></trkpt><trkpt lat="43.234450711525334" lon="6.104876057257827"><ele>92.5</ele><time>2026-04-25T15:34:21.978Z</time></trkpt><trkpt lat="43.2342474026057" lon="6.105113868866031"><ele>92.0</ele><time>2026-04-25T15:34:22.978Z</time></trkpt><trkpt lat="43.23402979773174" lon="6.105361032629109"><ele>91.5</ele><time>2026-04-25T15:34:23.978Z</time></trkpt><trkpt lat="43.23379370440967" lon="6.105614340876662"><ele>91.0</ele><time>2026-04-25T15:34:24.978Z</time></trkpt><trkpt lat="43.233559851100125" lon="6.105865344334537"><ele>91.0</ele><time>2026-04-25T15:34:25.978Z</time></trkpt><trkpt lat="43.23332067928067" lon="6.106140351731468"><ele>91.0</ele><time>2026-04-25T15:34:26.978Z</time></trkpt><trkpt lat="43.233087583799744" lon="6.106429346196171"><ele>90.0</ele><time>2026-04-25T15:34:27.978Z</time></trkpt><trkpt lat="43.23284798405911" lon="6.1067145405101435"><ele>89.0</ele><time>2026-04-25T15:34:28.978Z</time></trkpt><trkpt lat="43.232618566203485" lon="6.106985547841229"><ele>89.0</ele><time>2026-04-25T15:34:29.978Z</time></trkpt><trkpt lat="43.23241135315897" lon="6.107271284262495"><ele>89.0</ele><time>2026-04-25T15:34:30.978Z</time></trkpt><trkpt lat="43.23224333168305" lon="6.107553316270429"><ele>88.0</ele><time>2026-04-25T15:34:31.978Z</time></trkpt><trkpt lat="43.23210044472694" lon="6.107828836637366"><ele>87.0</ele><time>2026-04-25T15:34:32.978Z</time></trkpt><trkpt lat="43.23197247731288" lon="6.10810401450616"><ele>87.5</ele><time>2026-04-25T15:34:33.978Z</time></trkpt><trkpt lat="43.2318484216164" lon="6.108390400324938"><ele>88.0</ele><time>2026-04-25T15:34:34.978Z</time></trkpt><trkpt lat="43.231713710922655" lon="6.108685180628761"><ele>88.0</ele><time>2026-04-25T15:34:35.978Z</time></trkpt><trkpt lat="43.23157784438073" lon="6.108983946549215"><ele>88.0</ele><time>2026-04-25T15:34:36.978Z</time></trkpt><trkpt lat="43.23143742757425" lon="6.109284649845664"><ele>87.0</ele><time>2026-04-25T15:34:37.978Z</time></trkpt><trkpt lat="43.23129532812625" lon="6.109583825754139"><ele>86.0</ele><time>2026-04-25T15:34:38.978Z</time></trkpt><trkpt lat="43.23115872962758" lon="6.109870838732996"><ele>86.0</ele><time>2026-04-25T15:34:39.978Z</time></trkpt><trkpt lat="43.23102471312401" lon="6.110158639174389"><ele>86.0</ele><time>2026-04-25T15:34:40.978Z</time></trkpt><trkpt lat="43.230892528116634" lon="6.110450001093255"><ele>86.0</ele><time>2026-04-25T15:34:41.978Z</time></trkpt><trkpt lat="43.23075533104571" lon="6.110740983010875"><ele>86.0</ele><time>2026-04-25T15:34:42.978Z</time></trkpt><trkpt lat="43.230613301979396" lon="6.111039570121405"><ele>84.5</ele><time>2026-04-25T15:34:43.978Z</time></trkpt><trkpt lat="43.23047183392745" lon="6.111346772849049"><ele>83.0</ele><time>2026-04-25T15:34:44.978Z</time></trkpt><trkpt lat="43.23032665204069" lon="6.111663583551523"><ele>83.0</ele><time>2026-04-25T15:34:45.978Z</time></trkpt><trkpt lat="43.23017301636169" lon="6.111990728586261"><ele>83.0</ele><time>2026-04-25T15:34:46.978Z</time></trkpt><trkpt lat="43.230013712727114" lon="6.112325311956775"><ele>82.5</ele><time>2026-04-25T15:34:47.978Z</time></trkpt><trkpt lat="43.229865337897245" lon="6.11264366265296"><ele>82.0</ele><time>2026-04-25T15:34:48.978Z</time></trkpt><trkpt lat="43.22971938740569" lon="6.112959214546477"><ele>81.0</ele><time>2026-04-25T15:34:49.978Z</time></trkpt><trkpt lat="43.22957820290969" lon="6.113272327100497"><ele>80.0</ele><time>2026-04-25T15:34:50.978Z</time></trkpt><trkpt lat="43.229443750866174" lon="6.11358235937506"><ele>80.0</ele><time>2026-04-25T15:34:51.978Z</time></trkpt><trkpt lat="43.22931865598287" lon="6.113902885709727"><ele>80.0</ele><time>2026-04-25T15:34:52.978Z</time></trkpt><trkpt lat="43.22920768510248" lon="6.114232631358149"><ele>79.5</ele><time>2026-04-25T15:34:53.978Z</time></trkpt><trkpt lat="43.22910326604189" lon="6.114572406322088"><ele>79.0</ele><time>2026-04-25T15:34:54.978Z</time></trkpt><trkpt lat="43.2290026367246" lon="6.114929598001341"><ele>77.5</ele><time>2026-04-25T15:34:55.978Z</time></trkpt><trkpt lat="43.22890555451086" lon="6.115300522188895"><ele>76.0</ele><time>2026-04-25T15:34:56.978Z</time></trkpt><trkpt lat="43.228800477120565" lon="6.115668797208805"><ele>75.5</ele><time>2026-04-25T15:34:57.978Z</time></trkpt><trkpt lat="43.22869107034716" lon="6.1160317070778785"><ele>75.0</ele><time>2026-04-25T15:34:58.978Z</time></trkpt><trkpt lat="43.22857930295679" lon="6.116395636260288"><ele>75.0</ele><time>2026-04-25T15:34:59.978Z</time></trkpt><trkpt lat="43.228482804037306" lon="6.116748317065696"><ele>75.0</ele><time>2026-04-25T15:35:00.978Z</time></trkpt><trkpt lat="43.22839032236956" lon="6.117084620167523"><ele>75.0</ele><time>2026-04-25T15:35:01.978Z</time></trkpt><trkpt lat="43.22829857165135" lon="6.117393850928172"><ele>75.0</ele><time>2026-04-25T15:35:02.978Z</time></trkpt><trkpt lat="43.22820255230533" lon="6.117689236966805"><ele>74.0</ele><time>2026-04-25T15:35:03.978Z</time></trkpt><trkpt lat="43.228113014988836" lon="6.117966042143508"><ele>73.0</ele><time>2026-04-25T15:35:04.978Z</time></trkpt><trkpt lat="43.228013229300586" lon="6.118258058574015"><ele>72.0</ele><time>2026-04-25T15:35:05.978Z</time></trkpt><trkpt lat="43.22790856245742" lon="6.118546073256716"><ele>71.0</ele><time>2026-04-25T15:35:06.978Z</time></trkpt><trkpt lat="43.227803437673366" lon="6.11882459311767"><ele>70.5</ele><time>2026-04-25T15:35:07.978Z</time></trkpt><trkpt lat="43.22770062260178" lon="6.119107613362354"><ele>70.0</ele><time>2026-04-25T15:35:08.978Z</time></trkpt><trkpt lat="43.22761123250513" lon="6.119398009945017"><ele>70.0</ele><time>2026-04-25T15:35:09.978Z</time></trkpt><trkpt lat="43.22753071847938" lon="6.119700155239254"><ele>70.0</ele><time>2026-04-25T15:35:10.978Z</time></trkpt><trkpt lat="43.22745525417048" lon="6.120007683735526"><ele>70.0</ele><time>2026-04-25T15:35:11.978Z</time></trkpt><trkpt lat="43.22738550103839" lon="6.1203261638435835"><ele>70.0</ele><time>2026-04-25T15:35:12.978Z</time></trkpt><trkpt lat="43.22731382655116" lon="6.120645301177617"><ele>69.5</ele><time>2026-04-25T15:35:13.978Z</time></trkpt><trkpt lat="43.22722937375803" lon="6.120958960061288"><ele>69.0</ele><time>2026-04-25T15:35:14.978Z</time></trkpt><trkpt lat="43.22712841711126" lon="6.121253906238968"><ele>69.0</ele><time>2026-04-25T15:35:15.978Z</time></trkpt><trkpt lat="43.2270267687493" lon="6.121545552268218"><ele>69.0</ele><time>2026-04-25T15:35:16.978Z</time></trkpt><trkpt lat="43.226928757934324" lon="6.121819183338628"><ele>67.5</ele><time>2026-04-25T15:35:17.978Z</time></trkpt><trkpt lat="43.226844411380306" lon="6.1221107412068445"><ele>66.0</ele><time>2026-04-25T15:35:18.978Z</time></trkpt><trkpt lat="43.22677863544371" lon="6.122409411284365"><ele>65.5</ele><time>2026-04-25T15:35:19.978Z</time></trkpt><trkpt lat="43.22672897248188" lon="6.12271902751199"><ele>65.0</ele><time>2026-04-25T15:35:20.978Z</time></trkpt><trkpt lat="43.22668969765991" lon="6.123033235933206"><ele>65.0</ele><time>2026-04-25T15:35:21.978Z</time></trkpt><trkpt lat="43.226656550933285" lon="6.123352004805037"><ele>65.0</ele><time>2026-04-25T15:35:22.978Z</time></trkpt><trkpt lat="43.226598604185604" lon="6.123671116270323"><ele>65.0</ele><time>2026-04-25T15:35:23.978Z</time></trkpt><trkpt lat="43.22655684232942" lon="6.123941682758091"><ele>65.0</ele><time>2026-04-25T15:35:24.978Z</time></trkpt><trkpt lat="43.22652723270771" lon="6.124188350517868"><ele>65.0</ele><time>2026-04-25T15:35:25.979Z</time></trkpt><trkpt lat="43.226481884547894" lon="6.124421693204724"><ele>64.33333333333334</ele><time>2026-04-25T15:35:26.979Z</time></trkpt><trkpt lat="43.22641101008755" lon="6.124688439711787"><ele>63.66666666666667</ele><time>2026-04-25T15:35:27.979Z</time></trkpt><trkpt lat="43.22634881235523" lon="6.124981855404794"><ele>63.0</ele><time>2026-04-25T15:35:28.979Z</time></trkpt><trkpt lat="43.22627164845953" lon="6.125292460447842"><ele>63.0</ele><time>2026-04-25T15:35:29.979Z</time></trkpt><trkpt lat="43.22619459213657" lon="6.125636784019446"><ele>63.0</ele><time>2026-04-25T15:35:30.979Z</time></trkpt><trkpt lat="43.22612299284746" lon="6.125999067971497"><ele>62.5</ele><time>2026-04-25T15:35:31.978Z</time></trkpt><trkpt lat="43.22604871059733" lon="6.126397211597745"><ele>62.0</ele><time>2026-04-25T15:35:32.978Z</time></trkpt><trkpt lat="43.22601106812461" lon="6.126809743343047"><ele>61.5</ele><time>2026-04-25T15:35:33.978Z</time></trkpt><trkpt lat="43.225967897675574" lon="6.1272040103645935"><ele>61.0</ele><time>2026-04-25T15:35:34.979Z</time></trkpt><trkpt lat="43.225908743783556" lon="6.127588475020271"><ele>61.0</ele><time>2026-04-25T15:35:35.979Z</time></trkpt><trkpt lat="43.22583818893218" lon="6.127964266388951"><ele>61.0</ele><time>2026-04-25T15:35:36.979Z</time></trkpt><trkpt lat="43.22575523180112" lon="6.128327577463554"><ele>60.5</ele><time>2026-04-25T15:35:37.978Z</time></trkpt><trkpt lat="43.22566183268918" lon="6.128665403596427"><ele>60.0</ele><time>2026-04-25T15:35:38.979Z</time></trkpt><trkpt lat="43.225570883438905" lon="6.128982089448886"><ele>59.0</ele><time>2026-04-25T15:35:39.979Z</time></trkpt><trkpt lat="43.22550902375929" lon="6.129308174639529"><ele>58.0</ele><time>2026-04-25T15:35:40.979Z</time></trkpt><trkpt lat="43.22548464408729" lon="6.129629754893168"><ele>57.33333333333333</ele><time>2026-04-25T15:35:41.979Z</time></trkpt><trkpt lat="43.22548087079684" lon="6.129936438478312"><ele>56.66666666666667</ele><time>2026-04-25T15:35:42.979Z</time></trkpt><trkpt lat="43.225499276298336" lon="6.130232627145196"><ele>56.0</ele><time>2026-04-25T15:35:43.979Z</time></trkpt><trkpt lat="43.225545050566865" lon="6.130504599477411"><ele>55.66666666666667</ele><time>2026-04-25T15:35:44.979Z</time></trkpt><trkpt lat="43.22560566887101" lon="6.130774802637855"><ele>55.33333333333333</ele><time>2026-04-25T15:35:45.979Z</time></trkpt><trkpt lat="43.22568702807257" lon="6.131034994110673"><ele>55.0</ele><time>2026-04-25T15:35:46.979Z</time></trkpt><trkpt lat="43.225793799798" lon="6.131273845906669"><ele>55.0</ele><time>2026-04-25T15:35:47.979Z</time></trkpt><trkpt lat="43.225902341498966" lon="6.131490146154589"><ele>55.0</ele><time>2026-04-25T15:35:48.979Z</time></trkpt><trkpt lat="43.22600542013023" lon="6.13169954906511"><ele>55.0</ele><time>2026-04-25T15:35:49.979Z</time></trkpt><trkpt lat="43.226098776578105" lon="6.131905112709235"><ele>54.666666666666664</ele><time>2026-04-25T15:35:50.979Z</time></trkpt><trkpt lat="43.22618723115955" lon="6.132109247447604"><ele>54.33333333333333</ele><time>2026-04-25T15:35:51.979Z</time></trkpt><trkpt lat="43.22625436434447" lon="6.132317337205965"><ele>54.0</ele><time>2026-04-25T15:35:52.979Z</time></trkpt><trkpt lat="43.22628539777034" lon="6.1325369195324875"><ele>53.66666666666667</ele><time>2026-04-25T15:35:53.979Z</time></trkpt><trkpt lat="43.22628486264996" lon="6.1327636617899035"><ele>53.333333333333336</ele><time>2026-04-25T15:35:54.979Z</time></trkpt><trkpt lat="43.226263954982336" lon="6.132993906351608"><ele>53.0</ele><time>2026-04-25T15:35:55.979Z</time></trkpt><trkpt lat="43.226222906051184" lon="6.133223196886121"><ele>53.0</ele><time>2026-04-25T15:35:56.979Z</time></trkpt><trkpt lat="43.22617626169147" lon="6.133429188802685"><ele>53.0</ele><time>2026-04-25T15:35:57.979Z</time></trkpt><trkpt lat="43.22613795884842" lon="6.133623828610769"><ele>53.0</ele><time>2026-04-25T15:35:58.979Z</time></trkpt><trkpt lat="43.226100423355476" lon="6.133802461779379"><ele>53.0</ele><time>2026-04-25T15:35:59.979Z</time></trkpt><trkpt lat="43.226066492371935" lon="6.133968032573694"><ele>52.599999999999994</ele><time>2026-04-25T15:36:00.979Z</time></trkpt><trkpt lat="43.22603135891423" lon="6.134128526697007"><ele>52.199999999999996</ele><time>2026-04-25T15:36:01.979Z</time></trkpt><trkpt lat="43.22600173459364" lon="6.134274383216578"><ele>51.8</ele><time>2026-04-25T15:36:02.979Z</time></trkpt><trkpt lat="43.225973351842875" lon="6.134398892790071"><ele>51.4</ele><time>2026-04-25T15:36:03.979Z</time></trkpt><trkpt lat="43.22594876173305" lon="6.13448052851594"><ele>51.0</ele><time>2026-04-25T15:36:04.979Z</time></trkpt><trkpt lat="43.22590770670063" lon="6.134558253306593"><ele>51.0</ele><time>2026-04-25T15:36:06.979Z</time></trkpt><trkpt lat="43.22581022946406" lon="6.134652884893566"><ele>51.0</ele><time>2026-04-25T15:36:08.979Z</time></trkpt><trkpt lat="43.22577400104392" lon="6.134731427633169"><ele>51.0</ele><time>2026-04-25T15:36:09.979Z</time></trkpt><trkpt lat="43.22574955007522" lon="6.134841113428951"><ele>51.0</ele><time>2026-04-25T15:36:10.979Z</time></trkpt><trkpt lat="43.22571864658315" lon="6.134916770958302"><ele>51.0</ele><time>2026-04-25T15:36:11.979Z</time></trkpt><trkpt lat="43.22564321943823" lon="6.135072459600064"><ele>51.0</ele><time>2026-04-25T15:36:13.979Z</time></trkpt><trkpt lat="43.22563794344543" lon="6.135164606691295"><ele>51.0</ele><time>2026-04-25T15:36:14.979Z</time></trkpt><trkpt lat="43.22563384994591" lon="6.135253572954454"><ele>51.0</ele><time>2026-04-25T15:36:15.979Z</time></trkpt><trkpt lat="43.22562589250438" lon="6.1353561138356385"><ele>51.0</ele><time>2026-04-25T15:36:16.979Z</time></trkpt><trkpt lat="43.225606744024475" lon="6.135454935252957"><ele>51.0</ele><time>2026-04-25T15:36:17.979Z</time></trkpt><trkpt lat="43.225567368360295" lon="6.135545230865473"><ele>51.0</ele><time>2026-04-25T15:36:18.979Z</time></trkpt><trkpt lat="43.22551579709157" lon="6.135643437508053"><ele>51.0</ele><time>2026-04-25T15:36:19.979Z</time></trkpt><trkpt lat="43.225433414977935" lon="6.13574940969611"><ele>51.66666666666667</ele><time>2026-04-25T15:36:20.979Z</time></trkpt><trkpt lat="43.225303983495685" lon="6.135879078540446"><ele>52.333333333333336</ele><time>2026-04-25T15:36:21.979Z</time></trkpt><trkpt lat="43.22514231608715" lon="6.1360537450110035"><ele>53.0</ele><time>2026-04-25T15:36:22.979Z</time></trkpt><trkpt lat="43.224978534742554" lon="6.136270915297669"><ele>51.5</ele><time>2026-04-25T15:36:23.979Z</time></trkpt><trkpt lat="43.224794027290194" lon="6.136509709995868"><ele>50.0</ele><time>2026-04-25T15:36:24.979Z</time></trkpt><trkpt lat="43.22461923675457" lon="6.136748711866067"><ele>50.0</ele><time>2026-04-25T15:36:25.979Z</time></trkpt><trkpt lat="43.22447032545726" lon="6.136968424919457"><ele>50.0</ele><time>2026-04-25T15:36:26.978Z</time></trkpt><trkpt lat="43.22435559238902" lon="6.13715386392808"><ele>50.0</ele><time>2026-04-25T15:36:27.978Z</time></trkpt><trkpt lat="43.22427116820679" lon="6.13730517418828"><ele>51.25</ele><time>2026-04-25T15:36:28.978Z</time></trkpt><trkpt lat="43.224191679974595" lon="6.1374550024597"><ele>52.5</ele><time>2026-04-25T15:36:29.978Z</time></trkpt><trkpt lat="43.224128128202324" lon="6.137579905687977"><ele>53.75</ele><time>2026-04-25T15:36:30.978Z</time></trkpt><trkpt lat="43.22406407987393" lon="6.137696292205518"><ele>55.0</ele><time>2026-04-25T15:36:31.978Z</time></trkpt><trkpt lat="43.22398591239748" lon="6.137852240030516"><ele>54.0</ele><time>2026-04-25T15:36:32.978Z</time></trkpt><trkpt lat="43.223895753205" lon="6.1380272635940445"><ele>53.0</ele><time>2026-04-25T15:36:33.978Z</time></trkpt><trkpt lat="43.22382900890829" lon="6.138193367243301"><ele>52.0</ele><time>2026-04-25T15:36:34.978Z</time></trkpt><trkpt lat="43.22377233766422" lon="6.138364150013848"><ele>51.0</ele><time>2026-04-25T15:36:35.978Z</time></trkpt><trkpt lat="43.22371342438662" lon="6.138529182730047"><ele>51.0</ele><time>2026-04-25T15:36:36.978Z</time></trkpt><trkpt lat="43.2236576476503" lon="6.138696862573492"><ele>51.0</ele><time>2026-04-25T15:36:37.978Z</time></trkpt><trkpt lat="43.223586146240486" lon="6.138871451231941"><ele>51.0</ele><time>2026-04-25T15:36:38.978Z</time></trkpt><trkpt lat="43.22350133588676" lon="6.139023679041489"><ele>51.0</ele><time>2026-04-25T15:36:39.978Z</time></trkpt><trkpt lat="43.22341914973395" lon="6.139171049699886"><ele>50.5</ele><time>2026-04-25T15:36:40.978Z</time></trkpt><trkpt lat="43.22333420604463" lon="6.139321531828654"><ele>50.0</ele><time>2026-04-25T15:36:41.978Z</time></trkpt><trkpt lat="43.22325347281533" lon="6.139481507491482"><ele>49.5</ele><time>2026-04-25T15:36:42.978Z</time></trkpt><trkpt lat="43.223186747075324" lon="6.139637763084224"><ele>49.0</ele><time>2026-04-25T15:36:43.978Z</time></trkpt><trkpt lat="43.22312275309469" lon="6.139803879633293"><ele>49.666666666666664</ele><time>2026-04-25T15:36:44.978Z</time></trkpt><trkpt lat="43.22306986813206" lon="6.139997844980119"><ele>50.33333333333333</ele><time>2026-04-25T15:36:45.978Z</time></trkpt><trkpt lat="43.223019156969876" lon="6.140216460822928"><ele>51.0</ele><time>2026-04-25T15:36:46.978Z</time></trkpt><trkpt lat="43.222959685314564" lon="6.140427521637893"><ele>51.0</ele><time>2026-04-25T15:36:47.978Z</time></trkpt><trkpt lat="43.22289576360813" lon="6.140630667276952"><ele>51.0</ele><time>2026-04-25T15:36:48.978Z</time></trkpt><trkpt lat="43.222835103809956" lon="6.140822058308273"><ele>51.0</ele><time>2026-04-25T15:36:49.978Z</time></trkpt><trkpt lat="43.22277202664127" lon="6.140991936515106"><ele>51.25</ele><time>2026-04-25T15:36:50.978Z</time></trkpt><trkpt lat="43.22271253544249" lon="6.141163154770944"><ele>51.5</ele><time>2026-04-25T15:36:51.978Z</time></trkpt><trkpt lat="43.22265770394371" lon="6.141318664317714"><ele>51.75</ele><time>2026-04-25T15:36:52.978Z</time></trkpt><trkpt lat="43.22260709954504" lon="6.141464781134361"><ele>52.0</ele><time>2026-04-25T15:36:53.978Z</time></trkpt><trkpt lat="43.222559942906884" lon="6.141603161713053"><ele>52.5</ele><time>2026-04-25T15:36:54.978Z</time></trkpt><trkpt lat="43.22250997024338" lon="6.141740462651264"><ele>53.0</ele><time>2026-04-25T15:36:55.978Z</time></trkpt><trkpt lat="43.22245055257454" lon="6.141873833457052"><ele>53.5</ele><time>2026-04-25T15:36:56.978Z</time></trkpt><trkpt lat="43.222378339489005" lon="6.141996426237612"><ele>54.0</ele><time>2026-04-25T15:36:57.978Z</time></trkpt><trkpt lat="43.222290818516505" lon="6.142113169017167"><ele>54.0</ele><time>2026-04-25T15:36:58.978Z</time></trkpt><trkpt lat="43.22218747396085" lon="6.142221021399324"><ele>54.0</ele><time>2026-04-25T15:36:59.978Z</time></trkpt><trkpt lat="43.222079634270244" lon="6.142289025651371"><ele>54.0</ele><time>2026-04-25T15:37:00.978Z</time></trkpt><trkpt lat="43.221970602842454" lon="6.142346037714723"><ele>54.0</ele><time>2026-04-25T15:37:01.978Z</time></trkpt><trkpt lat="43.221850675220885" lon="6.142388917659098"><ele>54.0</ele><time>2026-04-25T15:37:02.978Z</time></trkpt><trkpt lat="43.2217312275581" lon="6.142448449610614"><ele>54.0</ele><time>2026-04-25T15:37:03.978Z</time></trkpt><trkpt lat="43.22161088471593" lon="6.142508788111657"><ele>54.0</ele><time>2026-04-25T15:37:04.978Z</time></trkpt><trkpt lat="43.22149370569509" lon="6.142566449391925"><ele>54.0</ele><time>2026-04-25T15:37:05.978Z</time></trkpt><trkpt lat="43.221375472834055" lon="6.14262791756006"><ele>53.5</ele><time>2026-04-25T15:37:06.978Z</time></trkpt><trkpt lat="43.22126433279419" lon="6.142687564208125"><ele>53.0</ele><time>2026-04-25T15:37:07.978Z</time></trkpt><trkpt lat="43.22114339617892" lon="6.142743166622733"><ele>52.5</ele><time>2026-04-25T15:37:08.978Z</time></trkpt><trkpt lat="43.22102531430905" lon="6.142798437420201"><ele>52.0</ele><time>2026-04-25T15:37:09.978Z</time></trkpt><trkpt lat="43.22090032338806" lon="6.142857822515351"><ele>52.0</ele><time>2026-04-25T15:37:10.978Z</time></trkpt><trkpt lat="43.22077344574881" lon="6.142923709987967"><ele>52.0</ele><time>2026-04-25T15:37:11.978Z</time></trkpt><trkpt lat="43.2206434079228" lon="6.142984593230373"><ele>52.0</ele><time>2026-04-25T15:37:12.978Z</time></trkpt><trkpt lat="43.22051185017813" lon="6.143052918895342"><ele>52.0</ele><time>2026-04-25T15:37:13.978Z</time></trkpt><trkpt lat="43.22037408764309" lon="6.143119415960519"><ele>51.666666666666664</ele><time>2026-04-25T15:37:14.978Z</time></trkpt><trkpt lat="43.22023262681706" lon="6.1431844123119275"><ele>51.33333333333333</ele><time>2026-04-25T15:37:15.978Z</time></trkpt><trkpt lat="43.220088550059735" lon="6.143253760449366"><ele>51.0</ele><time>2026-04-25T15:37:16.978Z</time></trkpt><trkpt lat="43.21994394642677" lon="6.1433225229112125"><ele>50.75</ele><time>2026-04-25T15:37:17.978Z</time></trkpt><trkpt lat="43.219795829277274" lon="6.143389266491556"><ele>50.5</ele><time>2026-04-25T15:37:18.978Z</time></trkpt><trkpt lat="43.21965479669795" lon="6.143463988355805"><ele>50.25</ele><time>2026-04-25T15:37:19.978Z</time></trkpt><trkpt lat="43.219525354864814" lon="6.143535346263113"><ele>50.0</ele><time>2026-04-25T15:37:20.978Z</time></trkpt><trkpt lat="43.21940568139437" lon="6.143596601983106"><ele>50.0</ele><time>2026-04-25T15:37:21.978Z</time></trkpt><trkpt lat="43.21929321807044" lon="6.143656443077114"><ele>50.0</ele><time>2026-04-25T15:37:22.978Z</time></trkpt><trkpt lat="43.219187393957725" lon="6.143718012152061"><ele>50.0</ele><time>2026-04-25T15:37:23.978Z</time></trkpt><trkpt lat="43.219094933445895" lon="6.143791786231387"><ele>50.0</ele><time>2026-04-25T15:37:24.978Z</time></trkpt><trkpt lat="43.21902537270418" lon="6.143866986197141"><ele>50.0</ele><time>2026-04-25T15:37:25.978Z</time></trkpt><trkpt lat="43.218961250679975" lon="6.143936274906699"><ele>50.4</ele><time>2026-04-25T15:37:26.978Z</time></trkpt><trkpt lat="43.21887758572939" lon="6.14398765446131"><ele>50.8</ele><time>2026-04-25T15:37:28.978Z</time></trkpt><trkpt lat="43.21876111021309" lon="6.144005040086751"><ele>51.2</ele><time>2026-04-25T15:37:30.978Z</time></trkpt><trkpt lat="43.21868220417883" lon="6.144019565442101"><ele>51.6</ele><time>2026-04-25T15:37:31.979Z</time></trkpt><trkpt lat="43.2185848035945" lon="6.144070709496927"><ele>52.0</ele><time>2026-04-25T15:37:32.978Z</time></trkpt><trkpt lat="43.21848260492891" lon="6.144115440041955"><ele>52.2</ele><time>2026-04-25T15:37:33.978Z</time></trkpt><trkpt lat="43.21838651110353" lon="6.144142425927981"><ele>52.400000000000006</ele><time>2026-04-25T15:37:34.979Z</time></trkpt><trkpt lat="43.21828036250379" lon="6.144167263213372"><ele>52.599999999999994</ele><time>2026-04-25T15:37:35.979Z</time></trkpt><trkpt lat="43.21816723218554" lon="6.144202104193894"><ele>52.8</ele><time>2026-04-25T15:37:36.979Z</time></trkpt><trkpt lat="43.2180515564399" lon="6.1442109094952855"><ele>53.0</ele><time>2026-04-25T15:37:37.979Z</time></trkpt><trkpt lat="43.2179072080195" lon="6.144171998090106"><ele>52.333333333333336</ele><time>2026-04-25T15:37:38.978Z</time></trkpt><trkpt lat="43.21774057810998" lon="6.144110616307047"><ele>51.66666666666667</ele><time>2026-04-25T15:37:39.978Z</time></trkpt><trkpt lat="43.2175695071688" lon="6.1440535032373855"><ele>51.0</ele><time>2026-04-25T15:37:40.978Z</time></trkpt><trkpt lat="43.21739417932127" lon="6.143994391985517"><ele>51.0</ele><time>2026-04-25T15:37:41.979Z</time></trkpt><trkpt lat="43.21720363295904" lon="6.143926799140027"><ele>51.0</ele><time>2026-04-25T15:37:42.979Z</time></trkpt><trkpt lat="43.217004995562206" lon="6.143858328674505"><ele>51.0</ele><time>2026-04-25T15:37:43.979Z</time></trkpt><trkpt lat="43.21681124225359" lon="6.143788524967598"><ele>51.0</ele><time>2026-04-25T15:37:44.978Z</time></trkpt><trkpt lat="43.21662583343179" lon="6.143727639482351"><ele>51.0</ele><time>2026-04-25T15:37:45.978Z</time></trkpt><trkpt lat="43.21643783620634" lon="6.143666444468155"><ele>51.0</ele><time>2026-04-25T15:37:46.978Z</time></trkpt><trkpt lat="43.21624494719032" lon="6.143599309982976"><ele>50.66666666666667</ele><time>2026-04-25T15:37:47.978Z</time></trkpt><trkpt lat="43.2160510164523" lon="6.14353509288302"><ele>50.333333333333336</ele><time>2026-04-25T15:37:48.978Z</time></trkpt><trkpt lat="43.215860604014956" lon="6.143469877205181"><ele>50.0</ele><time>2026-04-25T15:37:49.978Z</time></trkpt><trkpt lat="43.21567606222305" lon="6.14340432958732"><ele>50.0</ele><time>2026-04-25T15:37:50.978Z</time></trkpt><trkpt lat="43.21549592370296" lon="6.143345803634955"><ele>50.0</ele><time>2026-04-25T15:37:51.978Z</time></trkpt><trkpt lat="43.21531822430097" lon="6.143286630551457"><ele>50.0</ele><time>2026-04-25T15:37:52.978Z</time></trkpt><trkpt lat="43.215148094027" lon="6.143228985324825"><ele>49.333333333333336</ele><time>2026-04-25T15:37:53.978Z</time></trkpt><trkpt lat="43.21498158157423" lon="6.1431729193771485"><ele>48.66666666666667</ele><time>2026-04-25T15:37:54.978Z</time></trkpt><trkpt lat="43.21482506094658" lon="6.143116826803634"><ele>48.0</ele><time>2026-04-25T15:37:55.978Z</time></trkpt><trkpt lat="43.21467662483829" lon="6.143063061125968"><ele>48.0</ele><time>2026-04-25T15:37:56.978Z</time></trkpt><trkpt lat="43.21453594674937" lon="6.14300701046116"><ele>48.0</ele><time>2026-04-25T15:37:57.978Z</time></trkpt><trkpt lat="43.21439943811447" lon="6.142925006967679"><ele>48.0</ele><time>2026-04-25T15:37:58.978Z</time></trkpt><trkpt lat="43.214267586915135" lon="6.142819523949457"><ele>48.0</ele><time>2026-04-25T15:37:59.978Z</time></trkpt><trkpt lat="43.21412824076949" lon="6.1426841663571325"><ele>48.0</ele><time>2026-04-25T15:38:00.978Z</time></trkpt><trkpt lat="43.21398404526561" lon="6.142553882391951"><ele>48.0</ele><time>2026-04-25T15:38:01.978Z</time></trkpt><trkpt lat="43.21382000229526" lon="6.142433290790278"><ele>48.0</ele><time>2026-04-25T15:38:02.978Z</time></trkpt><trkpt lat="43.21364278977752" lon="6.142328573020981"><ele>48.0</ele><time>2026-04-25T15:38:03.978Z</time></trkpt><trkpt lat="43.21346565977147" lon="6.142231230508068"><ele>48.0</ele><time>2026-04-25T15:38:04.978Z</time></trkpt><trkpt lat="43.21328916519248" lon="6.142149891419656"><ele>48.0</ele><time>2026-04-25T15:38:05.978Z</time></trkpt><trkpt lat="43.21310953236781" lon="6.142080211455584"><ele>47.666666666666664</ele><time>2026-04-25T15:38:06.978Z</time></trkpt><trkpt lat="43.21294115680785" lon="6.142011968695693"><ele>47.33333333333333</ele><time>2026-04-25T15:38:07.978Z</time></trkpt><trkpt lat="43.212768204276884" lon="6.141941920919859"><ele>47.0</ele><time>2026-04-25T15:38:08.978Z</time></trkpt><trkpt lat="43.21259879461114" lon="6.141869245230027"><ele>47.0</ele><time>2026-04-25T15:38:09.978Z</time></trkpt><trkpt lat="43.212430233276365" lon="6.141797597270104"><ele>47.0</ele><time>2026-04-25T15:38:10.978Z</time></trkpt><trkpt lat="43.212267370892256" lon="6.141721503661476"><ele>47.0</ele><time>2026-04-25T15:38:11.978Z</time></trkpt><trkpt lat="43.2121018547422" lon="6.141630684856935"><ele>46.33333333333333</ele><time>2026-04-25T15:38:12.978Z</time></trkpt><trkpt lat="43.211938833892795" lon="6.141530728769901"><ele>45.666666666666664</ele><time>2026-04-25T15:38:13.978Z</time></trkpt><trkpt lat="43.211773744370824" lon="6.141423856195593"><ele>45.0</ele><time>2026-04-25T15:38:14.978Z</time></trkpt><trkpt lat="43.2116056723768" lon="6.1413287613435905"><ele>45.666666666666664</ele><time>2026-04-25T15:38:15.978Z</time></trkpt><trkpt lat="43.211434568966595" lon="6.1412542228338864"><ele>46.33333333333333</ele><time>2026-04-25T15:38:16.978Z</time></trkpt><trkpt lat="43.211253129478" lon="6.141189556617592"><ele>47.0</ele><time>2026-04-25T15:38:17.978Z</time></trkpt><trkpt lat="43.21107293519382" lon="6.141133761583979"><ele>47.0</ele><time>2026-04-25T15:38:18.978Z</time></trkpt><trkpt lat="43.21089510200915" lon="6.141084480213483"><ele>47.0</ele><time>2026-04-25T15:38:19.978Z</time></trkpt><trkpt lat="43.21072928782786" lon="6.1410368239249635"><ele>47.0</ele><time>2026-04-25T15:38:20.978Z</time></trkpt><trkpt lat="43.21057136925306" lon="6.1409866819908085"><ele>50.666666666666664</ele><time>2026-04-25T15:38:21.978Z</time></trkpt><trkpt lat="43.210413855016085" lon="6.140924040224502"><ele>54.33333333333333</ele><time>2026-04-25T15:38:22.978Z</time></trkpt><trkpt lat="43.210259425083095" lon="6.14085155994645"><ele>58.0</ele><time>2026-04-25T15:38:23.978Z</time></trkpt><trkpt lat="43.21010704454326" lon="6.140762999160167"><ele>59.33333333333333</ele><time>2026-04-25T15:38:24.978Z</time></trkpt><trkpt lat="43.20995617771188" lon="6.140669583445777"><ele>60.66666666666667</ele><time>2026-04-25T15:38:25.978Z</time></trkpt><trkpt lat="43.209806100094276" lon="6.140565187015714"><ele>62.0</ele><time>2026-04-25T15:38:26.978Z</time></trkpt><trkpt lat="43.209662836877" lon="6.1404466315511765"><ele>62.0</ele><time>2026-04-25T15:38:27.978Z</time></trkpt><trkpt lat="43.20951739118712" lon="6.140314589315289"><ele>62.0</ele><time>2026-04-25T15:38:28.978Z</time></trkpt><trkpt lat="43.209372614696946" lon="6.140161050547482"><ele>62.0</ele><time>2026-04-25T15:38:29.978Z</time></trkpt><trkpt lat="43.2092275853986" lon="6.140008285068407"><ele>63.333333333333336</ele><time>2026-04-25T15:38:30.978Z</time></trkpt><trkpt lat="43.20907455466581" lon="6.139851430420299"><ele>64.66666666666667</ele><time>2026-04-25T15:38:31.978Z</time></trkpt><trkpt lat="43.20893137864275" lon="6.139672237614207"><ele>66.0</ele><time>2026-04-25T15:38:32.978Z</time></trkpt><trkpt lat="43.20880740031285" lon="6.139469837831505"><ele>66.0</ele><time>2026-04-25T15:38:33.978Z</time></trkpt><trkpt lat="43.2086786567425" lon="6.139237585256094"><ele>66.0</ele><time>2026-04-25T15:38:34.978Z</time></trkpt><trkpt lat="43.2085545936195" lon="6.139011348732617"><ele>66.0</ele><time>2026-04-25T15:38:35.978Z</time></trkpt><trkpt lat="43.208441732149325" lon="6.138789780146102"><ele>61.66666666666667</ele><time>2026-04-25T15:38:36.978Z</time></trkpt><trkpt lat="43.20833010142311" lon="6.138566587954459"><ele>57.333333333333336</ele><time>2026-04-25T15:38:37.978Z</time></trkpt><trkpt lat="43.20820789815068" lon="6.138349694317333"><ele>53.0</ele><time>2026-04-25T15:38:38.978Z</time></trkpt><trkpt lat="43.20807330799625" lon="6.1381290794435115"><ele>53.0</ele><time>2026-04-25T15:38:39.978Z</time></trkpt><trkpt lat="43.20792796805403" lon="6.137909872458027"><ele>53.0</ele><time>2026-04-25T15:38:40.978Z</time></trkpt><trkpt lat="43.207785023998746" lon="6.1377003528130905"><ele>53.0</ele><time>2026-04-25T15:38:41.978Z</time></trkpt><trkpt lat="43.207628826731174" lon="6.137499473143492"><ele>51.0</ele><time>2026-04-25T15:38:42.978Z</time></trkpt><trkpt lat="43.20746665966824" lon="6.137310925970235"><ele>49.0</ele><time>2026-04-25T15:38:43.978Z</time></trkpt><trkpt lat="43.20729057612793" lon="6.1371414758563105"><ele>47.0</ele><time>2026-04-25T15:38:44.978Z</time></trkpt><trkpt lat="43.207097978477265" lon="6.136987610868286"><ele>47.0</ele><time>2026-04-25T15:38:45.978Z</time></trkpt><trkpt lat="43.206909409339325" lon="6.136853796201686"><ele>47.0</ele><time>2026-04-25T15:38:46.978Z</time></trkpt><trkpt lat="43.20673199416667" lon="6.136746376883286"><ele>47.0</ele><time>2026-04-25T15:38:47.978Z</time></trkpt><trkpt lat="43.206564429942375" lon="6.136671648576363"><ele>47.75</ele><time>2026-04-25T15:38:48.978Z</time></trkpt><trkpt lat="43.20641310232421" lon="6.136596623259047"><ele>48.5</ele><time>2026-04-25T15:38:49.978Z</time></trkpt><trkpt lat="43.20627206945785" lon="6.136535374813825"><ele>49.25</ele><time>2026-04-25T15:38:50.978Z</time></trkpt><trkpt lat="43.20614031945546" lon="6.136475258517216"><ele>50.0</ele><time>2026-04-25T15:38:51.978Z</time></trkpt><trkpt lat="43.20600070345621" lon="6.136418976578169"><ele>47.333333333333336</ele><time>2026-04-25T15:38:52.978Z</time></trkpt><trkpt lat="43.205835012422504" lon="6.136348834609867"><ele>44.66666666666667</ele><time>2026-04-25T15:38:53.978Z</time></trkpt><trkpt lat="43.20563914697241" lon="6.136290885196419"><ele>42.0</ele><time>2026-04-25T15:38:54.978Z</time></trkpt><trkpt lat="43.205428218415946" lon="6.136232336010311"><ele>42.0</ele><time>2026-04-25T15:38:55.978Z</time></trkpt><trkpt lat="43.20523018655037" lon="6.136177366669693"><ele>42.0</ele><time>2026-04-25T15:38:56.978Z</time></trkpt><trkpt lat="43.205044118400366" lon="6.136126332237321"><ele>42.0</ele><time>2026-04-25T15:38:57.978Z</time></trkpt><trkpt lat="43.2048728801249" lon="6.136097450740758"><ele>42.333333333333336</ele><time>2026-04-25T15:38:58.978Z</time></trkpt><trkpt lat="43.20471805059097" lon="6.136049729896258"><ele>42.66666666666667</ele><time>2026-04-25T15:38:59.978Z</time></trkpt><trkpt lat="43.204569589669326" lon="6.136001625886789"><ele>43.0</ele><time>2026-04-25T15:39:00.978Z</time></trkpt><trkpt lat="43.20442348438397" lon="6.135960146507924"><ele>43.0</ele><time>2026-04-25T15:39:01.978Z</time></trkpt><trkpt lat="43.20427208885215" lon="6.135918149690929"><ele>43.0</ele><time>2026-04-25T15:39:02.978Z</time></trkpt><trkpt lat="43.204119588086904" lon="6.135878599277025"><ele>43.0</ele><time>2026-04-25T15:39:03.978Z</time></trkpt><trkpt lat="43.2039704299927" lon="6.135836296979819"><ele>43.0</ele><time>2026-04-25T15:39:04.978Z</time></trkpt><trkpt lat="43.203836505657804" lon="6.1358038966376585"><ele>43.0</ele><time>2026-04-25T15:39:05.978Z</time></trkpt><trkpt lat="43.20370944626141" lon="6.135767290352334"><ele>43.0</ele><time>2026-04-25T15:39:06.978Z</time></trkpt><trkpt lat="43.20359488881532" lon="6.135737560131414"><ele>43.0</ele><time>2026-04-25T15:39:07.978Z</time></trkpt><trkpt lat="43.20348568563895" lon="6.135704640019617"><ele>43.0</ele><time>2026-04-25T15:39:08.978Z</time></trkpt><trkpt lat="43.20338888765253" lon="6.135678943592576"><ele>43.0</ele><time>2026-04-25T15:39:09.978Z</time></trkpt><trkpt lat="43.20331000466288" lon="6.135657382132102"><ele>43.0</ele><time>2026-04-25T15:39:10.978Z</time></trkpt><trkpt lat="43.20319825186055" lon="6.135629605520549"><ele>43.0</ele><time>2026-04-25T15:39:12.978Z</time></trkpt><trkpt lat="43.20309229747044" lon="6.135603392164148"><ele>43.0</ele><time>2026-04-25T15:39:14.978Z</time></trkpt><trkpt lat="43.20301166973633" lon="6.135578997702652"><ele>43.0</ele><time>2026-04-25T15:39:15.978Z</time></trkpt><trkpt lat="43.202907389898385" lon="6.135545558855376"><ele>43.0</ele><time>2026-04-25T15:39:16.978Z</time></trkpt><trkpt lat="43.20280303440512" lon="6.1355122727358635"><ele>43.0</ele><time>2026-04-25T15:39:17.978Z</time></trkpt><trkpt lat="43.20268900427396" lon="6.135475193787334"><ele>43.0</ele><time>2026-04-25T15:39:18.978Z</time></trkpt><trkpt lat="43.20255501631942" lon="6.135420468593754"><ele>43.0</ele><time>2026-04-25T15:39:19.978Z</time></trkpt><trkpt lat="43.20240545492893" lon="6.135340448723706"><ele>43.0</ele><time>2026-04-25T15:39:20.978Z</time></trkpt><trkpt lat="43.202264938705284" lon="6.135251474234367"><ele>43.0</ele><time>2026-04-25T15:39:21.978Z</time></trkpt><trkpt lat="43.202134400210134" lon="6.1351597902872435"><ele>43.333333333333336</ele><time>2026-04-25T15:39:22.978Z</time></trkpt><trkpt lat="43.201997173046" lon="6.135059633685816"><ele>43.666666666666664</ele><time>2026-04-25T15:39:23.978Z</time></trkpt><trkpt lat="43.201840765536915" lon="6.1349480480007905"><ele>44.0</ele><time>2026-04-25T15:39:24.978Z</time></trkpt><trkpt lat="43.20167454869908" lon="6.13483245655721"><ele>43.0</ele><time>2026-04-25T15:39:25.977Z</time></trkpt><trkpt lat="43.20149597458294" lon="6.13471355287431"><ele>42.0</ele><time>2026-04-25T15:39:26.977Z</time></trkpt><trkpt lat="43.20130829324265" lon="6.134613354603751"><ele>41.0</ele><time>2026-04-25T15:39:27.977Z</time></trkpt><trkpt lat="43.20112066621068" lon="6.134529597897768"><ele>41.0</ele><time>2026-04-25T15:39:28.977Z</time></trkpt><trkpt lat="43.20092027073166" lon="6.134463024919899"><ele>41.0</ele><time>2026-04-25T15:39:29.977Z</time></trkpt><trkpt lat="43.200675585258345" lon="6.13440810808579"><ele>42.0</ele><time>2026-04-25T15:39:30.977Z</time></trkpt><trkpt lat="43.20041516512616" lon="6.134343757924111"><ele>43.0</ele><time>2026-04-25T15:39:31.977Z</time></trkpt><trkpt lat="43.20014802728152" lon="6.134276270041297"><ele>43.0</ele><time>2026-04-25T15:39:32.977Z</time></trkpt><trkpt lat="43.19991228460148" lon="6.134206181429924"><ele>43.0</ele><time>2026-04-25T15:39:33.977Z</time></trkpt><trkpt lat="43.19969146897516" lon="6.134131331369565"><ele>43.0</ele><time>2026-04-25T15:39:34.977Z</time></trkpt><trkpt lat="43.19949159362417" lon="6.134083623135395"><ele>43.0</ele><time>2026-04-25T15:39:35.977Z</time></trkpt><trkpt lat="43.19929981124698" lon="6.134047867787221"><ele>43.0</ele><time>2026-04-25T15:39:36.977Z</time></trkpt><trkpt lat="43.19912857019169" lon="6.1340042442461655"><ele>43.0</ele><time>2026-04-25T15:39:37.978Z</time></trkpt><trkpt lat="43.198958693852774" lon="6.1339604695324015"><ele>43.0</ele><time>2026-04-25T15:39:38.979Z</time></trkpt><trkpt lat="43.19879482383423" lon="6.133903664983407"><ele>43.0</ele><time>2026-04-25T15:39:39.979Z</time></trkpt><trkpt lat="43.1986267284097" lon="6.1338127922640355"><ele>43.0</ele><time>2026-04-25T15:39:40.979Z</time></trkpt><trkpt lat="43.198460413013564" lon="6.133712126564426"><ele>43.0</ele><time>2026-04-25T15:39:41.978Z</time></trkpt><trkpt lat="43.19829997421824" lon="6.1336181032593515"><ele>43.0</ele><time>2026-04-25T15:39:42.978Z</time></trkpt><trkpt lat="43.19812530018056" lon="6.133514433628182"><ele>45.0</ele><time>2026-04-25T15:39:43.979Z</time></trkpt><trkpt lat="43.19793512578403" lon="6.133410340991321"><ele>47.0</ele><time>2026-04-25T15:39:44.979Z</time></trkpt><trkpt lat="43.1977503513702" lon="6.133327075245226"><ele>49.0</ele><time>2026-04-25T15:39:45.979Z</time></trkpt><trkpt lat="43.19754958637357" lon="6.133252778457666"><ele>47.33333333333333</ele><time>2026-04-25T15:39:46.979Z</time></trkpt><trkpt lat="43.19733627905346" lon="6.133186530805263"><ele>45.666666666666664</ele><time>2026-04-25T15:39:47.978Z</time></trkpt><trkpt lat="43.19711514928661" lon="6.133124549185061"><ele>44.0</ele><time>2026-04-25T15:39:48.978Z</time></trkpt><trkpt lat="43.19689031217391" lon="6.133060727547863"><ele>44.0</ele><time>2026-04-25T15:39:49.978Z</time></trkpt><trkpt lat="43.19667940746342" lon="6.133019791281965"><ele>44.0</ele><time>2026-04-25T15:39:50.978Z</time></trkpt><trkpt lat="43.19647931089543" lon="6.132974510785938"><ele>44.0</ele><time>2026-04-25T15:39:51.978Z</time></trkpt><trkpt lat="43.19629366796424" lon="6.1329260636883545"><ele>44.33333333333333</ele><time>2026-04-25T15:39:52.978Z</time></trkpt><trkpt lat="43.196107459066646" lon="6.1328762186342685"><ele>44.666666666666664</ele><time>2026-04-25T15:39:53.978Z</time></trkpt><trkpt lat="43.19593009266988" lon="6.132829652347264"><ele>45.0</ele><time>2026-04-25T15:39:54.978Z</time></trkpt><trkpt lat="43.1957625514014" lon="6.13279361747594"><ele>45.333333333333336</ele><time>2026-04-25T15:39:55.978Z</time></trkpt><trkpt lat="43.19560336582871" lon="6.132736330786982"><ele>45.66666666666667</ele><time>2026-04-25T15:39:56.978Z</time></trkpt><trkpt lat="43.19544596250795" lon="6.132692706179626"><ele>46.0</ele><time>2026-04-25T15:39:57.978Z</time></trkpt><trkpt lat="43.19527701043103" lon="6.13264075819204"><ele>46.0</ele><time>2026-04-25T15:39:58.978Z</time></trkpt><trkpt lat="43.195110739577146" lon="6.132584405948518"><ele>46.0</ele><time>2026-04-25T15:39:59.978Z</time></trkpt><trkpt lat="43.194958275826764" lon="6.1325085527194645"><ele>46.0</ele><time>2026-04-25T15:40:00.978Z</time></trkpt><trkpt lat="43.19480164060559" lon="6.132396572947435"><ele>45.66666666666667</ele><time>2026-04-25T15:40:01.978Z</time></trkpt><trkpt lat="43.19465659939841" lon="6.1322608317567635"><ele>45.333333333333336</ele><time>2026-04-25T15:40:02.978Z</time></trkpt><trkpt lat="43.19453003289885" lon="6.1321096595370035"><ele>45.0</ele><time>2026-04-25T15:40:03.978Z</time></trkpt><trkpt lat="43.19442126800769" lon="6.131930795082503"><ele>45.0</ele><time>2026-04-25T15:40:04.978Z</time></trkpt><trkpt lat="43.19432493326042" lon="6.131731099682172"><ele>45.0</ele><time>2026-04-25T15:40:05.978Z</time></trkpt><trkpt lat="43.19424626491078" lon="6.131506342747608"><ele>45.0</ele><time>2026-04-25T15:40:06.978Z</time></trkpt><trkpt lat="43.19417302614893" lon="6.131259564084855"><ele>43.5</ele><time>2026-04-25T15:40:07.978Z</time></trkpt><trkpt lat="43.19414447972115" lon="6.130965702534579"><ele>42.0</ele><time>2026-04-25T15:40:08.978Z</time></trkpt><trkpt lat="43.194108375448" lon="6.130640951780114"><ele>41.5</ele><time>2026-04-25T15:40:09.978Z</time></trkpt><trkpt lat="43.19406310372223" lon="6.130290804206217"><ele>41.0</ele><time>2026-04-25T15:40:10.978Z</time></trkpt><trkpt lat="43.19399013867318" lon="6.129978922743341"><ele>39.666666666666664</ele><time>2026-04-25T15:40:11.978Z</time></trkpt><trkpt lat="43.19391533382497" lon="6.129696336684283"><ele>38.333333333333336</ele><time>2026-04-25T15:40:12.978Z</time></trkpt><trkpt lat="43.1938111287981" lon="6.129448878505103"><ele>37.0</ele><time>2026-04-25T15:40:13.978Z</time></trkpt><trkpt lat="43.193682271123514" lon="6.129221377451205"><ele>36.333333333333336</ele><time>2026-04-25T15:40:14.978Z</time></trkpt><trkpt lat="43.19353642639143" lon="6.12898348089831"><ele>35.666666666666664</ele><time>2026-04-25T15:40:15.978Z</time></trkpt><trkpt lat="43.193407328292146" lon="6.128762121575564"><ele>35.0</ele><time>2026-04-25T15:40:16.978Z</time></trkpt><trkpt lat="43.19328803755631" lon="6.1285512909456585"><ele>35.0</ele><time>2026-04-25T15:40:17.978Z</time></trkpt><trkpt lat="43.19316503000531" lon="6.1283372246659225"><ele>35.0</ele><time>2026-04-25T15:40:18.978Z</time></trkpt><trkpt lat="43.19304924096258" lon="6.1281353155754354"><ele>35.0</ele><time>2026-04-25T15:40:19.978Z</time></trkpt><trkpt lat="43.19293861528854" lon="6.127941850596941"><ele>34.33333333333333</ele><time>2026-04-25T15:40:20.978Z</time></trkpt><trkpt lat="43.192835386446234" lon="6.127756974920142"><ele>33.666666666666664</ele><time>2026-04-25T15:40:21.978Z</time></trkpt><trkpt lat="43.19273591669884" lon="6.127583085812915"><ele>33.0</ele><time>2026-04-25T15:40:22.978Z</time></trkpt><trkpt lat="43.19263842027138" lon="6.127401679348233"><ele>33.666666666666664</ele><time>2026-04-25T15:40:23.978Z</time></trkpt><trkpt lat="43.19253633324407" lon="6.12721824485112"><ele>34.33333333333333</ele><time>2026-04-25T15:40:24.978Z</time></trkpt><trkpt lat="43.1924364148882" lon="6.127033475382305"><ele>35.0</ele><time>2026-04-25T15:40:25.978Z</time></trkpt><trkpt lat="43.19233912714406" lon="6.126839262956153"><ele>35.33333333333333</ele><time>2026-04-25T15:40:26.978Z</time></trkpt><trkpt lat="43.19224614271223" lon="6.126645411781253"><ele>35.666666666666664</ele><time>2026-04-25T15:40:27.978Z</time></trkpt><trkpt lat="43.19214960686387" lon="6.126446306829696"><ele>36.0</ele><time>2026-04-25T15:40:28.978Z</time></trkpt><trkpt lat="43.19205915193576" lon="6.126251636840261"><ele>36.0</ele><time>2026-04-25T15:40:29.978Z</time></trkpt><trkpt lat="43.191970076110714" lon="6.12605162046108"><ele>36.0</ele><time>2026-04-25T15:40:30.978Z</time></trkpt><trkpt lat="43.19188736939218" lon="6.125861078516581"><ele>36.0</ele><time>2026-04-25T15:40:31.978Z</time></trkpt><trkpt lat="43.191804997783585" lon="6.125673297405779"><ele>35.666666666666664</ele><time>2026-04-25T15:40:32.978Z</time></trkpt><trkpt lat="43.191716819670454" lon="6.125486365812449"><ele>35.33333333333333</ele><time>2026-04-25T15:40:33.978Z</time></trkpt><trkpt lat="43.191624576042805" lon="6.125302267063885"><ele>35.0</ele><time>2026-04-25T15:40:34.978Z</time></trkpt><trkpt lat="43.1915337751188" lon="6.125123464078927"><ele>35.33333333333333</ele><time>2026-04-25T15:40:35.978Z</time></trkpt><trkpt lat="43.19144351038173" lon="6.124950941011593"><ele>35.666666666666664</ele><time>2026-04-25T15:40:36.978Z</time></trkpt><trkpt lat="43.191334891093845" lon="6.124798518520039"><ele>36.0</ele><time>2026-04-25T15:40:37.978Z</time></trkpt><trkpt lat="43.19123682551248" lon="6.1246237740968095"><ele>36.0</ele><time>2026-04-25T15:40:38.978Z</time></trkpt><trkpt lat="43.19111353055764" lon="6.124469142138064"><ele>36.0</ele><time>2026-04-25T15:40:39.978Z</time></trkpt><trkpt lat="43.19098717587095" lon="6.124321166013036"><ele>36.0</ele><time>2026-04-25T15:40:40.978Z</time></trkpt><trkpt lat="43.19084608761736" lon="6.124196214531099"><ele>35.333333333333336</ele><time>2026-04-25T15:40:41.978Z</time></trkpt><trkpt lat="43.19070375427752" lon="6.124055254468676"><ele>34.66666666666667</ele><time>2026-04-25T15:40:42.978Z</time></trkpt><trkpt lat="43.190565836358424" lon="6.123905060606932"><ele>34.0</ele><time>2026-04-25T15:40:43.978Z</time></trkpt><trkpt lat="43.19040745996869" lon="6.123785592782764"><ele>33.66666666666667</ele><time>2026-04-25T15:40:44.978Z</time></trkpt><trkpt lat="43.19024820140146" lon="6.123671142250838"><ele>33.333333333333336</ele><time>2026-04-25T15:40:45.978Z</time></trkpt><trkpt lat="43.19008872510427" lon="6.1235685577786825"><ele>33.0</ele><time>2026-04-25T15:40:46.978Z</time></trkpt><trkpt lat="43.189922589057254" lon="6.123504366702857"><ele>33.0</ele><time>2026-04-25T15:40:47.978Z</time></trkpt><trkpt lat="43.189760362424906" lon="6.1234075278099445"><ele>33.0</ele><time>2026-04-25T15:40:48.978Z</time></trkpt><trkpt lat="43.18958719362376" lon="6.123333962003221"><ele>33.0</ele><time>2026-04-25T15:40:49.978Z</time></trkpt><trkpt lat="43.1894182670276" lon="6.123248091214022"><ele>33.0</ele><time>2026-04-25T15:40:50.978Z</time></trkpt><trkpt lat="43.18925529196726" lon="6.123164604983146"><ele>33.0</ele><time>2026-04-25T15:40:51.978Z</time></trkpt><trkpt lat="43.18908974447921" lon="6.123080965215947"><ele>33.0</ele><time>2026-04-25T15:40:52.978Z</time></trkpt><trkpt lat="43.18892300990306" lon="6.122994696044235"><ele>33.0</ele><time>2026-04-25T15:40:53.978Z</time></trkpt><trkpt lat="43.18875438542302" lon="6.122907648144696"><ele>33.0</ele><time>2026-04-25T15:40:54.978Z</time></trkpt><trkpt lat="43.1885844736825" lon="6.12281734997908"><ele>33.0</ele><time>2026-04-25T15:40:55.978Z</time></trkpt><trkpt lat="43.188416914385414" lon="6.122723716457642"><ele>33.0</ele><time>2026-04-25T15:40:56.978Z</time></trkpt><trkpt lat="43.18825113036394" lon="6.122628888245799"><ele>33.0</ele><time>2026-04-25T15:40:57.978Z</time></trkpt><trkpt lat="43.188082857518594" lon="6.122530172931831"><ele>33.0</ele><time>2026-04-25T15:40:58.978Z</time></trkpt><trkpt lat="43.18791674431013" lon="6.122435233317422"><ele>32.666666666666664</ele><time>2026-04-25T15:40:59.978Z</time></trkpt><trkpt lat="43.1877504839212" lon="6.122338441073509"><ele>32.33333333333333</ele><time>2026-04-25T15:41:00.978Z</time></trkpt><trkpt lat="43.187584009966194" lon="6.122239793368868"><ele>32.0</ele><time>2026-04-25T15:41:01.978Z</time></trkpt><trkpt lat="43.18742220211497" lon="6.122139776674145"><ele>32.0</ele><time>2026-04-25T15:41:02.978Z</time></trkpt><trkpt lat="43.18726869390309" lon="6.12204467831514"><ele>32.0</ele><time>2026-04-25T15:41:03.978Z</time></trkpt><trkpt lat="43.187107058140626" lon="6.121942313255104"><ele>32.0</ele><time>2026-04-25T15:41:04.978Z</time></trkpt><trkpt lat="43.186948306020696" lon="6.121852174481902"><ele>32.0</ele><time>2026-04-25T15:41:05.978Z</time></trkpt><trkpt lat="43.1867948485881" lon="6.121767497426854"><ele>32.0</ele><time>2026-04-25T15:41:06.978Z</time></trkpt><trkpt lat="43.18664171230728" lon="6.121678168603355"><ele>32.0</ele><time>2026-04-25T15:41:07.978Z</time></trkpt><trkpt lat="43.18648658620738" lon="6.121584594046366"><ele>32.666666666666664</ele><time>2026-04-25T15:41:08.978Z</time></trkpt><trkpt lat="43.18630480032925" lon="6.121484821598042"><ele>33.333333333333336</ele><time>2026-04-25T15:41:09.978Z</time></trkpt><trkpt lat="43.186105538748976" lon="6.121374163875752"><ele>34.0</ele><time>2026-04-25T15:41:10.978Z</time></trkpt><trkpt lat="43.18589855722303" lon="6.121255234018124"><ele>34.0</ele><time>2026-04-25T15:41:11.978Z</time></trkpt><trkpt lat="43.18568257173346" lon="6.121133193877171"><ele>34.0</ele><time>2026-04-25T15:41:12.978Z</time></trkpt><trkpt lat="43.1854524015161" lon="6.120997450986416"><ele>34.0</ele><time>2026-04-25T15:41:13.978Z</time></trkpt><trkpt lat="43.18523550008351" lon="6.12085339163007"><ele>34.0</ele><time>2026-04-25T15:41:14.978Z</time></trkpt><trkpt lat="43.185039097294315" lon="6.120721687867902"><ele>33.66666666666667</ele><time>2026-04-25T15:41:15.978Z</time></trkpt><trkpt lat="43.184861877075804" lon="6.12061376824054"><ele>33.333333333333336</ele><time>2026-04-25T15:41:16.978Z</time></trkpt><trkpt lat="43.18469273217121" lon="6.120509237673507"><ele>33.0</ele><time>2026-04-25T15:41:17.978Z</time></trkpt><trkpt lat="43.18453411597383" lon="6.120420459008675"><ele>33.0</ele><time>2026-04-25T15:41:18.978Z</time></trkpt><trkpt lat="43.184375438740034" lon="6.120320774119997"><ele>33.0</ele><time>2026-04-25T15:41:19.978Z</time></trkpt><trkpt lat="43.18422059835417" lon="6.120227431651951"><ele>33.0</ele><time>2026-04-25T15:41:20.978Z</time></trkpt><trkpt lat="43.18406337747788" lon="6.120124521403894"><ele>33.0</ele><time>2026-04-25T15:41:21.978Z</time></trkpt><trkpt lat="43.183919273549925" lon="6.120038663890047"><ele>33.0</ele><time>2026-04-25T15:41:22.978Z</time></trkpt><trkpt lat="43.18378265973902" lon="6.119958939918862"><ele>33.0</ele><time>2026-04-25T15:41:23.978Z</time></trkpt><trkpt lat="43.18364228257136" lon="6.119871095488398"><ele>32.666666666666664</ele><time>2026-04-25T15:41:24.978Z</time></trkpt><trkpt lat="43.183498327072016" lon="6.119786710187625"><ele>32.33333333333333</ele><time>2026-04-25T15:41:25.978Z</time></trkpt><trkpt lat="43.18334801597072" lon="6.119693431745468"><ele>32.0</ele><time>2026-04-25T15:41:26.978Z</time></trkpt><trkpt lat="43.18319204834732" lon="6.119600341609077"><ele>31.666666666666664</ele><time>2026-04-25T15:41:27.978Z</time></trkpt><trkpt lat="43.183044746229235" lon="6.11950331825773"><ele>31.333333333333336</ele><time>2026-04-25T15:41:28.978Z</time></trkpt><trkpt lat="43.18290081579406" lon="6.119412355347988"><ele>31.0</ele><time>2026-04-25T15:41:29.978Z</time></trkpt><trkpt lat="43.182757760271166" lon="6.119332139612687"><ele>31.0</ele><time>2026-04-25T15:41:30.978Z</time></trkpt><trkpt lat="43.18260727678163" lon="6.119252959221574"><ele>31.0</ele><time>2026-04-25T15:41:31.978Z</time></trkpt><trkpt lat="43.182459073040036" lon="6.119193804239616"><ele>31.0</ele><time>2026-04-25T15:41:32.978Z</time></trkpt><trkpt lat="43.182304632121486" lon="6.11913703981545"><ele>31.666666666666668</ele><time>2026-04-25T15:41:33.978Z</time></trkpt><trkpt lat="43.18214429991197" lon="6.119073795690882"><ele>32.333333333333336</ele><time>2026-04-25T15:41:34.978Z</time></trkpt><trkpt lat="43.18197068088782" lon="6.119002575160181"><ele>33.0</ele><time>2026-04-25T15:41:35.978Z</time></trkpt><trkpt lat="43.181779786609525" lon="6.118935729326055"><ele>33.0</ele><time>2026-04-25T15:41:36.978Z</time></trkpt><trkpt lat="43.18158294237816" lon="6.1188656196389895"><ele>33.0</ele><time>2026-04-25T15:41:37.978Z</time></trkpt><trkpt lat="43.18138885131274" lon="6.118796179165469"><ele>33.0</ele><time>2026-04-25T15:41:38.978Z</time></trkpt><trkpt lat="43.181208130651115" lon="6.11873451358736"><ele>32.666666666666664</ele><time>2026-04-25T15:41:39.978Z</time></trkpt><trkpt lat="43.18103692019604" lon="6.1186755101421575"><ele>32.33333333333333</ele><time>2026-04-25T15:41:40.978Z</time></trkpt><trkpt lat="43.1808699215402" lon="6.118616643673153"><ele>32.0</ele><time>2026-04-25T15:41:41.978Z</time></trkpt><trkpt lat="43.18069642084405" lon="6.118556040738823"><ele>31.666666666666664</ele><time>2026-04-25T15:41:42.978Z</time></trkpt><trkpt lat="43.18052964968605" lon="6.1184962907089435"><ele>31.333333333333336</ele><time>2026-04-25T15:41:43.979Z</time></trkpt><trkpt lat="43.18037063376103" lon="6.118439610319936"><ele>31.0</ele><time>2026-04-25T15:41:44.979Z</time></trkpt><trkpt lat="43.1802135565221" lon="6.118388528874099"><ele>31.0</ele><time>2026-04-25T15:41:45.979Z</time></trkpt><trkpt lat="43.18005002922608" lon="6.118331894414972"><ele>31.0</ele><time>2026-04-25T15:41:46.979Z</time></trkpt><trkpt lat="43.179879945155456" lon="6.118267103394413"><ele>31.0</ele><time>2026-04-25T15:41:47.979Z</time></trkpt><trkpt lat="43.17970552942478" lon="6.118210750222568"><ele>30.666666666666668</ele><time>2026-04-25T15:41:48.979Z</time></trkpt><trkpt lat="43.17953103424645" lon="6.118154734033732"><ele>30.333333333333336</ele><time>2026-04-25T15:41:49.979Z</time></trkpt><trkpt lat="43.17936263739215" lon="6.118094161134367"><ele>30.0</ele><time>2026-04-25T15:41:50.978Z</time></trkpt><trkpt lat="43.179202235985024" lon="6.118032556985923"><ele>30.0</ele><time>2026-04-25T15:41:51.978Z</time></trkpt><trkpt lat="43.17903872880182" lon="6.117977785048916"><ele>30.0</ele><time>2026-04-25T15:41:52.978Z</time></trkpt><trkpt lat="43.17887362341464" lon="6.117924386177034"><ele>30.0</ele><time>2026-04-25T15:41:53.979Z</time></trkpt><trkpt lat="43.17870661169553" lon="6.11787310334499"><ele>30.0</ele><time>2026-04-25T15:41:54.979Z</time></trkpt><trkpt lat="43.178537846113656" lon="6.11783112657505"><ele>30.0</ele><time>2026-04-25T15:41:55.979Z</time></trkpt><trkpt lat="43.17836729626057" lon="6.117796036995228"><ele>30.0</ele><time>2026-04-25T15:41:56.979Z</time></trkpt><trkpt lat="43.17819312628057" lon="6.117752489224799"><ele>30.0</ele><time>2026-04-25T15:41:57.979Z</time></trkpt><trkpt lat="43.17801850289062" lon="6.117712839903909"><ele>30.0</ele><time>2026-04-25T15:41:58.979Z</time></trkpt><trkpt lat="43.1778396673601" lon="6.117683764612461"><ele>30.0</ele><time>2026-04-25T15:41:59.979Z</time></trkpt><trkpt lat="43.17765733997704" lon="6.117671016340629"><ele>30.0</ele><time>2026-04-25T15:42:00.979Z</time></trkpt><trkpt lat="43.177477235652844" lon="6.117671746160024"><ele>30.0</ele><time>2026-04-25T15:42:01.979Z</time></trkpt><trkpt lat="43.17729873280546" lon="6.11768993411878"><ele>30.0</ele><time>2026-04-25T15:42:02.979Z</time></trkpt><trkpt lat="43.177121191687924" lon="6.1177146763548995"><ele>29.666666666666664</ele><time>2026-04-25T15:42:03.979Z</time></trkpt><trkpt lat="43.17695307934086" lon="6.117733253684864"><ele>29.333333333333332</ele><time>2026-04-25T15:42:04.979Z</time></trkpt><trkpt lat="43.17679310728487" lon="6.117753915871173"><ele>29.0</ele><time>2026-04-25T15:42:05.979Z</time></trkpt><trkpt lat="43.17663627690268" lon="6.117762438493769"><ele>29.0</ele><time>2026-04-25T15:42:06.979Z</time></trkpt><trkpt lat="43.176492364542426" lon="6.117769459695086"><ele>29.0</ele><time>2026-04-25T15:42:07.979Z</time></trkpt><trkpt lat="43.17635083684195" lon="6.117785937561714"><ele>29.0</ele><time>2026-04-25T15:42:08.979Z</time></trkpt><trkpt lat="43.17620640269183" lon="6.117793479693972"><ele>29.0</ele><time>2026-04-25T15:42:09.979Z</time></trkpt><trkpt lat="43.176070528949424" lon="6.1178113168885275"><ele>29.0</ele><time>2026-04-25T15:42:10.979Z</time></trkpt><trkpt lat="43.17594011155403" lon="6.117827292097817"><ele>29.0</ele><time>2026-04-25T15:42:11.979Z</time></trkpt><trkpt lat="43.17581016500462" lon="6.117838658898885"><ele>29.0</ele><time>2026-04-25T15:42:12.979Z</time></trkpt><trkpt lat="43.17568098070336" lon="6.117847923616336"><ele>29.0</ele><time>2026-04-25T15:42:13.979Z</time></trkpt><trkpt lat="43.175553083993364" lon="6.117856811421968"><ele>29.0</ele><time>2026-04-25T15:42:14.979Z</time></trkpt><trkpt lat="43.17543369514363" lon="6.117864718856138"><ele>29.0</ele><time>2026-04-25T15:42:15.979Z</time></trkpt><trkpt lat="43.175320617520256" lon="6.117872486375464"><ele>29.0</ele><time>2026-04-25T15:42:16.979Z</time></trkpt><trkpt lat="43.17521172855964" lon="6.117879577397505"><ele>29.0</ele><time>2026-04-25T15:42:17.979Z</time></trkpt><trkpt lat="43.17509956965807" lon="6.117886952403149"><ele>29.0</ele><time>2026-04-25T15:42:18.979Z</time></trkpt><trkpt lat="43.17498535058477" lon="6.117893799747733"><ele>29.0</ele><time>2026-04-25T15:42:19.979Z</time></trkpt><trkpt lat="43.17487131892906" lon="6.117902431035027"><ele>29.0</ele><time>2026-04-25T15:42:20.979Z</time></trkpt><trkpt lat="43.174749851199685" lon="6.1179116166908125"><ele>29.0</ele><time>2026-04-25T15:42:21.979Z</time></trkpt><trkpt lat="43.17462280808338" lon="6.117919179067147"><ele>29.25</ele><time>2026-04-25T15:42:22.979Z</time></trkpt><trkpt lat="43.17449001788366" lon="6.117929852487879"><ele>29.5</ele><time>2026-04-25T15:42:23.979Z</time></trkpt><trkpt lat="43.17435485289951" lon="6.117942382361965"><ele>29.75</ele><time>2026-04-25T15:42:24.979Z</time></trkpt><trkpt lat="43.17422820779772" lon="6.117951756203012"><ele>30.0</ele><time>2026-04-25T15:42:25.979Z</time></trkpt><trkpt lat="43.17410608943628" lon="6.117959732545131"><ele>29.75</ele><time>2026-04-25T15:42:26.979Z</time></trkpt><trkpt lat="43.17398450986049" lon="6.117969518400917"><ele>29.5</ele><time>2026-04-25T15:42:27.979Z</time></trkpt><trkpt lat="43.17386298828076" lon="6.117975169239586"><ele>29.25</ele><time>2026-04-25T15:42:28.979Z</time></trkpt><trkpt lat="43.17374676267441" lon="6.117982060712503"><ele>29.0</ele><time>2026-04-25T15:42:29.979Z</time></trkpt><trkpt lat="43.173630103990384" lon="6.117989938421733"><ele>29.0</ele><time>2026-04-25T15:42:30.979Z</time></trkpt><trkpt lat="43.17351922091506" lon="6.117999318368158"><ele>29.0</ele><time>2026-04-25T15:42:31.979Z</time></trkpt><trkpt lat="43.173412716560016" lon="6.118006318666824"><ele>29.0</ele><time>2026-04-25T15:42:32.979Z</time></trkpt><trkpt lat="43.17331477562061" lon="6.118011135485687"><ele>29.0</ele><time>2026-04-25T15:42:33.979Z</time></trkpt><trkpt lat="43.17322586974162" lon="6.118012485710929"><ele>29.0</ele><time>2026-04-25T15:42:34.979Z</time></trkpt><trkpt lat="43.17314313511474" lon="6.118013373652108"><ele>28.833333333333332</ele><time>2026-04-25T15:42:35.979Z</time></trkpt><trkpt lat="43.17306605066985" lon="6.118015882197981"><ele>28.666666666666664</ele><time>2026-04-25T15:42:36.979Z</time></trkpt><trkpt lat="43.172999641737114" lon="6.118017124337296"><ele>28.5</ele><time>2026-04-25T15:42:37.979Z</time></trkpt><trkpt lat="43.17289914731176" lon="6.118036432088957"><ele>28.333333333333336</ele><time>2026-04-25T15:42:39.979Z</time></trkpt><trkpt lat="43.172833363525164" lon="6.11804112775833"><ele>28.166666666666668</ele><time>2026-04-25T15:42:43.979Z</time></trkpt><trkpt lat="43.17272540785" lon="6.118018566674589"><ele>28.0</ele><time>2026-04-25T15:42:47.979Z</time></trkpt><trkpt lat="43.17261856270493" lon="6.117996744060783"><ele>28.0</ele><time>2026-04-25T15:42:49.979Z</time></trkpt><trkpt lat="43.1725389840178" lon="6.11793375429345"><ele>28.0</ele><time>2026-04-25T15:42:50.979Z</time></trkpt><trkpt lat="43.17246406422951" lon="6.117836494531774"><ele>28.0</ele><time>2026-04-25T15:42:51.979Z</time></trkpt><trkpt lat="43.17239076479026" lon="6.11769121611559"><ele>28.0</ele><time>2026-04-25T15:42:52.979Z</time></trkpt><trkpt lat="43.17231089370758" lon="6.117504604868582"><ele>28.0</ele><time>2026-04-25T15:42:53.979Z</time></trkpt><trkpt lat="43.1721869439438" lon="6.117313079856475"><ele>28.0</ele><time>2026-04-25T15:42:54.979Z</time></trkpt><trkpt lat="43.1720548938586" lon="6.117050501204379"><ele>28.0</ele><time>2026-04-25T15:42:55.979Z</time></trkpt><trkpt lat="43.17188219282454" lon="6.116777879493341"><ele>27.5</ele><time>2026-04-25T15:42:56.979Z</time></trkpt><trkpt lat="43.17170834189784" lon="6.116494645762189"><ele>27.0</ele><time>2026-04-25T15:42:57.979Z</time></trkpt><trkpt lat="43.171536988007354" lon="6.116209378390493"><ele>28.0</ele><time>2026-04-25T15:42:58.979Z</time></trkpt><trkpt lat="43.17137510344368" lon="6.115933570507788"><ele>29.0</ele><time>2026-04-25T15:42:59.979Z</time></trkpt><trkpt lat="43.17121676034749" lon="6.115669942080118"><ele>31.5</ele><time>2026-04-25T15:43:00.979Z</time></trkpt><trkpt lat="43.17106644884074" lon="6.115422482842942"><ele>34.0</ele><time>2026-04-25T15:43:01.979Z</time></trkpt><trkpt lat="43.17092753668683" lon="6.115190367562637"><ele>34.0</ele><time>2026-04-25T15:43:02.979Z</time></trkpt><trkpt lat="43.1707958733485" lon="6.1149718851722765"><ele>34.0</ele><time>2026-04-25T15:43:03.979Z</time></trkpt><trkpt lat="43.170668616104685" lon="6.114758274196642"><ele>34.0</ele><time>2026-04-25T15:43:04.979Z</time></trkpt><trkpt lat="43.170545931323446" lon="6.114550231101452"><ele>31.666666666666668</ele><time>2026-04-25T15:43:05.979Z</time></trkpt><trkpt lat="43.170429556631" lon="6.114356390444853"><ele>29.333333333333336</ele><time>2026-04-25T15:43:06.979Z</time></trkpt><trkpt lat="43.17032283828974" lon="6.114170348593089"><ele>27.0</ele><time>2026-04-25T15:43:07.979Z</time></trkpt><trkpt lat="43.17021973010932" lon="6.113998103943731"><ele>27.0</ele><time>2026-04-25T15:43:08.979Z</time></trkpt><trkpt lat="43.17012768557979" lon="6.113847556317612"><ele>27.0</ele><time>2026-04-25T15:43:09.979Z</time></trkpt><trkpt lat="43.170044474124786" lon="6.113715683068543"><ele>27.0</ele><time>2026-04-25T15:43:10.979Z</time></trkpt><trkpt lat="43.169973220138985" lon="6.113575092610278"><ele>27.0</ele><time>2026-04-25T15:43:11.979Z</time></trkpt><trkpt lat="43.16990543240703" lon="6.113440824957863"><ele>26.25</ele><time>2026-04-25T15:43:12.979Z</time></trkpt><trkpt lat="43.169830032258346" lon="6.113307386749406"><ele>25.5</ele><time>2026-04-25T15:43:13.979Z</time></trkpt><trkpt lat="43.16974593912578" lon="6.113171289223385"><ele>24.75</ele><time>2026-04-25T15:43:14.979Z</time></trkpt><trkpt lat="43.16965342028335" lon="6.113026395768956"><ele>24.0</ele><time>2026-04-25T15:43:15.979Z</time></trkpt><trkpt lat="43.169555069440634" lon="6.112870178661745"><ele>23.666666666666668</ele><time>2026-04-25T15:43:16.979Z</time></trkpt><trkpt lat="43.16944937297936" lon="6.112706984685299"><ele>23.333333333333336</ele><time>2026-04-25T15:43:17.979Z</time></trkpt><trkpt lat="43.16934627934608" lon="6.112546427973489"><ele>23.0</ele><time>2026-04-25T15:43:18.979Z</time></trkpt><trkpt lat="43.16925277175473" lon="6.11238787465492"><ele>22.666666666666668</ele><time>2026-04-25T15:43:19.979Z</time></trkpt><trkpt lat="43.16914919405509" lon="6.112212374596203"><ele>22.333333333333332</ele><time>2026-04-25T15:43:20.979Z</time></trkpt><trkpt lat="43.169043531126675" lon="6.112038772007847"><ele>22.0</ele><time>2026-04-25T15:43:21.979Z</time></trkpt><trkpt lat="43.168927023919046" lon="6.111868981464267"><ele>22.0</ele><time>2026-04-25T15:43:22.979Z</time></trkpt><trkpt lat="43.1688170983813" lon="6.11168367806868"><ele>22.0</ele><time>2026-04-25T15:43:23.979Z</time></trkpt><trkpt lat="43.16872092758838" lon="6.1114939194519895"><ele>22.0</ele><time>2026-04-25T15:43:24.979Z</time></trkpt><trkpt lat="43.16862796216229" lon="6.111336143890949"><ele>22.0</ele><time>2026-04-25T15:43:25.979Z</time></trkpt><trkpt lat="43.168548192999324" lon="6.111203850914741"><ele>22.0</ele><time>2026-04-25T15:43:26.979Z</time></trkpt><trkpt lat="43.16847468525163" lon="6.111080929733685"><ele>22.0</ele><time>2026-04-25T15:43:27.979Z</time></trkpt><trkpt lat="43.16840379165832" lon="6.110965142931405"><ele>22.0</ele><time>2026-04-25T15:43:28.979Z</time></trkpt><trkpt lat="43.16833774298541" lon="6.110857002345237"><ele>22.0</ele><time>2026-04-25T15:43:29.979Z</time></trkpt><trkpt lat="43.168268641650876" lon="6.110743257674858"><ele>22.0</ele><time>2026-04-25T15:43:30.979Z</time></trkpt><trkpt lat="43.16820523760954" lon="6.110629858773313"><ele>22.0</ele><time>2026-04-25T15:43:31.979Z</time></trkpt><trkpt lat="43.168144362541035" lon="6.110521603304988"><ele>22.0</ele><time>2026-04-25T15:43:32.979Z</time></trkpt><trkpt lat="43.16808619956464" lon="6.1104218421815935"><ele>22.0</ele><time>2026-04-25T15:43:33.979Z</time></trkpt><trkpt lat="43.16801968908387" lon="6.110314240683191"><ele>22.833333333333332</ele><time>2026-04-25T15:43:34.979Z</time></trkpt><trkpt lat="43.16795986900307" lon="6.110217602893675"><ele>23.666666666666664</ele><time>2026-04-25T15:43:35.979Z</time></trkpt><trkpt lat="43.16790707730337" lon="6.110131167963693"><ele>24.5</ele><time>2026-04-25T15:43:36.979Z</time></trkpt><trkpt lat="43.167867377687145" lon="6.110050148182727"><ele>25.333333333333332</ele><time>2026-04-25T15:43:37.978Z</time></trkpt><trkpt lat="43.16783615882789" lon="6.109952405551745"><ele>26.166666666666668</ele><time>2026-04-25T15:43:38.978Z</time></trkpt><trkpt lat="43.167813936212156" lon="6.109854733850875"><ele>27.0</ele><time>2026-04-25T15:43:39.978Z</time></trkpt><trkpt lat="43.16779378476511" lon="6.109754648058603"><ele>27.0</ele><time>2026-04-25T15:43:40.978Z</time></trkpt><trkpt lat="43.16777048944995" lon="6.10964195249938"><ele>27.000000000000004</ele><time>2026-04-25T15:43:41.978Z</time></trkpt><trkpt lat="43.167743787430055" lon="6.1095161872733055"><ele>27.000000000000004</ele><time>2026-04-25T15:43:42.978Z</time></trkpt><trkpt lat="43.16771618581988" lon="6.109380771078354"><ele>27.0</ele><time>2026-04-25T15:43:43.978Z</time></trkpt><trkpt lat="43.16768328415391" lon="6.109242539629596"><ele>27.0</ele><time>2026-04-25T15:43:44.978Z</time></trkpt><trkpt lat="43.16765420544061" lon="6.109110376910183"><ele>27.0</ele><time>2026-04-25T15:43:45.978Z</time></trkpt><trkpt lat="43.16762476003452" lon="6.108976283838955"><ele>27.000000000000004</ele><time>2026-04-25T15:43:46.978Z</time></trkpt><trkpt lat="43.16759284845008" lon="6.108836699122104"><ele>27.000000000000004</ele><time>2026-04-25T15:43:47.978Z</time></trkpt><trkpt lat="43.16756045015379" lon="6.108695551560097"><ele>27.0</ele><time>2026-04-25T15:43:48.978Z</time></trkpt><trkpt lat="43.16752726465958" lon="6.108550674496845"><ele>27.0</ele><time>2026-04-25T15:43:49.979Z</time></trkpt><trkpt lat="43.16749219396222" lon="6.108402232108845"><ele>27.0</ele><time>2026-04-25T15:43:50.979Z</time></trkpt><trkpt lat="43.16746176009441" lon="6.108257557532658"><ele>27.0</ele><time>2026-04-25T15:43:51.979Z</time></trkpt><trkpt lat="43.16742758754857" lon="6.108105850257384"><ele>27.0</ele><time>2026-04-25T15:43:52.979Z</time></trkpt><trkpt lat="43.167379636435285" lon="6.107953594763993"><ele>27.0</ele><time>2026-04-25T15:43:53.979Z</time></trkpt><trkpt lat="43.16732737541677" lon="6.107799731842811"><ele>27.0</ele><time>2026-04-25T15:43:54.979Z</time></trkpt><trkpt lat="43.16727278815805" lon="6.107662521914884"><ele>27.0</ele><time>2026-04-25T15:43:55.979Z</time></trkpt><trkpt lat="43.16721908447421" lon="6.107538130175065"><ele>27.0</ele><time>2026-04-25T15:43:56.979Z</time></trkpt><trkpt lat="43.16715730151904" lon="6.107400027111636"><ele>27.0</ele><time>2026-04-25T15:43:57.979Z</time></trkpt><trkpt lat="43.16709373227755" lon="6.107253735159046"><ele>27.200000000000003</ele><time>2026-04-25T15:43:58.979Z</time></trkpt><trkpt lat="43.16703866137946" lon="6.107120459773431"><ele>27.400000000000002</ele><time>2026-04-25T15:43:59.979Z</time></trkpt><trkpt lat="43.16698634867899" lon="6.106994634926406"><ele>27.599999999999998</ele><time>2026-04-25T15:44:00.979Z</time></trkpt><trkpt lat="43.16693595667622" lon="6.106882802757335"><ele>27.799999999999997</ele><time>2026-04-25T15:44:01.979Z</time></trkpt><trkpt lat="43.16688233909219" lon="6.1067671915216435"><ele>28.0</ele><time>2026-04-25T15:44:02.979Z</time></trkpt><trkpt lat="43.16683142640587" lon="6.106662387333298"><ele>28.285714285714285</ele><time>2026-04-25T15:44:03.979Z</time></trkpt><trkpt lat="43.166782787533116" lon="6.106569247641789"><ele>28.57142857142857</ele><time>2026-04-25T15:44:04.979Z</time></trkpt><trkpt lat="43.16674321678253" lon="6.106488254774806"><ele>28.857142857142858</ele><time>2026-04-25T15:44:05.979Z</time></trkpt><trkpt lat="43.166698991381736" lon="6.106424897199729"><ele>29.142857142857142</ele><time>2026-04-25T15:44:06.979Z</time></trkpt><trkpt lat="43.16665703004848" lon="6.106359552228941"><ele>29.428571428571427</ele><time>2026-04-25T15:44:07.979Z</time></trkpt><trkpt lat="43.16661274896165" lon="6.10629621082966"><ele>29.714285714285715</ele><time>2026-04-25T15:44:08.979Z</time></trkpt><trkpt lat="43.16658281369261" lon="6.106194294337404"><ele>30.0</ele><time>2026-04-25T15:44:10.978Z</time></trkpt><trkpt lat="43.166647371036795" lon="6.106074396366112"><ele>30.0</ele><time>2026-04-25T15:44:11.978Z</time></trkpt><trkpt lat="43.16669965138048" lon="6.105964087081901"><ele>30.0</ele><time>2026-04-25T15:44:12.978Z</time></trkpt><trkpt lat="43.16677352589916" lon="6.105827819748726"><ele>30.0</ele><time>2026-04-25T15:44:13.978Z</time></trkpt><trkpt lat="43.16686188666757" lon="6.105658033509528"><ele>30.0</ele><time>2026-04-25T15:44:14.978Z</time></trkpt><trkpt lat="43.16694069960826" lon="6.105485472718007"><ele>29.75</ele><time>2026-04-25T15:44:15.978Z</time></trkpt><trkpt lat="43.16702563531593" lon="6.105322261986144"><ele>29.5</ele><time>2026-04-25T15:44:16.978Z</time></trkpt><trkpt lat="43.167108630891285" lon="6.10515307335653"><ele>29.25</ele><time>2026-04-25T15:44:17.978Z</time></trkpt><trkpt lat="43.16719573780863" lon="6.104979728324938"><ele>29.0</ele><time>2026-04-25T15:44:18.978Z</time></trkpt><trkpt lat="43.16728817291806" lon="6.104806724709874"><ele>28.666666666666664</ele><time>2026-04-25T15:44:19.978Z</time></trkpt><trkpt lat="43.167373537942915" lon="6.104635696843987"><ele>28.333333333333336</ele><time>2026-04-25T15:44:20.978Z</time></trkpt><trkpt lat="43.167459200312216" lon="6.1044565539953455"><ele>28.0</ele><time>2026-04-25T15:44:21.978Z</time></trkpt><trkpt lat="43.167549029300574" lon="6.104276782042049"><ele>28.333333333333336</ele><time>2026-04-25T15:44:22.978Z</time></trkpt><trkpt lat="43.167617171767766" lon="6.104048810321523"><ele>28.666666666666664</ele><time>2026-04-25T15:44:23.978Z</time></trkpt><trkpt lat="43.167659309796754" lon="6.103823639202232"><ele>29.0</ele><time>2026-04-25T15:44:24.978Z</time></trkpt><trkpt lat="43.167686064341076" lon="6.103591609737609"><ele>29.0</ele><time>2026-04-25T15:44:25.978Z</time></trkpt><trkpt lat="43.167753879087144" lon="6.103357409771762"><ele>29.0</ele><time>2026-04-25T15:44:26.978Z</time></trkpt><trkpt lat="43.167797306916135" lon="6.103101303615173"><ele>29.0</ele><time>2026-04-25T15:44:27.978Z</time></trkpt><trkpt lat="43.167839106476166" lon="6.102833738413026"><ele>29.666666666666664</ele><time>2026-04-25T15:44:28.978Z</time></trkpt><trkpt lat="43.167883248812046" lon="6.102589358255544"><ele>30.333333333333336</ele><time>2026-04-25T15:44:29.978Z</time></trkpt><trkpt lat="43.16793055071533" lon="6.102356516449186"><ele>31.0</ele><time>2026-04-25T15:44:30.978Z</time></trkpt><trkpt lat="43.16796234165459" lon="6.102119417547018"><ele>31.333333333333336</ele><time>2026-04-25T15:44:31.978Z</time></trkpt><trkpt lat="43.16798187993442" lon="6.101891369763786"><ele>31.666666666666664</ele><time>2026-04-25T15:44:32.978Z</time></trkpt><trkpt lat="43.167983237305826" lon="6.101651718375433"><ele>32.0</ele><time>2026-04-25T15:44:33.978Z</time></trkpt><trkpt lat="43.16797801366462" lon="6.101410721507378"><ele>32.0</ele><time>2026-04-25T15:44:34.978Z</time></trkpt><trkpt lat="43.167969708712285" lon="6.101168398877044"><ele>32.0</ele><time>2026-04-25T15:44:35.978Z</time></trkpt><trkpt lat="43.16796174921849" lon="6.100932553222331"><ele>32.0</ele><time>2026-04-25T15:44:36.978Z</time></trkpt><trkpt lat="43.167955873347694" lon="6.100716665497267"><ele>33.0</ele><time>2026-04-25T15:44:37.978Z</time></trkpt><trkpt lat="43.167951335767135" lon="6.10050797346582"><ele>34.0</ele><time>2026-04-25T15:44:38.978Z</time></trkpt><trkpt lat="43.16795001844319" lon="6.1003100078053025"><ele>35.0</ele><time>2026-04-25T15:44:39.978Z</time></trkpt><trkpt lat="43.167953848754486" lon="6.100097233615138"><ele>36.0</ele><time>2026-04-25T15:44:40.978Z</time></trkpt><trkpt lat="43.16797633149887" lon="6.099874714437341"><ele>37.0</ele><time>2026-04-25T15:44:41.978Z</time></trkpt><trkpt lat="43.16802902390957" lon="6.099623954017986"><ele>38.0</ele><time>2026-04-25T15:44:42.978Z</time></trkpt><trkpt lat="43.168087721499845" lon="6.09938090873895"><ele>38.0</ele><time>2026-04-25T15:44:43.978Z</time></trkpt><trkpt lat="43.1681378994752" lon="6.099159958911187"><ele>38.0</ele><time>2026-04-25T15:44:44.978Z</time></trkpt><trkpt lat="43.16819639339807" lon="6.09895700379881"><ele>38.0</ele><time>2026-04-25T15:44:45.978Z</time></trkpt><trkpt lat="43.168270039865895" lon="6.098761280574483"><ele>37.33333333333333</ele><time>2026-04-25T15:44:46.978Z</time></trkpt><trkpt lat="43.16834224748075" lon="6.098564161401181"><ele>36.666666666666664</ele><time>2026-04-25T15:44:47.978Z</time></trkpt><trkpt lat="43.16841652624129" lon="6.0983613227169045"><ele>36.0</ele><time>2026-04-25T15:44:48.978Z</time></trkpt><trkpt lat="43.168484336413556" lon="6.098149885631615"><ele>36.0</ele><time>2026-04-25T15:44:49.978Z</time></trkpt><trkpt lat="43.16856068121658" lon="6.097932444989285"><ele>36.0</ele><time>2026-04-25T15:44:50.978Z</time></trkpt><trkpt lat="43.16862072477761" lon="6.0977119281027665"><ele>36.0</ele><time>2026-04-25T15:44:51.978Z</time></trkpt><trkpt lat="43.168679361434435" lon="6.097480855642782"><ele>36.0</ele><time>2026-04-25T15:44:52.978Z</time></trkpt><trkpt lat="43.168733305449535" lon="6.097245247913075"><ele>36.0</ele><time>2026-04-25T15:44:53.978Z</time></trkpt><trkpt lat="43.1687814183216" lon="6.0970186906056965"><ele>36.0</ele><time>2026-04-25T15:44:54.978Z</time></trkpt><trkpt lat="43.16883345745528" lon="6.096785490825525"><ele>36.0</ele><time>2026-04-25T15:44:55.978Z</time></trkpt><trkpt lat="43.168883557075" lon="6.096541932504749"><ele>36.0</ele><time>2026-04-25T15:44:56.978Z</time></trkpt><trkpt lat="43.16892842643245" lon="6.096297497903285"><ele>36.0</ele><time>2026-04-25T15:44:57.978Z</time></trkpt><trkpt lat="43.16895554223005" lon="6.096050782781904"><ele>36.0</ele><time>2026-04-25T15:44:58.978Z</time></trkpt><trkpt lat="43.168966813351744" lon="6.095823481834738"><ele>36.0</ele><time>2026-04-25T15:44:59.978Z</time></trkpt><trkpt lat="43.1689851994747" lon="6.095608122450773"><ele>36.0</ele><time>2026-04-25T15:45:00.978Z</time></trkpt><trkpt lat="43.168997365710595" lon="6.095388246949419"><ele>36.333333333333336</ele><time>2026-04-25T15:45:01.978Z</time></trkpt><trkpt lat="43.169016962042924" lon="6.095153606143911"><ele>36.66666666666667</ele><time>2026-04-25T15:45:02.978Z</time></trkpt><trkpt lat="43.169046903872264" lon="6.094918663004077"><ele>37.0</ele><time>2026-04-25T15:45:03.978Z</time></trkpt><trkpt lat="43.16906689450028" lon="6.0946634352405225"><ele>38.0</ele><time>2026-04-25T15:45:04.978Z</time></trkpt><trkpt lat="43.16910940324899" lon="6.094409575499423"><ele>39.0</ele><time>2026-04-25T15:45:05.978Z</time></trkpt><trkpt lat="43.16916127042129" lon="6.094157288513226"><ele>40.0</ele><time>2026-04-25T15:45:06.978Z</time></trkpt><trkpt lat="43.16920374775714" lon="6.093945591577589"><ele>40.0</ele><time>2026-04-25T15:45:07.978Z</time></trkpt><trkpt lat="43.16924075958515" lon="6.093761330458414"><ele>40.0</ele><time>2026-04-25T15:45:08.978Z</time></trkpt><trkpt lat="43.169265789710074" lon="6.093594108629152"><ele>40.0</ele><time>2026-04-25T15:45:09.978Z</time></trkpt><trkpt lat="43.16928861631755" lon="6.09343537479134"><ele>40.0</ele><time>2026-04-25T15:45:10.978Z</time></trkpt><trkpt lat="43.16930143750765" lon="6.093283955873973"><ele>40.5</ele><time>2026-04-25T15:45:11.978Z</time></trkpt><trkpt lat="43.169297582451854" lon="6.093126302038987"><ele>41.0</ele><time>2026-04-25T15:45:12.978Z</time></trkpt><trkpt lat="43.16927399285676" lon="6.0929311037314635"><ele>41.5</ele><time>2026-04-25T15:45:13.978Z</time></trkpt><trkpt lat="43.169239602160815" lon="6.092688983413589"><ele>42.0</ele><time>2026-04-25T15:45:14.978Z</time></trkpt><trkpt lat="43.16920295689218" lon="6.092413611562272"><ele>42.5</ele><time>2026-04-25T15:45:15.978Z</time></trkpt><trkpt lat="43.16916160795103" lon="6.092111193438096"><ele>43.0</ele><time>2026-04-25T15:45:16.978Z</time></trkpt><trkpt lat="43.1691093585771" lon="6.091798013513991"><ele>43.66666666666667</ele><time>2026-04-25T15:45:17.978Z</time></trkpt><trkpt lat="43.16906870841127" lon="6.09152499526396"><ele>44.333333333333336</ele><time>2026-04-25T15:45:18.978Z</time></trkpt><trkpt lat="43.16903576955709" lon="6.091304207351947"><ele>45.0</ele><time>2026-04-25T15:45:19.978Z</time></trkpt><trkpt lat="43.169009354701316" lon="6.091117118200817"><ele>45.0</ele><time>2026-04-25T15:45:20.978Z</time></trkpt><trkpt lat="43.168979285269785" lon="6.090927785094532"><ele>45.0</ele><time>2026-04-25T15:45:21.978Z</time></trkpt><trkpt lat="43.16894886543954" lon="6.090737836464326"><ele>45.0</ele><time>2026-04-25T15:45:22.978Z</time></trkpt><trkpt lat="43.16891077369182" lon="6.090504578042225"><ele>46.0</ele><time>2026-04-25T15:45:23.978Z</time></trkpt><trkpt lat="43.16887083844576" lon="6.090253661432904"><ele>47.0</ele><time>2026-04-25T15:45:24.978Z</time></trkpt><trkpt lat="43.16883424731259" lon="6.090026553016303"><ele>48.0</ele><time>2026-04-25T15:45:25.978Z</time></trkpt><trkpt lat="43.16880842779265" lon="6.0897885307141095"><ele>48.0</ele><time>2026-04-25T15:45:26.978Z</time></trkpt><trkpt lat="43.168817145763775" lon="6.08953407682763"><ele>48.0</ele><time>2026-04-25T15:45:27.978Z</time></trkpt><trkpt lat="43.168831911638264" lon="6.089254192209145"><ele>48.0</ele><time>2026-04-25T15:45:28.978Z</time></trkpt><trkpt lat="43.168848065078535" lon="6.088997244180989"><ele>48.33333333333333</ele><time>2026-04-25T15:45:29.978Z</time></trkpt><trkpt lat="43.16885788365598" lon="6.088754871609717"><ele>48.666666666666664</ele><time>2026-04-25T15:45:30.978Z</time></trkpt><trkpt lat="43.16886199929193" lon="6.088510761240774"><ele>49.0</ele><time>2026-04-25T15:45:31.978Z</time></trkpt><trkpt lat="43.16886234187201" lon="6.088268279699145"><ele>49.33333333333333</ele><time>2026-04-25T15:45:32.978Z</time></trkpt><trkpt lat="43.16886470988388" lon="6.088004547397371"><ele>49.66666666666667</ele><time>2026-04-25T15:45:33.978Z</time></trkpt><trkpt lat="43.16886587310166" lon="6.087717691733875"><ele>50.0</ele><time>2026-04-25T15:45:34.978Z</time></trkpt><trkpt lat="43.16886016495611" lon="6.087443662561331"><ele>51.0</ele><time>2026-04-25T15:45:35.978Z</time></trkpt><trkpt lat="43.168871979217336" lon="6.08719758554018"><ele>52.0</ele><time>2026-04-25T15:45:36.978Z</time></trkpt><trkpt lat="43.16888724929617" lon="6.086969965068717"><ele>53.0</ele><time>2026-04-25T15:45:37.978Z</time></trkpt><trkpt lat="43.168921515372325" lon="6.086742612467704"><ele>53.66666666666667</ele><time>2026-04-25T15:45:38.978Z</time></trkpt><trkpt lat="43.168981979521504" lon="6.086506392864564"><ele>54.33333333333333</ele><time>2026-04-25T15:45:39.978Z</time></trkpt><trkpt lat="43.16905568536209" lon="6.086259430820513"><ele>55.0</ele><time>2026-04-25T15:45:40.978Z</time></trkpt><trkpt lat="43.16910473325183" lon="6.085988839085056"><ele>57.0</ele><time>2026-04-25T15:45:41.978Z</time></trkpt><trkpt lat="43.169144605945" lon="6.085712971705898"><ele>59.0</ele><time>2026-04-25T15:45:42.978Z</time></trkpt><trkpt lat="43.16916434175878" lon="6.0854530033059895"><ele>61.0</ele><time>2026-04-25T15:45:43.978Z</time></trkpt><trkpt lat="43.16920720019053" lon="6.085200854082682"><ele>61.0</ele><time>2026-04-25T15:45:44.978Z</time></trkpt><trkpt lat="43.169263510962644" lon="6.0849464901906165"><ele>61.0</ele><time>2026-04-25T15:45:45.978Z</time></trkpt><trkpt lat="43.16930825284044" lon="6.084708913081849"><ele>61.0</ele><time>2026-04-25T15:45:46.978Z</time></trkpt><trkpt lat="43.16933457566535" lon="6.084491602061862"><ele>61.25</ele><time>2026-04-25T15:45:47.978Z</time></trkpt><trkpt lat="43.16934044603457" lon="6.084285623523553"><ele>61.5</ele><time>2026-04-25T15:45:48.978Z</time></trkpt><trkpt lat="43.169348233347236" lon="6.084081087846479"><ele>61.75</ele><time>2026-04-25T15:45:49.978Z</time></trkpt><trkpt lat="43.16935108359921" lon="6.083897842085568"><ele>62.0</ele><time>2026-04-25T15:45:50.978Z</time></trkpt><trkpt lat="43.16935138254976" lon="6.083747588963903"><ele>62.6</ele><time>2026-04-25T15:45:51.978Z</time></trkpt><trkpt lat="43.169332914969644" lon="6.083615159390198"><ele>63.2</ele><time>2026-04-25T15:45:52.978Z</time></trkpt><trkpt lat="43.16929161042584" lon="6.083495274418067"><ele>63.8</ele><time>2026-04-25T15:45:53.978Z</time></trkpt><trkpt lat="43.1692174327207" lon="6.08338251875746"><ele>64.4</ele><time>2026-04-25T15:45:54.978Z</time></trkpt><trkpt lat="43.1691303107351" lon="6.083309977524792"><ele>65.0</ele><time>2026-04-25T15:45:55.98Z</time></trkpt><trkpt lat="43.16901905744477" lon="6.083248000910032"><ele>67.25</ele><time>2026-04-25T15:45:56.979Z</time></trkpt><trkpt lat="43.1688735836403" lon="6.083201159930023"><ele>69.5</ele><time>2026-04-25T15:45:57.979Z</time></trkpt><trkpt lat="43.168743460224285" lon="6.083147881751454"><ele>71.75</ele><time>2026-04-25T15:45:58.979Z</time></trkpt><trkpt lat="43.16861951651166" lon="6.0830861294812975"><ele>74.0</ele><time>2026-04-25T15:45:59.979Z</time></trkpt><trkpt lat="43.16851023474125" lon="6.083017826713511"><ele>74.0</ele><time>2026-04-25T15:46:00.979Z</time></trkpt><trkpt lat="43.16840989287268" lon="6.082923973514343"><ele>74.0</ele><time>2026-04-25T15:46:01.979Z</time></trkpt><trkpt lat="43.168310698062285" lon="6.082812524891663"><ele>74.0</ele><time>2026-04-25T15:46:02.979Z</time></trkpt><trkpt lat="43.16824791508483" lon="6.082668161605559"><ele>74.0</ele><time>2026-04-25T15:46:03.979Z</time></trkpt><trkpt lat="43.16820287592459" lon="6.082475869731229"><ele>74.75</ele><time>2026-04-25T15:46:04.979Z</time></trkpt><trkpt lat="43.168140911052625" lon="6.082298360166887"><ele>75.5</ele><time>2026-04-25T15:46:05.98Z</time></trkpt><trkpt lat="43.16807212200672" lon="6.082121997380614"><ele>76.25</ele><time>2026-04-25T15:46:06.98Z</time></trkpt><trkpt lat="43.168010071636104" lon="6.0819592174198664"><ele>77.0</ele><time>2026-04-25T15:46:07.98Z</time></trkpt><trkpt lat="43.167934061383605" lon="6.0817840295421135"><ele>77.66666666666667</ele><time>2026-04-25T15:46:08.979Z</time></trkpt><trkpt lat="43.167849097950274" lon="6.081575741803322"><ele>78.33333333333333</ele><time>2026-04-25T15:46:09.979Z</time></trkpt><trkpt lat="43.16776016844793" lon="6.081331748029042"><ele>79.0</ele><time>2026-04-25T15:46:10.979Z</time></trkpt><trkpt lat="43.16768064392102" lon="6.0810437485147855"><ele>79.0</ele><time>2026-04-25T15:46:11.979Z</time></trkpt><trkpt lat="43.16760019580536" lon="6.080820968113666"><ele>79.0</ele><time>2026-04-25T15:46:12.979Z</time></trkpt><trkpt lat="43.16748190076619" lon="6.080652230346438"><ele>79.0</ele><time>2026-04-25T15:46:13.979Z</time></trkpt><trkpt lat="43.167322392243385" lon="6.0804497200447605"><ele>76.5</ele><time>2026-04-25T15:46:14.979Z</time></trkpt><trkpt lat="43.167160826149235" lon="6.080249795168437"><ele>74.0</ele><time>2026-04-25T15:46:15.979Z</time></trkpt><trkpt lat="43.166982388130506" lon="6.080039485974989"><ele>70.5</ele><time>2026-04-25T15:46:16.979Z</time></trkpt><trkpt lat="43.166793169912985" lon="6.079826613403422"><ele>67.0</ele><time>2026-04-25T15:46:17.979Z</time></trkpt><trkpt lat="43.166621336959764" lon="6.079625176177932"><ele>68.33333333333333</ele><time>2026-04-25T15:46:18.979Z</time></trkpt><trkpt lat="43.16646360213441" lon="6.079445183468766"><ele>69.66666666666667</ele><time>2026-04-25T15:46:19.979Z</time></trkpt><trkpt lat="43.16631862166585" lon="6.079290545599614"><ele>71.0</ele><time>2026-04-25T15:46:20.979Z</time></trkpt><trkpt lat="43.16619240626173" lon="6.079172188415557"><ele>70.0</ele><time>2026-04-25T15:46:21.979Z</time></trkpt><trkpt lat="43.16608667394405" lon="6.0790669960247605"><ele>69.0</ele><time>2026-04-25T15:46:22.979Z</time></trkpt><trkpt lat="43.16599796568668" lon="6.078974717678875"><ele>68.0</ele><time>2026-04-25T15:46:23.979Z</time></trkpt><trkpt lat="43.16592337997492" lon="6.078884856526821"><ele>67.0</ele><time>2026-04-25T15:46:24.979Z</time></trkpt><trkpt lat="43.16587816303431" lon="6.07877788731555"><ele>66.0</ele><time>2026-04-25T15:46:25.979Z</time></trkpt><trkpt lat="43.16589487669525" lon="6.078638613899248"><ele>66.0</ele><time>2026-04-25T15:46:26.979Z</time></trkpt><trkpt lat="43.16597123525021" lon="6.078515706788707"><ele>66.0</ele><time>2026-04-25T15:46:27.979Z</time></trkpt><trkpt lat="43.16606176877846" lon="6.078432661974458"><ele>66.0</ele><time>2026-04-25T15:46:28.979Z</time></trkpt><trkpt lat="43.16619446781643" lon="6.078394377908511"><ele>66.0</ele><time>2026-04-25T15:46:29.979Z</time></trkpt><trkpt lat="43.166356562544976" lon="6.078428181279082"><ele>65.33333333333333</ele><time>2026-04-25T15:46:30.979Z</time></trkpt><trkpt lat="43.16653831402913" lon="6.078398148621519"><ele>64.66666666666666</ele><time>2026-04-25T15:46:31.979Z</time></trkpt><trkpt lat="43.166743768779" lon="6.078363806778352"><ele>64.0</ele><time>2026-04-25T15:46:32.979Z</time></trkpt><trkpt lat="43.166928465319714" lon="6.078322862113609"><ele>62.33333333333333</ele><time>2026-04-25T15:46:33.979Z</time></trkpt><trkpt lat="43.16708481283817" lon="6.078238589782776"><ele>60.66666666666667</ele><time>2026-04-25T15:46:34.979Z</time></trkpt><trkpt lat="43.167193522896184" lon="6.07804852983456"><ele>59.0</ele><time>2026-04-25T15:46:35.979Z</time></trkpt><trkpt lat="43.16725754750301" lon="6.077780637012884"><ele>59.0</ele><time>2026-04-25T15:46:36.979Z</time></trkpt><trkpt lat="43.16731786051121" lon="6.07748492916249"><ele>59.0</ele><time>2026-04-25T15:46:37.979Z</time></trkpt><trkpt lat="43.167396327038865" lon="6.077186317425817"><ele>57.333333333333336</ele><time>2026-04-25T15:46:38.979Z</time></trkpt><trkpt lat="43.16748112985538" lon="6.076908293454434"><ele>55.66666666666667</ele><time>2026-04-25T15:46:39.979Z</time></trkpt><trkpt lat="43.16756608368135" lon="6.076640029057095"><ele>54.0</ele><time>2026-04-25T15:46:40.979Z</time></trkpt><trkpt lat="43.167645782744174" lon="6.076376746349139"><ele>52.66666666666667</ele><time>2026-04-25T15:46:41.979Z</time></trkpt><trkpt lat="43.16771281560871" lon="6.076119124386555"><ele>51.333333333333336</ele><time>2026-04-25T15:46:42.979Z</time></trkpt><trkpt lat="43.16777440089733" lon="6.075862513582792"><ele>50.0</ele><time>2026-04-25T15:46:43.979Z</time></trkpt><trkpt lat="43.16783427726592" lon="6.075604615487593"><ele>50.0</ele><time>2026-04-25T15:46:44.979Z</time></trkpt><trkpt lat="43.167885905528244" lon="6.075347887955761"><ele>50.0</ele><time>2026-04-25T15:46:45.979Z</time></trkpt><trkpt lat="43.16793431279499" lon="6.075108421289271"><ele>50.0</ele><time>2026-04-25T15:46:46.979Z</time></trkpt><trkpt lat="43.167975388388754" lon="6.074893898761839"><ele>50.333333333333336</ele><time>2026-04-25T15:46:47.979Z</time></trkpt><trkpt lat="43.16801406696768" lon="6.074681408714432"><ele>50.66666666666667</ele><time>2026-04-25T15:46:48.979Z</time></trkpt><trkpt lat="43.168074142208155" lon="6.074450871434819"><ele>51.0</ele><time>2026-04-25T15:46:49.979Z</time></trkpt><trkpt lat="43.16815340013285" lon="6.074198155413414"><ele>50.5</ele><time>2026-04-25T15:46:50.979Z</time></trkpt><trkpt lat="43.16824386121954" lon="6.073911720346131"><ele>50.0</ele><time>2026-04-25T15:46:51.979Z</time></trkpt><trkpt lat="43.168334829477644" lon="6.073598735857645"><ele>50.0</ele><time>2026-04-25T15:46:52.979Z</time></trkpt><trkpt lat="43.168414207356236" lon="6.073349071710864"><ele>50.0</ele><time>2026-04-25T15:46:53.979Z</time></trkpt><trkpt lat="43.16845289871501" lon="6.073116359809873"><ele>50.0</ele><time>2026-04-25T15:46:54.979Z</time></trkpt><trkpt lat="43.168495419573816" lon="6.072891507525744"><ele>50.0</ele><time>2026-04-25T15:46:55.979Z</time></trkpt><trkpt lat="43.16852782534695" lon="6.072687363322947"><ele>50.0</ele><time>2026-04-25T15:46:56.979Z</time></trkpt><trkpt lat="43.16856232976742" lon="6.072520593691555"><ele>50.0</ele><time>2026-04-25T15:46:57.979Z</time></trkpt><trkpt lat="43.16861555919262" lon="6.07239089605998"><ele>50.0</ele><time>2026-04-25T15:46:58.979Z</time></trkpt><trkpt lat="43.168715290110654" lon="6.0722891994417685"><ele>50.333333333333336</ele><time>2026-04-25T15:46:59.979Z</time></trkpt><trkpt lat="43.1688767449066" lon="6.072226569023294"><ele>50.66666666666667</ele><time>2026-04-25T15:47:00.979Z</time></trkpt><trkpt lat="43.169059426338634" lon="6.0722111600971065"><ele>51.0</ele><time>2026-04-25T15:47:01.979Z</time></trkpt><trkpt lat="43.1692572096384" lon="6.072181905207634"><ele>51.0</ele><time>2026-04-25T15:47:02.979Z</time></trkpt><trkpt lat="43.169466649469214" lon="6.0721180819933105"><ele>51.0</ele><time>2026-04-25T15:47:03.979Z</time></trkpt><trkpt lat="43.169689049215535" lon="6.072052714047809"><ele>51.0</ele><time>2026-04-25T15:47:04.979Z</time></trkpt><trkpt lat="43.16995097422041" lon="6.0720007434269325"><ele>51.0</ele><time>2026-04-25T15:47:05.979Z</time></trkpt><trkpt lat="43.170209406910956" lon="6.071914765044674"><ele>51.0</ele><time>2026-04-25T15:47:06.979Z</time></trkpt><trkpt lat="43.17043255461665" lon="6.0718513714078854"><ele>51.0</ele><time>2026-04-25T15:47:07.979Z</time></trkpt><trkpt lat="43.17063728416411" lon="6.071775873496945"><ele>51.0</ele><time>2026-04-25T15:47:08.979Z</time></trkpt><trkpt lat="43.17079828086633" lon="6.071650086567021"><ele>51.0</ele><time>2026-04-25T15:47:09.979Z</time></trkpt><trkpt lat="43.17093296078681" lon="6.07146579936887"><ele>52.0</ele><time>2026-04-25T15:47:10.979Z</time></trkpt><trkpt lat="43.17105697991673" lon="6.071238284777654"><ele>53.0</ele><time>2026-04-25T15:47:11.979Z</time></trkpt><trkpt lat="43.17118623672624" lon="6.071004621674152"><ele>54.0</ele><time>2026-04-25T15:47:12.979Z</time></trkpt><trkpt lat="43.17130644298671" lon="6.070788121099606"><ele>54.33333333333333</ele><time>2026-04-25T15:47:13.979Z</time></trkpt><trkpt lat="43.17140580333261" lon="6.0706010112966196"><ele>54.666666666666664</ele><time>2026-04-25T15:47:14.979Z</time></trkpt><trkpt lat="43.17151014360204" lon="6.070409611083474"><ele>55.0</ele><time>2026-04-25T15:47:15.979Z</time></trkpt><trkpt lat="43.171613572735225" lon="6.070200166699807"><ele>55.0</ele><time>2026-04-25T15:47:16.979Z</time></trkpt><trkpt lat="43.171712375684514" lon="6.06998467462546"><ele>55.0</ele><time>2026-04-25T15:47:17.979Z</time></trkpt><trkpt lat="43.17179922044079" lon="6.069780358635463"><ele>55.0</ele><time>2026-04-25T15:47:18.979Z</time></trkpt><trkpt lat="43.17187761537986" lon="6.069584175595171"><ele>55.33333333333333</ele><time>2026-04-25T15:47:19.979Z</time></trkpt><trkpt lat="43.171966754602956" lon="6.0693934731116"><ele>55.66666666666667</ele><time>2026-04-25T15:47:20.979Z</time></trkpt><trkpt lat="43.17207615262679" lon="6.069208881786909"><ele>56.0</ele><time>2026-04-25T15:47:21.979Z</time></trkpt><trkpt lat="43.17219974711656" lon="6.069033181872852"><ele>56.0</ele><time>2026-04-25T15:47:22.979Z</time></trkpt><trkpt lat="43.17233058310383" lon="6.068858586809397"><ele>56.0</ele><time>2026-04-25T15:47:23.979Z</time></trkpt><trkpt lat="43.17247096974575" lon="6.068690747714219"><ele>56.0</ele><time>2026-04-25T15:47:24.979Z</time></trkpt><trkpt lat="43.17264535143638" lon="6.068545281088499"><ele>55.66666666666667</ele><time>2026-04-25T15:47:25.979Z</time></trkpt><trkpt lat="43.17280632069481" lon="6.068424705134485"><ele>55.33333333333333</ele><time>2026-04-25T15:47:26.979Z</time></trkpt><trkpt lat="43.1729583062166" lon="6.068314658820791"><ele>55.0</ele><time>2026-04-25T15:47:27.979Z</time></trkpt><trkpt lat="43.17310236659662" lon="6.068208149681468"><ele>55.25</ele><time>2026-04-25T15:47:28.979Z</time></trkpt><trkpt lat="43.173236961773455" lon="6.0681135480800705"><ele>55.5</ele><time>2026-04-25T15:47:29.979Z</time></trkpt><trkpt lat="43.17336534939048" lon="6.068034122391458"><ele>55.75</ele><time>2026-04-25T15:47:30.979Z</time></trkpt><trkpt lat="43.17348579585591" lon="6.067975745472738"><ele>56.0</ele><time>2026-04-25T15:47:31.979Z</time></trkpt><trkpt lat="43.173591383645906" lon="6.0679371896635175"><ele>56.0</ele><time>2026-04-25T15:47:32.979Z</time></trkpt><trkpt lat="43.173684522204056" lon="6.067907725361822"><ele>55.99999999999999</ele><time>2026-04-25T15:47:33.979Z</time></trkpt><trkpt lat="43.173755645522014" lon="6.067887783848796"><ele>55.99999999999999</ele><time>2026-04-25T15:47:34.979Z</time></trkpt><trkpt lat="43.173856374478646" lon="6.067856016199982"><ele>56.0</ele><time>2026-04-25T15:47:36.979Z</time></trkpt><trkpt lat="43.1739206670998" lon="6.0678314683351005"><ele>56.0</ele><time>2026-04-25T15:47:38.979Z</time></trkpt><trkpt lat="43.1738899745872" lon="6.067619231099548"><ele>56.0</ele><time>2026-04-25T15:47:39.979Z</time></trkpt><trkpt lat="43.17386871941346" lon="6.067472618607729"><ele>56.0</ele><time>2026-04-25T15:47:40.979Z</time></trkpt><trkpt lat="43.17384290747768" lon="6.067295308016608"><ele>56.0</ele><time>2026-04-25T15:47:41.979Z</time></trkpt><trkpt lat="43.17381852358971" lon="6.0671117711601115"><ele>56.0</ele><time>2026-04-25T15:47:42.979Z</time></trkpt><trkpt lat="43.17379098125867" lon="6.06688411733258"><ele>56.333333333333336</ele><time>2026-04-25T15:47:43.979Z</time></trkpt><trkpt lat="43.173758275634505" lon="6.066625422155065"><ele>56.66666666666667</ele><time>2026-04-25T15:47:44.979Z</time></trkpt><trkpt lat="43.17372134879528" lon="6.066342202400464"><ele>57.0</ele><time>2026-04-25T15:47:45.979Z</time></trkpt><trkpt lat="43.173687548749015" lon="6.066077292022497"><ele>57.33333333333333</ele><time>2026-04-25T15:47:46.979Z</time></trkpt><trkpt lat="43.173654627461005" lon="6.065809191515961"><ele>57.666666666666664</ele><time>2026-04-25T15:47:47.979Z</time></trkpt><trkpt lat="43.17362404247299" lon="6.06554368338759"><ele>58.0</ele><time>2026-04-25T15:47:48.979Z</time></trkpt><trkpt lat="43.173587702911306" lon="6.065279287951133"><ele>57.666666666666664</ele><time>2026-04-25T15:47:49.979Z</time></trkpt><trkpt lat="43.173557581487174" lon="6.0650158227003725"><ele>57.33333333333333</ele><time>2026-04-25T15:47:50.979Z</time></trkpt><trkpt lat="43.17352556068977" lon="6.064758946180499"><ele>57.0</ele><time>2026-04-25T15:47:51.979Z</time></trkpt><trkpt lat="43.17349307889348" lon="6.064508243352263"><ele>57.0</ele><time>2026-04-25T15:47:52.979Z</time></trkpt><trkpt lat="43.17346132718001" lon="6.064268722223024"><ele>57.0</ele><time>2026-04-25T15:47:53.979Z</time></trkpt><trkpt lat="43.173429403984514" lon="6.0640450603628295"><ele>57.0</ele><time>2026-04-25T15:47:54.979Z</time></trkpt><trkpt lat="43.17338990713594" lon="6.063827519954605"><ele>57.66666666666667</ele><time>2026-04-25T15:47:55.979Z</time></trkpt><trkpt lat="43.1733516791355" lon="6.0636110027944925"><ele>58.333333333333336</ele><time>2026-04-25T15:47:56.979Z</time></trkpt><trkpt lat="43.17331623637011" lon="6.063398459429835"><ele>59.0</ele><time>2026-04-25T15:47:57.979Z</time></trkpt><trkpt lat="43.173278011193396" lon="6.063181848206323"><ele>59.333333333333336</ele><time>2026-04-25T15:47:58.979Z</time></trkpt><trkpt lat="43.17323119333745" lon="6.0629718454652455"><ele>59.66666666666667</ele><time>2026-04-25T15:47:59.979Z</time></trkpt><trkpt lat="43.17317601786242" lon="6.06276492935702"><ele>60.0</ele><time>2026-04-25T15:48:00.979Z</time></trkpt><trkpt lat="43.17312521372303" lon="6.062555233864005"><ele>60.0</ele><time>2026-04-25T15:48:01.98Z</time></trkpt><trkpt lat="43.17308875027707" lon="6.06233324745454"><ele>60.0</ele><time>2026-04-25T15:48:02.98Z</time></trkpt><trkpt lat="43.173056210674496" lon="6.062111844789067"><ele>60.0</ele><time>2026-04-25T15:48:03.979Z</time></trkpt><trkpt lat="43.17304176684327" lon="6.061869944431425"><ele>60.0</ele><time>2026-04-25T15:48:04.979Z</time></trkpt><trkpt lat="43.17302880491008" lon="6.0616399537255825"><ele>60.0</ele><time>2026-04-25T15:48:05.979Z</time></trkpt><trkpt lat="43.17300780232225" lon="6.061413203206146"><ele>60.0</ele><time>2026-04-25T15:48:06.979Z</time></trkpt><trkpt lat="43.17297945375448" lon="6.061191144034219"><ele>60.0</ele><time>2026-04-25T15:48:07.979Z</time></trkpt><trkpt lat="43.17294008120271" lon="6.060974412583735"><ele>60.0</ele><time>2026-04-25T15:48:08.979Z</time></trkpt><trkpt lat="43.17289202442665" lon="6.060771188530598"><ele>60.0</ele><time>2026-04-25T15:48:09.979Z</time></trkpt><trkpt lat="43.172844377741455" lon="6.060582955773445"><ele>60.25</ele><time>2026-04-25T15:48:10.979Z</time></trkpt><trkpt lat="43.17280916931614" lon="6.060405378972663"><ele>60.5</ele><time>2026-04-25T15:48:11.979Z</time></trkpt><trkpt lat="43.1727703376509" lon="6.060233315294824"><ele>60.75</ele><time>2026-04-25T15:48:12.979Z</time></trkpt><trkpt lat="43.17275321497612" lon="6.060042193689106"><ele>61.0</ele><time>2026-04-25T15:48:13.979Z</time></trkpt><trkpt lat="43.17273979778751" lon="6.059856357107476"><ele>61.5</ele><time>2026-04-25T15:48:14.979Z</time></trkpt><trkpt lat="43.1727352767038" lon="6.059675445317101"><ele>62.0</ele><time>2026-04-25T15:48:15.979Z</time></trkpt><trkpt lat="43.17273951869467" lon="6.0594830268027575"><ele>62.5</ele><time>2026-04-25T15:48:16.979Z</time></trkpt><trkpt lat="43.1727235647497" lon="6.0592870742923814"><ele>63.0</ele><time>2026-04-25T15:48:17.979Z</time></trkpt><trkpt lat="43.17271631999932" lon="6.0591073793761705"><ele>63.0</ele><time>2026-04-25T15:48:18.979Z</time></trkpt><trkpt lat="43.172710497710575" lon="6.05893906373832"><ele>63.0</ele><time>2026-04-25T15:48:19.979Z</time></trkpt><trkpt lat="43.17270153684071" lon="6.058795910204595"><ele>63.0</ele><time>2026-04-25T15:48:20.979Z</time></trkpt><trkpt lat="43.17269421137141" lon="6.0586545951006805"><ele>63.0</ele><time>2026-04-25T15:48:21.979Z</time></trkpt><trkpt lat="43.17268720585406" lon="6.058539090618049"><ele>63.0</ele><time>2026-04-25T15:48:22.979Z</time></trkpt><trkpt lat="43.17268544315957" lon="6.05843946024801"><ele>63.0</ele><time>2026-04-25T15:48:23.979Z</time></trkpt><trkpt lat="43.17269233782794" lon="6.058282908625173"><ele>63.0</ele><time>2026-04-25T15:48:25.979Z</time></trkpt><trkpt lat="43.17271875156589" lon="6.058142479704482"><ele>63.0</ele><time>2026-04-25T15:48:27.979Z</time></trkpt><trkpt lat="43.17268379377495" lon="6.058045805198816"><ele>63.0</ele><time>2026-04-25T15:48:28.979Z</time></trkpt><trkpt lat="43.17265807605435" lon="6.057914558156993"><ele>63.0</ele><time>2026-04-25T15:48:29.979Z</time></trkpt><trkpt lat="43.17263625187407" lon="6.057783473276159"><ele>63.0</ele><time>2026-04-25T15:48:30.979Z</time></trkpt><trkpt lat="43.17260979202034" lon="6.057649421883443"><ele>63.0</ele><time>2026-04-25T15:48:31.979Z</time></trkpt><trkpt lat="43.17258783833153" lon="6.057507714331644"><ele>63.0</ele><time>2026-04-25T15:48:32.979Z</time></trkpt><trkpt lat="43.17256899357864" lon="6.057374824824058"><ele>63.0</ele><time>2026-04-25T15:48:33.979Z</time></trkpt><trkpt lat="43.17254917535055" lon="6.0572507826971345"><ele>63.0</ele><time>2026-04-25T15:48:34.979Z</time></trkpt><trkpt lat="43.17254568642817" lon="6.057138616210445"><ele>63.0</ele><time>2026-04-25T15:48:35.979Z</time></trkpt><trkpt lat="43.17255979894974" lon="6.057021762530073"><ele>63.0</ele><time>2026-04-25T15:48:36.979Z</time></trkpt><trkpt lat="43.172592763678175" lon="6.056899588789342"><ele>63.0</ele><time>2026-04-25T15:48:37.979Z</time></trkpt><trkpt lat="43.172647565814096" lon="6.056770689632235"><ele>63.0</ele><time>2026-04-25T15:48:38.979Z</time></trkpt><trkpt lat="43.17267648271339" lon="6.05663524514898"><ele>63.0</ele><time>2026-04-25T15:48:39.979Z</time></trkpt><trkpt lat="43.172673667153745" lon="6.056482231528698"><ele>62.25</ele><time>2026-04-25T15:48:40.979Z</time></trkpt><trkpt lat="43.172639147594694" lon="6.0563145393224485"><ele>61.5</ele><time>2026-04-25T15:48:41.979Z</time></trkpt><trkpt lat="43.17259849148859" lon="6.056126794900593"><ele>60.75</ele><time>2026-04-25T15:48:42.979Z</time></trkpt><trkpt lat="43.17255195778454" lon="6.055915150392744"><ele>60.0</ele><time>2026-04-25T15:48:43.979Z</time></trkpt><trkpt lat="43.17251787861462" lon="6.055721433173721"><ele>59.75</ele><time>2026-04-25T15:48:44.979Z</time></trkpt><trkpt lat="43.17250246665661" lon="6.055543705130088"><ele>59.5</ele><time>2026-04-25T15:48:45.979Z</time></trkpt><trkpt lat="43.17247720529621" lon="6.055383032857119"><ele>59.25</ele><time>2026-04-25T15:48:46.979Z</time></trkpt><trkpt lat="43.17244319856028" lon="6.055220925744056"><ele>59.0</ele><time>2026-04-25T15:48:47.979Z</time></trkpt><trkpt lat="43.172408136725345" lon="6.05505913138486"><ele>59.2</ele><time>2026-04-25T15:48:48.979Z</time></trkpt><trkpt lat="43.17237713875701" lon="6.054903851400812"><ele>59.400000000000006</ele><time>2026-04-25T15:48:49.979Z</time></trkpt><trkpt lat="43.17234345721879" lon="6.054754279529473"><ele>59.6</ele><time>2026-04-25T15:48:50.978Z</time></trkpt><trkpt lat="43.17231539841549" lon="6.0546158714186245"><ele>59.8</ele><time>2026-04-25T15:48:51.978Z</time></trkpt><trkpt lat="43.17228825742278" lon="6.05447272599966"><ele>60.0</ele><time>2026-04-25T15:48:52.978Z</time></trkpt><trkpt lat="43.17225723800187" lon="6.054317264739986"><ele>60.25</ele><time>2026-04-25T15:48:53.978Z</time></trkpt><trkpt lat="43.17222165369767" lon="6.054156346217207"><ele>60.5</ele><time>2026-04-25T15:48:54.978Z</time></trkpt><trkpt lat="43.17219627912327" lon="6.05400340210996"><ele>60.75</ele><time>2026-04-25T15:48:55.978Z</time></trkpt><trkpt lat="43.172174513034356" lon="6.053843936859197"><ele>61.0</ele><time>2026-04-25T15:48:56.978Z</time></trkpt><trkpt lat="43.17215013404664" lon="6.0536754213780375"><ele>61.25</ele><time>2026-04-25T15:48:57.978Z</time></trkpt><trkpt lat="43.172117599425725" lon="6.053494569162333"><ele>61.5</ele><time>2026-04-25T15:48:58.978Z</time></trkpt><trkpt lat="43.17209138756148" lon="6.053300679960063"><ele>61.75</ele><time>2026-04-25T15:48:59.978Z</time></trkpt><trkpt lat="43.17207352109256" lon="6.053079527402716"><ele>62.0</ele><time>2026-04-25T15:49:00.978Z</time></trkpt><trkpt lat="43.172070009365925" lon="6.0528405275678105"><ele>61.66666666666667</ele><time>2026-04-25T15:49:01.978Z</time></trkpt><trkpt lat="43.17208326765013" lon="6.052590064942963"><ele>61.33333333333333</ele><time>2026-04-25T15:49:02.978Z</time></trkpt><trkpt lat="43.17210989275247" lon="6.052355805227013"><ele>61.0</ele><time>2026-04-25T15:49:03.978Z</time></trkpt><trkpt lat="43.17213475250359" lon="6.052153610423186"><ele>61.0</ele><time>2026-04-25T15:49:04.978Z</time></trkpt><trkpt lat="43.1721546983606" lon="6.051969761437687"><ele>61.0</ele><time>2026-04-25T15:49:05.978Z</time></trkpt><trkpt lat="43.17217498643157" lon="6.0517855069245226"><ele>61.0</ele><time>2026-04-25T15:49:06.978Z</time></trkpt><trkpt lat="43.17219176898251" lon="6.051621803400266"><ele>61.0</ele><time>2026-04-25T15:49:07.978Z</time></trkpt><trkpt lat="43.172212728573164" lon="6.051467813727021"><ele>61.166666666666664</ele><time>2026-04-25T15:49:08.978Z</time></trkpt><trkpt lat="43.172229954074524" lon="6.05132412216082"><ele>61.33333333333333</ele><time>2026-04-25T15:49:09.978Z</time></trkpt><trkpt lat="43.172245846242774" lon="6.05119191955365"><ele>61.5</ele><time>2026-04-25T15:49:10.978Z</time></trkpt><trkpt lat="43.17224912614374" lon="6.051087859835217"><ele>61.66666666666667</ele><time>2026-04-25T15:49:11.978Z</time></trkpt><trkpt lat="43.172251950452214" lon="6.050997413068355"><ele>61.833333333333336</ele><time>2026-04-25T15:49:12.978Z</time></trkpt><trkpt lat="43.17225479347161" lon="6.050907160443404"><ele>62.0</ele><time>2026-04-25T15:49:13.978Z</time></trkpt><trkpt lat="43.17224480064765" lon="6.050809557875038"><ele>62.6</ele><time>2026-04-25T15:49:14.978Z</time></trkpt><trkpt lat="43.17221089895414" lon="6.050697136425183"><ele>63.2</ele><time>2026-04-25T15:49:15.978Z</time></trkpt><trkpt lat="43.17216470664746" lon="6.0505770837919295"><ele>63.8</ele><time>2026-04-25T15:49:16.978Z</time></trkpt><trkpt lat="43.17213147023773" lon="6.050465587226787"><ele>64.4</ele><time>2026-04-25T15:49:17.978Z</time></trkpt><trkpt lat="43.17210070028584" lon="6.050372511022663"><ele>65.0</ele><time>2026-04-25T15:49:18.978Z</time></trkpt><trkpt lat="43.17204967900538" lon="6.050200660249922"><ele>65.0</ele><time>2026-04-25T15:49:20.978Z</time></trkpt><trkpt lat="43.172021298213636" lon="6.050081310769209"><ele>65.0</ele><time>2026-04-25T15:49:21.978Z</time></trkpt><trkpt lat="43.17201093194725" lon="6.049983906887449"><ele>65.0</ele><time>2026-04-25T15:49:22.978Z</time></trkpt><trkpt lat="43.17199402757255" lon="6.0498117253669905"><ele>65.0</ele><time>2026-04-25T15:49:24.978Z</time></trkpt><trkpt lat="43.17197851419771" lon="6.0497272857071405"><ele>65.0</ele><time>2026-04-25T15:49:25.978Z</time></trkpt><trkpt lat="43.17197282659427" lon="6.049631608294578"><ele>65.0</ele><time>2026-04-25T15:49:26.978Z</time></trkpt><trkpt lat="43.17197620442435" lon="6.049496381329146"><ele>65.4</ele><time>2026-04-25T15:49:27.978Z</time></trkpt><trkpt lat="43.171963570841214" lon="6.049379430120064"><ele>65.8</ele><time>2026-04-25T15:49:28.978Z</time></trkpt><trkpt lat="43.17192281113371" lon="6.049236926572077"><ele>66.2</ele><time>2026-04-25T15:49:30.978Z</time></trkpt><trkpt lat="43.17179323445544" lon="6.049233512486187"><ele>66.6</ele><time>2026-04-25T15:49:31.978Z</time></trkpt><trkpt lat="43.17168156958152" lon="6.049258106370936"><ele>67.0</ele><time>2026-04-25T15:49:32.978Z</time></trkpt><trkpt lat="43.17156476756926" lon="6.0492811955242125"><ele>66.75</ele><time>2026-04-25T15:49:33.978Z</time></trkpt><trkpt lat="43.17143955470061" lon="6.049333092031233"><ele>66.5</ele><time>2026-04-25T15:49:34.978Z</time></trkpt><trkpt lat="43.1713058127368" lon="6.0493459014081985"><ele>66.25</ele><time>2026-04-25T15:49:35.978Z</time></trkpt><trkpt lat="43.17118900445747" lon="6.049382149995095"><ele>66.0</ele><time>2026-04-25T15:49:36.978Z</time></trkpt><trkpt lat="43.17108647333106" lon="6.049402902359127"><ele>66.0</ele><time>2026-04-25T15:49:37.978Z</time></trkpt><trkpt lat="43.17098569061308" lon="6.049398171908007"><ele>66.0</ele><time>2026-04-25T15:49:38.978Z</time></trkpt><trkpt lat="43.170899848217076" lon="6.049366008781348"><ele>66.0</ele><time>2026-04-25T15:49:39.978Z</time></trkpt><trkpt lat="43.17083027896121" lon="6.049327348086283"><ele>66.0</ele><time>2026-04-25T15:49:40.978Z</time></trkpt><trkpt lat="43.170735974204426" lon="6.049232070916588"><ele>66.0</ele><time>2026-04-25T15:49:42.978Z</time></trkpt><trkpt lat="43.17065791886246" lon="6.049114792203509"><ele>65.75</ele><time>2026-04-25T15:49:44.978Z</time></trkpt><trkpt lat="43.17054974908664" lon="6.0491244025727475"><ele>65.5</ele><time>2026-04-25T15:49:46.978Z</time></trkpt><trkpt lat="43.17041533026699" lon="6.049103423862759"><ele>65.25</ele><time>2026-04-25T15:49:48.978Z</time></trkpt><trkpt lat="43.17031783815434" lon="6.049022815631619"><ele>65.0</ele><time>2026-04-25T15:49:49.978Z</time></trkpt><trkpt lat="43.17019812902486" lon="6.048921014779436"><ele>65.0</ele><time>2026-04-25T15:49:50.978Z</time></trkpt><trkpt lat="43.17008882347139" lon="6.048840091103603"><ele>65.0</ele><time>2026-04-25T15:49:51.978Z</time></trkpt><trkpt lat="43.16999189937628" lon="6.048764020628207"><ele>65.0</ele><time>2026-04-25T15:49:52.978Z</time></trkpt><trkpt lat="43.16990153686784" lon="6.048692744906077"><ele>65.0</ele><time>2026-04-25T15:49:53.978Z</time></trkpt><trkpt lat="43.16981007537704" lon="6.048622426904493"><ele>65.0</ele><time>2026-04-25T15:49:54.978Z</time></trkpt><trkpt lat="43.169723634010275" lon="6.048548116075889"><ele>65.0</ele><time>2026-04-25T15:49:55.978Z</time></trkpt><trkpt lat="43.169634137814924" lon="6.048475632890193"><ele>65.0</ele><time>2026-04-25T15:49:56.978Z</time></trkpt><trkpt lat="43.16954278366637" lon="6.048405488055646"><ele>65.0</ele><time>2026-04-25T15:49:57.978Z</time></trkpt><trkpt lat="43.1694454800486" lon="6.048345438067259"><ele>65.0</ele><time>2026-04-25T15:49:58.978Z</time></trkpt><trkpt lat="43.169343372181594" lon="6.048301960880769"><ele>65.0</ele><time>2026-04-25T15:49:59.978Z</time></trkpt><trkpt lat="43.16924780232029" lon="6.048270995150472"><ele>65.4</ele><time>2026-04-25T15:50:00.978Z</time></trkpt><trkpt lat="43.16914631943917" lon="6.048251638997906"><ele>65.8</ele><time>2026-04-25T15:50:01.978Z</time></trkpt><trkpt lat="43.169037713222046" lon="6.048220023970984"><ele>66.2</ele><time>2026-04-25T15:50:02.978Z</time></trkpt><trkpt lat="43.16892438377481" lon="6.048180984072749"><ele>66.6</ele><time>2026-04-25T15:50:03.978Z</time></trkpt><trkpt lat="43.16881196086112" lon="6.048134222042459"><ele>67.0</ele><time>2026-04-25T15:50:04.978Z</time></trkpt><trkpt lat="43.1687043393257" lon="6.048089165064137"><ele>67.5</ele><time>2026-04-25T15:50:05.978Z</time></trkpt><trkpt lat="43.168592562836274" lon="6.0480545457841615"><ele>68.0</ele><time>2026-04-25T15:50:06.979Z</time></trkpt><trkpt lat="43.168473191432874" lon="6.048039724286927"><ele>68.5</ele><time>2026-04-25T15:50:07.979Z</time></trkpt><trkpt lat="43.168344083209675" lon="6.048041620673613"><ele>69.0</ele><time>2026-04-25T15:50:08.979Z</time></trkpt><trkpt lat="43.16822474447939" lon="6.048051893980085"><ele>69.2</ele><time>2026-04-25T15:50:09.979Z</time></trkpt><trkpt lat="43.16811640294794" lon="6.048059505152274"><ele>69.4</ele><time>2026-04-25T15:50:10.979Z</time></trkpt><trkpt lat="43.16800810543764" lon="6.048064323030788"><ele>69.6</ele><time>2026-04-25T15:50:11.979Z</time></trkpt><trkpt lat="43.16789052027487" lon="6.048066843341969"><ele>69.8</ele><time>2026-04-25T15:50:12.978Z</time></trkpt><trkpt lat="43.1677800506805" lon="6.048074574146234"><ele>70.0</ele><time>2026-04-25T15:50:13.979Z</time></trkpt><trkpt lat="43.167673188468115" lon="6.04807910001108"><ele>70.0</ele><time>2026-04-25T15:50:14.979Z</time></trkpt><trkpt lat="43.16757115170789" lon="6.048080305162396"><ele>70.0</ele><time>2026-04-25T15:50:15.979Z</time></trkpt><trkpt lat="43.16746980300275" lon="6.048086297783796"><ele>70.0</ele><time>2026-04-25T15:50:16.979Z</time></trkpt><trkpt lat="43.16736395824375" lon="6.048092068809697"><ele>70.0</ele><time>2026-04-25T15:50:17.979Z</time></trkpt><trkpt lat="43.16725707682958" lon="6.048098263074138"><ele>70.0</ele><time>2026-04-25T15:50:18.979Z</time></trkpt><trkpt lat="43.16715934403983" lon="6.048103251575269"><ele>69.83333333333333</ele><time>2026-04-25T15:50:19.979Z</time></trkpt><trkpt lat="43.167068501100175" lon="6.048106903273377"><ele>69.66666666666666</ele><time>2026-04-25T15:50:20.979Z</time></trkpt><trkpt lat="43.16698336146724" lon="6.048109030240098"><ele>69.5</ele><time>2026-04-25T15:50:21.979Z</time></trkpt><trkpt lat="43.16689950667585" lon="6.048113546603351"><ele>69.33333333333333</ele><time>2026-04-25T15:50:22.979Z</time></trkpt><trkpt lat="43.16683054471818" lon="6.0481158105953465"><ele>69.16666666666667</ele><time>2026-04-25T15:50:23.979Z</time></trkpt><trkpt lat="43.166716074748386" lon="6.048113821223867"><ele>69.0</ele><time>2026-04-25T15:50:25.979Z</time></trkpt><trkpt lat="43.166625219645056" lon="6.0481097800638635"><ele>69.0</ele><time>2026-04-25T15:50:27.979Z</time></trkpt><trkpt lat="43.16653055687056" lon="6.048057007506481"><ele>69.0</ele><time>2026-04-25T15:50:29.979Z</time></trkpt><trkpt lat="43.1664621890126" lon="6.048065018255862"><ele>69.0</ele><time>2026-04-25T15:50:30.979Z</time></trkpt><trkpt lat="43.16637033645472" lon="6.048068593607364"><ele>69.0</ele><time>2026-04-25T15:50:31.979Z</time></trkpt><trkpt lat="43.16626026630377" lon="6.048098621635924"><ele>69.0</ele><time>2026-04-25T15:50:32.979Z</time></trkpt><trkpt lat="43.16612533812814" lon="6.048093016465342"><ele>69.0</ele><time>2026-04-25T15:50:33.979Z</time></trkpt><trkpt lat="43.16597978652508" lon="6.048078511749025"><ele>69.0</ele><time>2026-04-25T15:50:34.979Z</time></trkpt><trkpt lat="43.16582844614935" lon="6.04807239051617"><ele>69.0</ele><time>2026-04-25T15:50:35.979Z</time></trkpt><trkpt lat="43.165671058074544" lon="6.048053952998128"><ele>69.0</ele><time>2026-04-25T15:50:36.979Z</time></trkpt><trkpt lat="43.16552529579222" lon="6.048053825428402"><ele>69.0</ele><time>2026-04-25T15:50:37.979Z</time></trkpt><trkpt lat="43.16537539787505" lon="6.048053013838041"><ele>69.0</ele><time>2026-04-25T15:50:38.979Z</time></trkpt><trkpt lat="43.16523921246925" lon="6.048042609154928"><ele>69.0</ele><time>2026-04-25T15:50:39.979Z</time></trkpt><trkpt lat="43.16510472146217" lon="6.048034747471264"><ele>69.0</ele><time>2026-04-25T15:50:40.979Z</time></trkpt><trkpt lat="43.16497249457688" lon="6.048023114296878"><ele>69.0</ele><time>2026-04-25T15:50:41.979Z</time></trkpt><trkpt lat="43.16484470021203" lon="6.048008027376143"><ele>69.0</ele><time>2026-04-25T15:50:42.979Z</time></trkpt><trkpt lat="43.16471638152989" lon="6.0479999254386785"><ele>69.0</ele><time>2026-04-25T15:50:43.979Z</time></trkpt><trkpt lat="43.164586756923576" lon="6.047988517972298"><ele>68.5</ele><time>2026-04-25T15:50:44.979Z</time></trkpt><trkpt lat="43.16445834878619" lon="6.047974961987836"><ele>68.0</ele><time>2026-04-25T15:50:45.979Z</time></trkpt><trkpt lat="43.1643367606736" lon="6.047965799474584"><ele>67.5</ele><time>2026-04-25T15:50:46.979Z</time></trkpt><trkpt lat="43.16422201431591" lon="6.047948871322553"><ele>67.0</ele><time>2026-04-25T15:50:47.979Z</time></trkpt><trkpt lat="43.16410530229993" lon="6.047919449413411"><ele>67.2</ele><time>2026-04-25T15:50:48.979Z</time></trkpt><trkpt lat="43.163995884024956" lon="6.047872424412962"><ele>67.4</ele><time>2026-04-25T15:50:49.979Z</time></trkpt><trkpt lat="43.16389404179348" lon="6.047803645631992"><ele>67.6</ele><time>2026-04-25T15:50:50.979Z</time></trkpt><trkpt lat="43.16380448536447" lon="6.047708773630179"><ele>67.8</ele><time>2026-04-25T15:50:51.979Z</time></trkpt><trkpt lat="43.1637212015649" lon="6.047624131474199"><ele>68.0</ele><time>2026-04-25T15:50:52.979Z</time></trkpt><trkpt lat="43.163650199548364" lon="6.047545798711913"><ele>68.0</ele><time>2026-04-25T15:50:53.979Z</time></trkpt><trkpt lat="43.163597929613616" lon="6.047463858128095"><ele>68.0</ele><time>2026-04-25T15:50:54.979Z</time></trkpt><trkpt lat="43.16354950359508" lon="6.047390042207909"><ele>68.0</ele><time>2026-04-25T15:50:55.979Z</time></trkpt><trkpt lat="43.163491652761174" lon="6.047256801960841"><ele>68.0</ele><time>2026-04-25T15:50:57.979Z</time></trkpt><trkpt lat="43.16347801014887" lon="6.047127005201122"><ele>68.0</ele><time>2026-04-25T15:51:00.979Z</time></trkpt><trkpt lat="43.16348003185467" lon="6.047037824687282"><ele>68.0</ele><time>2026-04-25T15:51:01.979Z</time></trkpt><trkpt lat="43.16347371165367" lon="6.046945598956324"><ele>68.0</ele><time>2026-04-25T15:51:02.979Z</time></trkpt><trkpt lat="43.16344707448675" lon="6.0468655352204"><ele>68.0</ele><time>2026-04-25T15:51:03.979Z</time></trkpt><trkpt lat="43.163399741703394" lon="6.046786531459633"><ele>68.0</ele><time>2026-04-25T15:51:04.979Z</time></trkpt><trkpt lat="43.16335545842777" lon="6.046723278818954"><ele>68.0</ele><time>2026-04-25T15:51:05.979Z</time></trkpt><trkpt lat="43.16332580426472" lon="6.046634401235221"><ele>68.0</ele><time>2026-04-25T15:51:06.979Z</time></trkpt><trkpt lat="43.16331577976677" lon="6.046528177628823"><ele>68.0</ele><time>2026-04-25T15:51:07.979Z</time></trkpt><trkpt lat="43.16329894107776" lon="6.046374632723491"><ele>68.0</ele><time>2026-04-25T15:51:08.979Z</time></trkpt><trkpt lat="43.16328339223254" lon="6.046165583630587"><ele>68.0</ele><time>2026-04-25T15:51:09.979Z</time></trkpt><trkpt lat="43.16328435308079" lon="6.045951921813514"><ele>68.0</ele><time>2026-04-25T15:51:10.979Z</time></trkpt><trkpt lat="43.163285416508444" lon="6.045786496216144"><ele>68.0</ele><time>2026-04-25T15:51:11.979Z</time></trkpt><trkpt lat="43.16328399303404" lon="6.045656036339621"><ele>68.6</ele><time>2026-04-25T15:51:12.979Z</time></trkpt><trkpt lat="43.1632878081203" lon="6.045546954106856"><ele>69.19999999999999</ele><time>2026-04-25T15:51:13.979Z</time></trkpt><trkpt lat="43.16329061678968" lon="6.045385345150589"><ele>69.8</ele><time>2026-04-25T15:51:15.979Z</time></trkpt><trkpt lat="43.1632895022586" lon="6.045253238550419"><ele>70.39999999999999</ele><time>2026-04-25T15:51:17.979Z</time></trkpt><trkpt lat="43.16328728196915" lon="6.0450849485188956"><ele>71.0</ele><time>2026-04-25T15:51:19.978Z</time></trkpt><trkpt lat="43.163287464944446" lon="6.044953854135187"><ele>71.5</ele><time>2026-04-25T15:51:20.978Z</time></trkpt><trkpt lat="43.163288220277906" lon="6.044789176286631"><ele>72.0</ele><time>2026-04-25T15:51:21.978Z</time></trkpt><trkpt lat="43.163287339658325" lon="6.0446121875398955"><ele>72.5</ele><time>2026-04-25T15:51:22.978Z</time></trkpt><trkpt lat="43.16328154421205" lon="6.044463829719496"><ele>73.0</ele><time>2026-04-25T15:51:23.978Z</time></trkpt><trkpt lat="43.16327813223375" lon="6.044310137526746"><ele>73.0</ele><time>2026-04-25T15:51:24.978Z</time></trkpt><trkpt lat="43.16327727026199" lon="6.0441320022041"><ele>73.0</ele><time>2026-04-25T15:51:25.978Z</time></trkpt><trkpt lat="43.163275055972214" lon="6.043921407753938"><ele>73.0</ele><time>2026-04-25T15:51:26.978Z</time></trkpt><trkpt lat="43.16328158771342" lon="6.043701994894415"><ele>73.0</ele><time>2026-04-25T15:51:27.978Z</time></trkpt><trkpt lat="43.163282217291574" lon="6.043524083448626"><ele>73.66666666666666</ele><time>2026-04-25T15:51:28.978Z</time></trkpt><trkpt lat="43.16328181739998" lon="6.04336981125706"><ele>74.33333333333333</ele><time>2026-04-25T15:51:29.978Z</time></trkpt><trkpt lat="43.1632830062944" lon="6.043246150907856"><ele>75.0</ele><time>2026-04-25T15:51:30.978Z</time></trkpt><trkpt lat="43.16329074057201" lon="6.043147701707355"><ele>75.66666666666667</ele><time>2026-04-25T15:51:31.978Z</time></trkpt><trkpt lat="43.163317908696996" lon="6.0430690232172415"><ele>76.33333333333334</ele><time>2026-04-25T15:51:34.978Z</time></trkpt><trkpt lat="43.1633689311022" lon="6.042955991719412"><ele>77.0</ele><time>2026-04-25T15:51:36.978Z</time></trkpt><trkpt lat="43.163373643101345" lon="6.042808930058224"><ele>77.0</ele><time>2026-04-25T15:51:38.978Z</time></trkpt><trkpt lat="43.16325918644425" lon="6.042713125210867"><ele>77.0</ele><time>2026-04-25T15:51:40.978Z</time></trkpt><trkpt lat="43.16317486009251" lon="6.042714194808963"><ele>77.0</ele><time>2026-04-25T15:51:41.978Z</time></trkpt><trkpt lat="43.163100467148126" lon="6.0426922299300605"><ele>77.0</ele><time>2026-04-25T15:51:42.978Z</time></trkpt><trkpt lat="43.16301948727973" lon="6.04262677170081"><ele>77.0</ele><time>2026-04-25T15:51:43.978Z</time></trkpt><trkpt lat="43.162917209872866" lon="6.042562240844218"><ele>77.0</ele><time>2026-04-25T15:51:44.978Z</time></trkpt><trkpt lat="43.162777220644806" lon="6.042532783473981"><ele>77.0</ele><time>2026-04-25T15:51:45.978Z</time></trkpt><trkpt lat="43.16260368726183" lon="6.0425214662802755"><ele>77.0</ele><time>2026-04-25T15:51:46.978Z</time></trkpt><trkpt lat="43.162431422905094" lon="6.042503398219242"><ele>76.75</ele><time>2026-04-25T15:51:47.978Z</time></trkpt><trkpt lat="43.162278500745664" lon="6.042488332056545"><ele>76.5</ele><time>2026-04-25T15:51:48.978Z</time></trkpt><trkpt lat="43.16213100118804" lon="6.042480101916948"><ele>76.25</ele><time>2026-04-25T15:51:49.978Z</time></trkpt><trkpt lat="43.16198686927579" lon="6.042464998080329"><ele>76.0</ele><time>2026-04-25T15:51:50.978Z</time></trkpt><trkpt lat="43.161848721757494" lon="6.042438768517749"><ele>76.0</ele><time>2026-04-25T15:51:51.978Z</time></trkpt><trkpt lat="43.16171946652447" lon="6.04241012367204"><ele>76.0</ele><time>2026-04-25T15:51:52.978Z</time></trkpt><trkpt lat="43.16159631310656" lon="6.042373604008047"><ele>76.0</ele><time>2026-04-25T15:51:53.978Z</time></trkpt><trkpt lat="43.16148125373693" lon="6.042332847063268"><ele>76.0</ele><time>2026-04-25T15:51:54.978Z</time></trkpt><trkpt lat="43.16137539794886" lon="6.042289129442647"><ele>76.0</ele><time>2026-04-25T15:51:55.978Z</time></trkpt><trkpt lat="43.161266727283504" lon="6.042237921326625"><ele>76.0</ele><time>2026-04-25T15:51:56.978Z</time></trkpt><trkpt lat="43.16115914270738" lon="6.042182907681527"><ele>76.0</ele><time>2026-04-25T15:51:57.978Z</time></trkpt><trkpt lat="43.1610564451936" lon="6.042123521893627"><ele>76.0</ele><time>2026-04-25T15:51:58.978Z</time></trkpt><trkpt lat="43.16094947073619" lon="6.042068615057149"><ele>76.0</ele><time>2026-04-25T15:51:59.978Z</time></trkpt><trkpt lat="43.160837855745406" lon="6.042010817363105"><ele>76.0</ele><time>2026-04-25T15:52:00.978Z</time></trkpt><trkpt lat="43.16072090384607" lon="6.041948840478247"><ele>76.0</ele><time>2026-04-25T15:52:01.978Z</time></trkpt><trkpt lat="43.16061247807201" lon="6.041888449873953"><ele>76.0</ele><time>2026-04-25T15:52:02.978Z</time></trkpt><trkpt lat="43.16050420312181" lon="6.041838448148082"><ele>75.66666666666666</ele><time>2026-04-25T15:52:03.978Z</time></trkpt><trkpt lat="43.16040740548995" lon="6.041790741600921"><ele>75.33333333333333</ele><time>2026-04-25T15:52:04.978Z</time></trkpt><trkpt lat="43.16031611156677" lon="6.041744232637049"><ele>75.0</ele><time>2026-04-25T15:52:05.978Z</time></trkpt><trkpt lat="43.16024721897494" lon="6.041689304839996"><ele>74.66666666666667</ele><time>2026-04-25T15:52:06.978Z</time></trkpt><trkpt lat="43.16019175286685" lon="6.04164323165617"><ele>74.33333333333334</ele><time>2026-04-25T15:52:07.978Z</time></trkpt><trkpt lat="43.16013440980497" lon="6.041563191028494"><ele>74.0</ele><time>2026-04-25T15:52:09.978Z</time></trkpt><trkpt lat="43.16008100890691" lon="6.041433500838328"><ele>74.0</ele><time>2026-04-25T15:52:11.978Z</time></trkpt><trkpt lat="43.16003568275174" lon="6.041356970237101"><ele>74.0</ele><time>2026-04-25T15:52:12.979Z</time></trkpt><trkpt lat="43.15997946522606" lon="6.041302238659308"><ele>74.0</ele><time>2026-04-25T15:52:13.979Z</time></trkpt><trkpt lat="43.15989752890102" lon="6.041269855728485"><ele>74.0</ele><time>2026-04-25T15:52:14.979Z</time></trkpt><trkpt lat="43.15979905921247" lon="6.041276766771988"><ele>74.0</ele><time>2026-04-25T15:52:15.979Z</time></trkpt><trkpt lat="43.159691663900226" lon="6.0413103063571825"><ele>74.0</ele><time>2026-04-25T15:52:16.979Z</time></trkpt><trkpt lat="43.15959102178137" lon="6.0413183037501765"><ele>73.25</ele><time>2026-04-25T15:52:17.979Z</time></trkpt><trkpt lat="43.15947786794767" lon="6.041287002035734"><ele>72.5</ele><time>2026-04-25T15:52:18.979Z</time></trkpt><trkpt lat="43.15936161836359" lon="6.041235384226318"><ele>71.75</ele><time>2026-04-25T15:52:19.979Z</time></trkpt><trkpt lat="43.15925333982934" lon="6.04117641536996"><ele>71.0</ele><time>2026-04-25T15:52:20.979Z</time></trkpt><trkpt lat="43.15914521922092" lon="6.041116062494971"><ele>70.75</ele><time>2026-04-25T15:52:21.979Z</time></trkpt><trkpt lat="43.159032533135196" lon="6.0410601669725965"><ele>70.5</ele><time>2026-04-25T15:52:22.979Z</time></trkpt><trkpt lat="43.15892097066072" lon="6.041002276252138"><ele>70.25</ele><time>2026-04-25T15:52:23.979Z</time></trkpt><trkpt lat="43.15881290874502" lon="6.040948418530106"><ele>70.0</ele><time>2026-04-25T15:52:24.979Z</time></trkpt><trkpt lat="43.15870472946373" lon="6.040887772932368"><ele>70.0</ele><time>2026-04-25T15:52:25.979Z</time></trkpt><trkpt lat="43.1586039385726" lon="6.040836496550087"><ele>70.0</ele><time>2026-04-25T15:52:26.979Z</time></trkpt><trkpt lat="43.158498259863215" lon="6.040783665143906"><ele>70.0</ele><time>2026-04-25T15:52:27.979Z</time></trkpt><trkpt lat="43.15839352157977" lon="6.040726742049304"><ele>70.0</ele><time>2026-04-25T15:52:28.979Z</time></trkpt><trkpt lat="43.15828614367453" lon="6.040671938060926"><ele>70.0</ele><time>2026-04-25T15:52:29.979Z</time></trkpt><trkpt lat="43.15817925806761" lon="6.040614521970459"><ele>70.5</ele><time>2026-04-25T15:52:30.979Z</time></trkpt><trkpt lat="43.15807274801147" lon="6.040558478304041"><ele>71.0</ele><time>2026-04-25T15:52:31.979Z</time></trkpt><trkpt lat="43.15796878117537" lon="6.040502500988457"><ele>71.5</ele><time>2026-04-25T15:52:32.979Z</time></trkpt><trkpt lat="43.15786086320727" lon="6.040441615256465"><ele>72.0</ele><time>2026-04-25T15:52:33.979Z</time></trkpt><trkpt lat="43.157746835286936" lon="6.0403829710951165"><ele>72.0</ele><time>2026-04-25T15:52:34.979Z</time></trkpt><trkpt lat="43.15762906271441" lon="6.04032102799348"><ele>72.0</ele><time>2026-04-25T15:52:35.979Z</time></trkpt><trkpt lat="43.15750821781803" lon="6.040258693690478"><ele>72.0</ele><time>2026-04-25T15:52:36.979Z</time></trkpt><trkpt lat="43.1573836225653" lon="6.040193713166615"><ele>72.0</ele><time>2026-04-25T15:52:37.979Z</time></trkpt><trkpt lat="43.157259059623115" lon="6.040129647386975"><ele>72.0</ele><time>2026-04-25T15:52:38.979Z</time></trkpt><trkpt lat="43.15712074015613" lon="6.040057537285977"><ele>72.0</ele><time>2026-04-25T15:52:39.979Z</time></trkpt><trkpt lat="43.15697570763741" lon="6.039977549313025"><ele>72.0</ele><time>2026-04-25T15:52:40.979Z</time></trkpt><trkpt lat="43.15682227365424" lon="6.0399023292380685"><ele>72.66666666666667</ele><time>2026-04-25T15:52:41.979Z</time></trkpt><trkpt lat="43.15665042412437" lon="6.039824901687127"><ele>73.33333333333334</ele><time>2026-04-25T15:52:42.979Z</time></trkpt><trkpt lat="43.15647158768055" lon="6.03974197507498"><ele>74.0</ele><time>2026-04-25T15:52:43.979Z</time></trkpt><trkpt lat="43.15628916463982" lon="6.039651648021632"><ele>72.66666666666667</ele><time>2026-04-25T15:52:44.979Z</time></trkpt><trkpt lat="43.15610581275888" lon="6.039557261404841"><ele>71.33333333333333</ele><time>2026-04-25T15:52:45.979Z</time></trkpt><trkpt lat="43.15593347352529" lon="6.03946778883336"><ele>70.0</ele><time>2026-04-25T15:52:46.979Z</time></trkpt><trkpt lat="43.15576600578965" lon="6.039371480298918"><ele>69.66666666666666</ele><time>2026-04-25T15:52:47.979Z</time></trkpt><trkpt lat="43.155594688836246" lon="6.039267510257057"><ele>69.33333333333333</ele><time>2026-04-25T15:52:48.979Z</time></trkpt><trkpt lat="43.15541947976962" lon="6.03915135233169"><ele>69.0</ele><time>2026-04-25T15:52:49.979Z</time></trkpt><trkpt lat="43.15524483999027" lon="6.039025509734338"><ele>69.0</ele><time>2026-04-25T15:52:50.979Z</time></trkpt><trkpt lat="43.15507984665804" lon="6.038866318267504"><ele>69.0</ele><time>2026-04-25T15:52:51.978Z</time></trkpt><trkpt lat="43.1549043105945" lon="6.038732572022544"><ele>69.0</ele><time>2026-04-25T15:52:52.978Z</time></trkpt><trkpt lat="43.15475516131963" lon="6.038574961706412"><ele>69.33333333333333</ele><time>2026-04-25T15:52:53.978Z</time></trkpt><trkpt lat="43.15461027760906" lon="6.038413127658811"><ele>69.66666666666666</ele><time>2026-04-25T15:52:54.978Z</time></trkpt><trkpt lat="43.15446562756608" lon="6.038248806729046"><ele>70.0</ele><time>2026-04-25T15:52:55.978Z</time></trkpt><trkpt lat="43.15432888736526" lon="6.038073513437984"><ele>69.33333333333333</ele><time>2026-04-25T15:52:56.978Z</time></trkpt><trkpt lat="43.154188809206396" lon="6.037906196744743"><ele>68.66666666666667</ele><time>2026-04-25T15:52:57.978Z</time></trkpt><trkpt lat="43.154053927278504" lon="6.037748787362141"><ele>68.0</ele><time>2026-04-25T15:52:58.978Z</time></trkpt><trkpt lat="43.153918524029805" lon="6.037585506182239"><ele>66.66666666666667</ele><time>2026-04-25T15:52:59.978Z</time></trkpt><trkpt lat="43.153786591682106" lon="6.037421491656772"><ele>65.33333333333333</ele><time>2026-04-25T15:53:00.978Z</time></trkpt><trkpt lat="43.15365559422189" lon="6.037257719098939"><ele>64.0</ele><time>2026-04-25T15:53:01.978Z</time></trkpt><trkpt lat="43.15352351581133" lon="6.037092647660726"><ele>64.0</ele><time>2026-04-25T15:53:02.978Z</time></trkpt><trkpt lat="43.15338700643542" lon="6.03693023972163"><ele>64.0</ele><time>2026-04-25T15:53:03.978Z</time></trkpt><trkpt lat="43.15325436599258" lon="6.036770989977249"><ele>64.0</ele><time>2026-04-25T15:53:04.978Z</time></trkpt><trkpt lat="43.15311619536244" lon="6.036608197172971"><ele>63.666666666666664</ele><time>2026-04-25T15:53:05.978Z</time></trkpt><trkpt lat="43.15297972751404" lon="6.0364438388462265"><ele>63.33333333333333</ele><time>2026-04-25T15:53:06.978Z</time></trkpt><trkpt lat="43.15284860093925" lon="6.036281730203023"><ele>63.0</ele><time>2026-04-25T15:53:07.978Z</time></trkpt><trkpt lat="43.15270979437776" lon="6.036117096741965"><ele>63.0</ele><time>2026-04-25T15:53:08.978Z</time></trkpt><trkpt lat="43.1525742558721" lon="6.035947039327416"><ele>63.0</ele><time>2026-04-25T15:53:09.978Z</time></trkpt><trkpt lat="43.15243509150955" lon="6.035783708349877"><ele>63.0</ele><time>2026-04-25T15:53:10.978Z</time></trkpt><trkpt lat="43.15229521016743" lon="6.035621155935243"><ele>62.0</ele><time>2026-04-25T15:53:11.978Z</time></trkpt><trkpt lat="43.152156950394755" lon="6.035454334359295"><ele>61.0</ele><time>2026-04-25T15:53:12.978Z</time></trkpt><trkpt lat="43.15201549335899" lon="6.035288206726425"><ele>60.0</ele><time>2026-04-25T15:53:13.978Z</time></trkpt><trkpt lat="43.15188605385824" lon="6.035087416475244"><ele>59.33333333333333</ele><time>2026-04-25T15:53:14.978Z</time></trkpt><trkpt lat="43.151743615768375" lon="6.03491707627059"><ele>58.666666666666664</ele><time>2026-04-25T15:53:15.978Z</time></trkpt><trkpt lat="43.1515836132238" lon="6.0347391683628695"><ele>58.0</ele><time>2026-04-25T15:53:16.978Z</time></trkpt><trkpt lat="43.15142280009902" lon="6.034553633697564"><ele>57.5</ele><time>2026-04-25T15:53:17.978Z</time></trkpt><trkpt lat="43.151245407096646" lon="6.034351646637028"><ele>57.0</ele><time>2026-04-25T15:53:18.978Z</time></trkpt><trkpt lat="43.151073051185115" lon="6.034136720003395"><ele>57.66666666666667</ele><time>2026-04-25T15:53:19.978Z</time></trkpt><trkpt lat="43.15090747027557" lon="6.033932374827614"><ele>58.333333333333336</ele><time>2026-04-25T15:53:20.978Z</time></trkpt><trkpt lat="43.15075578786533" lon="6.0337396390507925"><ele>59.0</ele><time>2026-04-25T15:53:21.978Z</time></trkpt><trkpt lat="43.150608300366926" lon="6.033554905297901"><ele>57.66666666666667</ele><time>2026-04-25T15:53:22.978Z</time></trkpt><trkpt lat="43.15046018271783" lon="6.033376044844431"><ele>56.33333333333333</ele><time>2026-04-25T15:53:23.978Z</time></trkpt><trkpt lat="43.150311583006705" lon="6.033202282203797"><ele>55.0</ele><time>2026-04-25T15:53:24.978Z</time></trkpt><trkpt lat="43.15016961135919" lon="6.033034769371385"><ele>55.0</ele><time>2026-04-25T15:53:25.978Z</time></trkpt><trkpt lat="43.150023842829" lon="6.032861255760308"><ele>55.0</ele><time>2026-04-25T15:53:26.978Z</time></trkpt><trkpt lat="43.14987837613144" lon="6.032685958437848"><ele>55.0</ele><time>2026-04-25T15:53:27.978Z</time></trkpt><trkpt lat="43.14973380800189" lon="6.032512344590461"><ele>54.33333333333333</ele><time>2026-04-25T15:53:28.978Z</time></trkpt><trkpt lat="43.14958424072012" lon="6.032334109939242"><ele>53.66666666666667</ele><time>2026-04-25T15:53:29.978Z</time></trkpt><trkpt lat="43.14943602589107" lon="6.032156741673695"><ele>53.0</ele><time>2026-04-25T15:53:30.978Z</time></trkpt><trkpt lat="43.14928541346752" lon="6.0319776630621815"><ele>53.0</ele><time>2026-04-25T15:53:31.978Z</time></trkpt><trkpt lat="43.14913595938266" lon="6.0317963516310416"><ele>53.0</ele><time>2026-04-25T15:53:32.978Z</time></trkpt><trkpt lat="43.14898472398174" lon="6.03160710213439"><ele>53.0</ele><time>2026-04-25T15:53:33.978Z</time></trkpt><trkpt lat="43.148836169823454" lon="6.031420501182031"><ele>52.333333333333336</ele><time>2026-04-25T15:53:34.978Z</time></trkpt><trkpt lat="43.14868668332661" lon="6.0312359523610155"><ele>51.66666666666667</ele><time>2026-04-25T15:53:35.978Z</time></trkpt><trkpt lat="43.14853264020464" lon="6.031050391557071"><ele>51.0</ele><time>2026-04-25T15:53:36.978Z</time></trkpt><trkpt lat="43.14838109583595" lon="6.030867261432604"><ele>50.66666666666667</ele><time>2026-04-25T15:53:37.978Z</time></trkpt><trkpt lat="43.1482249308147" lon="6.03068030595231"><ele>50.333333333333336</ele><time>2026-04-25T15:53:38.978Z</time></trkpt><trkpt lat="43.148069525470895" lon="6.03048883953283"><ele>50.0</ele><time>2026-04-25T15:53:39.978Z</time></trkpt><trkpt lat="43.14791339846402" lon="6.030301302029697"><ele>50.0</ele><time>2026-04-25T15:53:40.978Z</time></trkpt><trkpt lat="43.14775775439105" lon="6.030119109418201"><ele>50.0</ele><time>2026-04-25T15:53:41.978Z</time></trkpt><trkpt lat="43.14760198813086" lon="6.029938379436193"><ele>50.0</ele><time>2026-04-25T15:53:42.978Z</time></trkpt><trkpt lat="43.14744751535799" lon="6.029755241011125"><ele>49.333333333333336</ele><time>2026-04-25T15:53:43.978Z</time></trkpt><trkpt lat="43.14729401531117" lon="6.029571689552068"><ele>48.66666666666667</ele><time>2026-04-25T15:53:44.978Z</time></trkpt><trkpt lat="43.14714139461631" lon="6.029384113850657"><ele>48.0</ele><time>2026-04-25T15:53:45.978Z</time></trkpt><trkpt lat="43.14698985472491" lon="6.0292060414009905"><ele>48.0</ele><time>2026-04-25T15:53:46.978Z</time></trkpt><trkpt lat="43.14683941324648" lon="6.029027982633196"><ele>48.0</ele><time>2026-04-25T15:53:47.978Z</time></trkpt><trkpt lat="43.146699664823515" lon="6.028850447524502"><ele>48.0</ele><time>2026-04-25T15:53:48.978Z</time></trkpt><trkpt lat="43.146570391346344" lon="6.02867397539695"><ele>47.666666666666664</ele><time>2026-04-25T15:53:49.978Z</time></trkpt><trkpt lat="43.14646765321745" lon="6.0284831510592864"><ele>47.33333333333333</ele><time>2026-04-25T15:53:50.978Z</time></trkpt><trkpt lat="43.14636792819699" lon="6.028292951971397"><ele>47.0</ele><time>2026-04-25T15:53:51.978Z</time></trkpt><trkpt lat="43.14627603246668" lon="6.028090551033011"><ele>47.0</ele><time>2026-04-25T15:53:52.978Z</time></trkpt><trkpt lat="43.1461868801693" lon="6.027884856832679"><ele>47.0</ele><time>2026-04-25T15:53:53.978Z</time></trkpt><trkpt lat="43.14608859851838" lon="6.027674225210342"><ele>47.0</ele><time>2026-04-25T15:53:54.978Z</time></trkpt><trkpt lat="43.1460072999996" lon="6.027452519050414"><ele>48.0</ele><time>2026-04-25T15:53:55.978Z</time></trkpt><trkpt lat="43.14593038391622" lon="6.027227947519273"><ele>49.0</ele><time>2026-04-25T15:53:56.978Z</time></trkpt><trkpt lat="43.14585313870436" lon="6.027006097894811"><ele>50.0</ele><time>2026-04-25T15:53:57.978Z</time></trkpt><trkpt lat="43.14577465388816" lon="6.026786581107741"><ele>49.66666666666667</ele><time>2026-04-25T15:53:58.978Z</time></trkpt><trkpt lat="43.14569193115886" lon="6.02656814956385"><ele>49.33333333333333</ele><time>2026-04-25T15:53:59.978Z</time></trkpt><trkpt lat="43.1456045776079" lon="6.02634202722441"><ele>49.0</ele><time>2026-04-25T15:54:00.978Z</time></trkpt><trkpt lat="43.14552093186648" lon="6.0261176554227935"><ele>49.0</ele><time>2026-04-25T15:54:01.978Z</time></trkpt><trkpt lat="43.14543736956231" lon="6.025886426126547"><ele>49.0</ele><time>2026-04-25T15:54:02.978Z</time></trkpt><trkpt lat="43.145348884319546" lon="6.025663403096988"><ele>49.0</ele><time>2026-04-25T15:54:03.978Z</time></trkpt><trkpt lat="43.145261695044006" lon="6.025432679356775"><ele>49.666666666666664</ele><time>2026-04-25T15:54:04.978Z</time></trkpt><trkpt lat="43.14517400653078" lon="6.025194439497231"><ele>50.33333333333333</ele><time>2026-04-25T15:54:05.978Z</time></trkpt><trkpt lat="43.14508663017008" lon="6.02494749405258"><ele>51.0</ele><time>2026-04-25T15:54:06.978Z</time></trkpt><trkpt lat="43.144998004807874" lon="6.024701534696553"><ele>51.0</ele><time>2026-04-25T15:54:07.978Z</time></trkpt><trkpt lat="43.14490529109054" lon="6.0244501787065055"><ele>51.0</ele><time>2026-04-25T15:54:08.978Z</time></trkpt><trkpt lat="43.14481965867834" lon="6.024214436930399"><ele>51.0</ele><time>2026-04-25T15:54:09.978Z</time></trkpt><trkpt lat="43.144735451502676" lon="6.023987607618595"><ele>51.66666666666667</ele><time>2026-04-25T15:54:10.978Z</time></trkpt><trkpt lat="43.14465106821422" lon="6.023760239734742"><ele>52.333333333333336</ele><time>2026-04-25T15:54:11.978Z</time></trkpt><trkpt lat="43.144566232214615" lon="6.023541621431965"><ele>53.0</ele><time>2026-04-25T15:54:12.978Z</time></trkpt><trkpt lat="43.14448406528806" lon="6.023319731216398"><ele>54.0</ele><time>2026-04-25T15:54:13.978Z</time></trkpt><trkpt lat="43.14439969605742" lon="6.023091202318952"><ele>55.0</ele><time>2026-04-25T15:54:14.978Z</time></trkpt><trkpt lat="43.14431942639893" lon="6.022856399157228"><ele>56.0</ele><time>2026-04-25T15:54:15.978Z</time></trkpt><trkpt lat="43.144240710788594" lon="6.022610558501252"><ele>56.0</ele><time>2026-04-25T15:54:16.978Z</time></trkpt><trkpt lat="43.14416281092196" lon="6.0223665731946685"><ele>56.0</ele><time>2026-04-25T15:54:17.978Z</time></trkpt><trkpt lat="43.14409806683408" lon="6.022112805015102"><ele>56.0</ele><time>2026-04-25T15:54:18.979Z</time></trkpt><trkpt lat="43.14404492774019" lon="6.021848745454824"><ele>55.333333333333336</ele><time>2026-04-25T15:54:19.979Z</time></trkpt><trkpt lat="43.144009115563904" lon="6.021579303802403"><ele>54.66666666666667</ele><time>2026-04-25T15:54:20.979Z</time></trkpt><trkpt lat="43.143989189813716" lon="6.021319468982191"><ele>54.0</ele><time>2026-04-25T15:54:21.979Z</time></trkpt><trkpt lat="43.143969692609595" lon="6.021067049839121"><ele>54.0</ele><time>2026-04-25T15:54:22.979Z</time></trkpt><trkpt lat="43.143958217279035" lon="6.020820992045185"><ele>54.0</ele><time>2026-04-25T15:54:23.979Z</time></trkpt><trkpt lat="43.143949549306605" lon="6.020574248082195"><ele>54.0</ele><time>2026-04-25T15:54:24.979Z</time></trkpt><trkpt lat="43.143936792070754" lon="6.020331768912434"><ele>53.33333333333333</ele><time>2026-04-25T15:54:25.979Z</time></trkpt><trkpt lat="43.14392436190261" lon="6.020081509670938"><ele>52.666666666666664</ele><time>2026-04-25T15:54:26.979Z</time></trkpt><trkpt lat="43.1439148955448" lon="6.019834981106255"><ele>52.0</ele><time>2026-04-25T15:54:27.979Z</time></trkpt><trkpt lat="43.14390451925246" lon="6.019580209953609"><ele>52.0</ele><time>2026-04-25T15:54:28.979Z</time></trkpt><trkpt lat="43.143897235655956" lon="6.019318576398205"><ele>52.0</ele><time>2026-04-25T15:54:29.979Z</time></trkpt><trkpt lat="43.1438873256391" lon="6.019053899399476"><ele>52.0</ele><time>2026-04-25T15:54:30.979Z</time></trkpt><trkpt lat="43.14388239040921" lon="6.018780591418485"><ele>52.0</ele><time>2026-04-25T15:54:31.979Z</time></trkpt><trkpt lat="43.143879314030116" lon="6.01852671575062"><ele>52.0</ele><time>2026-04-25T15:54:32.979Z</time></trkpt><trkpt lat="43.14387556002214" lon="6.018271885686721"><ele>52.0</ele><time>2026-04-25T15:54:33.979Z</time></trkpt><trkpt lat="43.14386924305466" lon="6.018006852726019"><ele>52.0</ele><time>2026-04-25T15:54:34.979Z</time></trkpt><trkpt lat="43.143859667001635" lon="6.01774009169722"><ele>52.0</ele><time>2026-04-25T15:54:35.979Z</time></trkpt><trkpt lat="43.14385072016013" lon="6.0174745827307"><ele>52.0</ele><time>2026-04-25T15:54:36.979Z</time></trkpt><trkpt lat="43.14384344588983" lon="6.017226012531297"><ele>52.0</ele><time>2026-04-25T15:54:37.979Z</time></trkpt><trkpt lat="43.1438294962503" lon="6.016963577827229"><ele>52.0</ele><time>2026-04-25T15:54:38.979Z</time></trkpt><trkpt lat="43.14381861233" lon="6.016705072194079"><ele>52.0</ele><time>2026-04-25T15:54:39.979Z</time></trkpt><trkpt lat="43.143807059931795" lon="6.0164324711195185"><ele>52.0</ele><time>2026-04-25T15:54:40.979Z</time></trkpt><trkpt lat="43.143789589905836" lon="6.016163528125482"><ele>52.0</ele><time>2026-04-25T15:54:41.979Z</time></trkpt><trkpt lat="43.14377188746261" lon="6.015901278032949"><ele>52.0</ele><time>2026-04-25T15:54:42.979Z</time></trkpt><trkpt lat="43.143758938572155" lon="6.015656563382934"><ele>52.33333333333333</ele><time>2026-04-25T15:54:43.979Z</time></trkpt><trkpt lat="43.14374604115276" lon="6.015419390839695"><ele>52.66666666666667</ele><time>2026-04-25T15:54:44.979Z</time></trkpt><trkpt lat="43.14372892427645" lon="6.015175273616161"><ele>53.0</ele><time>2026-04-25T15:54:45.979Z</time></trkpt><trkpt lat="43.14370943270551" lon="6.0149232196078835"><ele>53.333333333333336</ele><time>2026-04-25T15:54:46.979Z</time></trkpt><trkpt lat="43.14369165035226" lon="6.0146685261666"><ele>53.66666666666667</ele><time>2026-04-25T15:54:47.979Z</time></trkpt><trkpt lat="43.14367617178072" lon="6.0144016810047685"><ele>54.0</ele><time>2026-04-25T15:54:48.979Z</time></trkpt><trkpt lat="43.143662292904956" lon="6.014115626183296"><ele>54.66666666666667</ele><time>2026-04-25T15:54:49.979Z</time></trkpt><trkpt lat="43.143646427343946" lon="6.0138176855278"><ele>55.333333333333336</ele><time>2026-04-25T15:54:50.979Z</time></trkpt><trkpt lat="43.14363621119923" lon="6.013513161682887"><ele>56.0</ele><time>2026-04-25T15:54:51.979Z</time></trkpt><trkpt lat="43.143621862879364" lon="6.013202370259968"><ele>57.0</ele><time>2026-04-25T15:54:52.979Z</time></trkpt><trkpt lat="43.14361047629437" lon="6.012887682126461"><ele>58.0</ele><time>2026-04-25T15:54:53.979Z</time></trkpt><trkpt lat="43.14359596585178" lon="6.012561150747312"><ele>60.5</ele><time>2026-04-25T15:54:54.979Z</time></trkpt><trkpt lat="43.14358678394949" lon="6.012240537401671"><ele>63.0</ele><time>2026-04-25T15:54:55.979Z</time></trkpt><trkpt lat="43.14357759017866" lon="6.011922364943016"><ele>64.0</ele><time>2026-04-25T15:54:56.979Z</time></trkpt><trkpt lat="43.143555275839226" lon="6.011605855961742"><ele>65.0</ele><time>2026-04-25T15:54:57.979Z</time></trkpt><trkpt lat="43.14351635967824" lon="6.011300605150395"><ele>65.0</ele><time>2026-04-25T15:54:58.979Z</time></trkpt><trkpt lat="43.143468467520556" lon="6.01100245154974"><ele>65.0</ele><time>2026-04-25T15:54:59.979Z</time></trkpt><trkpt lat="43.1434170706049" lon="6.010709906480661"><ele>65.0</ele><time>2026-04-25T15:55:00.979Z</time></trkpt><trkpt lat="43.143360325141046" lon="6.010420687125107"><ele>65.66666666666667</ele><time>2026-04-25T15:55:01.979Z</time></trkpt><trkpt lat="43.1432970571913" lon="6.010131477280175"><ele>66.33333333333333</ele><time>2026-04-25T15:55:02.979Z</time></trkpt><trkpt lat="43.14323245953646" lon="6.009845832854297"><ele>67.0</ele><time>2026-04-25T15:55:03.979Z</time></trkpt><trkpt lat="43.143167576540975" lon="6.009561059563854"><ele>67.0</ele><time>2026-04-25T15:55:04.979Z</time></trkpt><trkpt lat="43.14310057193766" lon="6.009285562007563"><ele>67.0</ele><time>2026-04-25T15:55:05.979Z</time></trkpt><trkpt lat="43.143033874113485" lon="6.009014664203848"><ele>67.0</ele><time>2026-04-25T15:55:06.979Z</time></trkpt><trkpt lat="43.14296590915087" lon="6.008742629238364"><ele>67.33333333333333</ele><time>2026-04-25T15:55:07.979Z</time></trkpt><trkpt lat="43.14289648135717" lon="6.0084822071403545"><ele>67.66666666666667</ele><time>2026-04-25T15:55:08.979Z</time></trkpt><trkpt lat="43.14283471532621" lon="6.0082381232982875"><ele>68.0</ele><time>2026-04-25T15:55:09.979Z</time></trkpt><trkpt lat="43.142778050389744" lon="6.008007649127973"><ele>68.33333333333334</ele><time>2026-04-25T15:55:10.979Z</time></trkpt><trkpt lat="43.14272386596471" lon="6.007788936829652"><ele>68.66666666666667</ele><time>2026-04-25T15:55:11.979Z</time></trkpt><trkpt lat="43.1426713457098" lon="6.007581557494499"><ele>69.0</ele><time>2026-04-25T15:55:12.979Z</time></trkpt><trkpt lat="43.14262084401469" lon="6.007385460282035"><ele>69.33333333333333</ele><time>2026-04-25T15:55:13.979Z</time></trkpt><trkpt lat="43.142571486057506" lon="6.007199807232471"><ele>69.66666666666666</ele><time>2026-04-25T15:55:14.979Z</time></trkpt><trkpt lat="43.14251935734768" lon="6.007007456362358"><ele>70.0</ele><time>2026-04-25T15:55:15.979Z</time></trkpt><trkpt lat="43.14246320399377" lon="6.006798635369583"><ele>70.33333333333333</ele><time>2026-04-25T15:55:16.979Z</time></trkpt><trkpt lat="43.14240370466258" lon="6.006581129819611"><ele>70.66666666666667</ele><time>2026-04-25T15:55:17.979Z</time></trkpt><trkpt lat="43.14234736825771" lon="6.006369710596394"><ele>71.0</ele><time>2026-04-25T15:55:18.979Z</time></trkpt><trkpt lat="43.14229498745338" lon="6.006164571996761"><ele>69.75</ele><time>2026-04-25T15:55:19.979Z</time></trkpt><trkpt lat="43.14224298189368" lon="6.005969046238485"><ele>68.5</ele><time>2026-04-25T15:55:20.979Z</time></trkpt><trkpt lat="43.14219152953212" lon="6.005779880294334"><ele>67.25</ele><time>2026-04-25T15:55:21.979Z</time></trkpt><trkpt lat="43.1421375425902" lon="6.005603111975549"><ele>66.0</ele><time>2026-04-25T15:55:22.979Z</time></trkpt><trkpt lat="43.142085145723215" lon="6.005422542754921"><ele>66.0</ele><time>2026-04-25T15:55:23.979Z</time></trkpt><trkpt lat="43.1420437509994" lon="6.00524780921683"><ele>66.0</ele><time>2026-04-25T15:55:24.979Z</time></trkpt><trkpt lat="43.14200427253647" lon="6.005097390502642"><ele>66.0</ele><time>2026-04-25T15:55:25.979Z</time></trkpt><trkpt lat="43.141961061191004" lon="6.004908957936087"><ele>66.0</ele><time>2026-04-25T15:55:26.979Z</time></trkpt><trkpt lat="43.141918420361314" lon="6.004722260810169"><ele>66.0</ele><time>2026-04-25T15:55:27.979Z</time></trkpt><trkpt lat="43.14187374075062" lon="6.004539637855423"><ele>66.0</ele><time>2026-04-25T15:55:28.979Z</time></trkpt><trkpt lat="43.141823984675604" lon="6.004367487906514"><ele>66.0</ele><time>2026-04-25T15:55:29.979Z</time></trkpt><trkpt lat="43.141783107554105" lon="6.004183287811777"><ele>66.0</ele><time>2026-04-25T15:55:30.979Z</time></trkpt><trkpt lat="43.14172964132897" lon="6.00400662709624"><ele>66.0</ele><time>2026-04-25T15:55:31.979Z</time></trkpt><trkpt lat="43.14169240020209" lon="6.00382521950689"><ele>66.0</ele><time>2026-04-25T15:55:32.979Z</time></trkpt><trkpt lat="43.14164699242516" lon="6.003651669992823"><ele>66.0</ele><time>2026-04-25T15:55:33.979Z</time></trkpt><trkpt lat="43.14160576270239" lon="6.0035013950202964"><ele>66.0</ele><time>2026-04-25T15:55:34.979Z</time></trkpt><trkpt lat="43.14157050160017" lon="6.003316873024851"><ele>64.75</ele><time>2026-04-25T15:55:35.979Z</time></trkpt><trkpt lat="43.14151760790842" lon="6.003149257721672"><ele>63.5</ele><time>2026-04-25T15:55:36.979Z</time></trkpt><trkpt lat="43.14149424454987" lon="6.002982917736865"><ele>62.25</ele><time>2026-04-25T15:55:37.979Z</time></trkpt><trkpt lat="43.14146458706853" lon="6.002822188544712"><ele>61.0</ele><time>2026-04-25T15:55:38.979Z</time></trkpt><trkpt lat="43.141464233586845" lon="6.002658085893425"><ele>61.0</ele><time>2026-04-25T15:55:39.979Z</time></trkpt><trkpt lat="43.141499753568255" lon="6.0024996533931105"><ele>61.0</ele><time>2026-04-25T15:55:40.979Z</time></trkpt><trkpt lat="43.14156318792017" lon="6.002364463267933"><ele>61.0</ele><time>2026-04-25T15:55:41.979Z</time></trkpt><trkpt lat="43.14162889706189" lon="6.002258502716894"><ele>61.0</ele><time>2026-04-25T15:55:42.979Z</time></trkpt><trkpt lat="43.141693848200774" lon="6.002135581107365"><ele>61.8</ele><time>2026-04-25T15:55:43.979Z</time></trkpt><trkpt lat="43.141756515404026" lon="6.0020031969836305"><ele>62.599999999999994</ele><time>2026-04-25T15:55:44.979Z</time></trkpt><trkpt lat="43.14181895241649" lon="6.001880100238718"><ele>63.4</ele><time>2026-04-25T15:55:45.979Z</time></trkpt><trkpt lat="43.14187256253057" lon="6.001759016669643"><ele>64.2</ele><time>2026-04-25T15:55:46.979Z</time></trkpt><trkpt lat="43.14193244565305" lon="6.001625360180135"><ele>65.0</ele><time>2026-04-25T15:55:47.979Z</time></trkpt><trkpt lat="43.14199521304217" lon="6.001486276817294"><ele>65.0</ele><time>2026-04-25T15:55:48.979Z</time></trkpt><trkpt lat="43.1420568150733" lon="6.001355332612567"><ele>65.0</ele><time>2026-04-25T15:55:49.979Z</time></trkpt><trkpt lat="43.14211825510466" lon="6.001230813664803"><ele>65.0</ele><time>2026-04-25T15:55:50.979Z</time></trkpt><trkpt lat="43.14218662370104" lon="6.001088301251535"><ele>65.0</ele><time>2026-04-25T15:55:51.979Z</time></trkpt><trkpt lat="43.14225863845775" lon="6.000932331025561"><ele>64.6</ele><time>2026-04-25T15:55:52.979Z</time></trkpt><trkpt lat="43.142325043938456" lon="6.000788580659494"><ele>64.2</ele><time>2026-04-25T15:55:53.979Z</time></trkpt><trkpt lat="43.142384972152264" lon="6.000670440829728"><ele>63.8</ele><time>2026-04-25T15:55:54.979Z</time></trkpt><trkpt lat="43.14241535826326" lon="6.000561359700769"><ele>63.4</ele><time>2026-04-25T15:55:55.979Z</time></trkpt><trkpt lat="43.14241856470597" lon="6.0004670331549255"><ele>63.0</ele><time>2026-04-25T15:55:56.979Z</time></trkpt><trkpt lat="43.14238756361231" lon="6.000331273568842"><ele>63.0</ele><time>2026-04-25T15:55:58.979Z</time></trkpt><trkpt lat="43.142358363439584" lon="6.000231026512564"><ele>63.0</ele><time>2026-04-25T15:56:03.979Z</time></trkpt><trkpt lat="43.142331669346056" lon="6.000091196465641"><ele>63.0</ele><time>2026-04-25T15:56:05.979Z</time></trkpt><trkpt lat="43.14228164544166" lon="5.999942666996041"><ele>63.0</ele><time>2026-04-25T15:56:07.979Z</time></trkpt><trkpt lat="43.142221375867294" lon="5.9999098717738875"><ele>63.0</ele><time>2026-04-25T15:56:08.979Z</time></trkpt><trkpt lat="43.142154681638964" lon="5.99993015937057"><ele>63.0</ele><time>2026-04-25T15:56:09.979Z</time></trkpt><trkpt lat="43.14210067222734" lon="6.000004355341423"><ele>63.0</ele><time>2026-04-25T15:56:10.979Z</time></trkpt><trkpt lat="43.142061269193256" lon="6.000105064626265"><ele>63.0</ele><time>2026-04-25T15:56:11.979Z</time></trkpt><trkpt lat="43.14202692102573" lon="6.0002106692686565"><ele>63.0</ele><time>2026-04-25T15:56:12.979Z</time></trkpt><trkpt lat="43.1419823740529" lon="6.000288220537122"><ele>63.0</ele><time>2026-04-25T15:56:13.979Z</time></trkpt><trkpt lat="43.14191777920904" lon="6.000357333407929"><ele>63.0</ele><time>2026-04-25T15:56:14.979Z</time></trkpt><trkpt lat="43.1418569695482" lon="6.0004280093521"><ele>63.0</ele><time>2026-04-25T15:56:15.979Z</time></trkpt><trkpt lat="43.141793293110965" lon="6.000486887546462"><ele>63.0</ele><time>2026-04-25T15:56:16.979Z</time></trkpt><trkpt lat="43.14172456867343" lon="6.000536663772256"><ele>63.0</ele><time>2026-04-25T15:56:17.979Z</time></trkpt><trkpt lat="43.141654931505066" lon="6.000569023901227"><ele>63.0</ele><time>2026-04-25T15:56:18.979Z</time></trkpt><trkpt lat="43.14157331399891" lon="6.000589655833023"><ele>63.0</ele><time>2026-04-25T15:56:19.979Z</time></trkpt><trkpt lat="43.14148652289823" lon="6.000592253712847"><ele>63.0</ele><time>2026-04-25T15:56:20.979Z</time></trkpt><trkpt lat="43.14139316354215" lon="6.00058562518039"><ele>63.0</ele><time>2026-04-25T15:56:21.979Z</time></trkpt><trkpt lat="43.14129422944279" lon="6.000569068238968"><ele>62.599999999999994</ele><time>2026-04-25T15:56:22.979Z</time></trkpt><trkpt lat="43.141197467322144" lon="6.000551513585594"><ele>62.199999999999996</ele><time>2026-04-25T15:56:23.979Z</time></trkpt><trkpt lat="43.141103347434566" lon="6.000530780765451"><ele>61.8</ele><time>2026-04-25T15:56:24.979Z</time></trkpt><trkpt lat="43.14101225086777" lon="6.000496798621593"><ele>61.4</ele><time>2026-04-25T15:56:25.98Z</time></trkpt><trkpt lat="43.14092561468974" lon="6.0004355246706504"><ele>61.0</ele><time>2026-04-25T15:56:26.98Z</time></trkpt><trkpt lat="43.140856456799874" lon="6.000337287471203"><ele>61.0</ele><time>2026-04-25T15:56:27.979Z</time></trkpt><trkpt lat="43.140810325687674" lon="6.0002120556013745"><ele>60.99999999999999</ele><time>2026-04-25T15:56:28.979Z</time></trkpt><trkpt lat="43.140777499041654" lon="6.000077854532593"><ele>60.99999999999999</ele><time>2026-04-25T15:56:29.979Z</time></trkpt><trkpt lat="43.14073823614428" lon="5.999937173313344"><ele>61.0</ele><time>2026-04-25T15:56:30.979Z</time></trkpt><trkpt lat="43.14069367410839" lon="5.999788298112734"><ele>61.0</ele><time>2026-04-25T15:56:31.979Z</time></trkpt><trkpt lat="43.14064996903038" lon="5.999652561271252"><ele>60.8</ele><time>2026-04-25T15:56:32.979Z</time></trkpt><trkpt lat="43.140606460991954" lon="5.999524931714813"><ele>60.599999999999994</ele><time>2026-04-25T15:56:33.979Z</time></trkpt><trkpt lat="43.14057003019324" lon="5.999400808216309"><ele>60.4</ele><time>2026-04-25T15:56:34.979Z</time></trkpt><trkpt lat="43.140531855698406" lon="5.999280852824619"><ele>60.2</ele><time>2026-04-25T15:56:35.979Z</time></trkpt><trkpt lat="43.140482831511626" lon="5.999151861386773"><ele>60.0</ele><time>2026-04-25T15:56:36.979Z</time></trkpt><trkpt lat="43.14043605251738" lon="5.999016231063305"><ele>60.0</ele><time>2026-04-25T15:56:37.979Z</time></trkpt><trkpt lat="43.14037772762141" lon="5.998859354074755"><ele>60.0</ele><time>2026-04-25T15:56:38.979Z</time></trkpt><trkpt lat="43.140320160193234" lon="5.998703598875882"><ele>60.0</ele><time>2026-04-25T15:56:39.979Z</time></trkpt><trkpt lat="43.14027052780357" lon="5.998571618614571"><ele>60.0</ele><time>2026-04-25T15:56:40.979Z</time></trkpt><trkpt lat="43.1402380776624" lon="5.99842585637689"><ele>60.25</ele><time>2026-04-25T15:56:41.979Z</time></trkpt><trkpt lat="43.140175720033334" lon="5.998280517109685"><ele>60.5</ele><time>2026-04-25T15:56:42.979Z</time></trkpt><trkpt lat="43.14011721910456" lon="5.998119059492087"><ele>60.75</ele><time>2026-04-25T15:56:43.979Z</time></trkpt><trkpt lat="43.14006856137789" lon="5.997967226369042"><ele>61.0</ele><time>2026-04-25T15:56:44.979Z</time></trkpt><trkpt lat="43.14002392879183" lon="5.997825030819792"><ele>61.0</ele><time>2026-04-25T15:56:45.979Z</time></trkpt><trkpt lat="43.139981132389806" lon="5.997682211934022"><ele>60.99999999999999</ele><time>2026-04-25T15:56:46.979Z</time></trkpt><trkpt lat="43.13993577400691" lon="5.997547787537881"><ele>60.99999999999999</ele><time>2026-04-25T15:56:47.979Z</time></trkpt><trkpt lat="43.13987828517409" lon="5.997406967557215"><ele>61.0</ele><time>2026-04-25T15:56:48.979Z</time></trkpt><trkpt lat="43.13982355719338" lon="5.997278821599851"><ele>61.0</ele><time>2026-04-25T15:56:49.979Z</time></trkpt><trkpt lat="43.1397742164139" lon="5.997148491538676"><ele>60.8</ele><time>2026-04-25T15:56:50.979Z</time></trkpt><trkpt lat="43.13973032357068" lon="5.997018507346494"><ele>60.599999999999994</ele><time>2026-04-25T15:56:51.979Z</time></trkpt><trkpt lat="43.13967929803409" lon="5.996867493468673"><ele>60.4</ele><time>2026-04-25T15:56:52.979Z</time></trkpt><trkpt lat="43.139632006582104" lon="5.996734507567413"><ele>60.2</ele><time>2026-04-25T15:56:53.979Z</time></trkpt><trkpt lat="43.13958468832406" lon="5.996618284726143"><ele>60.0</ele><time>2026-04-25T15:56:54.979Z</time></trkpt><trkpt lat="43.139544880080855" lon="5.996513641307398"><ele>60.0</ele><time>2026-04-25T15:56:55.979Z</time></trkpt><trkpt lat="43.13951288873087" lon="5.996428816186542"><ele>60.0</ele><time>2026-04-25T15:56:56.979Z</time></trkpt><trkpt lat="43.13947778667544" lon="5.9963249462751875"><ele>60.0</ele><time>2026-04-25T15:56:57.979Z</time></trkpt><trkpt lat="43.13945755074664" lon="5.996210862672009"><ele>60.0</ele><time>2026-04-25T15:56:58.979Z</time></trkpt><trkpt lat="43.13945607938712" lon="5.996114768129769"><ele>60.0</ele><time>2026-04-25T15:56:59.979Z</time></trkpt><trkpt lat="43.13943811461096" lon="5.995956286530229"><ele>60.0</ele><time>2026-04-25T15:57:01.979Z</time></trkpt><trkpt lat="43.13935890268383" lon="5.996033855110202"><ele>60.0</ele><time>2026-04-25T15:57:05.979Z</time></trkpt><trkpt lat="43.13943997361869" lon="5.9960163725431075"><ele>60.0</ele><time>2026-04-25T15:57:06.979Z</time></trkpt><trkpt lat="43.139455120897495" lon="5.996328854613481"><ele>60.0</ele><time>2026-04-25T15:57:07.979Z</time></trkpt><trkpt lat="43.13950094029029" lon="5.996465352456726"><ele>60.0</ele><time>2026-04-25T15:57:08.979Z</time></trkpt><trkpt lat="43.139559569661365" lon="5.996623084092901"><ele>60.0</ele><time>2026-04-25T15:57:09.979Z</time></trkpt><trkpt lat="43.13962686172962" lon="5.996808263471389"><ele>60.0</ele><time>2026-04-25T15:57:10.979Z</time></trkpt><trkpt lat="43.1396865585218" lon="5.996986555821767"><ele>60.0</ele><time>2026-04-25T15:57:11.979Z</time></trkpt><trkpt lat="43.139728417371195" lon="5.9971197760052695"><ele>60.0</ele><time>2026-04-25T15:57:12.979Z</time></trkpt><trkpt lat="43.139771502763416" lon="5.997251094705"><ele>60.0</ele><time>2026-04-25T15:57:13.979Z</time></trkpt><trkpt lat="43.13983297629776" lon="5.997412811991129"><ele>60.0</ele><time>2026-04-25T15:57:14.979Z</time></trkpt><trkpt lat="43.13990327752731" lon="5.997605766749735"><ele>60.0</ele><time>2026-04-25T15:57:15.979Z</time></trkpt><trkpt lat="43.139980502266454" lon="5.997826382499144"><ele>60.0</ele><time>2026-04-25T15:57:16.979Z</time></trkpt><trkpt lat="43.14004945871427" lon="5.998026578815186"><ele>60.0</ele><time>2026-04-25T15:57:17.979Z</time></trkpt><trkpt lat="43.14012169911867" lon="5.998245751808068"><ele>60.0</ele><time>2026-04-25T15:57:18.979Z</time></trkpt><trkpt lat="43.14021429798426" lon="5.998477009979575"><ele>60.0</ele><time>2026-04-25T15:57:19.979Z</time></trkpt><trkpt lat="43.14031607172236" lon="5.99873334610197"><ele>60.0</ele><time>2026-04-25T15:57:20.979Z</time></trkpt><trkpt lat="43.140411762747554" lon="5.999005302661413"><ele>60.0</ele><time>2026-04-25T15:57:21.979Z</time></trkpt><trkpt lat="43.14049526820212" lon="5.9992555010284905"><ele>59.66666666666667</ele><time>2026-04-25T15:57:22.979Z</time></trkpt><trkpt lat="43.14056733692818" lon="5.99948764575312"><ele>59.333333333333336</ele><time>2026-04-25T15:57:23.979Z</time></trkpt><trkpt lat="43.140634531417454" lon="5.999704640907605"><ele>59.0</ele><time>2026-04-25T15:57:24.979Z</time></trkpt><trkpt lat="43.14070029649037" lon="5.999918427056544"><ele>59.5</ele><time>2026-04-25T15:57:25.979Z</time></trkpt><trkpt lat="43.14075769700812" lon="6.000125937320611"><ele>60.0</ele><time>2026-04-25T15:57:26.979Z</time></trkpt><trkpt lat="43.140805649391645" lon="6.000316683571786"><ele>60.5</ele><time>2026-04-25T15:57:27.979Z</time></trkpt><trkpt lat="43.14086299462294" lon="6.000486558553522"><ele>61.0</ele><time>2026-04-25T15:57:28.979Z</time></trkpt><trkpt lat="43.14095236047653" lon="6.0006016219219775"><ele>61.0</ele><time>2026-04-25T15:57:29.979Z</time></trkpt><trkpt lat="43.141086040428576" lon="6.000635868074777"><ele>60.99999999999999</ele><time>2026-04-25T15:57:30.979Z</time></trkpt><trkpt lat="43.14120513505657" lon="6.000622549969666"><ele>60.99999999999999</ele><time>2026-04-25T15:57:31.979Z</time></trkpt><trkpt lat="43.141309410839064" lon="6.000624506090238"><ele>61.0</ele><time>2026-04-25T15:57:32.979Z</time></trkpt><trkpt lat="43.14139081912303" lon="6.000639715365693"><ele>61.0</ele><time>2026-04-25T15:57:33.979Z</time></trkpt><trkpt lat="43.141451075625795" lon="6.000683312876648"><ele>61.0</ele><time>2026-04-25T15:57:34.979Z</time></trkpt><trkpt lat="43.14149993320263" lon="6.000828601608277"><ele>60.99999999999999</ele><time>2026-04-25T15:57:36.978Z</time></trkpt><trkpt lat="43.14148635837904" lon="6.0009295090512085"><ele>60.99999999999999</ele><time>2026-04-25T15:57:37.978Z</time></trkpt><trkpt lat="43.14144450025551" lon="6.001045535328668"><ele>61.0</ele><time>2026-04-25T15:57:38.978Z</time></trkpt><trkpt lat="43.14136381203151" lon="6.001133934637829"><ele>61.0</ele><time>2026-04-25T15:57:39.978Z</time></trkpt><trkpt lat="43.14124587606461" lon="6.001205982528004"><ele>61.0</ele><time>2026-04-25T15:57:40.978Z</time></trkpt><trkpt lat="43.14112810807007" lon="6.001258848878058"><ele>61.0</ele><time>2026-04-25T15:57:41.978Z</time></trkpt><trkpt lat="43.141014283173874" lon="6.001329088171659"><ele>61.0</ele><time>2026-04-25T15:57:42.978Z</time></trkpt><trkpt lat="43.140910599839614" lon="6.0013909636375695"><ele>61.0</ele><time>2026-04-25T15:57:43.978Z</time></trkpt><trkpt lat="43.14081438119092" lon="6.001444954593893"><ele>61.0</ele><time>2026-04-25T15:57:44.978Z</time></trkpt><trkpt lat="43.14072749970006" lon="6.00149912337657"><ele>60.99999999999999</ele><time>2026-04-25T15:57:45.978Z</time></trkpt><trkpt lat="43.14065670129239" lon="6.0015401060280436"><ele>60.99999999999999</ele><time>2026-04-25T15:57:46.978Z</time></trkpt><trkpt lat="43.140540635092016" lon="6.001637167660166"><ele>61.0</ele><time>2026-04-25T15:57:48.978Z</time></trkpt><trkpt lat="43.14047490629595" lon="6.00167353136441"><ele>61.0</ele><time>2026-04-25T15:57:49.978Z</time></trkpt><trkpt lat="43.140405960776306" lon="6.001706765918253"><ele>60.8</ele><time>2026-04-25T15:57:50.978Z</time></trkpt><trkpt lat="43.14033234705822" lon="6.001702890166823"><ele>60.599999999999994</ele><time>2026-04-25T15:57:51.978Z</time></trkpt><trkpt lat="43.140254494756114" lon="6.001659641878513"><ele>60.4</ele><time>2026-04-25T15:57:52.978Z</time></trkpt><trkpt lat="43.140155476087756" lon="6.001633361021339"><ele>60.2</ele><time>2026-04-25T15:57:53.978Z</time></trkpt><trkpt lat="43.14006276920635" lon="6.0016728854816765"><ele>60.0</ele><time>2026-04-25T15:57:54.978Z</time></trkpt><trkpt lat="43.13998525514789" lon="6.001770759788781"><ele>60.0</ele><time>2026-04-25T15:57:55.978Z</time></trkpt><trkpt lat="43.13991373852637" lon="6.001888610272899"><ele>60.0</ele><time>2026-04-25T15:57:56.978Z</time></trkpt><trkpt lat="43.13984325380047" lon="6.001967555189955"><ele>60.0</ele><time>2026-04-25T15:57:57.978Z</time></trkpt><trkpt lat="43.139753023815715" lon="6.002063605051216"><ele>60.0</ele><time>2026-04-25T15:57:58.978Z</time></trkpt><trkpt lat="43.13962927808292" lon="6.002083047943092"><ele>60.0</ele><time>2026-04-25T15:57:59.978Z</time></trkpt><trkpt lat="43.13952980237717" lon="6.002120649073"><ele>59.666666666666664</ele><time>2026-04-25T15:58:00.978Z</time></trkpt><trkpt lat="43.139435780947736" lon="6.002151448870575"><ele>59.33333333333333</ele><time>2026-04-25T15:58:01.978Z</time></trkpt><trkpt lat="43.13934512986243" lon="6.002181862149023"><ele>59.0</ele><time>2026-04-25T15:58:02.978Z</time></trkpt><trkpt lat="43.139257636995666" lon="6.0022094793814125"><ele>58.666666666666664</ele><time>2026-04-25T15:58:03.978Z</time></trkpt><trkpt lat="43.13917335297752" lon="6.002238437838352"><ele>58.33333333333333</ele><time>2026-04-25T15:58:04.978Z</time></trkpt><trkpt lat="43.13909289449083" lon="6.002263920776761"><ele>58.0</ele><time>2026-04-25T15:58:05.978Z</time></trkpt><trkpt lat="43.13902696618509" lon="6.002283823727751"><ele>57.599999999999994</ele><time>2026-04-25T15:58:06.978Z</time></trkpt><trkpt lat="43.13892478805264" lon="6.002313617733116"><ele>57.199999999999996</ele><time>2026-04-25T15:58:08.978Z</time></trkpt><trkpt lat="43.138810139733" lon="6.002324682620325"><ele>56.8</ele><time>2026-04-25T15:58:10.978Z</time></trkpt><trkpt lat="43.13872369546195" lon="6.002308506159129"><ele>56.4</ele><time>2026-04-25T15:58:11.978Z</time></trkpt><trkpt lat="43.138638156969044" lon="6.002302980015001"><ele>56.0</ele><time>2026-04-25T15:58:12.978Z</time></trkpt><trkpt lat="43.13856095596334" lon="6.002330860122707"><ele>56.0</ele><time>2026-04-25T15:58:13.978Z</time></trkpt><trkpt lat="43.13849824635712" lon="6.002380917185021"><ele>55.99999999999999</ele><time>2026-04-25T15:58:14.978Z</time></trkpt><trkpt lat="43.13845111379149" lon="6.002450219394173"><ele>55.99999999999999</ele><time>2026-04-25T15:58:15.978Z</time></trkpt><trkpt lat="43.13842551335722" lon="6.0026269562555505"><ele>56.0</ele><time>2026-04-25T15:58:17.978Z</time></trkpt><trkpt lat="43.13838807510477" lon="6.002720417641486"><ele>56.0</ele><time>2026-04-25T15:58:18.978Z</time></trkpt><trkpt lat="43.13849216884218" lon="6.00278871652622"><ele>56.00000000000001</ele><time>2026-04-25T15:58:19.978Z</time></trkpt><trkpt lat="43.13860758586899" lon="6.00283579847193"><ele>56.0</ele><time>2026-04-25T15:58:21.978Z</time></trkpt><trkpt lat="43.13867992632117" lon="6.002806046892989"><ele>56.0</ele><time>2026-04-25T15:58:22.978Z</time></trkpt><trkpt lat="43.13874085341859" lon="6.0027482282031315"><ele>56.0</ele><time>2026-04-25T15:58:23.978Z</time></trkpt><trkpt lat="43.13877934215351" lon="6.002678153736389"><ele>56.00000000000001</ele><time>2026-04-25T15:58:24.978Z</time></trkpt><trkpt lat="43.13881617780648" lon="6.002590051342251"><ele>56.0</ele><time>2026-04-25T15:58:25.978Z</time></trkpt><trkpt lat="43.13883799231882" lon="6.00246728133229"><ele>56.0</ele><time>2026-04-25T15:58:26.978Z</time></trkpt><trkpt lat="43.1389047117272" lon="6.0023776420205195"><ele>56.0</ele><time>2026-04-25T15:58:27.978Z</time></trkpt><trkpt lat="43.13897647773731" lon="6.00228829855523"><ele>56.0</ele><time>2026-04-25T15:58:28.978Z</time></trkpt><trkpt lat="43.13914321051786" lon="6.002301902198519"><ele>56.0</ele><time>2026-04-25T15:58:29.978Z</time></trkpt><trkpt lat="43.139294725471856" lon="6.0022758494342785"><ele>56.5</ele><time>2026-04-25T15:58:30.979Z</time></trkpt><trkpt lat="43.139441955634254" lon="6.002242272317684"><ele>57.0</ele><time>2026-04-25T15:58:31.979Z</time></trkpt><trkpt lat="43.139565542347356" lon="6.002205401388732"><ele>57.5</ele><time>2026-04-25T15:58:32.979Z</time></trkpt><trkpt lat="43.13967666655058" lon="6.002175873163278"><ele>58.0</ele><time>2026-04-25T15:58:33.979Z</time></trkpt><trkpt lat="43.13976338364987" lon="6.002123350060017"><ele>58.0</ele><time>2026-04-25T15:58:34.98Z</time></trkpt><trkpt lat="43.13984148707591" lon="6.002083867864226"><ele>58.0</ele><time>2026-04-25T15:58:35.98Z</time></trkpt><trkpt lat="43.13994558342387" lon="6.002067632467711"><ele>58.0</ele><time>2026-04-25T15:58:36.98Z</time></trkpt><trkpt lat="43.14002849945432" lon="6.002139767470542"><ele>58.0</ele><time>2026-04-25T15:58:37.979Z</time></trkpt><trkpt lat="43.140123099091895" lon="6.00219364544423"><ele>58.0</ele><time>2026-04-25T15:58:38.979Z</time></trkpt><trkpt lat="43.140208940279344" lon="6.002190767218621"><ele>58.4</ele><time>2026-04-25T15:58:39.98Z</time></trkpt><trkpt lat="43.14028670923905" lon="6.002148520684127"><ele>58.8</ele><time>2026-04-25T15:58:40.98Z</time></trkpt><trkpt lat="43.14034892368412" lon="6.002060158847573"><ele>59.2</ele><time>2026-04-25T15:58:41.98Z</time></trkpt><trkpt lat="43.1403987364932" lon="6.00195125291854"><ele>59.6</ele><time>2026-04-25T15:58:42.979Z</time></trkpt><trkpt lat="43.140464435705404" lon="6.00184153600518"><ele>60.0</ele><time>2026-04-25T15:58:43.979Z</time></trkpt><trkpt lat="43.140552878229876" lon="6.001752834505635"><ele>60.0</ele><time>2026-04-25T15:58:44.979Z</time></trkpt><trkpt lat="43.1406701999024" lon="6.001675669294096"><ele>60.0</ele><time>2026-04-25T15:58:45.979Z</time></trkpt><trkpt lat="43.140786288262156" lon="6.001616960259943"><ele>60.0</ele><time>2026-04-25T15:58:46.979Z</time></trkpt><trkpt lat="43.14089796567545" lon="6.001558037965782"><ele>60.0</ele><time>2026-04-25T15:58:47.979Z</time></trkpt><trkpt lat="43.14100514805268" lon="6.001498678752655"><ele>60.2</ele><time>2026-04-25T15:58:48.979Z</time></trkpt><trkpt lat="43.14110986802325" lon="6.001434929404619"><ele>60.4</ele><time>2026-04-25T15:58:49.979Z</time></trkpt><trkpt lat="43.1412184412811" lon="6.001368177684415"><ele>60.599999999999994</ele><time>2026-04-25T15:58:50.979Z</time></trkpt><trkpt lat="43.14131335541108" lon="6.001294186521211"><ele>60.8</ele><time>2026-04-25T15:58:51.979Z</time></trkpt><trkpt lat="43.14139658544186" lon="6.001225662891036"><ele>61.0</ele><time>2026-04-25T15:58:52.979Z</time></trkpt><trkpt lat="43.141478599591906" lon="6.00118246678478"><ele>61.666666666666664</ele><time>2026-04-25T15:58:53.979Z</time></trkpt><trkpt lat="43.14157685252062" lon="6.001164950373699"><ele>62.33333333333333</ele><time>2026-04-25T15:58:54.979Z</time></trkpt><trkpt lat="43.141670957747536" lon="6.001173363600357"><ele>63.0</ele><time>2026-04-25T15:58:55.979Z</time></trkpt><trkpt lat="43.14175881883842" lon="6.001163873733866"><ele>63.66666666666667</ele><time>2026-04-25T15:58:56.979Z</time></trkpt><trkpt lat="43.14182465434126" lon="6.001095163404807"><ele>64.33333333333334</ele><time>2026-04-25T15:58:57.979Z</time></trkpt><trkpt lat="43.14185881420447" lon="6.000994604024036"><ele>65.0</ele><time>2026-04-25T15:58:58.979Z</time></trkpt><trkpt lat="43.14185851568538" lon="6.000890754666354"><ele>64.6</ele><time>2026-04-25T15:58:59.979Z</time></trkpt><trkpt lat="43.141817997783974" lon="6.000800022486365"><ele>64.2</ele><time>2026-04-25T15:59:00.979Z</time></trkpt><trkpt lat="43.14174780609602" lon="6.000738313165466"><ele>63.8</ele><time>2026-04-25T15:59:01.979Z</time></trkpt><trkpt lat="43.14165273570578" lon="6.000698760977134"><ele>63.4</ele><time>2026-04-25T15:59:02.979Z</time></trkpt><trkpt lat="43.1415245877523" lon="6.000665310130715"><ele>63.0</ele><time>2026-04-25T15:59:03.979Z</time></trkpt><trkpt lat="43.14139137547073" lon="6.000625113270259"><ele>62.5</ele><time>2026-04-25T15:59:04.979Z</time></trkpt><trkpt lat="43.14123368962507" lon="6.000593038550512"><ele>62.0</ele><time>2026-04-25T15:59:05.979Z</time></trkpt><trkpt lat="43.14109257270222" lon="6.0005593784145566"><ele>61.5</ele><time>2026-04-25T15:59:06.979Z</time></trkpt><trkpt lat="43.1409719056587" lon="6.0004832469437215"><ele>61.0</ele><time>2026-04-25T15:59:07.979Z</time></trkpt><trkpt lat="43.1408752112283" lon="6.000366914999005"><ele>61.0</ele><time>2026-04-25T15:59:08.979Z</time></trkpt><trkpt lat="43.14080110686731" lon="6.000220305629262"><ele>61.0</ele><time>2026-04-25T15:59:09.979Z</time></trkpt><trkpt lat="43.140751184619155" lon="6.000020355900176"><ele>61.0</ele><time>2026-04-25T15:59:10.979Z</time></trkpt><trkpt lat="43.140696757697555" lon="5.999782746205109"><ele>60.666666666666664</ele><time>2026-04-25T15:59:11.979Z</time></trkpt><trkpt lat="43.14061297583346" lon="5.999530650401259"><ele>60.33333333333333</ele><time>2026-04-25T15:59:12.979Z</time></trkpt><trkpt lat="43.14053505478685" lon="5.999302760222263"><ele>60.0</ele><time>2026-04-25T15:59:13.979Z</time></trkpt><trkpt lat="43.140466567031524" lon="5.99910032240041"><ele>60.0</ele><time>2026-04-25T15:59:14.979Z</time></trkpt><trkpt lat="43.14039557502041" lon="5.998925526692251"><ele>60.0</ele><time>2026-04-25T15:59:15.979Z</time></trkpt><trkpt lat="43.14033158419769" lon="5.998759233591998"><ele>60.0</ele><time>2026-04-25T15:59:16.979Z</time></trkpt><trkpt lat="43.1402793845813" lon="5.99860651497436"><ele>60.0</ele><time>2026-04-25T15:59:17.979Z</time></trkpt><trkpt lat="43.14022619567802" lon="5.998460625705887"><ele>60.2</ele><time>2026-04-25T15:59:18.979Z</time></trkpt><trkpt lat="43.14019432939614" lon="5.998326730085765"><ele>60.4</ele><time>2026-04-25T15:59:19.979Z</time></trkpt><trkpt lat="43.140140481449954" lon="5.9981851606645415"><ele>60.599999999999994</ele><time>2026-04-25T15:59:20.979Z</time></trkpt><trkpt lat="43.14009457842537" lon="5.998055404582701"><ele>60.8</ele><time>2026-04-25T15:59:21.979Z</time></trkpt><trkpt lat="43.14005377412704" lon="5.997934313533553"><ele>61.0</ele><time>2026-04-25T15:59:22.979Z</time></trkpt><trkpt lat="43.14001318119385" lon="5.997811466294191"><ele>61.0</ele><time>2026-04-25T15:59:23.979Z</time></trkpt><trkpt lat="43.139974855944516" lon="5.997682481671082"><ele>60.99999999999999</ele><time>2026-04-25T15:59:24.979Z</time></trkpt><trkpt lat="43.13993181924808" lon="5.9975538617261535"><ele>60.99999999999999</ele><time>2026-04-25T15:59:25.979Z</time></trkpt><trkpt lat="43.13989069373329" lon="5.997442193505443"><ele>61.0</ele><time>2026-04-25T15:59:26.979Z</time></trkpt><trkpt lat="43.13984796497472" lon="5.9973468436846575"><ele>61.0</ele><time>2026-04-25T15:59:27.979Z</time></trkpt><trkpt lat="43.13981458016968" lon="5.997255893693886"><ele>60.8</ele><time>2026-04-25T15:59:28.979Z</time></trkpt><trkpt lat="43.13978240492948" lon="5.997162153708729"><ele>60.599999999999994</ele><time>2026-04-25T15:59:29.979Z</time></trkpt><trkpt lat="43.1397442824998" lon="5.997043318628909"><ele>60.4</ele><time>2026-04-25T15:59:30.979Z</time></trkpt><trkpt lat="43.13969916509085" lon="5.9969162604220205"><ele>60.2</ele><time>2026-04-25T15:59:31.979Z</time></trkpt><trkpt lat="43.139647768592276" lon="5.996776024712482"><ele>60.0</ele><time>2026-04-25T15:59:32.979Z</time></trkpt><trkpt lat="43.13960081896663" lon="5.996659501754323"><ele>60.0</ele><time>2026-04-25T15:59:33.979Z</time></trkpt><trkpt lat="43.13955904492569" lon="5.996551352181128"><ele>60.0</ele><time>2026-04-25T15:59:34.979Z</time></trkpt><trkpt lat="43.139518544754964" lon="5.996445407132379"><ele>60.0</ele><time>2026-04-25T15:59:35.979Z</time></trkpt><trkpt lat="43.13948355209707" lon="5.996345855017066"><ele>60.0</ele><time>2026-04-25T15:59:36.979Z</time></trkpt><trkpt lat="43.1394627082533" lon="5.99624658389668"><ele>60.0</ele><time>2026-04-25T15:59:37.979Z</time></trkpt><trkpt lat="43.139451731669105" lon="5.996133039409879"><ele>60.0</ele><time>2026-04-25T15:59:38.979Z</time></trkpt><trkpt lat="43.139447168201876" lon="5.996024989460136"><ele>60.0</ele><time>2026-04-25T15:59:39.979Z</time></trkpt><trkpt lat="43.139401469795416" lon="5.995915774708046"><ele>60.0</ele><time>2026-04-25T15:59:40.979Z</time></trkpt><trkpt lat="43.13933459424728" lon="5.995835812886996"><ele>60.0</ele><time>2026-04-25T15:59:41.979Z</time></trkpt><trkpt lat="43.1392648575319" lon="5.9957328182853455"><ele>60.0</ele><time>2026-04-25T15:59:42.979Z</time></trkpt><trkpt lat="43.13920605719802" lon="5.995580558020496"><ele>60.0</ele><time>2026-04-25T15:59:43.979Z</time></trkpt><trkpt lat="43.13914415407815" lon="5.995396197732396"><ele>60.25</ele><time>2026-04-25T15:59:44.979Z</time></trkpt><trkpt lat="43.13908925422082" lon="5.995241028219532"><ele>60.5</ele><time>2026-04-25T15:59:45.979Z</time></trkpt><trkpt lat="43.139035241997256" lon="5.995094495242821"><ele>60.75</ele><time>2026-04-25T15:59:46.979Z</time></trkpt><trkpt lat="43.13898085094352" lon="5.994937377093381"><ele>61.0</ele><time>2026-04-25T15:59:47.979Z</time></trkpt><trkpt lat="43.13893464582471" lon="5.994791362233832"><ele>60.99999999999999</ele><time>2026-04-25T15:59:48.979Z</time></trkpt><trkpt lat="43.13889147624006" lon="5.994661282652414"><ele>61.0</ele><time>2026-04-25T15:59:49.979Z</time></trkpt><trkpt lat="43.13885178828647" lon="5.994549196953842"><ele>61.0</ele><time>2026-04-25T15:59:50.979Z</time></trkpt><trkpt lat="43.13881873437807" lon="5.994453644480524"><ele>61.0</ele><time>2026-04-25T15:59:51.979Z</time></trkpt><trkpt lat="43.13878783283576" lon="5.9943626220349495"><ele>60.99999999999999</ele><time>2026-04-25T15:59:52.979Z</time></trkpt><trkpt lat="43.13874604064969" lon="5.994252109726321"><ele>61.0</ele><time>2026-04-25T15:59:53.979Z</time></trkpt><trkpt lat="43.13870137833425" lon="5.994120534995081"><ele>61.5</ele><time>2026-04-25T15:59:54.979Z</time></trkpt><trkpt lat="43.138655339810946" lon="5.9939746571136245"><ele>62.0</ele><time>2026-04-25T15:59:55.979Z</time></trkpt><trkpt lat="43.13859862742029" lon="5.993813741143093"><ele>62.5</ele><time>2026-04-25T15:59:56.979Z</time></trkpt><trkpt lat="43.13855069104843" lon="5.993680849819033"><ele>63.0</ele><time>2026-04-25T15:59:57.979Z</time></trkpt><trkpt lat="43.13850098408357" lon="5.993542178181542"><ele>63.0</ele><time>2026-04-25T15:59:58.979Z</time></trkpt><trkpt lat="43.13846451406591" lon="5.993425156076931"><ele>63.0</ele><time>2026-04-25T15:59:59.979Z</time></trkpt><trkpt lat="43.13842949399666" lon="5.993324134933915"><ele>63.0</ele><time>2026-04-25T16:00:00.979Z</time></trkpt><trkpt lat="43.13839552246352" lon="5.9932291400103335"><ele>63.0</ele><time>2026-04-25T16:00:01.979Z</time></trkpt><trkpt lat="43.13836367125167" lon="5.993143527733311"><ele>63.0</ele><time>2026-04-25T16:00:02.979Z</time></trkpt><trkpt lat="43.13833566940925" lon="5.993063121232897"><ele>63.0</ele><time>2026-04-25T16:00:03.979Z</time></trkpt><trkpt lat="43.138296200153036" lon="5.9929260146348255"><ele>63.0</ele><time>2026-04-25T16:00:05.979Z</time></trkpt><trkpt lat="43.13827424073373" lon="5.9928274587201"><ele>63.0</ele><time>2026-04-25T16:00:07.979Z</time></trkpt><trkpt lat="43.13825701204733" lon="5.99271734799618"><ele>63.0</ele><time>2026-04-25T16:00:09.978Z</time></trkpt><trkpt lat="43.13824957624742" lon="5.992546216886949"><ele>63.0</ele><time>2026-04-25T16:00:11.978Z</time></trkpt><trkpt lat="43.13822518991463" lon="5.992462081555211"><ele>63.0</ele><time>2026-04-25T16:00:12.978Z</time></trkpt><trkpt lat="43.13817180892986" lon="5.992404648916181"><ele>63.0</ele><time>2026-04-25T16:00:13.978Z</time></trkpt><trkpt lat="43.13806344361672" lon="5.992404767575316"><ele>62.8</ele><time>2026-04-25T16:00:15.978Z</time></trkpt><trkpt lat="43.13802912064293" lon="5.992484920706034"><ele>62.599999999999994</ele><time>2026-04-25T16:00:16.978Z</time></trkpt><trkpt lat="43.13800981134937" lon="5.992586780029673"><ele>62.400000000000006</ele><time>2026-04-25T16:00:17.978Z</time></trkpt><trkpt lat="43.137997061591406" lon="5.992720199496483"><ele>62.2</ele><time>2026-04-25T16:00:18.978Z</time></trkpt><trkpt lat="43.13797035871179" lon="5.992891679562463"><ele>62.0</ele><time>2026-04-25T16:00:19.978Z</time></trkpt><trkpt lat="43.13792909297369" lon="5.993056086265779"><ele>62.0</ele><time>2026-04-25T16:00:20.978Z</time></trkpt><trkpt lat="43.13787052210333" lon="5.993263456635239"><ele>62.0</ele><time>2026-04-25T16:00:21.978Z</time></trkpt><trkpt lat="43.13781884462471" lon="5.993459519648352"><ele>62.0</ele><time>2026-04-25T16:00:22.978Z</time></trkpt><trkpt lat="43.13778586356889" lon="5.993641922278003"><ele>62.00000000000001</ele><time>2026-04-25T16:00:23.978Z</time></trkpt><trkpt lat="43.13774988461962" lon="5.993796050108591"><ele>62.0</ele><time>2026-04-25T16:00:24.978Z</time></trkpt><trkpt lat="43.137712319631454" lon="5.993906552212089"><ele>62.0</ele><time>2026-04-25T16:00:25.978Z</time></trkpt><trkpt lat="43.13768879142451" lon="5.993991167041962"><ele>62.0</ele><time>2026-04-25T16:00:26.978Z</time></trkpt><trkpt lat="43.13767886899508" lon="5.994079131659996"><ele>62.00000000000001</ele><time>2026-04-25T16:00:27.978Z</time></trkpt><trkpt lat="43.13764365134572" lon="5.994219625283684"><ele>62.0</ele><time>2026-04-25T16:00:29.978Z</time></trkpt><trkpt lat="43.137617848466654" lon="5.994301528179609"><ele>61.6</ele><time>2026-04-25T16:00:31.978Z</time></trkpt><trkpt lat="43.13757570457773" lon="5.994409815758528"><ele>61.2</ele><time>2026-04-25T16:00:33.978Z</time></trkpt><trkpt lat="43.13751635174109" lon="5.994541022391034"><ele>60.8</ele><time>2026-04-25T16:00:35.978Z</time></trkpt><trkpt lat="43.1373747610697" lon="5.994494149680443"><ele>60.4</ele><time>2026-04-25T16:00:37.979Z</time></trkpt><trkpt lat="43.13729508367656" lon="5.994412446934997"><ele>60.0</ele><time>2026-04-25T16:00:38.979Z</time></trkpt><trkpt lat="43.137213550038105" lon="5.994283206307574"><ele>60.0</ele><time>2026-04-25T16:00:39.98Z</time></trkpt><trkpt lat="43.137112249430814" lon="5.994151575398694"><ele>60.0</ele><time>2026-04-25T16:00:40.979Z</time></trkpt><trkpt lat="43.136994924067395" lon="5.9940041053621895"><ele>60.0</ele><time>2026-04-25T16:00:41.979Z</time></trkpt><trkpt lat="43.1368448497948" lon="5.993849954437991"><ele>60.0</ele><time>2026-04-25T16:00:42.98Z</time></trkpt><trkpt lat="43.13669414603237" lon="5.993706654004932"><ele>60.0</ele><time>2026-04-25T16:00:43.979Z</time></trkpt><trkpt lat="43.13654847189945" lon="5.993543931883584"><ele>60.0</ele><time>2026-04-25T16:00:44.979Z</time></trkpt><trkpt lat="43.13642279140655" lon="5.993354977257616"><ele>59.33333333333333</ele><time>2026-04-25T16:00:45.979Z</time></trkpt><trkpt lat="43.13631329738345" lon="5.993137176809845"><ele>58.666666666666664</ele><time>2026-04-25T16:00:46.979Z</time></trkpt><trkpt lat="43.1362069703544" lon="5.9928838824904425"><ele>58.0</ele><time>2026-04-25T16:00:47.979Z</time></trkpt><trkpt lat="43.13610197897321" lon="5.992633903032066"><ele>58.0</ele><time>2026-04-25T16:00:48.98Z</time></trkpt><trkpt lat="43.135988064810235" lon="5.992371719422229"><ele>58.0</ele><time>2026-04-25T16:00:49.98Z</time></trkpt><trkpt lat="43.13588048937459" lon="5.992106718459514"><ele>58.0</ele><time>2026-04-25T16:00:50.98Z</time></trkpt><trkpt lat="43.135756614200524" lon="5.991861444171177"><ele>58.0</ele><time>2026-04-25T16:00:51.98Z</time></trkpt><trkpt lat="43.13569294675356" lon="5.991560572479239"><ele>58.0</ele><time>2026-04-25T16:00:52.98Z</time></trkpt><trkpt lat="43.13559964701947" lon="5.991293095189542"><ele>58.0</ele><time>2026-04-25T16:00:53.98Z</time></trkpt><trkpt lat="43.13550390358174" lon="5.991014857361417"><ele>58.33333333333333</ele><time>2026-04-25T16:00:54.98Z</time></trkpt><trkpt lat="43.13541471762885" lon="5.990737363443687"><ele>58.66666666666667</ele><time>2026-04-25T16:00:55.98Z</time></trkpt><trkpt lat="43.13532716090593" lon="5.9904678791821855"><ele>59.0</ele><time>2026-04-25T16:00:56.98Z</time></trkpt><trkpt lat="43.13524407351164" lon="5.990200148454987"><ele>58.66666666666667</ele><time>2026-04-25T16:00:57.98Z</time></trkpt><trkpt lat="43.135158233319984" lon="5.989933201117735"><ele>58.33333333333333</ele><time>2026-04-25T16:00:58.98Z</time></trkpt><trkpt lat="43.13507583335411" lon="5.989672665588184"><ele>58.0</ele><time>2026-04-25T16:00:59.98Z</time></trkpt><trkpt lat="43.13499237023231" lon="5.989409172596543"><ele>58.33333333333333</ele><time>2026-04-25T16:01:00.98Z</time></trkpt><trkpt lat="43.13490605828175" lon="5.9891346150041045"><ele>58.66666666666667</ele><time>2026-04-25T16:01:01.98Z</time></trkpt><trkpt lat="43.134822396150994" lon="5.98886351535892"><ele>59.0</ele><time>2026-04-25T16:01:02.98Z</time></trkpt><trkpt lat="43.1347335155544" lon="5.98858705283295"><ele>57.66666666666667</ele><time>2026-04-25T16:01:03.98Z</time></trkpt><trkpt lat="43.13464611526519" lon="5.988307648372666"><ele>56.33333333333333</ele><time>2026-04-25T16:01:04.98Z</time></trkpt><trkpt lat="43.13456189777364" lon="5.988033475425647"><ele>55.0</ele><time>2026-04-25T16:01:05.98Z</time></trkpt><trkpt lat="43.134478686324336" lon="5.987763179993761"><ele>55.0</ele><time>2026-04-25T16:01:06.98Z</time></trkpt><trkpt lat="43.13440046170247" lon="5.987501011610167"><ele>55.0</ele><time>2026-04-25T16:01:07.98Z</time></trkpt><trkpt lat="43.1343160747215" lon="5.987232625616504"><ele>55.0</ele><time>2026-04-25T16:01:08.98Z</time></trkpt><trkpt lat="43.134228543206554" lon="5.986962617982855"><ele>55.0</ele><time>2026-04-25T16:01:09.98Z</time></trkpt><trkpt lat="43.13414308536704" lon="5.986701046994802"><ele>55.0</ele><time>2026-04-25T16:01:10.98Z</time></trkpt><trkpt lat="43.13405623387903" lon="5.986441536108528"><ele>55.0</ele><time>2026-04-25T16:01:11.98Z</time></trkpt><trkpt lat="43.13397212839884" lon="5.986178567876377"><ele>55.0</ele><time>2026-04-25T16:01:12.98Z</time></trkpt><trkpt lat="43.133887036766595" lon="5.985915190340402"><ele>55.0</ele><time>2026-04-25T16:01:13.98Z</time></trkpt><trkpt lat="43.13380397258053" lon="5.985653606992783"><ele>55.0</ele><time>2026-04-25T16:01:14.98Z</time></trkpt><trkpt lat="43.13372233500918" lon="5.985394166772641"><ele>55.0</ele><time>2026-04-25T16:01:15.98Z</time></trkpt><trkpt lat="43.13363841608509" lon="5.985132733053579"><ele>55.0</ele><time>2026-04-25T16:01:16.98Z</time></trkpt><trkpt lat="43.1335576554676" lon="5.984873857324923"><ele>55.0</ele><time>2026-04-25T16:01:17.98Z</time></trkpt><trkpt lat="43.13347812298826" lon="5.9846117561005965"><ele>55.0</ele><time>2026-04-25T16:01:18.98Z</time></trkpt><trkpt lat="43.13339600183334" lon="5.984346742674111"><ele>55.0</ele><time>2026-04-25T16:01:19.98Z</time></trkpt><trkpt lat="43.133318798426636" lon="5.98408488832072"><ele>55.0</ele><time>2026-04-25T16:01:20.98Z</time></trkpt><trkpt lat="43.13323753451872" lon="5.983821812486855"><ele>54.0</ele><time>2026-04-25T16:01:21.98Z</time></trkpt><trkpt lat="43.13315300194733" lon="5.9835514561292245"><ele>53.0</ele><time>2026-04-25T16:01:22.98Z</time></trkpt><trkpt lat="43.133067254318114" lon="5.983291304282496"><ele>52.0</ele><time>2026-04-25T16:01:23.98Z</time></trkpt><trkpt lat="43.132970888504516" lon="5.983027711878829"><ele>52.0</ele><time>2026-04-25T16:01:24.98Z</time></trkpt><trkpt lat="43.1328710742785" lon="5.982770241929561"><ele>52.0</ele><time>2026-04-25T16:01:25.98Z</time></trkpt><trkpt lat="43.13277137559835" lon="5.982523697782599"><ele>52.0</ele><time>2026-04-25T16:01:26.98Z</time></trkpt><trkpt lat="43.13266254640435" lon="5.982271047636214"><ele>52.0</ele><time>2026-04-25T16:01:27.98Z</time></trkpt><trkpt lat="43.13254986348703" lon="5.9820211306503"><ele>52.0</ele><time>2026-04-25T16:01:28.98Z</time></trkpt><trkpt lat="43.132430673703006" lon="5.981772690084464"><ele>52.0</ele><time>2026-04-25T16:01:29.98Z</time></trkpt><trkpt lat="43.13230844176683" lon="5.981537029178527"><ele>52.0</ele><time>2026-04-25T16:01:30.98Z</time></trkpt><trkpt lat="43.13218160430052" lon="5.981304071646425"><ele>52.0</ele><time>2026-04-25T16:01:31.98Z</time></trkpt><trkpt lat="43.13205358571713" lon="5.981069379856756"><ele>52.0</ele><time>2026-04-25T16:01:32.98Z</time></trkpt><trkpt lat="43.131920889793925" lon="5.980832972334773"><ele>51.666666666666664</ele><time>2026-04-25T16:01:33.98Z</time></trkpt><trkpt lat="43.13178099131897" lon="5.980604464268802"><ele>51.33333333333333</ele><time>2026-04-25T16:01:34.98Z</time></trkpt><trkpt lat="43.131641050835896" lon="5.980387193271314"><ele>51.0</ele><time>2026-04-25T16:01:35.98Z</time></trkpt><trkpt lat="43.131497737644196" lon="5.980177295313241"><ele>48.666666666666664</ele><time>2026-04-25T16:01:36.98Z</time></trkpt><trkpt lat="43.13134836348896" lon="5.979977034284013"><ele>46.33333333333333</ele><time>2026-04-25T16:01:37.98Z</time></trkpt><trkpt lat="43.1311958417786" lon="5.97977125840322"><ele>44.0</ele><time>2026-04-25T16:01:38.98Z</time></trkpt><trkpt lat="43.13104236028489" lon="5.9795705101642325"><ele>44.0</ele><time>2026-04-25T16:01:39.98Z</time></trkpt><trkpt lat="43.1308931589447" lon="5.979370204783629"><ele>44.0</ele><time>2026-04-25T16:01:40.98Z</time></trkpt><trkpt lat="43.130741355391955" lon="5.9791718404640966"><ele>44.0</ele><time>2026-04-25T16:01:41.98Z</time></trkpt><trkpt lat="43.13058850092626" lon="5.978973875039564"><ele>43.666666666666664</ele><time>2026-04-25T16:01:42.98Z</time></trkpt><trkpt lat="43.13043758559511" lon="5.978774101241936"><ele>43.333333333333336</ele><time>2026-04-25T16:01:43.98Z</time></trkpt><trkpt lat="43.1302829891608" lon="5.978573444213835"><ele>43.0</ele><time>2026-04-25T16:01:44.98Z</time></trkpt><trkpt lat="43.13013105855266" lon="5.9783729114406725"><ele>42.66666666666667</ele><time>2026-04-25T16:01:45.98Z</time></trkpt><trkpt lat="43.12997891147143" lon="5.978169984561732"><ele>42.333333333333336</ele><time>2026-04-25T16:01:46.98Z</time></trkpt><trkpt lat="43.12982877008484" lon="5.97797210137514"><ele>42.0</ele><time>2026-04-25T16:01:47.98Z</time></trkpt><trkpt lat="43.12967713862268" lon="5.977768024063595"><ele>41.333333333333336</ele><time>2026-04-25T16:01:48.98Z</time></trkpt><trkpt lat="43.12952980909394" lon="5.977568108371879"><ele>40.66666666666667</ele><time>2026-04-25T16:01:49.98Z</time></trkpt><trkpt lat="43.12938118586412" lon="5.977365721780076"><ele>40.0</ele><time>2026-04-25T16:01:50.98Z</time></trkpt><trkpt lat="43.12923263274929" lon="5.977168018656986"><ele>40.0</ele><time>2026-04-25T16:01:51.98Z</time></trkpt><trkpt lat="43.12908567445192" lon="5.976965512092168"><ele>40.0</ele><time>2026-04-25T16:01:52.98Z</time></trkpt><trkpt lat="43.12894101171409" lon="5.976765103189631"><ele>40.0</ele><time>2026-04-25T16:01:53.98Z</time></trkpt><trkpt lat="43.12878686573376" lon="5.976567386230867"><ele>39.66666666666667</ele><time>2026-04-25T16:01:54.98Z</time></trkpt><trkpt lat="43.128639802664786" lon="5.976363753475391"><ele>39.333333333333336</ele><time>2026-04-25T16:01:55.98Z</time></trkpt><trkpt lat="43.12849381070593" lon="5.976162815622047"><ele>39.0</ele><time>2026-04-25T16:01:56.98Z</time></trkpt><trkpt lat="43.128348022020596" lon="5.975978829904886"><ele>37.333333333333336</ele><time>2026-04-25T16:01:57.98Z</time></trkpt><trkpt lat="43.12820516652473" lon="5.9757985081479505"><ele>35.66666666666667</ele><time>2026-04-25T16:01:58.98Z</time></trkpt><trkpt lat="43.12806162504781" lon="5.975620374641975"><ele>34.0</ele><time>2026-04-25T16:01:59.98Z</time></trkpt><trkpt lat="43.12790957393553" lon="5.975428129166074"><ele>34.0</ele><time>2026-04-25T16:02:00.98Z</time></trkpt><trkpt lat="43.127756850803635" lon="5.975235226033171"><ele>34.0</ele><time>2026-04-25T16:02:01.98Z</time></trkpt><trkpt lat="43.1275973654197" lon="5.975035247120066"><ele>34.0</ele><time>2026-04-25T16:02:02.98Z</time></trkpt><trkpt lat="43.12743979226846" lon="5.974827295795373"><ele>32.66666666666667</ele><time>2026-04-25T16:02:03.98Z</time></trkpt><trkpt lat="43.1272833895975" lon="5.9746178286468945"><ele>31.333333333333336</ele><time>2026-04-25T16:02:04.98Z</time></trkpt><trkpt lat="43.12713088124311" lon="5.97440920177829"><ele>30.0</ele><time>2026-04-25T16:02:05.98Z</time></trkpt><trkpt lat="43.12697360163512" lon="5.974197091904793"><ele>30.0</ele><time>2026-04-25T16:02:06.98Z</time></trkpt><trkpt lat="43.12681781629225" lon="5.97398959576991"><ele>30.0</ele><time>2026-04-25T16:02:07.98Z</time></trkpt><trkpt lat="43.126666653093345" lon="5.973779544671473"><ele>30.0</ele><time>2026-04-25T16:02:08.98Z</time></trkpt><trkpt lat="43.1265148030573" lon="5.973567833943319"><ele>30.0</ele><time>2026-04-25T16:02:09.98Z</time></trkpt><trkpt lat="43.126360555593266" lon="5.9733568638215715"><ele>30.0</ele><time>2026-04-25T16:02:10.98Z</time></trkpt><trkpt lat="43.12620680710155" lon="5.973143546603553"><ele>30.0</ele><time>2026-04-25T16:02:11.98Z</time></trkpt><trkpt lat="43.12606426183592" lon="5.972913129491009"><ele>30.0</ele><time>2026-04-25T16:02:12.98Z</time></trkpt><trkpt lat="43.12593544108086" lon="5.972671809455792"><ele>30.0</ele><time>2026-04-25T16:02:13.98Z</time></trkpt><trkpt lat="43.125812267605355" lon="5.972427589417675"><ele>30.0</ele><time>2026-04-25T16:02:14.98Z</time></trkpt><trkpt lat="43.12569998408516" lon="5.972165510764845"><ele>28.666666666666664</ele><time>2026-04-25T16:02:15.98Z</time></trkpt><trkpt lat="43.12559927933846" lon="5.971884236520226"><ele>27.333333333333332</ele><time>2026-04-25T16:02:16.98Z</time></trkpt><trkpt lat="43.12551246745731" lon="5.971606451012764"><ele>26.0</ele><time>2026-04-25T16:02:17.98Z</time></trkpt><trkpt lat="43.125436519845564" lon="5.9713339448272285"><ele>26.0</ele><time>2026-04-25T16:02:18.98Z</time></trkpt><trkpt lat="43.125368861819865" lon="5.971064819311648"><ele>26.0</ele><time>2026-04-25T16:02:19.98Z</time></trkpt><trkpt lat="43.12531026534035" lon="5.970788747309896"><ele>26.0</ele><time>2026-04-25T16:02:20.98Z</time></trkpt><trkpt lat="43.125262347365314" lon="5.970507209944637"><ele>26.0</ele><time>2026-04-25T16:02:21.98Z</time></trkpt><trkpt lat="43.12522274247289" lon="5.97023081185451"><ele>26.0</ele><time>2026-04-25T16:02:22.98Z</time></trkpt><trkpt lat="43.12518434010173" lon="5.969952064949688"><ele>26.0</ele><time>2026-04-25T16:02:23.98Z</time></trkpt><trkpt lat="43.125145080931325" lon="5.969673924998764"><ele>26.333333333333332</ele><time>2026-04-25T16:02:24.98Z</time></trkpt><trkpt lat="43.12510705448752" lon="5.969403211984392"><ele>26.666666666666664</ele><time>2026-04-25T16:02:25.98Z</time></trkpt><trkpt lat="43.12506462660712" lon="5.969128386576325"><ele>27.0</ele><time>2026-04-25T16:02:26.98Z</time></trkpt><trkpt lat="43.125025340815775" lon="5.968868409677453"><ele>26.333333333333336</ele><time>2026-04-25T16:02:27.98Z</time></trkpt><trkpt lat="43.12498842513871" lon="5.968620092959588"><ele>25.666666666666668</ele><time>2026-04-25T16:02:28.98Z</time></trkpt><trkpt lat="43.124947865331755" lon="5.968371400286181"><ele>25.0</ele><time>2026-04-25T16:02:29.98Z</time></trkpt><trkpt lat="43.12490781381692" lon="5.968140150530742"><ele>24.666666666666668</ele><time>2026-04-25T16:02:30.98Z</time></trkpt><trkpt lat="43.12487690563479" lon="5.967910556356789"><ele>24.333333333333336</ele><time>2026-04-25T16:02:31.98Z</time></trkpt><trkpt lat="43.124836897065784" lon="5.967651627868409"><ele>24.0</ele><time>2026-04-25T16:02:32.98Z</time></trkpt><trkpt lat="43.12478923019965" lon="5.96738215491587"><ele>22.333333333333332</ele><time>2026-04-25T16:02:33.98Z</time></trkpt><trkpt lat="43.12473530888792" lon="5.9671000584873"><ele>20.666666666666664</ele><time>2026-04-25T16:02:34.98Z</time></trkpt><trkpt lat="43.12467965074024" lon="5.9668231706998345"><ele>19.0</ele><time>2026-04-25T16:02:35.98Z</time></trkpt><trkpt lat="43.124637162804724" lon="5.966546471843804"><ele>18.333333333333332</ele><time>2026-04-25T16:02:36.98Z</time></trkpt><trkpt lat="43.124596462910915" lon="5.966282944914007"><ele>17.666666666666668</ele><time>2026-04-25T16:02:37.98Z</time></trkpt><trkpt lat="43.12455198074625" lon="5.966008987819865"><ele>17.0</ele><time>2026-04-25T16:02:38.98Z</time></trkpt><trkpt lat="43.12449848697568" lon="5.965728893985128"><ele>17.0</ele><time>2026-04-25T16:02:39.98Z</time></trkpt><trkpt lat="43.124445152949136" lon="5.965448994112863"><ele>17.0</ele><time>2026-04-25T16:02:40.98Z</time></trkpt><trkpt lat="43.12440072407424" lon="5.9651612951726065"><ele>17.0</ele><time>2026-04-25T16:02:41.98Z</time></trkpt><trkpt lat="43.12436484211625" lon="5.964874462963077"><ele>17.0</ele><time>2026-04-25T16:02:42.98Z</time></trkpt><trkpt lat="43.12433225323719" lon="5.964582639067855"><ele>17.0</ele><time>2026-04-25T16:02:43.98Z</time></trkpt><trkpt lat="43.124308725710726" lon="5.964297982107244"><ele>17.0</ele><time>2026-04-25T16:02:44.98Z</time></trkpt><trkpt lat="43.124288109542306" lon="5.9640088007815395"><ele>16.333333333333336</ele><time>2026-04-25T16:02:45.98Z</time></trkpt><trkpt lat="43.124271466963144" lon="5.963717443265552"><ele>15.666666666666668</ele><time>2026-04-25T16:02:46.979Z</time></trkpt><trkpt lat="43.12425570182419" lon="5.963423706291644"><ele>15.0</ele><time>2026-04-25T16:02:47.979Z</time></trkpt><trkpt lat="43.12423725792808" lon="5.963124049736066"><ele>14.666666666666668</ele><time>2026-04-25T16:02:48.98Z</time></trkpt><trkpt lat="43.12421588302845" lon="5.962817513966541"><ele>14.333333333333334</ele><time>2026-04-25T16:02:49.98Z</time></trkpt><trkpt lat="43.124188425865434" lon="5.962523158926486"><ele>14.0</ele><time>2026-04-25T16:02:50.98Z</time></trkpt><trkpt lat="43.12414984544783" lon="5.962232708330031"><ele>14.0</ele><time>2026-04-25T16:02:51.98Z</time></trkpt><trkpt lat="43.12409794595336" lon="5.961953103831237"><ele>14.0</ele><time>2026-04-25T16:02:52.98Z</time></trkpt><trkpt lat="43.12404480874899" lon="5.961670759881098"><ele>14.0</ele><time>2026-04-25T16:02:53.98Z</time></trkpt><trkpt lat="43.123986853758936" lon="5.961391476880141"><ele>16.0</ele><time>2026-04-25T16:02:54.98Z</time></trkpt><trkpt lat="43.12392079694467" lon="5.961114650053243"><ele>18.0</ele><time>2026-04-25T16:02:55.98Z</time></trkpt><trkpt lat="43.12385121481" lon="5.960833181930801"><ele>20.0</ele><time>2026-04-25T16:02:56.98Z</time></trkpt><trkpt lat="43.123769166008195" lon="5.960549168806433"><ele>20.666666666666668</ele><time>2026-04-25T16:02:57.98Z</time></trkpt><trkpt lat="43.12368549720664" lon="5.9602829669231205"><ele>21.333333333333332</ele><time>2026-04-25T16:02:58.98Z</time></trkpt><trkpt lat="43.12359878626568" lon="5.960007114214245"><ele>22.0</ele><time>2026-04-25T16:02:59.98Z</time></trkpt><trkpt lat="43.12350901680998" lon="5.959751987931566"><ele>22.0</ele><time>2026-04-25T16:03:00.98Z</time></trkpt><trkpt lat="43.123419531365904" lon="5.959482651577804"><ele>22.0</ele><time>2026-04-25T16:03:01.98Z</time></trkpt><trkpt lat="43.12333105399442" lon="5.959219867794621"><ele>22.0</ele><time>2026-04-25T16:03:02.98Z</time></trkpt><trkpt lat="43.12324022815521" lon="5.958943789375026"><ele>21.0</ele><time>2026-04-25T16:03:03.98Z</time></trkpt><trkpt lat="43.1231508735641" lon="5.958672489756715"><ele>20.0</ele><time>2026-04-25T16:03:04.98Z</time></trkpt><trkpt lat="43.1230593099645" lon="5.9584041555733664"><ele>19.0</ele><time>2026-04-25T16:03:05.98Z</time></trkpt><trkpt lat="43.12296903826573" lon="5.958128945999625"><ele>19.0</ele><time>2026-04-25T16:03:06.98Z</time></trkpt><trkpt lat="43.12287898027841" lon="5.957858700024531"><ele>19.0</ele><time>2026-04-25T16:03:07.98Z</time></trkpt><trkpt lat="43.12279274606611" lon="5.957603487813516"><ele>19.0</ele><time>2026-04-25T16:03:08.98Z</time></trkpt><trkpt lat="43.12271494285314" lon="5.957360936797329"><ele>17.333333333333332</ele><time>2026-04-25T16:03:09.98Z</time></trkpt><trkpt lat="43.12263359605724" lon="5.957115503786289"><ele>15.666666666666668</ele><time>2026-04-25T16:03:10.98Z</time></trkpt><trkpt lat="43.12255055387606" lon="5.956873900640273"><ele>14.0</ele><time>2026-04-25T16:03:11.98Z</time></trkpt><trkpt lat="43.12247095896293" lon="5.956632775046307"><ele>14.333333333333334</ele><time>2026-04-25T16:03:12.98Z</time></trkpt><trkpt lat="43.12239388275932" lon="5.956401883577368"><ele>14.666666666666668</ele><time>2026-04-25T16:03:13.98Z</time></trkpt><trkpt lat="43.122317074952925" lon="5.9561755231227504"><ele>15.0</ele><time>2026-04-25T16:03:14.98Z</time></trkpt><trkpt lat="43.122239000265424" lon="5.95594404780226"><ele>13.666666666666666</ele><time>2026-04-25T16:03:15.98Z</time></trkpt><trkpt lat="43.12216300415965" lon="5.95571965156925"><ele>12.333333333333332</ele><time>2026-04-25T16:03:16.98Z</time></trkpt><trkpt lat="43.1220871853745" lon="5.955494114330448"><ele>11.0</ele><time>2026-04-25T16:03:17.98Z</time></trkpt><trkpt lat="43.12201177741372" lon="5.955268359156333"><ele>11.0</ele><time>2026-04-25T16:03:18.98Z</time></trkpt><trkpt lat="43.12193461123675" lon="5.955046603457661"><ele>11.0</ele><time>2026-04-25T16:03:19.98Z</time></trkpt><trkpt lat="43.1218561397694" lon="5.954826220420104"><ele>11.0</ele><time>2026-04-25T16:03:20.98Z</time></trkpt><trkpt lat="43.12177477200576" lon="5.954606044039497"><ele>10.666666666666666</ele><time>2026-04-25T16:03:21.98Z</time></trkpt><trkpt lat="43.12169916000725" lon="5.954382660818712"><ele>10.333333333333334</ele><time>2026-04-25T16:03:22.98Z</time></trkpt><trkpt lat="43.121631662588186" lon="5.95417708098903"><ele>10.0</ele><time>2026-04-25T16:03:23.98Z</time></trkpt><trkpt lat="43.12156447015718" lon="5.953967576162548"><ele>10.0</ele><time>2026-04-25T16:03:24.98Z</time></trkpt><trkpt lat="43.12149664219175" lon="5.9537593272548905"><ele>10.0</ele><time>2026-04-25T16:03:25.98Z</time></trkpt><trkpt lat="43.12142626825419" lon="5.953552150807402"><ele>10.0</ele><time>2026-04-25T16:03:26.98Z</time></trkpt><trkpt lat="43.121355325367134" lon="5.953346299638258"><ele>9.0</ele><time>2026-04-25T16:03:27.98Z</time></trkpt><trkpt lat="43.12128166197083" lon="5.953140061055769"><ele>8.0</ele><time>2026-04-25T16:03:28.98Z</time></trkpt><trkpt lat="43.121215495148924" lon="5.952940697120399"><ele>7.0</ele><time>2026-04-25T16:03:29.98Z</time></trkpt><trkpt lat="43.12114878025387" lon="5.952737713845513"><ele>7.0</ele><time>2026-04-25T16:03:30.98Z</time></trkpt><trkpt lat="43.121082019308254" lon="5.952535895879695"><ele>7.0</ele><time>2026-04-25T16:03:31.98Z</time></trkpt><trkpt lat="43.12101590702184" lon="5.95233537971952"><ele>7.0</ele><time>2026-04-25T16:03:32.98Z</time></trkpt><trkpt lat="43.12095018082605" lon="5.9521380494245815"><ele>7.0</ele><time>2026-04-25T16:03:33.98Z</time></trkpt><trkpt lat="43.120884531954935" lon="5.951939114529001"><ele>7.0</ele><time>2026-04-25T16:03:34.98Z</time></trkpt><trkpt lat="43.12081809376682" lon="5.9517382450934555"><ele>7.0</ele><time>2026-04-25T16:03:35.98Z</time></trkpt><trkpt lat="43.12074802078273" lon="5.951534703672846"><ele>7.666666666666667</ele><time>2026-04-25T16:03:36.98Z</time></trkpt><trkpt lat="43.120678069457206" lon="5.951323307337672"><ele>8.333333333333334</ele><time>2026-04-25T16:03:37.98Z</time></trkpt><trkpt lat="43.12061220653557" lon="5.9511182466295836"><ele>9.0</ele><time>2026-04-25T16:03:38.98Z</time></trkpt><trkpt lat="43.12055066290252" lon="5.950914279507227"><ele>8.333333333333334</ele><time>2026-04-25T16:03:39.98Z</time></trkpt><trkpt lat="43.12049048867916" lon="5.950710648512253"><ele>7.666666666666667</ele><time>2026-04-25T16:03:40.98Z</time></trkpt><trkpt lat="43.120434198089605" lon="5.9505074263510425"><ele>7.0</ele><time>2026-04-25T16:03:41.98Z</time></trkpt><trkpt lat="43.120382440198505" lon="5.9502949644290215"><ele>7.0</ele><time>2026-04-25T16:03:42.98Z</time></trkpt><trkpt lat="43.12033478267816" lon="5.950080241614082"><ele>7.0</ele><time>2026-04-25T16:03:43.98Z</time></trkpt><trkpt lat="43.12029969658312" lon="5.949860896127241"><ele>7.0</ele><time>2026-04-25T16:03:44.98Z</time></trkpt><trkpt lat="43.12026686918208" lon="5.949638675632511"><ele>7.333333333333334</ele><time>2026-04-25T16:03:45.98Z</time></trkpt><trkpt lat="43.12024294498587" lon="5.949411531771848"><ele>7.666666666666666</ele><time>2026-04-25T16:03:46.98Z</time></trkpt><trkpt lat="43.12022582699983" lon="5.949179214851481"><ele>8.0</ele><time>2026-04-25T16:03:47.98Z</time></trkpt><trkpt lat="43.120219216039146" lon="5.948942513263114"><ele>8.0</ele><time>2026-04-25T16:03:48.98Z</time></trkpt><trkpt lat="43.12021016228318" lon="5.948710206615395"><ele>8.0</ele><time>2026-04-25T16:03:49.98Z</time></trkpt><trkpt lat="43.120202380511806" lon="5.9484712199410765"><ele>8.0</ele><time>2026-04-25T16:03:50.98Z</time></trkpt><trkpt lat="43.120197687155894" lon="5.948234253963272"><ele>8.333333333333332</ele><time>2026-04-25T16:03:51.98Z</time></trkpt><trkpt lat="43.12020626324799" lon="5.947998876664908"><ele>8.666666666666666</ele><time>2026-04-25T16:03:52.98Z</time></trkpt><trkpt lat="43.120228295372264" lon="5.9477662154341555"><ele>9.0</ele><time>2026-04-25T16:03:53.98Z</time></trkpt><trkpt lat="43.12027119211131" lon="5.947533579166315"><ele>7.5</ele><time>2026-04-25T16:03:54.98Z</time></trkpt><trkpt lat="43.12004349369856" lon="5.947265273483676"><ele>6.0</ele><time>2026-04-25T16:03:56.123Z</time></trkpt><trkpt lat="43.127041104303686" lon="5.914703443105029"><ele>6.0</ele><time>2026-04-25T16:06:40.982Z</time></trkpt><trkpt lat="43.12705146637342" lon="5.914445112086155"><ele>6.0</ele><time>2026-04-25T16:06:41.982Z</time></trkpt><trkpt lat="43.1270239072233" lon="5.914171076359602"><ele>6.0</ele><time>2026-04-25T16:06:42.982Z</time></trkpt><trkpt lat="43.126985808357034" lon="5.9139134727029266"><ele>6.0</ele><time>2026-04-25T16:06:43.982Z</time></trkpt><trkpt lat="43.12697711510228" lon="5.913662640173835"><ele>6.0</ele><time>2026-04-25T16:06:44.982Z</time></trkpt><trkpt lat="43.12695142022859" lon="5.913451572057997"><ele>6.0</ele><time>2026-04-25T16:06:45.982Z</time></trkpt><trkpt lat="43.12694924866684" lon="5.913209305724085"><ele>6.333333333333334</ele><time>2026-04-25T16:06:46.982Z</time></trkpt><trkpt lat="43.12692831208209" lon="5.9129280953346495"><ele>6.666666666666667</ele><time>2026-04-25T16:06:47.982Z</time></trkpt><trkpt lat="43.12690362748473" lon="5.91266906451181"><ele>7.0</ele><time>2026-04-25T16:06:48.983Z</time></trkpt><trkpt lat="43.12688538093997" lon="5.912410283468096"><ele>7.0</ele><time>2026-04-25T16:06:49.983Z</time></trkpt><trkpt lat="43.12686391494002" lon="5.912129717313612"><ele>7.0</ele><time>2026-04-25T16:06:50.983Z</time></trkpt><trkpt lat="43.12684172685843" lon="5.911828915084583"><ele>7.0</ele><time>2026-04-25T16:06:51.983Z</time></trkpt><trkpt lat="43.12680148421252" lon="5.911526826064533"><ele>7.0</ele><time>2026-04-25T16:06:52.983Z</time></trkpt><trkpt lat="43.126754875350436" lon="5.911257776713335"><ele>7.0</ele><time>2026-04-25T16:06:53.983Z</time></trkpt><trkpt lat="43.12670936748855" lon="5.910988269097028"><ele>7.0</ele><time>2026-04-25T16:06:54.983Z</time></trkpt><trkpt lat="43.126663096859886" lon="5.910727048435918"><ele>7.0</ele><time>2026-04-25T16:06:55.983Z</time></trkpt><trkpt lat="43.12662190650111" lon="5.910445683064453"><ele>7.0</ele><time>2026-04-25T16:06:56.983Z</time></trkpt><trkpt lat="43.126564557773975" lon="5.910147042374607"><ele>7.0</ele><time>2026-04-25T16:06:57.983Z</time></trkpt><trkpt lat="43.126483047317514" lon="5.9098454642312985"><ele>6.5</ele><time>2026-04-25T16:06:58.983Z</time></trkpt><trkpt lat="43.1263853981321" lon="5.909555810144594"><ele>6.0</ele><time>2026-04-25T16:06:59.983Z</time></trkpt><trkpt lat="43.126280772814916" lon="5.90928492773916"><ele>6.666666666666666</ele><time>2026-04-25T16:07:00.982Z</time></trkpt><trkpt lat="43.12617571374854" lon="5.909019383523148"><ele>7.333333333333333</ele><time>2026-04-25T16:07:01.983Z</time></trkpt><trkpt lat="43.12605896576241" lon="5.9087673811059"><ele>8.0</ele><time>2026-04-25T16:07:02.983Z</time></trkpt><trkpt lat="43.12593146390598" lon="5.908526081621224"><ele>9.666666666666666</ele><time>2026-04-25T16:07:03.983Z</time></trkpt><trkpt lat="43.12580823311559" lon="5.908299882544813"><ele>11.333333333333332</ele><time>2026-04-25T16:07:04.983Z</time></trkpt><trkpt lat="43.12568955715303" lon="5.908073195461326"><ele>13.0</ele><time>2026-04-25T16:07:05.983Z</time></trkpt><trkpt lat="43.12557250349508" lon="5.907833855922306"><ele>13.0</ele><time>2026-04-25T16:07:06.983Z</time></trkpt><trkpt lat="43.12546713625451" lon="5.9075986758878765"><ele>13.0</ele><time>2026-04-25T16:07:07.983Z</time></trkpt><trkpt lat="43.12537416957627" lon="5.90734106012361"><ele>13.0</ele><time>2026-04-25T16:07:08.983Z</time></trkpt><trkpt lat="43.12529347742161" lon="5.907059880682849"><ele>13.0</ele><time>2026-04-25T16:07:09.983Z</time></trkpt><trkpt lat="43.12521806474586" lon="5.906776615329055"><ele>13.0</ele><time>2026-04-25T16:07:10.983Z</time></trkpt><trkpt lat="43.12515209955939" lon="5.906499325024552"><ele>13.0</ele><time>2026-04-25T16:07:11.983Z</time></trkpt><trkpt lat="43.12509171927553" lon="5.906216560605929"><ele>12.666666666666666</ele><time>2026-04-25T16:07:12.983Z</time></trkpt><trkpt lat="43.12504533876162" lon="5.90592811698229"><ele>12.333333333333332</ele><time>2026-04-25T16:07:13.983Z</time></trkpt><trkpt lat="43.125008185284884" lon="5.9056348113361565"><ele>12.0</ele><time>2026-04-25T16:07:14.983Z</time></trkpt><trkpt lat="43.1249760714867" lon="5.905337423739891"><ele>10.666666666666666</ele><time>2026-04-25T16:07:15.983Z</time></trkpt><trkpt lat="43.124951887298856" lon="5.905045166242213"><ele>9.333333333333332</ele><time>2026-04-25T16:07:16.983Z</time></trkpt><trkpt lat="43.12492967573967" lon="5.904750539906797"><ele>8.0</ele><time>2026-04-25T16:07:17.983Z</time></trkpt><trkpt lat="43.12490416740818" lon="5.904451681904094"><ele>7.666666666666666</ele><time>2026-04-25T16:07:18.983Z</time></trkpt><trkpt lat="43.124880792004916" lon="5.90415244004374"><ele>7.333333333333334</ele><time>2026-04-25T16:07:19.983Z</time></trkpt><trkpt lat="43.124856400829515" lon="5.90385637237133"><ele>7.0</ele><time>2026-04-25T16:07:20.983Z</time></trkpt><trkpt lat="43.12482834825764" lon="5.903554169991187"><ele>7.666666666666667</ele><time>2026-04-25T16:07:21.983Z</time></trkpt><trkpt lat="43.124804776520264" lon="5.903255597001139"><ele>8.333333333333334</ele><time>2026-04-25T16:07:22.983Z</time></trkpt><trkpt lat="43.1247829518887" lon="5.902961341140082"><ele>9.0</ele><time>2026-04-25T16:07:23.983Z</time></trkpt><trkpt lat="43.12476883954418" lon="5.902667533082077"><ele>11.0</ele><time>2026-04-25T16:07:24.983Z</time></trkpt><trkpt lat="43.12475614580071" lon="5.902374196315719"><ele>13.0</ele><time>2026-04-25T16:07:25.983Z</time></trkpt><trkpt lat="43.124757081839334" lon="5.9020718290555605"><ele>15.0</ele><time>2026-04-25T16:07:26.983Z</time></trkpt><trkpt lat="43.124772952060205" lon="5.9017773216204015"><ele>15.333333333333332</ele><time>2026-04-25T16:07:27.983Z</time></trkpt><trkpt lat="43.124802532505136" lon="5.901477089721801"><ele>15.666666666666666</ele><time>2026-04-25T16:07:28.983Z</time></trkpt><trkpt lat="43.124841399049686" lon="5.901179666087648"><ele>16.0</ele><time>2026-04-25T16:07:29.983Z</time></trkpt><trkpt lat="43.12489917499233" lon="5.900886404308432"><ele>16.0</ele><time>2026-04-25T16:07:30.983Z</time></trkpt><trkpt lat="43.124970742849776" lon="5.9005986585956345"><ele>16.0</ele><time>2026-04-25T16:07:31.983Z</time></trkpt><trkpt lat="43.12505716356603" lon="5.900319606093407"><ele>16.0</ele><time>2026-04-25T16:07:32.983Z</time></trkpt><trkpt lat="43.125148836169636" lon="5.900055229944403"><ele>17.0</ele><time>2026-04-25T16:07:33.983Z</time></trkpt><trkpt lat="43.12523881344636" lon="5.899796409282829"><ele>18.0</ele><time>2026-04-25T16:07:34.983Z</time></trkpt><trkpt lat="43.125327616277424" lon="5.899545254172685"><ele>19.0</ele><time>2026-04-25T16:07:35.983Z</time></trkpt><trkpt lat="43.1254192530417" lon="5.8992969937193935"><ele>19.333333333333332</ele><time>2026-04-25T16:07:36.983Z</time></trkpt><trkpt lat="43.125513270411325" lon="5.89905025687547"><ele>19.666666666666668</ele><time>2026-04-25T16:07:37.983Z</time></trkpt><trkpt lat="43.125610368279496" lon="5.898800555577511"><ele>20.0</ele><time>2026-04-25T16:07:38.983Z</time></trkpt><trkpt lat="43.12570324044037" lon="5.898544158155056"><ele>18.0</ele><time>2026-04-25T16:07:39.983Z</time></trkpt><trkpt lat="43.125794783557815" lon="5.898282777836942"><ele>16.0</ele><time>2026-04-25T16:07:40.983Z</time></trkpt><trkpt lat="43.12588243032811" lon="5.898019865785037"><ele>14.0</ele><time>2026-04-25T16:07:41.983Z</time></trkpt><trkpt lat="43.12596900337444" lon="5.897761582385536"><ele>14.333333333333334</ele><time>2026-04-25T16:07:42.983Z</time></trkpt><trkpt lat="43.12605402554243" lon="5.897497007592895"><ele>14.666666666666668</ele><time>2026-04-25T16:07:43.983Z</time></trkpt><trkpt lat="43.12612899258743" lon="5.897248328862779"><ele>15.0</ele><time>2026-04-25T16:07:44.983Z</time></trkpt><trkpt lat="43.12619526460563" lon="5.8970156564292155"><ele>15.0</ele><time>2026-04-25T16:07:45.983Z</time></trkpt><trkpt lat="43.12625484191325" lon="5.896795354350555"><ele>15.0</ele><time>2026-04-25T16:07:46.983Z</time></trkpt><trkpt lat="43.126312309420705" lon="5.896583953686718"><ele>15.0</ele><time>2026-04-25T16:07:47.983Z</time></trkpt><trkpt lat="43.12636985433822" lon="5.896382768882624"><ele>15.0</ele><time>2026-04-25T16:07:48.983Z</time></trkpt><trkpt lat="43.12642395281895" lon="5.896190260559274"><ele>15.0</ele><time>2026-04-25T16:07:49.983Z</time></trkpt><trkpt lat="43.12647542891264" lon="5.896003101762098"><ele>15.0</ele><time>2026-04-25T16:07:50.983Z</time></trkpt><trkpt lat="43.12652675883486" lon="5.895819907841667"><ele>15.0</ele><time>2026-04-25T16:07:51.983Z</time></trkpt><trkpt lat="43.12657106549806" lon="5.8956450889048195"><ele>15.75</ele><time>2026-04-25T16:07:52.983Z</time></trkpt><trkpt lat="43.12661339937376" lon="5.895471606030451"><ele>16.5</ele><time>2026-04-25T16:07:53.983Z</time></trkpt><trkpt lat="43.12665179960163" lon="5.89530086243827"><ele>17.25</ele><time>2026-04-25T16:07:54.983Z</time></trkpt><trkpt lat="43.12668598381153" lon="5.895138824909074"><ele>18.0</ele><time>2026-04-25T16:07:55.983Z</time></trkpt><trkpt lat="43.126712536936125" lon="5.894976582395299"><ele>18.0</ele><time>2026-04-25T16:07:56.983Z</time></trkpt><trkpt lat="43.12673223026998" lon="5.894814429528757"><ele>18.0</ele><time>2026-04-25T16:07:57.983Z</time></trkpt><trkpt lat="43.12674133287021" lon="5.894646844124508"><ele>18.0</ele><time>2026-04-25T16:07:58.983Z</time></trkpt><trkpt lat="43.126739522799674" lon="5.8944722690015094"><ele>18.0</ele><time>2026-04-25T16:07:59.983Z</time></trkpt><trkpt lat="43.12672384528451" lon="5.894308144901575"><ele>18.0</ele><time>2026-04-25T16:08:00.983Z</time></trkpt><trkpt lat="43.12669422953483" lon="5.894142955116092"><ele>18.0</ele><time>2026-04-25T16:08:01.983Z</time></trkpt><trkpt lat="43.126647724380206" lon="5.893986528718023"><ele>18.0</ele><time>2026-04-25T16:08:02.983Z</time></trkpt><trkpt lat="43.126594519763714" lon="5.893839901782382"><ele>18.0</ele><time>2026-04-25T16:08:03.983Z</time></trkpt><trkpt lat="43.1265313540962" lon="5.893706098125269"><ele>17.0</ele><time>2026-04-25T16:08:04.983Z</time></trkpt><trkpt lat="43.12646656996928" lon="5.893578329204968"><ele>16.0</ele><time>2026-04-25T16:08:05.983Z</time></trkpt><trkpt lat="43.12638453602984" lon="5.89346709993649"><ele>15.0</ele><time>2026-04-25T16:08:06.983Z</time></trkpt><trkpt lat="43.12630461413613" lon="5.893356627477861"><ele>14.0</ele><time>2026-04-25T16:08:07.983Z</time></trkpt><trkpt lat="43.12620633498859" lon="5.893218782227473"><ele>12.75</ele><time>2026-04-25T16:08:08.983Z</time></trkpt><trkpt lat="43.12609455983311" lon="5.893088033924147"><ele>11.5</ele><time>2026-04-25T16:08:09.983Z</time></trkpt><trkpt lat="43.12598818108916" lon="5.89296558473617"><ele>10.25</ele><time>2026-04-25T16:08:10.983Z</time></trkpt><trkpt lat="43.12588457637326" lon="5.892836589343858"><ele>9.0</ele><time>2026-04-25T16:08:11.983Z</time></trkpt><trkpt lat="43.125791310827054" lon="5.892729416105857"><ele>9.0</ele><time>2026-04-25T16:08:12.983Z</time></trkpt><trkpt lat="43.12569951647586" lon="5.892613411549301"><ele>9.0</ele><time>2026-04-25T16:08:13.983Z</time></trkpt><trkpt lat="43.12560904767" lon="5.892497475280761"><ele>9.0</ele><time>2026-04-25T16:08:14.983Z</time></trkpt><trkpt lat="43.12551979692619" lon="5.892386752361364"><ele>9.0</ele><time>2026-04-25T16:08:15.983Z</time></trkpt><trkpt lat="43.125428377664235" lon="5.892264936768678"><ele>9.0</ele><time>2026-04-25T16:08:16.983Z</time></trkpt><trkpt lat="43.12533888444272" lon="5.892150001803563"><ele>9.0</ele><time>2026-04-25T16:08:17.983Z</time></trkpt><trkpt lat="43.125249590233935" lon="5.892041627945436"><ele>9.0</ele><time>2026-04-25T16:08:18.983Z</time></trkpt><trkpt lat="43.12517272951702" lon="5.891928681658922"><ele>9.0</ele><time>2026-04-25T16:08:19.983Z</time></trkpt><trkpt lat="43.125094172143335" lon="5.891836858426796"><ele>9.4</ele><time>2026-04-25T16:08:20.983Z</time></trkpt><trkpt lat="43.12501340865098" lon="5.891750917553521"><ele>9.8</ele><time>2026-04-25T16:08:21.983Z</time></trkpt><trkpt lat="43.12495146130384" lon="5.891676512639748"><ele>10.200000000000001</ele><time>2026-04-25T16:08:22.983Z</time></trkpt><trkpt lat="43.12488939273414" lon="5.891596089078074"><ele>10.600000000000001</ele><time>2026-04-25T16:08:23.983Z</time></trkpt><trkpt lat="43.124840225481826" lon="5.891526635046199"><ele>11.0</ele><time>2026-04-25T16:08:24.983Z</time></trkpt><trkpt lat="43.12475398678493" lon="5.891400924738327"><ele>11.0</ele><time>2026-04-25T16:08:26.983Z</time></trkpt><trkpt lat="43.124731460804256" lon="5.891312215931197"><ele>11.0</ele><time>2026-04-25T16:08:27.983Z</time></trkpt><trkpt lat="43.1247385498558" lon="5.891209088711639"><ele>11.0</ele><time>2026-04-25T16:08:28.983Z</time></trkpt><trkpt lat="43.12473427608964" lon="5.891097301526733"><ele>11.0</ele><time>2026-04-25T16:08:29.983Z</time></trkpt><trkpt lat="43.12470118986881" lon="5.891011992786736"><ele>11.0</ele><time>2026-04-25T16:08:30.983Z</time></trkpt><trkpt lat="43.124645420117815" lon="5.8909413357880265"><ele>11.0</ele><time>2026-04-25T16:08:31.983Z</time></trkpt><trkpt lat="43.12456576288319" lon="5.8908947035748795"><ele>11.600000000000001</ele><time>2026-04-25T16:08:32.983Z</time></trkpt><trkpt lat="43.124474470402646" lon="5.890897045087831"><ele>12.2</ele><time>2026-04-25T16:08:33.983Z</time></trkpt><trkpt lat="43.1243803250199" lon="5.890918095503455"><ele>12.799999999999999</ele><time>2026-04-25T16:08:34.983Z</time></trkpt><trkpt lat="43.12427545910557" lon="5.890911423890209"><ele>13.399999999999999</ele><time>2026-04-25T16:08:35.983Z</time></trkpt><trkpt lat="43.12416462061712" lon="5.890858977211669"><ele>14.0</ele><time>2026-04-25T16:08:36.983Z</time></trkpt><trkpt lat="43.12406135851247" lon="5.890793299077629"><ele>14.0</ele><time>2026-04-25T16:08:37.983Z</time></trkpt><trkpt lat="43.12395435855047" lon="5.890727013387982"><ele>14.0</ele><time>2026-04-25T16:08:38.983Z</time></trkpt><trkpt lat="43.1238453374749" lon="5.8906666860609604"><ele>14.0</ele><time>2026-04-25T16:08:39.983Z</time></trkpt><trkpt lat="43.12373136474268" lon="5.890614614834214"><ele>14.0</ele><time>2026-04-25T16:08:40.983Z</time></trkpt><trkpt lat="43.12361667523865" lon="5.890572692377272"><ele>14.0</ele><time>2026-04-25T16:08:41.983Z</time></trkpt><trkpt lat="43.12349761048253" lon="5.8905385933117955"><ele>14.0</ele><time>2026-04-25T16:08:42.983Z</time></trkpt><trkpt lat="43.12337973912941" lon="5.890512231989621"><ele>14.0</ele><time>2026-04-25T16:08:43.983Z</time></trkpt><trkpt lat="43.12325963721077" lon="5.890492842826507"><ele>14.0</ele><time>2026-04-25T16:08:44.983Z</time></trkpt><trkpt lat="43.12313822540528" lon="5.890528242443572"><ele>14.75</ele><time>2026-04-25T16:08:45.983Z</time></trkpt><trkpt lat="43.123015706394156" lon="5.890523435192517"><ele>15.5</ele><time>2026-04-25T16:08:46.983Z</time></trkpt><trkpt lat="43.122885093340926" lon="5.890527740538916"><ele>16.25</ele><time>2026-04-25T16:08:47.983Z</time></trkpt><trkpt lat="43.12276082687448" lon="5.890533596938977"><ele>17.0</ele><time>2026-04-25T16:08:48.983Z</time></trkpt><trkpt lat="43.12263981957111" lon="5.890538946869982"><ele>17.0</ele><time>2026-04-25T16:08:49.983Z</time></trkpt><trkpt lat="43.122519224216354" lon="5.890542709053302"><ele>17.0</ele><time>2026-04-25T16:08:50.983Z</time></trkpt><trkpt lat="43.12240145685609" lon="5.890547728837869"><ele>17.0</ele><time>2026-04-25T16:08:51.983Z</time></trkpt><trkpt lat="43.12228503182122" lon="5.890547006180263"><ele>17.0</ele><time>2026-04-25T16:08:52.983Z</time></trkpt><trkpt lat="43.122164920365066" lon="5.890545786640632"><ele>16.0</ele><time>2026-04-25T16:08:53.983Z</time></trkpt><trkpt lat="43.12204574072907" lon="5.890543608489447"><ele>15.0</ele><time>2026-04-25T16:08:54.983Z</time></trkpt><trkpt lat="43.12193175402521" lon="5.890531206005908"><ele>14.0</ele><time>2026-04-25T16:08:55.983Z</time></trkpt><trkpt lat="43.1218231984828" lon="5.890513970137052"><ele>13.0</ele><time>2026-04-25T16:08:56.983Z</time></trkpt><trkpt lat="43.12172516116998" lon="5.890481242815369"><ele>12.0</ele><time>2026-04-25T16:08:57.984Z</time></trkpt><trkpt lat="43.12163396516592" lon="5.890446525140716"><ele>11.166666666666666</ele><time>2026-04-25T16:08:58.983Z</time></trkpt><trkpt lat="43.12154280356539" lon="5.890407320811459"><ele>10.333333333333334</ele><time>2026-04-25T16:08:59.983Z</time></trkpt><trkpt lat="43.12145987678415" lon="5.8903704172381515"><ele>9.5</ele><time>2026-04-25T16:09:00.983Z</time></trkpt><trkpt lat="43.12137459140681" lon="5.890340970080966"><ele>8.666666666666668</ele><time>2026-04-25T16:09:01.983Z</time></trkpt><trkpt lat="43.12131433925455" lon="5.890288138674994"><ele>7.833333333333334</ele><time>2026-04-25T16:09:02.983Z</time></trkpt><trkpt lat="43.12126454144784" lon="5.890228156274125"><ele>7.0</ele><time>2026-04-25T16:09:03.983Z</time></trkpt><trkpt lat="43.12122638733115" lon="5.890136620218456"><ele>7.0</ele><time>2026-04-25T16:09:04.983Z</time></trkpt><trkpt lat="43.12119803231234" lon="5.890028006035059"><ele>6.999999999999999</ele><time>2026-04-25T16:09:05.983Z</time></trkpt><trkpt lat="43.121139974106" lon="5.889928558890185"><ele>6.999999999999999</ele><time>2026-04-25T16:09:06.984Z</time></trkpt><trkpt lat="43.1210764165776" lon="5.889844655483439"><ele>7.0</ele><time>2026-04-25T16:09:07.983Z</time></trkpt><trkpt lat="43.120990871863654" lon="5.889767785415965"><ele>7.0</ele><time>2026-04-25T16:09:08.983Z</time></trkpt><trkpt lat="43.120918318579115" lon="5.889673489802594"><ele>7.0</ele><time>2026-04-25T16:09:09.983Z</time></trkpt><trkpt lat="43.12085028160765" lon="5.889549573569938"><ele>7.0</ele><time>2026-04-25T16:09:10.983Z</time></trkpt><trkpt lat="43.12078558618771" lon="5.889413979210993"><ele>7.0</ele><time>2026-04-25T16:09:11.983Z</time></trkpt><trkpt lat="43.12072505267406" lon="5.889265218744883"><ele>7.0</ele><time>2026-04-25T16:09:12.983Z</time></trkpt><trkpt lat="43.12067213340498" lon="5.889102971947979"><ele>6.25</ele><time>2026-04-25T16:09:13.983Z</time></trkpt><trkpt lat="43.120615837394006" lon="5.888929764166668"><ele>5.5</ele><time>2026-04-25T16:09:14.983Z</time></trkpt><trkpt lat="43.12055061510344" lon="5.888766946200782"><ele>4.75</ele><time>2026-04-25T16:09:15.983Z</time></trkpt><trkpt lat="43.12048275539049" lon="5.888599445725688"><ele>4.0</ele><time>2026-04-25T16:09:16.983Z</time></trkpt><trkpt lat="43.12041305408475" lon="5.8884153918867765"><ele>4.0</ele><time>2026-04-25T16:09:17.983Z</time></trkpt><trkpt lat="43.12034305207319" lon="5.888226326779289"><ele>4.0</ele><time>2026-04-25T16:09:18.983Z</time></trkpt><trkpt lat="43.12027138972977" lon="5.888034992176972"><ele>4.0</ele><time>2026-04-25T16:09:19.983Z</time></trkpt><trkpt lat="43.12020026412537" lon="5.887846325778892"><ele>4.0</ele><time>2026-04-25T16:09:20.983Z</time></trkpt><trkpt lat="43.120127817687816" lon="5.887653924207126"><ele>4.0</ele><time>2026-04-25T16:09:21.983Z</time></trkpt><trkpt lat="43.12005730063425" lon="5.887462763933915"><ele>4.0</ele><time>2026-04-25T16:09:22.983Z</time></trkpt><trkpt lat="43.11999003033257" lon="5.887285235451615"><ele>4.0</ele><time>2026-04-25T16:09:23.983Z</time></trkpt><trkpt lat="43.11991324307115" lon="5.887091498155265"><ele>4.0</ele><time>2026-04-25T16:09:24.983Z</time></trkpt><trkpt lat="43.11982537386807" lon="5.886906124821059"><ele>4.0</ele><time>2026-04-25T16:09:25.983Z</time></trkpt><trkpt lat="43.11969624005846" lon="5.8867243891977274"><ele>3.6666666666666665</ele><time>2026-04-25T16:09:26.983Z</time></trkpt><trkpt lat="43.11955125045649" lon="5.88656738990178"><ele>3.333333333333333</ele><time>2026-04-25T16:09:27.983Z</time></trkpt><trkpt lat="43.11941636676635" lon="5.886436340208251"><ele>3.0</ele><time>2026-04-25T16:09:28.983Z</time></trkpt><trkpt lat="43.11928969857902" lon="5.886307309411611"><ele>3.0</ele><time>2026-04-25T16:09:29.983Z</time></trkpt><trkpt lat="43.11916796985374" lon="5.886182470276647"><ele>3.0</ele><time>2026-04-25T16:09:30.983Z</time></trkpt><trkpt lat="43.119055781456034" lon="5.886052336812166"><ele>3.0</ele><time>2026-04-25T16:09:31.983Z</time></trkpt><trkpt lat="43.11896347522812" lon="5.88589521093544"><ele>3.0</ele><time>2026-04-25T16:09:32.983Z</time></trkpt><trkpt lat="43.118897541256736" lon="5.885729385711577"><ele>3.0</ele><time>2026-04-25T16:09:33.983Z</time></trkpt><trkpt lat="43.118849060992915" lon="5.885551006689984"><ele>3.0</ele><time>2026-04-25T16:09:34.983Z</time></trkpt><trkpt lat="43.11881399204229" lon="5.885365817617673"><ele>3.0</ele><time>2026-04-25T16:09:35.983Z</time></trkpt><trkpt lat="43.118798088865375" lon="5.88518598687203"><ele>3.0</ele><time>2026-04-25T16:09:36.983Z</time></trkpt><trkpt lat="43.11878301719317" lon="5.885013624108195"><ele>3.0</ele><time>2026-04-25T16:09:37.983Z</time></trkpt><trkpt lat="43.118767379300124" lon="5.88485557675179"><ele>3.0</ele><time>2026-04-25T16:09:38.983Z</time></trkpt><trkpt lat="43.118748088297494" lon="5.884704544803953"><ele>3.0</ele><time>2026-04-25T16:09:39.983Z</time></trkpt><trkpt lat="43.118724988071484" lon="5.884560441604781"><ele>3.0</ele><time>2026-04-25T16:09:40.983Z</time></trkpt><trkpt lat="43.11869641612906" lon="5.884419966657449"><ele>3.0</ele><time>2026-04-25T16:09:41.983Z</time></trkpt><trkpt lat="43.118659697518346" lon="5.884295143993516"><ele>3.2</ele><time>2026-04-25T16:09:42.983Z</time></trkpt><trkpt lat="43.11861808599836" lon="5.88418880715403"><ele>3.4</ele><time>2026-04-25T16:09:43.983Z</time></trkpt><trkpt lat="43.11857724764459" lon="5.884099494224481"><ele>3.6000000000000005</ele><time>2026-04-25T16:09:44.983Z</time></trkpt><trkpt lat="43.11852567031624" lon="5.884026743341614"><ele>3.8000000000000003</ele><time>2026-04-25T16:09:45.983Z</time></trkpt><trkpt lat="43.11843600896889" lon="5.883924343357738"><ele>4.0</ele><time>2026-04-25T16:09:47.982Z</time></trkpt><trkpt lat="43.11836667716024" lon="5.883811133767986"><ele>4.0</ele><time>2026-04-25T16:09:49.982Z</time></trkpt><trkpt lat="43.11835280207135" lon="5.883714387164304"><ele>4.0</ele><time>2026-04-25T16:09:50.982Z</time></trkpt><trkpt lat="43.118354963299254" lon="5.883610685124228"><ele>4.0</ele><time>2026-04-25T16:09:51.982Z</time></trkpt><trkpt lat="43.11836156442085" lon="5.88352295395466"><ele>4.0</ele><time>2026-04-25T16:09:52.982Z</time></trkpt><trkpt lat="43.118329342776576" lon="5.883371554838115"><ele>4.0</ele><time>2026-04-25T16:09:54.982Z</time></trkpt><trkpt lat="43.11824506849168" lon="5.883244885341952"><ele>3.9999999999999996</ele><time>2026-04-25T16:09:56.982Z</time></trkpt><trkpt lat="43.11819707008375" lon="5.883167717522913"><ele>4.0</ele><time>2026-04-25T16:09:57.982Z</time></trkpt><trkpt lat="43.1180977636957" lon="5.883170562098663"><ele>4.0</ele><time>2026-04-25T16:09:58.982Z</time></trkpt><trkpt lat="43.118018990317644" lon="5.8831843270187445"><ele>4.0</ele><time>2026-04-25T16:09:59.982Z</time></trkpt><trkpt lat="43.11793914331699" lon="5.883227018191747"><ele>3.9999999999999996</ele><time>2026-04-25T16:10:00.982Z</time></trkpt><trkpt lat="43.1178661072027" lon="5.883285914813845"><ele>4.0</ele><time>2026-04-25T16:10:01.982Z</time></trkpt><trkpt lat="43.11780630565724" lon="5.883366311514351"><ele>4.166666666666666</ele><time>2026-04-25T16:10:02.982Z</time></trkpt><trkpt lat="43.11775893657529" lon="5.883451885952478"><ele>4.333333333333333</ele><time>2026-04-25T16:10:03.982Z</time></trkpt><trkpt lat="43.117734169952044" lon="5.883542436360194"><ele>4.5</ele><time>2026-04-25T16:10:04.982Z</time></trkpt><trkpt lat="43.11765420674147" lon="5.883599921785701"><ele>4.666666666666667</ele><time>2026-04-25T16:10:05.982Z</time></trkpt><trkpt lat="43.1175948311635" lon="5.88364564123459"><ele>4.833333333333334</ele><time>2026-04-25T16:10:06.982Z</time></trkpt><trkpt lat="43.11752639164323" lon="5.883678568019896"><ele>5.0</ele><time>2026-04-25T16:10:07.982Z</time></trkpt><trkpt lat="43.11743968094297" lon="5.883703536590488"><ele>4.5</ele><time>2026-04-25T16:10:08.982Z</time></trkpt><trkpt lat="43.1173430183739" lon="5.883728870694389"><ele>4.0</ele><time>2026-04-25T16:10:09.982Z</time></trkpt><trkpt lat="43.117211747075835" lon="5.8837603322338845"><ele>3.5</ele><time>2026-04-25T16:10:10.982Z</time></trkpt><trkpt lat="43.11705649424491" lon="5.883776105508628"><ele>3.0</ele><time>2026-04-25T16:10:11.982Z</time></trkpt><trkpt lat="43.11687795592832" lon="5.883752631486781"><ele>3.0</ele><time>2026-04-25T16:10:12.982Z</time></trkpt><trkpt lat="43.116702987075634" lon="5.883717962217901"><ele>3.0</ele><time>2026-04-25T16:10:13.982Z</time></trkpt><trkpt lat="43.11653572318857" lon="5.883685504219449"><ele>3.0</ele><time>2026-04-25T16:10:14.982Z</time></trkpt><trkpt lat="43.11637543172889" lon="5.883643365014185"><ele>3.666666666666667</ele><time>2026-04-25T16:10:15.982Z</time></trkpt><trkpt lat="43.11622201694079" lon="5.8836050779637"><ele>4.333333333333334</ele><time>2026-04-25T16:10:16.982Z</time></trkpt><trkpt lat="43.116077795095585" lon="5.883571341132678"><ele>5.0</ele><time>2026-04-25T16:10:17.982Z</time></trkpt><trkpt lat="43.11593047651821" lon="5.883535384312603"><ele>5.0</ele><time>2026-04-25T16:10:18.982Z</time></trkpt><trkpt lat="43.115783965992655" lon="5.88349584975804"><ele>5.0</ele><time>2026-04-25T16:10:19.982Z</time></trkpt><trkpt lat="43.11563474526353" lon="5.8834531239822825"><ele>5.0</ele><time>2026-04-25T16:10:20.982Z</time></trkpt><trkpt lat="43.11548243189462" lon="5.883410011088357"><ele>4.666666666666667</ele><time>2026-04-25T16:10:21.982Z</time></trkpt><trkpt lat="43.115327752652924" lon="5.8833716316514995"><ele>4.333333333333333</ele><time>2026-04-25T16:10:22.982Z</time></trkpt><trkpt lat="43.115170751050506" lon="5.883334394339533"><ele>4.0</ele><time>2026-04-25T16:10:23.982Z</time></trkpt><trkpt lat="43.11501668213356" lon="5.883293255838576"><ele>6.0</ele><time>2026-04-25T16:10:24.982Z</time></trkpt><trkpt lat="43.11486342754089" lon="5.8832519923277955"><ele>8.0</ele><time>2026-04-25T16:10:25.982Z</time></trkpt><trkpt lat="43.11471234470313" lon="5.883214328891508"><ele>10.0</ele><time>2026-04-25T16:10:26.982Z</time></trkpt><trkpt lat="43.11456051045503" lon="5.883174330641928"><ele>10.0</ele><time>2026-04-25T16:10:27.982Z</time></trkpt><trkpt lat="43.114410100189566" lon="5.883139022215932"><ele>10.0</ele><time>2026-04-25T16:10:28.982Z</time></trkpt><trkpt lat="43.11424980706857" lon="5.883108982366635"><ele>10.0</ele><time>2026-04-25T16:10:29.982Z</time></trkpt><trkpt lat="43.11406448921233" lon="5.883098816489868"><ele>9.666666666666668</ele><time>2026-04-25T16:10:30.982Z</time></trkpt><trkpt lat="43.113893143448536" lon="5.883133718886454"><ele>9.333333333333334</ele><time>2026-04-25T16:10:31.982Z</time></trkpt><trkpt lat="43.11373905194201" lon="5.883193002677301"><ele>9.0</ele><time>2026-04-25T16:10:32.982Z</time></trkpt><trkpt lat="43.11360364118953" lon="5.883279693485425"><ele>9.0</ele><time>2026-04-25T16:10:33.982Z</time></trkpt><trkpt lat="43.11348282397332" lon="5.8833633481966485"><ele>9.0</ele><time>2026-04-25T16:10:34.982Z</time></trkpt><trkpt lat="43.11336501607942" lon="5.883433483138915"><ele>9.0</ele><time>2026-04-25T16:10:35.982Z</time></trkpt><trkpt lat="43.11324821859709" lon="5.883492653349431"><ele>9.0</ele><time>2026-04-25T16:10:36.982Z</time></trkpt><trkpt lat="43.11313518909457" lon="5.8835293715198755"><ele>7.75</ele><time>2026-04-25T16:10:37.982Z</time></trkpt><trkpt lat="43.11301921650927" lon="5.883533329486742"><ele>6.5</ele><time>2026-04-25T16:10:38.982Z</time></trkpt><trkpt lat="43.112897132906845" lon="5.883513578423478"><ele>5.25</ele><time>2026-04-25T16:10:39.982Z</time></trkpt><trkpt lat="43.1127770541279" lon="5.8834569787220286"><ele>4.0</ele><time>2026-04-25T16:10:40.982Z</time></trkpt><trkpt lat="43.11266112664396" lon="5.88337177401637"><ele>4.0</ele><time>2026-04-25T16:10:41.982Z</time></trkpt><trkpt lat="43.1125551902571" lon="5.883283988024629"><ele>4.0</ele><time>2026-04-25T16:10:42.982Z</time></trkpt><trkpt lat="43.11244622809296" lon="5.883206232891481"><ele>4.0</ele><time>2026-04-25T16:10:43.982Z</time></trkpt><trkpt lat="43.1123319689612" lon="5.883141492328964"><ele>4.0</ele><time>2026-04-25T16:10:44.982Z</time></trkpt><trkpt lat="43.11221295283237" lon="5.883083795518156"><ele>3.5</ele><time>2026-04-25T16:10:45.982Z</time></trkpt><trkpt lat="43.112097806447046" lon="5.883024067530214"><ele>3.0</ele><time>2026-04-25T16:10:46.982Z</time></trkpt><trkpt lat="43.11198661017821" lon="5.882954038187379"><ele>2.5</ele><time>2026-04-25T16:10:47.982Z</time></trkpt><trkpt lat="43.111872617603076" lon="5.882883205112803"><ele>2.0</ele><time>2026-04-25T16:10:48.982Z</time></trkpt><trkpt lat="43.111759723833906" lon="5.882816419234796"><ele>2.0</ele><time>2026-04-25T16:10:49.982Z</time></trkpt><trkpt lat="43.1116540930018" lon="5.882723331729432"><ele>2.0</ele><time>2026-04-25T16:10:50.982Z</time></trkpt><trkpt lat="43.11156238715086" lon="5.88260453540625"><ele>2.0</ele><time>2026-04-25T16:10:51.982Z</time></trkpt><trkpt lat="43.1115095401433" lon="5.882460528740009"><ele>2.0</ele><time>2026-04-25T16:10:52.982Z</time></trkpt><trkpt lat="43.11149309817803" lon="5.882293759290284"><ele>2.5</ele><time>2026-04-25T16:10:53.982Z</time></trkpt><trkpt lat="43.11147736990425" lon="5.882123899466587"><ele>3.0</ele><time>2026-04-25T16:10:54.982Z</time></trkpt><trkpt lat="43.11145981262366" lon="5.881953461874771"><ele>3.5</ele><time>2026-04-25T16:10:55.982Z</time></trkpt><trkpt lat="43.111444383322336" lon="5.881785413982413"><ele>4.0</ele><time>2026-04-25T16:10:56.982Z</time></trkpt><trkpt lat="43.11142629221764" lon="5.881641764629501"><ele>3.9999999999999996</ele><time>2026-04-25T16:10:57.982Z</time></trkpt><trkpt lat="43.11141005849408" lon="5.881508891353249"><ele>4.0</ele><time>2026-04-25T16:10:58.982Z</time></trkpt><trkpt lat="43.11139757704724" lon="5.881390476165615"><ele>4.0</ele><time>2026-04-25T16:10:59.982Z</time></trkpt><trkpt lat="43.11138625608274" lon="5.881284662058224"><ele>4.0</ele><time>2026-04-25T16:11:00.984Z</time></trkpt><trkpt lat="43.111374222496245" lon="5.881181298003463"><ele>3.9999999999999996</ele><time>2026-04-25T16:11:01.983Z</time></trkpt><trkpt lat="43.11136531936596" lon="5.881081683290624"><ele>4.0</ele><time>2026-04-25T16:11:02.983Z</time></trkpt><trkpt lat="43.11136038250425" lon="5.8809903739812315"><ele>3.4000000000000004</ele><time>2026-04-25T16:11:03.983Z</time></trkpt><trkpt lat="43.11134912761223" lon="5.880871919761765"><ele>2.8000000000000003</ele><time>2026-04-25T16:11:04.983Z</time></trkpt><trkpt lat="43.111331989021195" lon="5.880721077307035"><ele>2.2</ele><time>2026-04-25T16:11:05.983Z</time></trkpt><trkpt lat="43.111314698492386" lon="5.880578830516232"><ele>1.6</ele><time>2026-04-25T16:11:06.983Z</time></trkpt><trkpt lat="43.11129438658679" lon="5.880423505705883"><ele>1.0</ele><time>2026-04-25T16:11:07.984Z</time></trkpt><trkpt lat="43.111272937971684" lon="5.880255749926525"><ele>0.75</ele><time>2026-04-25T16:11:08.984Z</time></trkpt><trkpt lat="43.11124565548272" lon="5.880075037404961"><ele>0.5</ele><time>2026-04-25T16:11:09.983Z</time></trkpt><trkpt lat="43.11122080546712" lon="5.879909200605755"><ele>0.25</ele><time>2026-04-25T16:11:10.984Z</time></trkpt><trkpt lat="43.111178525001485" lon="5.8797508660065585"><ele>0.0</ele><time>2026-04-25T16:11:11.984Z</time></trkpt><trkpt lat="43.1111265565323" lon="5.879617816002264"><ele>0.0</ele><time>2026-04-25T16:11:12.983Z</time></trkpt><trkpt lat="43.11107287141389" lon="5.879498132914822"><ele>0.0</ele><time>2026-04-25T16:11:13.984Z</time></trkpt><trkpt lat="43.11102112553032" lon="5.879392197269268"><ele>0.0</ele><time>2026-04-25T16:11:14.984Z</time></trkpt><trkpt lat="43.11096992652264" lon="5.879297900915645"><ele>0.0</ele><time>2026-04-25T16:11:15.984Z</time></trkpt><trkpt lat="43.11091108975501" lon="5.879217195527079"><ele>0.0</ele><time>2026-04-25T16:11:16.984Z</time></trkpt><trkpt lat="43.11084400698992" lon="5.879135300480588"><ele>0.75</ele><time>2026-04-25T16:11:17.984Z</time></trkpt><trkpt lat="43.110771409429795" lon="5.879028708520376"><ele>1.5</ele><time>2026-04-25T16:11:18.984Z</time></trkpt><trkpt lat="43.110675779178194" lon="5.878959342523426"><ele>2.25</ele><time>2026-04-25T16:11:19.984Z</time></trkpt><trkpt lat="43.11056142300179" lon="5.878916636038498"><ele>3.0</ele><time>2026-04-25T16:11:20.984Z</time></trkpt><trkpt lat="43.11043716395887" lon="5.878844319874468"><ele>3.0</ele><time>2026-04-25T16:11:21.984Z</time></trkpt><trkpt lat="43.1103144708961" lon="5.878776883694541"><ele>3.0</ele><time>2026-04-25T16:11:22.984Z</time></trkpt><trkpt lat="43.11019524224252" lon="5.878729809230107"><ele>3.0</ele><time>2026-04-25T16:11:23.984Z</time></trkpt><trkpt lat="43.110080411436435" lon="5.8786748077999915"><ele>3.0</ele><time>2026-04-25T16:11:24.984Z</time></trkpt><trkpt lat="43.10997031063576" lon="5.878622880098841"><ele>2.8</ele><time>2026-04-25T16:11:25.984Z</time></trkpt><trkpt lat="43.1098638301573" lon="5.878570161905187"><ele>2.5999999999999996</ele><time>2026-04-25T16:11:26.984Z</time></trkpt><trkpt lat="43.10976362955566" lon="5.878522106084474"><ele>2.4000000000000004</ele><time>2026-04-25T16:11:27.984Z</time></trkpt><trkpt lat="43.10967600828252" lon="5.878481915245175"><ele>2.2</ele><time>2026-04-25T16:11:28.984Z</time></trkpt><trkpt lat="43.109596156362" lon="5.878441685330671"><ele>2.0</ele><time>2026-04-25T16:11:29.984Z</time></trkpt><trkpt lat="43.10952284611406" lon="5.8784110561391145"><ele>1.9999999999999998</ele><time>2026-04-25T16:11:30.984Z</time></trkpt><trkpt lat="43.109453020627086" lon="5.878381850184523"><ele>2.0</ele><time>2026-04-25T16:11:31.984Z</time></trkpt><trkpt lat="43.1093869299453" lon="5.8783555730924455"><ele>2.0</ele><time>2026-04-25T16:11:32.984Z</time></trkpt><trkpt lat="43.10932221036926" lon="5.878325341679119"><ele>2.0</ele><time>2026-04-25T16:11:33.983Z</time></trkpt><trkpt lat="43.109252640400705" lon="5.8782921679501845"><ele>1.9999999999999998</ele><time>2026-04-25T16:11:34.983Z</time></trkpt><trkpt lat="43.109174232650545" lon="5.878255952601981"><ele>2.0</ele><time>2026-04-25T16:11:35.983Z</time></trkpt><trkpt lat="43.109092660784206" lon="5.878214046364698"><ele>1.8333333333333333</ele><time>2026-04-25T16:11:36.983Z</time></trkpt><trkpt lat="43.109012989357666" lon="5.878171974815085"><ele>1.6666666666666665</ele><time>2026-04-25T16:11:37.983Z</time></trkpt><trkpt lat="43.108933970670286" lon="5.878133966487118"><ele>1.5</ele><time>2026-04-25T16:11:38.983Z</time></trkpt><trkpt lat="43.108858929239" lon="5.87809950971894"><ele>1.3333333333333333</ele><time>2026-04-25T16:11:39.983Z</time></trkpt><trkpt lat="43.10879040269854" lon="5.878066852441353"><ele>1.1666666666666665</ele><time>2026-04-25T16:11:40.983Z</time></trkpt><trkpt lat="43.10872596949984" lon="5.878036523058377"><ele>1.0</ele><time>2026-04-25T16:11:41.983Z</time></trkpt><trkpt lat="43.108662273141015" lon="5.878005523521334"><ele>0.9999999999999999</ele><time>2026-04-25T16:11:42.983Z</time></trkpt><trkpt lat="43.108600263501756" lon="5.877974495292566"><ele>1.0</ele><time>2026-04-25T16:11:43.983Z</time></trkpt><trkpt lat="43.108536190030456" lon="5.877947528365235"><ele>1.0</ele><time>2026-04-25T16:11:44.983Z</time></trkpt><trkpt lat="43.10847045100051" lon="5.877925701223542"><ele>1.0</ele><time>2026-04-25T16:11:45.983Z</time></trkpt><trkpt lat="43.10840667890704" lon="5.877903955052746"><ele>0.9999999999999999</ele><time>2026-04-25T16:11:46.983Z</time></trkpt><trkpt lat="43.10829881226193" lon="5.877857032289647"><ele>1.0</ele><time>2026-04-25T16:11:48.983Z</time></trkpt><trkpt lat="43.10820181847366" lon="5.877801205726334"><ele>1.3333333333333333</ele><time>2026-04-25T16:11:50.983Z</time></trkpt><trkpt lat="43.10809440951168" lon="5.877750504319753"><ele>1.6666666666666665</ele><time>2026-04-25T16:11:52.983Z</time></trkpt><trkpt lat="43.10803285835619" lon="5.877723235528968"><ele>2.0</ele><time>2026-04-25T16:11:53.983Z</time></trkpt><trkpt lat="43.10797262248448" lon="5.877693601978046"><ele>2.3333333333333335</ele><time>2026-04-25T16:11:54.983Z</time></trkpt><trkpt lat="43.107901428982835" lon="5.877656071574784"><ele>2.6666666666666665</ele><time>2026-04-25T16:11:55.983Z</time></trkpt><trkpt lat="43.10783207680944" lon="5.877628355668856"><ele>3.0</ele><time>2026-04-25T16:11:56.983Z</time></trkpt><trkpt lat="43.107767294048934" lon="5.8776160491290295"><ele>3.0</ele><time>2026-04-25T16:11:57.983Z</time></trkpt><trkpt lat="43.107700810674885" lon="5.877530541668125"><ele>3.0</ele><time>2026-04-25T16:11:58.983Z</time></trkpt><trkpt lat="43.10762560274562" lon="5.877638464984265"><ele>3.0</ele><time>2026-04-25T16:11:59.983Z</time></trkpt><trkpt lat="43.10754601369853" lon="5.8776958942796025"><ele>3.0</ele><time>2026-04-25T16:12:00.983Z</time></trkpt><trkpt lat="43.10747012276752" lon="5.877771307970431"><ele>3.0</ele><time>2026-04-25T16:12:01.983Z</time></trkpt><trkpt lat="43.10739289965662" lon="5.877848101109721"><ele>3.0</ele><time>2026-04-25T16:12:02.983Z</time></trkpt><trkpt lat="43.1073174422011" lon="5.877918544034571"><ele>3.0</ele><time>2026-04-25T16:12:03.983Z</time></trkpt><trkpt lat="43.10723796175289" lon="5.87798828992486"><ele>3.0</ele><time>2026-04-25T16:12:04.983Z</time></trkpt><trkpt lat="43.107147243367216" lon="5.878065083541231"><ele>3.0</ele><time>2026-04-25T16:12:05.983Z</time></trkpt><trkpt lat="43.107048525286515" lon="5.878145412282466"><ele>3.0</ele><time>2026-04-25T16:12:06.983Z</time></trkpt><trkpt lat="43.10695015959485" lon="5.878222979033636"><ele>3.0</ele><time>2026-04-25T16:12:07.983Z</time></trkpt><trkpt lat="43.10685165000607" lon="5.878297278498688"><ele>3.0</ele><time>2026-04-25T16:12:08.983Z</time></trkpt><trkpt lat="43.106744228076394" lon="5.878357189513601"><ele>3.0</ele><time>2026-04-25T16:12:09.983Z</time></trkpt><trkpt lat="43.10663068585895" lon="5.878421007920672"><ele>3.0</ele><time>2026-04-25T16:12:10.983Z</time></trkpt><trkpt lat="43.10651314525125" lon="5.878460241620139"><ele>2.8</ele><time>2026-04-25T16:12:11.983Z</time></trkpt><trkpt lat="43.106403007484936" lon="5.878496607228621"><ele>2.5999999999999996</ele><time>2026-04-25T16:12:12.983Z</time></trkpt><trkpt lat="43.10629322360603" lon="5.878528067144691"><ele>2.4000000000000004</ele><time>2026-04-25T16:12:13.983Z</time></trkpt><trkpt lat="43.1061893153129" lon="5.878566008527736"><ele>2.2</ele><time>2026-04-25T16:12:14.983Z</time></trkpt><trkpt lat="43.106090038706256" lon="5.878599294258807"><ele>2.0</ele><time>2026-04-25T16:12:15.983Z</time></trkpt><trkpt lat="43.105990645741095" lon="5.878635562360176"><ele>2.0</ele><time>2026-04-25T16:12:16.983Z</time></trkpt><trkpt lat="43.10588418579842" lon="5.878671785995255"><ele>2.0</ele><time>2026-04-25T16:12:17.983Z</time></trkpt><trkpt lat="43.10577178622643" lon="5.8787128620494125"><ele>2.0</ele><time>2026-04-25T16:12:18.983Z</time></trkpt><trkpt lat="43.10566705667638" lon="5.878758646528508"><ele>2.0</ele><time>2026-04-25T16:12:19.983Z</time></trkpt><trkpt lat="43.10556566253625" lon="5.87880595002293"><ele>2.0</ele><time>2026-04-25T16:12:20.983Z</time></trkpt><trkpt lat="43.10546526287882" lon="5.878851621407259"><ele>2.4000000000000004</ele><time>2026-04-25T16:12:21.983Z</time></trkpt><trkpt lat="43.105363994078736" lon="5.878893123500733"><ele>2.8000000000000003</ele><time>2026-04-25T16:12:22.983Z</time></trkpt><trkpt lat="43.10526138373351" lon="5.878937707906124"><ele>3.2</ele><time>2026-04-25T16:12:23.983Z</time></trkpt><trkpt lat="43.1051591999271" lon="5.8789854173429354"><ele>3.6</ele><time>2026-04-25T16:12:24.983Z</time></trkpt><trkpt lat="43.10505519837498" lon="5.879036821521332"><ele>4.0</ele><time>2026-04-25T16:12:25.983Z</time></trkpt><trkpt lat="43.10495129805933" lon="5.879085981509091"><ele>4.0</ele><time>2026-04-25T16:12:26.983Z</time></trkpt><trkpt lat="43.10484556524532" lon="5.879133680806022"><ele>4.0</ele><time>2026-04-25T16:12:27.983Z</time></trkpt><trkpt lat="43.10473955925577" lon="5.879178950217423"><ele>4.0</ele><time>2026-04-25T16:12:28.983Z</time></trkpt><trkpt lat="43.10463349023912" lon="5.879225437778771"><ele>4.0</ele><time>2026-04-25T16:12:29.983Z</time></trkpt><trkpt lat="43.1045316494353" lon="5.879271219592923"><ele>4.0</ele><time>2026-04-25T16:12:30.983Z</time></trkpt><trkpt lat="43.10442905029724" lon="5.879317739704273"><ele>4.0</ele><time>2026-04-25T16:12:31.983Z</time></trkpt><trkpt lat="43.104330193670734" lon="5.879364972792257"><ele>4.0</ele><time>2026-04-25T16:12:32.983Z</time></trkpt><trkpt lat="43.10424219235732" lon="5.8794081838404875"><ele>4.0</ele><time>2026-04-25T16:12:33.983Z</time></trkpt><trkpt lat="43.10416965829215" lon="5.879439286419155"><ele>4.0</ele><time>2026-04-25T16:12:34.983Z</time></trkpt><trkpt lat="43.10406364493456" lon="5.879495985853276"><ele>4.0</ele><time>2026-04-25T16:12:36.983Z</time></trkpt><trkpt lat="43.103998892892925" lon="5.879528591374156"><ele>4.0</ele><time>2026-04-25T16:12:39.983Z</time></trkpt><trkpt lat="43.10390624386065" lon="5.879571657340461"><ele>4.0</ele><time>2026-04-25T16:13:08.984Z</time></trkpt><trkpt lat="43.10380036620038" lon="5.879631792149843"><ele>4.0</ele><time>2026-04-25T16:13:10.983Z</time></trkpt><trkpt lat="43.103735120138445" lon="5.879670252151113"><ele>4.0</ele><time>2026-04-25T16:13:11.983Z</time></trkpt><trkpt lat="43.10365728511153" lon="5.879719034697097"><ele>4.0</ele><time>2026-04-25T16:13:12.984Z</time></trkpt><trkpt lat="43.10356382995487" lon="5.87980267620273"><ele>4.0</ele><time>2026-04-25T16:13:13.984Z</time></trkpt><trkpt lat="43.103469855969124" lon="5.87991427497624"><ele>4.0</ele><time>2026-04-25T16:13:14.984Z</time></trkpt><trkpt lat="43.10339692853788" lon="5.88002556668974"><ele>4.0</ele><time>2026-04-25T16:13:15.983Z</time></trkpt><trkpt lat="43.10333729572996" lon="5.8801358486676385"><ele>4.0</ele><time>2026-04-25T16:13:16.984Z</time></trkpt><trkpt lat="43.103304030549445" lon="5.880249733950862"><ele>4.0</ele><time>2026-04-25T16:13:17.984Z</time></trkpt><trkpt lat="43.10326685510407" lon="5.880339278514529"><ele>4.333333333333333</ele><time>2026-04-25T16:13:18.984Z</time></trkpt><trkpt lat="43.10322489662273" lon="5.880453598721869"><ele>4.666666666666666</ele><time>2026-04-25T16:13:20.984Z</time></trkpt><trkpt lat="43.103199503644895" lon="5.88055602279295"><ele>5.0</ele><time>2026-04-25T16:13:25.984Z</time></trkpt><trkpt lat="43.10314436212819" lon="5.880654303732894"><ele>5.333333333333333</ele><time>2026-04-25T16:13:27.984Z</time></trkpt><trkpt lat="43.103095664415996" lon="5.880729206650646"><ele>5.666666666666667</ele><time>2026-04-25T16:13:28.984Z</time></trkpt><trkpt lat="43.10301207539642" lon="5.880796144634973"><ele>6.0</ele><time>2026-04-25T16:13:29.984Z</time></trkpt><trkpt lat="43.10292152783882" lon="5.880845251627882"><ele>6.0</ele><time>2026-04-25T16:13:30.984Z</time></trkpt><trkpt lat="43.102821897721654" lon="5.880888051535578"><ele>6.0</ele><time>2026-04-25T16:13:31.984Z</time></trkpt><trkpt lat="43.102735297814455" lon="5.880944230906273"><ele>6.0</ele><time>2026-04-25T16:13:32.984Z</time></trkpt><trkpt lat="43.1026586402534" lon="5.880985764373023"><ele>6.0</ele><time>2026-04-25T16:13:33.984Z</time></trkpt><trkpt lat="43.10257494311888" lon="5.881035441036708"><ele>6.0</ele><time>2026-04-25T16:13:34.984Z</time></trkpt><trkpt lat="43.10248326580335" lon="5.881108346055999"><ele>5.833333333333333</ele><time>2026-04-25T16:13:35.984Z</time></trkpt><trkpt lat="43.10241783727909" lon="5.881156701427281"><ele>5.666666666666667</ele><time>2026-04-25T16:13:36.984Z</time></trkpt><trkpt lat="43.10235953365699" lon="5.881201927126581"><ele>5.5</ele><time>2026-04-25T16:13:37.984Z</time></trkpt><trkpt lat="43.10230578571482" lon="5.8812511118499895"><ele>5.333333333333334</ele><time>2026-04-25T16:13:38.984Z</time></trkpt><trkpt lat="43.10220883921598" lon="5.881281271014137"><ele>5.166666666666667</ele><time>2026-04-25T16:13:39.984Z</time></trkpt><trkpt lat="43.102121246389885" lon="5.881338159950928"><ele>5.0</ele><time>2026-04-25T16:13:40.984Z</time></trkpt><trkpt lat="43.10204868033283" lon="5.88139156330334"><ele>5.0</ele><time>2026-04-25T16:13:41.984Z</time></trkpt><trkpt lat="43.1019737055638" lon="5.881435422548561"><ele>5.0</ele><time>2026-04-25T16:13:42.984Z</time></trkpt><trkpt lat="43.10190125591675" lon="5.881483196731132"><ele>5.0</ele><time>2026-04-25T16:13:43.984Z</time></trkpt><trkpt lat="43.101840135908446" lon="5.881509621818359"><ele>5.0</ele><time>2026-04-25T16:13:44.984Z</time></trkpt><trkpt lat="43.101773408630834" lon="5.881554531503394"><ele>5.0</ele><time>2026-04-25T16:13:45.984Z</time></trkpt><trkpt lat="43.10169684806098" lon="5.8816097194169075"><ele>5.0</ele><time>2026-04-25T16:13:46.984Z</time></trkpt><trkpt lat="43.10161140912312" lon="5.8816761748418145"><ele>5.0</ele><time>2026-04-25T16:13:47.984Z</time></trkpt><trkpt lat="43.10152993769586" lon="5.881725273151933"><ele>5.0</ele><time>2026-04-25T16:13:48.984Z</time></trkpt><trkpt lat="43.101447029002394" lon="5.881768514239139"><ele>5.0</ele><time>2026-04-25T16:13:49.984Z</time></trkpt><trkpt lat="43.10137521199911" lon="5.881819017582412"><ele>5.0</ele><time>2026-04-25T16:13:50.984Z</time></trkpt><trkpt lat="43.10130008327712" lon="5.881871454062483"><ele>5.0</ele><time>2026-04-25T16:13:51.984Z</time></trkpt><trkpt lat="43.10122503567763" lon="5.881916458369838"><ele>5.0</ele><time>2026-04-25T16:13:52.984Z</time></trkpt><trkpt lat="43.10115934880428" lon="5.881954556280999"><ele>4.6</ele><time>2026-04-25T16:13:53.984Z</time></trkpt><trkpt lat="43.101062795764115" lon="5.882019433723047"><ele>4.2</ele><time>2026-04-25T16:13:55.984Z</time></trkpt><trkpt lat="43.100999940509574" lon="5.8820498243430395"><ele>3.8</ele><time>2026-04-25T16:13:57.984Z</time></trkpt><trkpt lat="43.10090116849373" lon="5.882113630875251"><ele>3.4</ele><time>2026-04-25T16:13:59.984Z</time></trkpt><trkpt lat="43.10081646140734" lon="5.882174029632513"><ele>3.0</ele><time>2026-04-25T16:14:01.984Z</time></trkpt><trkpt lat="43.100746324172036" lon="5.882195273499817"><ele>4.0</ele><time>2026-04-25T16:14:03.984Z</time></trkpt><trkpt lat="43.100683465646306" lon="5.882233630702581"><ele>5.0</ele><time>2026-04-25T16:14:05.984Z</time></trkpt><trkpt lat="43.10062114186978" lon="5.882269960924332"><ele>6.000000000000001</ele><time>2026-04-25T16:14:07.984Z</time></trkpt><trkpt lat="43.10051063984398" lon="5.882327375684879"><ele>7.0</ele><time>2026-04-25T16:14:09.984Z</time></trkpt><trkpt lat="43.10041734485627" lon="5.882380978518835"><ele>8.0</ele><time>2026-04-25T16:14:10.984Z</time></trkpt><trkpt lat="43.100328519588196" lon="5.882426858445617"><ele>7.999999999999999</ele><time>2026-04-25T16:14:11.984Z</time></trkpt><trkpt lat="43.100245644384515" lon="5.882473568808214"><ele>8.0</ele><time>2026-04-25T16:14:12.984Z</time></trkpt><trkpt lat="43.10016281078572" lon="5.882535713302784"><ele>8.0</ele><time>2026-04-25T16:14:13.984Z</time></trkpt><trkpt lat="43.100083681569046" lon="5.882565148841058"><ele>8.0</ele><time>2026-04-25T16:14:14.984Z</time></trkpt><trkpt lat="43.100010998068775" lon="5.882610111452376"><ele>7.999999999999999</ele><time>2026-04-25T16:14:15.984Z</time></trkpt><trkpt lat="43.099947953290126" lon="5.882650230883203"><ele>8.0</ele><time>2026-04-25T16:14:16.984Z</time></trkpt><trkpt lat="43.0998572016332" lon="5.882710159940602"><ele>8.166666666666666</ele><time>2026-04-25T16:14:18.984Z</time></trkpt><trkpt lat="43.099783143786325" lon="5.882769099495053"><ele>8.333333333333332</ele><time>2026-04-25T16:14:20.984Z</time></trkpt><trkpt lat="43.099717064985775" lon="5.882817815977923"><ele>8.5</ele><time>2026-04-25T16:14:22.984Z</time></trkpt><trkpt lat="43.09965422572535" lon="5.882851161459332"><ele>8.666666666666666</ele><time>2026-04-25T16:14:27.983Z</time></trkpt><trkpt lat="43.09961135906588" lon="5.882924684569081"><ele>8.833333333333334</ele><time>2026-04-25T16:14:42.983Z</time></trkpt><trkpt lat="43.09955171302041" lon="5.882992457641278"><ele>9.0</ele><time>2026-04-25T16:14:45.983Z</time></trkpt><trkpt lat="43.09948832893474" lon="5.883067745152312"><ele>9.0</ele><time>2026-04-25T16:14:48.983Z</time></trkpt><trkpt lat="43.09945786028377" lon="5.883174823904111"><ele>9.0</ele><time>2026-04-25T16:14:51.983Z</time></trkpt><trkpt lat="43.09941241375209" lon="5.883249236104628"><ele>9.0</ele><time>2026-04-25T16:14:53.983Z</time></trkpt><trkpt lat="43.09934272606774" lon="5.883390620424229"><ele>9.0</ele><time>2026-04-25T16:14:55.983Z</time></trkpt><trkpt lat="43.099304629101354" lon="5.883483994096748"><ele>9.0</ele><time>2026-04-25T16:14:56.983Z</time></trkpt><trkpt lat="43.099263356744636" lon="5.88357950016789"><ele>9.0</ele><time>2026-04-25T16:14:57.983Z</time></trkpt><trkpt lat="43.09921885927091" lon="5.883676843513687"><ele>9.0</ele><time>2026-04-25T16:14:58.983Z</time></trkpt><trkpt lat="43.099182105881106" lon="5.883766785746043"><ele>9.0</ele><time>2026-04-25T16:14:59.983Z</time></trkpt><trkpt lat="43.0991516152824" lon="5.883849155583207"><ele>9.0</ele><time>2026-04-25T16:15:00.983Z</time></trkpt><trkpt lat="43.09910056165391" lon="5.883988946989837"><ele>9.0</ele><time>2026-04-25T16:15:02.983Z</time></trkpt><trkpt lat="43.09906592238902" lon="5.884086361853981"><ele>9.0</ele><time>2026-04-25T16:15:04.983Z</time></trkpt><trkpt lat="43.09898975514635" lon="5.884174921008655"><ele>9.0</ele><time>2026-04-25T16:15:06.983Z</time></trkpt><trkpt lat="43.098903273825854" lon="5.884224231684877"><ele>9.0</ele><time>2026-04-25T16:15:08.983Z</time></trkpt><trkpt lat="43.09881122670802" lon="5.8842215545755625"><ele>9.0</ele><time>2026-04-25T16:15:10.983Z</time></trkpt><trkpt lat="43.09874372284098" lon="5.884218234916156"><ele>9.0</ele><time>2026-04-25T16:15:12.984Z</time></trkpt><trkpt lat="43.09868060227635" lon="5.884189328576013"><ele>9.0</ele><time>2026-04-25T16:15:14.984Z</time></trkpt><trkpt lat="43.098609788013675" lon="5.884176266028708"><ele>9.0</ele><time>2026-04-25T16:15:16.984Z</time></trkpt><trkpt lat="43.09846260590068" lon="5.884149869866425"><ele>9.0</ele><time>2026-04-25T16:15:18.984Z</time></trkpt><trkpt lat="43.098351550853465" lon="5.884098735269602"><ele>9.0</ele><time>2026-04-25T16:15:19.984Z</time></trkpt><trkpt lat="43.09823709727948" lon="5.884084938848623"><ele>9.0</ele><time>2026-04-25T16:15:20.984Z</time></trkpt><trkpt lat="43.098109206714696" lon="5.884075027170224"><ele>9.0</ele><time>2026-04-25T16:15:21.984Z</time></trkpt><trkpt lat="43.097992866406614" lon="5.8840216849047415"><ele>9.0</ele><time>2026-04-25T16:15:22.984Z</time></trkpt><trkpt lat="43.09786264972359" lon="5.8839764468205935"><ele>9.0</ele><time>2026-04-25T16:15:23.984Z</time></trkpt><trkpt lat="43.09772406817584" lon="5.883932288722167"><ele>9.0</ele><time>2026-04-25T16:15:24.983Z</time></trkpt><trkpt lat="43.097576645756256" lon="5.883885314273651"><ele>9.0</ele><time>2026-04-25T16:15:25.983Z</time></trkpt><trkpt lat="43.09743539123389" lon="5.883840305102628"><ele>9.0</ele><time>2026-04-25T16:15:26.983Z</time></trkpt><trkpt lat="43.097297879382324" lon="5.8837954450861"><ele>10.333333333333332</ele><time>2026-04-25T16:15:27.983Z</time></trkpt><trkpt lat="43.09713522521166" lon="5.88374228076435"><ele>11.666666666666666</ele><time>2026-04-25T16:15:28.983Z</time></trkpt><trkpt lat="43.09698657173576" lon="5.883694565224866"><ele>13.0</ele><time>2026-04-25T16:15:29.983Z</time></trkpt><trkpt lat="43.096853815711725" lon="5.883653963504503"><ele>13.0</ele><time>2026-04-25T16:15:30.983Z</time></trkpt><trkpt lat="43.09672964669287" lon="5.883615885082557"><ele>13.0</ele><time>2026-04-25T16:15:31.983Z</time></trkpt><trkpt lat="43.09660714242832" lon="5.883578355506115"><ele>13.0</ele><time>2026-04-25T16:15:32.983Z</time></trkpt><trkpt lat="43.0964866090167" lon="5.883539686158508"><ele>13.0</ele><time>2026-04-25T16:15:33.983Z</time></trkpt><trkpt lat="43.096372504802666" lon="5.883503181011317"><ele>13.2</ele><time>2026-04-25T16:15:34.983Z</time></trkpt><trkpt lat="43.096264474845405" lon="5.883465296807461"><ele>13.4</ele><time>2026-04-25T16:15:35.983Z</time></trkpt><trkpt lat="43.09615454068596" lon="5.88342718394408"><ele>13.599999999999998</ele><time>2026-04-25T16:15:36.983Z</time></trkpt><trkpt lat="43.09605198952486" lon="5.883390493596735"><ele>13.799999999999999</ele><time>2026-04-25T16:15:37.983Z</time></trkpt><trkpt lat="43.09595097396149" lon="5.88334751895387"><ele>14.0</ele><time>2026-04-25T16:15:38.983Z</time></trkpt><trkpt lat="43.095822100744634" lon="5.883295737737268"><ele>14.5</ele><time>2026-04-25T16:15:39.983Z</time></trkpt><trkpt lat="43.0956852873667" lon="5.88325046804274"><ele>15.0</ele><time>2026-04-25T16:15:40.983Z</time></trkpt><trkpt lat="43.09553630937033" lon="5.883204000680605"><ele>15.5</ele><time>2026-04-25T16:15:41.983Z</time></trkpt><trkpt lat="43.0954024127733" lon="5.883162769499812"><ele>16.0</ele><time>2026-04-25T16:15:42.983Z</time></trkpt><trkpt lat="43.09525666480168" lon="5.883127387271407"><ele>16.0</ele><time>2026-04-25T16:15:43.983Z</time></trkpt><trkpt lat="43.09512280498996" lon="5.8831087285081605"><ele>16.0</ele><time>2026-04-25T16:15:44.983Z</time></trkpt><trkpt lat="43.09500181194509" lon="5.883083501440921"><ele>16.0</ele><time>2026-04-25T16:15:45.983Z</time></trkpt><trkpt lat="43.094897647568324" lon="5.883057035710293"><ele>16.0</ele><time>2026-04-25T16:15:46.983Z</time></trkpt><trkpt lat="43.09480348773189" lon="5.883035695997699"><ele>16.5</ele><time>2026-04-25T16:15:47.983Z</time></trkpt><trkpt lat="43.09472328917885" lon="5.883014584664486"><ele>17.0</ele><time>2026-04-25T16:15:48.983Z</time></trkpt><trkpt lat="43.0946524674922" lon="5.882972427113958"><ele>17.5</ele><time>2026-04-25T16:15:49.983Z</time></trkpt><trkpt lat="43.09458832415687" lon="5.882931183897072"><ele>18.0</ele><time>2026-04-25T16:15:50.983Z</time></trkpt><trkpt lat="43.09452189082394" lon="5.882877705852766"><ele>18.5</ele><time>2026-04-25T16:15:51.983Z</time></trkpt><trkpt lat="43.09444817691563" lon="5.882800447171752"><ele>19.0</ele><time>2026-04-25T16:15:52.983Z</time></trkpt><trkpt lat="43.094372648238064" lon="5.8827195074533405"><ele>19.0</ele><time>2026-04-25T16:15:53.983Z</time></trkpt><trkpt lat="43.094308890724584" lon="5.882639711771679"><ele>19.0</ele><time>2026-04-25T16:15:54.983Z</time></trkpt><trkpt lat="43.09424068765313" lon="5.882550278525148"><ele>19.0</ele><time>2026-04-25T16:15:55.983Z</time></trkpt><trkpt lat="43.0941865238072" lon="5.882479533248587"><ele>19.0</ele><time>2026-04-25T16:15:56.983Z</time></trkpt><trkpt lat="43.09413579268226" lon="5.882389254785702"><ele>19.0</ele><time>2026-04-25T16:15:58.983Z</time></trkpt><trkpt lat="43.094046266195285" lon="5.8822954521698785"><ele>22.0</ele><time>2026-04-25T16:16:02.983Z</time></trkpt><trkpt lat="43.09398232023561" lon="5.88220897818808"><ele>25.0</ele><time>2026-04-25T16:16:04.983Z</time></trkpt><trkpt lat="43.09386919911504" lon="5.882062523902882"><ele>28.0</ele><time>2026-04-25T16:16:06.983Z</time></trkpt><trkpt lat="43.09378674545051" lon="5.881947673042124"><ele>31.0</ele><time>2026-04-25T16:16:07.983Z</time></trkpt><trkpt lat="43.09367947805767" lon="5.881774437328539"><ele>30.75</ele><time>2026-04-25T16:16:08.983Z</time></trkpt><trkpt lat="43.09357763858784" lon="5.8815909900794505"><ele>30.5</ele><time>2026-04-25T16:16:09.983Z</time></trkpt><trkpt lat="43.09348920343017" lon="5.881435021681403"><ele>30.25</ele><time>2026-04-25T16:16:10.983Z</time></trkpt><trkpt lat="43.09341598853796" lon="5.881300156295649"><ele>30.0</ele><time>2026-04-25T16:16:11.983Z</time></trkpt><trkpt lat="43.09335395042398" lon="5.881185353146763"><ele>30.0</ele><time>2026-04-25T16:16:12.983Z</time></trkpt><trkpt lat="43.09330236663238" lon="5.881102915809243"><ele>30.0</ele><time>2026-04-25T16:16:13.983Z</time></trkpt><trkpt lat="43.093219403006024" lon="5.880991565021018"><ele>30.0</ele><time>2026-04-25T16:16:15.983Z</time></trkpt><trkpt lat="43.09314289778346" lon="5.880921571024432"><ele>30.0</ele><time>2026-04-25T16:16:17.983Z</time></trkpt><trkpt lat="43.093086564161645" lon="5.8808771577786345"><ele>30.0</ele><time>2026-04-25T16:16:19.983Z</time></trkpt><trkpt lat="43.09302711384584" lon="5.880840247892718"><ele>30.0</ele><time>2026-04-25T16:16:21.983Z</time></trkpt><trkpt lat="43.09296306690543" lon="5.880790718589455"><ele>30.25</ele><time>2026-04-25T16:16:32.983Z</time></trkpt><trkpt lat="43.09285484787993" lon="5.880723462010566"><ele>30.5</ele><time>2026-04-25T16:16:50.983Z</time></trkpt><trkpt lat="43.0927686343275" lon="5.88068222189785"><ele>30.75</ele><time>2026-04-25T16:16:51.983Z</time></trkpt><trkpt lat="43.09266033185834" lon="5.880651782837648"><ele>31.0</ele><time>2026-04-25T16:16:52.983Z</time></trkpt><trkpt lat="43.092522811773655" lon="5.880640345918757"><ele>31.333333333333336</ele><time>2026-04-25T16:16:53.983Z</time></trkpt><trkpt lat="43.0923781352525" lon="5.88064574159954"><ele>31.666666666666664</ele><time>2026-04-25T16:16:54.983Z</time></trkpt><trkpt lat="43.09222241535921" lon="5.880687308336284"><ele>32.0</ele><time>2026-04-25T16:16:55.983Z</time></trkpt><trkpt lat="43.09205894005243" lon="5.880769726411368"><ele>32.0</ele><time>2026-04-25T16:16:56.983Z</time></trkpt><trkpt lat="43.09191007902791" lon="5.880876095901583"><ele>32.0</ele><time>2026-04-25T16:16:57.983Z</time></trkpt><trkpt lat="43.091762135185704" lon="5.88096098125444"><ele>32.0</ele><time>2026-04-25T16:16:58.983Z</time></trkpt><trkpt lat="43.09161946412984" lon="5.881045095054204"><ele>32.0</ele><time>2026-04-25T16:16:59.983Z</time></trkpt><trkpt lat="43.09147219630082" lon="5.881119452766627"><ele>32.0</ele><time>2026-04-25T16:17:00.983Z</time></trkpt><trkpt lat="43.09132697072324" lon="5.881191485601416"><ele>32.0</ele><time>2026-04-25T16:17:01.983Z</time></trkpt><trkpt lat="43.091178708277496" lon="5.8812621897095445"><ele>32.0</ele><time>2026-04-25T16:17:02.983Z</time></trkpt><trkpt lat="43.09101960719229" lon="5.881300224002564"><ele>32.0</ele><time>2026-04-25T16:17:03.983Z</time></trkpt><trkpt lat="43.09085973049031" lon="5.881314596042166"><ele>32.0</ele><time>2026-04-25T16:17:04.983Z</time></trkpt><trkpt lat="43.09071143429587" lon="5.881319507782118"><ele>32.0</ele><time>2026-04-25T16:17:05.983Z</time></trkpt><trkpt lat="43.090569578635986" lon="5.881318388547903"><ele>32.0</ele><time>2026-04-25T16:17:06.983Z</time></trkpt><trkpt lat="43.090435728584865" lon="5.881313606492797"><ele>32.0</ele><time>2026-04-25T16:17:07.983Z</time></trkpt><trkpt lat="43.09030225545473" lon="5.881316662187952"><ele>32.0</ele><time>2026-04-25T16:17:08.983Z</time></trkpt><trkpt lat="43.090166928895556" lon="5.8813249450034215"><ele>32.0</ele><time>2026-04-25T16:17:09.983Z</time></trkpt><trkpt lat="43.090021465191086" lon="5.881336581392157"><ele>32.0</ele><time>2026-04-25T16:17:10.983Z</time></trkpt><trkpt lat="43.08986974670569" lon="5.88134993811061"><ele>32.0</ele><time>2026-04-25T16:17:11.983Z</time></trkpt><trkpt lat="43.08971613812334" lon="5.881368077586137"><ele>30.333333333333332</ele><time>2026-04-25T16:17:12.983Z</time></trkpt><trkpt lat="43.08955012882438" lon="5.88138023765761"><ele>28.666666666666664</ele><time>2026-04-25T16:17:13.983Z</time></trkpt><trkpt lat="43.08937773001598" lon="5.88138949049297"><ele>27.0</ele><time>2026-04-25T16:17:14.983Z</time></trkpt><trkpt lat="43.0892076098646" lon="5.8814119623542105"><ele>26.333333333333336</ele><time>2026-04-25T16:17:15.983Z</time></trkpt><trkpt lat="43.0890324485449" lon="5.881433415524029"><ele>25.666666666666668</ele><time>2026-04-25T16:17:16.983Z</time></trkpt><trkpt lat="43.08886021032917" lon="5.8814477420459434"><ele>25.0</ele><time>2026-04-25T16:17:17.983Z</time></trkpt><trkpt lat="43.088691102650074" lon="5.881460892667998"><ele>25.0</ele><time>2026-04-25T16:17:18.985Z</time></trkpt><trkpt lat="43.0885303410512" lon="5.881473401978834"><ele>25.0</ele><time>2026-04-25T16:17:19.984Z</time></trkpt><trkpt lat="43.08837947529294" lon="5.881480491124226"><ele>25.0</ele><time>2026-04-25T16:17:20.984Z</time></trkpt><trkpt lat="43.08823168577281" lon="5.8814819305486274"><ele>24.25</ele><time>2026-04-25T16:17:21.984Z</time></trkpt><trkpt lat="43.088094127952125" lon="5.881482836810409"><ele>23.5</ele><time>2026-04-25T16:17:22.984Z</time></trkpt><trkpt lat="43.08796157267299" lon="5.881474154859458"><ele>22.75</ele><time>2026-04-25T16:17:23.984Z</time></trkpt><trkpt lat="43.087826230261655" lon="5.881467227313733"><ele>22.0</ele><time>2026-04-25T16:17:24.984Z</time></trkpt><trkpt lat="43.08768017739947" lon="5.881402522791165"><ele>22.0</ele><time>2026-04-25T16:17:25.984Z</time></trkpt><trkpt lat="43.08752960868905" lon="5.881304063847421"><ele>22.0</ele><time>2026-04-25T16:17:26.984Z</time></trkpt><trkpt lat="43.08739538750762" lon="5.881193889915887"><ele>22.0</ele><time>2026-04-25T16:17:27.984Z</time></trkpt><trkpt lat="43.08727150624525" lon="5.881076903232353"><ele>21.5</ele><time>2026-04-25T16:17:28.984Z</time></trkpt><trkpt lat="43.08715431209857" lon="5.880976452105053"><ele>21.0</ele><time>2026-04-25T16:17:29.984Z</time></trkpt><trkpt lat="43.08703683916097" lon="5.880888110786179"><ele>20.5</ele><time>2026-04-25T16:17:30.984Z</time></trkpt><trkpt lat="43.08692179703299" lon="5.880804521017677"><ele>20.0</ele><time>2026-04-25T16:17:31.984Z</time></trkpt><trkpt lat="43.08681135561045" lon="5.880738805234839"><ele>20.0</ele><time>2026-04-25T16:17:32.984Z</time></trkpt><trkpt lat="43.086709009724565" lon="5.880715097083982"><ele>20.0</ele><time>2026-04-25T16:17:33.984Z</time></trkpt><trkpt lat="43.08661373225453" lon="5.8807186810504195"><ele>20.0</ele><time>2026-04-25T16:17:34.984Z</time></trkpt><trkpt lat="43.08653484660689" lon="5.880720010702469"><ele>20.0</ele><time>2026-04-25T16:17:35.984Z</time></trkpt><trkpt lat="43.08646716917785" lon="5.880731044777369"><ele>20.0</ele><time>2026-04-25T16:17:36.984Z</time></trkpt><trkpt lat="43.08640115854202" lon="5.880742222032168"><ele>20.0</ele><time>2026-04-25T16:17:37.984Z</time></trkpt><trkpt lat="43.08633453031052" lon="5.880764985154482"><ele>19.6</ele><time>2026-04-25T16:17:38.984Z</time></trkpt><trkpt lat="43.086266450314284" lon="5.880793935898619"><ele>19.2</ele><time>2026-04-25T16:17:39.984Z</time></trkpt><trkpt lat="43.086182224175154" lon="5.880837638233619"><ele>18.8</ele><time>2026-04-25T16:17:40.984Z</time></trkpt><trkpt lat="43.086053732395335" lon="5.880881784366606"><ele>18.4</ele><time>2026-04-25T16:17:41.984Z</time></trkpt><trkpt lat="43.08591129035288" lon="5.880909813958382"><ele>18.0</ele><time>2026-04-25T16:17:42.984Z</time></trkpt><trkpt lat="43.08579030230937" lon="5.880938043205012"><ele>17.8</ele><time>2026-04-25T16:17:43.984Z</time></trkpt><trkpt lat="43.085684570921" lon="5.880976009279557"><ele>17.6</ele><time>2026-04-25T16:17:44.984Z</time></trkpt><trkpt lat="43.085582199427456" lon="5.881011064522944"><ele>17.4</ele><time>2026-04-25T16:17:45.984Z</time></trkpt><trkpt lat="43.085477531700896" lon="5.8810467581223635"><ele>17.2</ele><time>2026-04-25T16:17:46.984Z</time></trkpt><trkpt lat="43.08536822874034" lon="5.881076601723507"><ele>17.0</ele><time>2026-04-25T16:17:47.984Z</time></trkpt><trkpt lat="43.085255675703166" lon="5.881105334886726"><ele>17.0</ele><time>2026-04-25T16:17:48.984Z</time></trkpt><trkpt lat="43.08516085426287" lon="5.88113178033611"><ele>17.0</ele><time>2026-04-25T16:17:49.984Z</time></trkpt><trkpt lat="43.085071031538284" lon="5.881158904867283"><ele>17.0</ele><time>2026-04-25T16:17:50.984Z</time></trkpt><trkpt lat="43.08499596584407" lon="5.881187885320057"><ele>17.0</ele><time>2026-04-25T16:17:51.984Z</time></trkpt><trkpt lat="43.084905437748" lon="5.881215239571947"><ele>17.0</ele><time>2026-04-25T16:17:52.984Z</time></trkpt><trkpt lat="43.08478437006459" lon="5.881251598238467"><ele>17.166666666666668</ele><time>2026-04-25T16:17:53.984Z</time></trkpt><trkpt lat="43.084684836764964" lon="5.881282369476827"><ele>17.333333333333336</ele><time>2026-04-25T16:17:54.984Z</time></trkpt><trkpt lat="43.084592094376745" lon="5.881304729388358"><ele>17.5</ele><time>2026-04-25T16:17:55.984Z</time></trkpt><trkpt lat="43.08450837201091" lon="5.881328603213252"><ele>17.666666666666668</ele><time>2026-04-25T16:17:56.984Z</time></trkpt><trkpt lat="43.084431322443784" lon="5.881353494757778"><ele>17.833333333333332</ele><time>2026-04-25T16:17:57.984Z</time></trkpt><trkpt lat="43.084363870109534" lon="5.881368460361525"><ele>18.0</ele><time>2026-04-25T16:17:58.984Z</time></trkpt><trkpt lat="43.08429756119835" lon="5.8813857715578575"><ele>18.0</ele><time>2026-04-25T16:17:59.984Z</time></trkpt><trkpt lat="43.0842125255221" lon="5.881416086746547"><ele>18.0</ele><time>2026-04-25T16:18:00.984Z</time></trkpt><trkpt lat="43.08411332660423" lon="5.881467690545784"><ele>18.0</ele><time>2026-04-25T16:18:01.984Z</time></trkpt><trkpt lat="43.08399708640409" lon="5.881517647714061"><ele>18.0</ele><time>2026-04-25T16:18:02.984Z</time></trkpt><trkpt lat="43.0838513760286" lon="5.881562946694831"><ele>17.333333333333332</ele><time>2026-04-25T16:18:03.984Z</time></trkpt><trkpt lat="43.08368140994971" lon="5.881606875477733"><ele>16.666666666666664</ele><time>2026-04-25T16:18:04.984Z</time></trkpt><trkpt lat="43.08353002604872" lon="5.88163860361357"><ele>16.0</ele><time>2026-04-25T16:18:05.984Z</time></trkpt><trkpt lat="43.08339905708377" lon="5.881676981785406"><ele>16.0</ele><time>2026-04-25T16:18:06.984Z</time></trkpt><trkpt lat="43.083279840976935" lon="5.881714475379718"><ele>16.0</ele><time>2026-04-25T16:18:07.984Z</time></trkpt><trkpt lat="43.08317095166909" lon="5.881741231996091"><ele>16.0</ele><time>2026-04-25T16:18:08.984Z</time></trkpt><trkpt lat="43.08306688984459" lon="5.881763429795516"><ele>16.0</ele><time>2026-04-25T16:18:09.984Z</time></trkpt><trkpt lat="43.082980502433514" lon="5.881778676986895"><ele>16.0</ele><time>2026-04-25T16:18:10.983Z</time></trkpt><trkpt lat="43.082910921156" lon="5.881796642180246"><ele>15.666666666666666</ele><time>2026-04-25T16:18:11.983Z</time></trkpt><trkpt lat="43.082803334005106" lon="5.88182927503414"><ele>15.333333333333332</ele><time>2026-04-25T16:18:13.983Z</time></trkpt><trkpt lat="43.08273843637575" lon="5.881857516123282"><ele>15.0</ele><time>2026-04-25T16:18:15.983Z</time></trkpt><trkpt lat="43.082673974863106" lon="5.88187213390744"><ele>14.666666666666668</ele><time>2026-04-25T16:18:17.983Z</time></trkpt><trkpt lat="43.08260750908563" lon="5.881886925234557"><ele>14.333333333333334</ele><time>2026-04-25T16:18:25.983Z</time></trkpt><trkpt lat="43.08250269607924" lon="5.881855931960003"><ele>14.0</ele><time>2026-04-25T16:18:29.983Z</time></trkpt><trkpt lat="43.08243670335532" lon="5.881806166582814"><ele>14.2</ele><time>2026-04-25T16:18:30.983Z</time></trkpt><trkpt lat="43.082364983306384" lon="5.881821997280388"><ele>14.399999999999999</ele><time>2026-04-25T16:18:31.983Z</time></trkpt><trkpt lat="43.08229715599807" lon="5.881920462879396"><ele>14.6</ele><time>2026-04-25T16:18:32.983Z</time></trkpt><trkpt lat="43.08226257068349" lon="5.882073189256122"><ele>14.8</ele><time>2026-04-25T16:18:33.983Z</time></trkpt><trkpt lat="43.08224633670814" lon="5.882239814873258"><ele>15.0</ele><time>2026-04-25T16:18:34.983Z</time></trkpt><trkpt lat="43.082187118883716" lon="5.8823618888907925"><ele>15.0</ele><time>2026-04-25T16:18:35.983Z</time></trkpt><trkpt lat="43.08215919780925" lon="5.882547044273918"><ele>15.0</ele><time>2026-04-25T16:18:36.983Z</time></trkpt><trkpt lat="43.082118250497906" lon="5.8827193108809634"><ele>15.0</ele><time>2026-04-25T16:18:37.983Z</time></trkpt><trkpt lat="43.08207078282004" lon="5.88289057965913"><ele>15.0</ele><time>2026-04-25T16:18:38.983Z</time></trkpt><trkpt lat="43.08203421081954" lon="5.883029109104511"><ele>14.8</ele><time>2026-04-25T16:18:39.983Z</time></trkpt><trkpt lat="43.08199436958718" lon="5.883145196441974"><ele>14.6</ele><time>2026-04-25T16:18:40.983Z</time></trkpt><trkpt lat="43.081965808086885" lon="5.883254277803887"><ele>14.399999999999999</ele><time>2026-04-25T16:18:41.983Z</time></trkpt><trkpt lat="43.0818972349436" lon="5.883358583862602"><ele>14.2</ele><time>2026-04-25T16:18:42.983Z</time></trkpt><trkpt lat="43.081851455968284" lon="5.883516816171497"><ele>14.0</ele><time>2026-04-25T16:18:43.983Z</time></trkpt><trkpt lat="43.08180527172297" lon="5.883677887537954"><ele>13.799999999999999</ele><time>2026-04-25T16:18:44.983Z</time></trkpt><trkpt lat="43.08176305950576" lon="5.883825106364065"><ele>13.599999999999998</ele><time>2026-04-25T16:18:45.983Z</time></trkpt><trkpt lat="43.08174145696396" lon="5.883961014527162"><ele>13.4</ele><time>2026-04-25T16:18:46.983Z</time></trkpt><trkpt lat="43.08169525704228" lon="5.884080514016923"><ele>13.2</ele><time>2026-04-25T16:18:47.983Z</time></trkpt><trkpt lat="43.08166218562999" lon="5.884190705731842"><ele>13.0</ele><time>2026-04-25T16:18:48.983Z</time></trkpt><trkpt lat="43.08162788536971" lon="5.884304557173608"><ele>12.999999999999998</ele><time>2026-04-25T16:18:49.983Z</time></trkpt><trkpt lat="43.08160439451125" lon="5.884397118852445"><ele>13.0</ele><time>2026-04-25T16:18:50.983Z</time></trkpt><trkpt lat="43.08156376905009" lon="5.884549422094773"><ele>13.0</ele><time>2026-04-25T16:18:52.983Z</time></trkpt><trkpt lat="43.081536867509385" lon="5.884658079345132"><ele>13.0</ele><time>2026-04-25T16:18:53.983Z</time></trkpt><trkpt lat="43.08151134941496" lon="5.884750800316104"><ele>12.999999999999998</ele><time>2026-04-25T16:18:54.983Z</time></trkpt><trkpt lat="43.08148257307317" lon="5.884855509849899"><ele>13.0</ele><time>2026-04-25T16:18:55.983Z</time></trkpt><trkpt lat="43.0814577956952" lon="5.884941753750807"><ele>12.833333333333332</ele><time>2026-04-25T16:18:56.983Z</time></trkpt><trkpt lat="43.081434469278484" lon="5.885038301503377"><ele>12.666666666666666</ele><time>2026-04-25T16:18:58.983Z</time></trkpt><trkpt lat="43.081410027456066" lon="5.885139154354497"><ele>12.5</ele><time>2026-04-25T16:19:00.983Z</time></trkpt><trkpt lat="43.081385806409315" lon="5.885242188278281"><ele>12.333333333333332</ele><time>2026-04-25T16:19:04.983Z</time></trkpt><trkpt lat="43.08136862167917" lon="5.8854056319076085"><ele>12.166666666666666</ele><time>2026-04-25T16:19:06.983Z</time></trkpt><trkpt lat="43.08136433048518" lon="5.885497031509445"><ele>12.0</ele><time>2026-04-25T16:19:07.983Z</time></trkpt><trkpt lat="43.08135897404928" lon="5.885627135186895"><ele>12.0</ele><time>2026-04-25T16:19:09.983Z</time></trkpt><trkpt lat="43.081299720973654" lon="5.885771696148059"><ele>12.0</ele><time>2026-04-25T16:19:11.983Z</time></trkpt><trkpt lat="43.0812316747938" lon="5.885803252659646"><ele>12.0</ele><time>2026-04-25T16:19:12.983Z</time></trkpt><trkpt lat="43.08114272943847" lon="5.885811756015216"><ele>12.0</ele><time>2026-04-25T16:19:13.983Z</time></trkpt><trkpt lat="43.08102147163157" lon="5.885799203937509"><ele>12.0</ele><time>2026-04-25T16:19:14.983Z</time></trkpt><trkpt lat="43.08089050634108" lon="5.88578493745235"><ele>11.75</ele><time>2026-04-25T16:19:15.983Z</time></trkpt><trkpt lat="43.0807623960116" lon="5.885777716139255"><ele>11.5</ele><time>2026-04-25T16:19:16.983Z</time></trkpt><trkpt lat="43.08064580249538" lon="5.885772587714753"><ele>11.25</ele><time>2026-04-25T16:19:17.983Z</time></trkpt><trkpt lat="43.080531313717614" lon="5.885768161276909"><ele>11.0</ele><time>2026-04-25T16:19:18.983Z</time></trkpt><trkpt lat="43.08041383471665" lon="5.885761639534954"><ele>11.0</ele><time>2026-04-25T16:19:19.983Z</time></trkpt><trkpt lat="43.08029575211639" lon="5.885758276127618"><ele>11.0</ele><time>2026-04-25T16:19:20.983Z</time></trkpt><trkpt lat="43.08018123430886" lon="5.885750335554399"><ele>11.0</ele><time>2026-04-25T16:19:21.983Z</time></trkpt><trkpt lat="43.080062273385465" lon="5.885739346249272"><ele>11.0</ele><time>2026-04-25T16:19:22.983Z</time></trkpt><trkpt lat="43.07995097097711" lon="5.8857295327401"><ele>10.666666666666666</ele><time>2026-04-25T16:19:23.983Z</time></trkpt><trkpt lat="43.079848175960194" lon="5.885723985455078"><ele>10.333333333333332</ele><time>2026-04-25T16:19:24.985Z</time></trkpt><trkpt lat="43.079755267143156" lon="5.885720295745075"><ele>10.0</ele><time>2026-04-25T16:19:25.984Z</time></trkpt><trkpt lat="43.07967183740916" lon="5.88571221838413"><ele>9.666666666666666</ele><time>2026-04-25T16:19:26.984Z</time></trkpt><trkpt lat="43.07960500968178" lon="5.885708320270524"><ele>9.333333333333334</ele><time>2026-04-25T16:19:27.984Z</time></trkpt><trkpt lat="43.079513182088206" lon="5.8857007661976555"><ele>9.0</ele><time>2026-04-25T16:19:29.984Z</time></trkpt><trkpt lat="43.07942954147238" lon="5.885687512463442"><ele>9.0</ele><time>2026-04-25T16:19:33.984Z</time></trkpt><trkpt lat="43.079362070870026" lon="5.885689774681882"><ele>9.0</ele><time>2026-04-25T16:19:34.985Z</time></trkpt><trkpt lat="43.07927171076973" lon="5.885697483540596"><ele>9.0</ele><time>2026-04-25T16:19:35.985Z</time></trkpt><trkpt lat="43.07913728747464" lon="5.885683717840626"><ele>9.0</ele><time>2026-04-25T16:19:36.984Z</time></trkpt><trkpt lat="43.07900536608133" lon="5.885673821832432"><ele>9.0</ele><time>2026-04-25T16:19:37.984Z</time></trkpt><trkpt lat="43.07887722110932" lon="5.885669425226883"><ele>8.75</ele><time>2026-04-25T16:19:38.984Z</time></trkpt><trkpt lat="43.07874821588359" lon="5.885659885333004"><ele>8.5</ele><time>2026-04-25T16:19:39.984Z</time></trkpt><trkpt lat="43.078617045113575" lon="5.885657795693054"><ele>8.25</ele><time>2026-04-25T16:19:40.984Z</time></trkpt><trkpt lat="43.07847562372592" lon="5.885634985445244"><ele>8.0</ele><time>2026-04-25T16:19:41.984Z</time></trkpt><trkpt lat="43.078331956801975" lon="5.885626036738671"><ele>7.75</ele><time>2026-04-25T16:19:42.984Z</time></trkpt><trkpt lat="43.078197313825605" lon="5.885614176809511"><ele>7.5</ele><time>2026-04-25T16:19:43.984Z</time></trkpt><trkpt lat="43.0780788552379" lon="5.885605468067506"><ele>7.25</ele><time>2026-04-25T16:19:44.984Z</time></trkpt><trkpt lat="43.07796820735632" lon="5.885596251774549"><ele>7.0</ele><time>2026-04-25T16:19:45.984Z</time></trkpt><trkpt lat="43.07786685534876" lon="5.885584964430081"><ele>7.000000000000001</ele><time>2026-04-25T16:19:46.984Z</time></trkpt><trkpt lat="43.077781337567934" lon="5.885577505607501"><ele>7.0</ele><time>2026-04-25T16:19:47.984Z</time></trkpt><trkpt lat="43.07771139664416" lon="5.885569369644681"><ele>7.0</ele><time>2026-04-25T16:19:48.984Z</time></trkpt><trkpt lat="43.07763168303092" lon="5.885546421496144"><ele>7.0</ele><time>2026-04-25T16:19:50.984Z</time></trkpt><trkpt lat="43.07755099590106" lon="5.885547310697614"><ele>7.000000000000001</ele><time>2026-04-25T16:19:52.984Z</time></trkpt><trkpt lat="43.07748341519777" lon="5.88566801626697"><ele>7.0</ele><time>2026-04-25T16:19:54.984Z</time></trkpt><trkpt lat="43.07742968924003" lon="5.885795035726443"><ele>6.75</ele><time>2026-04-25T16:19:56.984Z</time></trkpt><trkpt lat="43.077359106923055" lon="5.885917930951805"><ele>6.5</ele><time>2026-04-25T16:19:58.984Z</time></trkpt><trkpt lat="43.07728294097103" lon="5.88604752255258"><ele>6.25</ele><time>2026-04-25T16:20:00.984Z</time></trkpt><trkpt lat="43.077234037056" lon="5.886134512106752"><ele>6.0</ele><time>2026-04-25T16:20:02.984Z</time></trkpt><trkpt lat="43.07744994196808" lon="5.886083572397454"><ele>6.0</ele><time>2026-04-25T16:20:38.984Z</time></trkpt><trkpt lat="43.077513579482336" lon="5.886101979768166"><ele>6.0</ele><time>2026-04-25T16:20:42.984Z</time></trkpt></trkseg></trk></gpx>